<?xml version="1.0" encoding="UTF-8" standalone="no" ?>
<gpx xmlns="http://www.topografix.com/GPX/1/1" xmlns:xsi="http://www.w3.org/2001/XMLSchema-instance" xsi:schemaLocation="http://www.topografix.com/GPX/1/1 http://www.topografix.com/GPX/1/1/gpx.xsd" version="1.1" creator="VisuGPX - https://www.visugpx.com">
  <metadata>
    <name>Sur l'île</name>
  </metadata>
  <trk>
    <name><![CDATA[2022 05 17 sur l'île]]></name>
    <trkseg>
      <trkpt lat="46.2081" lon="-1.51536">
        <ele>4.80224</ele>
        <time>2022-05-17T12:37:05.000Z</time>
      </trkpt>
      <trkpt lat="46.20814" lon="-1.51534">
        <ele>4.6804</ele>
        <time>2022-05-17T12:38:48.000Z</time>
      </trkpt>
      <trkpt lat="46.20837" lon="-1.51528">
        <ele>4.24794</ele>
        <time>2022-05-17T12:38:49.000Z</time>
      </trkpt>
      <trkpt lat="46.20837" lon="-1.51525">
        <ele>4.25622</ele>
        <time>2022-05-17T12:38:50.000Z</time>
      </trkpt>
      <trkpt lat="46.20838" lon="-1.5152">
        <ele>4.2798</ele>
        <time>2022-05-17T12:38:51.000Z</time>
      </trkpt>
      <trkpt lat="46.20839" lon="-1.51514">
        <ele>4.30496</ele>
        <time>2022-05-17T12:38:52.000Z</time>
      </trkpt>
      <trkpt lat="46.2084" lon="-1.51508">
        <ele>4.29342</ele>
        <time>2022-05-17T12:38:53.000Z</time>
      </trkpt>
      <trkpt lat="46.2084" lon="-1.51503">
        <ele>4.26135</ele>
        <time>2022-05-17T12:38:54.000Z</time>
      </trkpt>
      <trkpt lat="46.2084" lon="-1.51498">
        <ele>4.21993</ele>
        <time>2022-05-17T12:38:55.000Z</time>
      </trkpt>
      <trkpt lat="46.2084" lon="-1.51494">
        <ele>4.18207</ele>
        <time>2022-05-17T12:38:56.000Z</time>
      </trkpt>
      <trkpt lat="46.20839" lon="-1.51491">
        <ele>4.15366</ele>
        <time>2022-05-17T12:38:57.000Z</time>
      </trkpt>
      <trkpt lat="46.20839" lon="-1.51488">
        <ele>4.12635</ele>
        <time>2022-05-17T12:38:59.000Z</time>
      </trkpt>
      <trkpt lat="46.20839" lon="-1.51484">
        <ele>4.0987</ele>
        <time>2022-05-17T12:39:01.000Z</time>
      </trkpt>
      <trkpt lat="46.2084" lon="-1.51482">
        <ele>4.06643</ele>
        <time>2022-05-17T12:39:02.000Z</time>
      </trkpt>
      <trkpt lat="46.2084" lon="-1.51479">
        <ele>4.03042</ele>
        <time>2022-05-17T12:39:04.000Z</time>
      </trkpt>
      <trkpt lat="46.2084" lon="-1.51476">
        <ele>4.01458</ele>
        <time>2022-05-17T12:39:10.000Z</time>
      </trkpt>
      <trkpt lat="46.20839" lon="-1.51472">
        <ele>3.98938</ele>
        <time>2022-05-17T12:39:17.000Z</time>
      </trkpt>
      <trkpt lat="46.20838" lon="-1.51466">
        <ele>3.93886</ele>
        <time>2022-05-17T12:39:18.000Z</time>
      </trkpt>
      <trkpt lat="46.20837" lon="-1.51461">
        <ele>3.8797</ele>
        <time>2022-05-17T12:39:19.000Z</time>
      </trkpt>
      <trkpt lat="46.20836" lon="-1.51455">
        <ele>3.80552</ele>
        <time>2022-05-17T12:39:20.000Z</time>
      </trkpt>
      <trkpt lat="46.20836" lon="-1.5145">
        <ele>3.72959</ele>
        <time>2022-05-17T12:39:21.000Z</time>
      </trkpt>
      <trkpt lat="46.20836" lon="-1.51446">
        <ele>3.65721</ele>
        <time>2022-05-17T12:39:22.000Z</time>
      </trkpt>
      <trkpt lat="46.20837" lon="-1.51443">
        <ele>3.60066</ele>
        <time>2022-05-17T12:39:23.000Z</time>
      </trkpt>
      <trkpt lat="46.20839" lon="-1.51439">
        <ele>3.49898</ele>
        <time>2022-05-17T12:39:25.000Z</time>
      </trkpt>
      <trkpt lat="46.20842" lon="-1.51437">
        <ele>3.42569</ele>
        <time>2022-05-17T12:39:26.000Z</time>
      </trkpt>
      <trkpt lat="46.20844" lon="-1.51435">
        <ele>3.35565</ele>
        <time>2022-05-17T12:39:27.000Z</time>
      </trkpt>
      <trkpt lat="46.20846" lon="-1.51434">
        <ele>3.29531</ele>
        <time>2022-05-17T12:39:28.000Z</time>
      </trkpt>
      <trkpt lat="46.20848" lon="-1.51432">
        <ele>3.23261</ele>
        <time>2022-05-17T12:39:29.000Z</time>
      </trkpt>
      <trkpt lat="46.20851" lon="-1.51431">
        <ele>3.16916</ele>
        <time>2022-05-17T12:39:30.000Z</time>
      </trkpt>
      <trkpt lat="46.20853" lon="-1.5143">
        <ele>3.10635</ele>
        <time>2022-05-17T12:39:31.000Z</time>
      </trkpt>
      <trkpt lat="46.20856" lon="-1.51428">
        <ele>3.02649</ele>
        <time>2022-05-17T12:39:32.000Z</time>
      </trkpt>
      <trkpt lat="46.20859" lon="-1.51427">
        <ele>2.95892</ele>
        <time>2022-05-17T12:39:33.000Z</time>
      </trkpt>
      <trkpt lat="46.20862" lon="-1.51426">
        <ele>2.90246</ele>
        <time>2022-05-17T12:39:34.000Z</time>
      </trkpt>
      <trkpt lat="46.20864" lon="-1.51424">
        <ele>2.85995</ele>
        <time>2022-05-17T12:39:35.000Z</time>
      </trkpt>
      <trkpt lat="46.20866" lon="-1.51423">
        <ele>2.82909</ele>
        <time>2022-05-17T12:39:36.000Z</time>
      </trkpt>
      <trkpt lat="46.20868" lon="-1.5142">
        <ele>2.79679</ele>
        <time>2022-05-17T12:39:37.000Z</time>
      </trkpt>
      <trkpt lat="46.2087" lon="-1.51418">
        <ele>2.78075</ele>
        <time>2022-05-17T12:39:38.000Z</time>
      </trkpt>
      <trkpt lat="46.2087" lon="-1.51415">
        <ele>2.7689</ele>
        <time>2022-05-17T12:39:41.000Z</time>
      </trkpt>
      <trkpt lat="46.20868" lon="-1.51413">
        <ele>2.76642</ele>
        <time>2022-05-17T12:39:42.000Z</time>
      </trkpt>
      <trkpt lat="46.20868" lon="-1.5141">
        <ele>2.77148</ele>
        <time>2022-05-17T12:39:43.000Z</time>
      </trkpt>
      <trkpt lat="46.2087" lon="-1.51406">
        <ele>2.78851</ele>
        <time>2022-05-17T12:39:44.000Z</time>
      </trkpt>
      <trkpt lat="46.20874" lon="-1.51402">
        <ele>2.8121</ele>
        <time>2022-05-17T12:39:45.000Z</time>
      </trkpt>
      <trkpt lat="46.20877" lon="-1.51398">
        <ele>2.82885</ele>
        <time>2022-05-17T12:39:46.000Z</time>
      </trkpt>
      <trkpt lat="46.20881" lon="-1.51394">
        <ele>2.82519</ele>
        <time>2022-05-17T12:39:47.000Z</time>
      </trkpt>
      <trkpt lat="46.20886" lon="-1.51391">
        <ele>2.78831</ele>
        <time>2022-05-17T12:39:48.000Z</time>
      </trkpt>
      <trkpt lat="46.2089" lon="-1.51387">
        <ele>2.75358</ele>
        <time>2022-05-17T12:39:49.000Z</time>
      </trkpt>
      <trkpt lat="46.20909" lon="-1.51369">
        <ele>3.03608</ele>
        <time>2022-05-17T12:39:50.000Z</time>
      </trkpt>
      <trkpt lat="46.20913" lon="-1.51366">
        <ele>3.07163</ele>
        <time>2022-05-17T12:39:51.000Z</time>
      </trkpt>
      <trkpt lat="46.20915" lon="-1.51361">
        <ele>3.09289</ele>
        <time>2022-05-17T12:39:52.000Z</time>
      </trkpt>
      <trkpt lat="46.20917" lon="-1.51357">
        <ele>3.08715</ele>
        <time>2022-05-17T12:39:53.000Z</time>
      </trkpt>
      <trkpt lat="46.2092" lon="-1.51352">
        <ele>3.0609</ele>
        <time>2022-05-17T12:39:54.000Z</time>
      </trkpt>
      <trkpt lat="46.20922" lon="-1.51349">
        <ele>3.03495</ele>
        <time>2022-05-17T12:39:55.000Z</time>
      </trkpt>
      <trkpt lat="46.20924" lon="-1.51346">
        <ele>3.00253</ele>
        <time>2022-05-17T12:39:56.000Z</time>
      </trkpt>
      <trkpt lat="46.20927" lon="-1.51344">
        <ele>2.96293</ele>
        <time>2022-05-17T12:39:57.000Z</time>
      </trkpt>
      <trkpt lat="46.20928" lon="-1.51343">
        <ele>2.93304</ele>
        <time>2022-05-17T12:39:58.000Z</time>
      </trkpt>
      <trkpt lat="46.20931" lon="-1.51341">
        <ele>2.87236</ele>
        <time>2022-05-17T12:40:00.000Z</time>
      </trkpt>
      <trkpt lat="46.20935" lon="-1.51339">
        <ele>2.79363</ele>
        <time>2022-05-17T12:40:02.000Z</time>
      </trkpt>
      <trkpt lat="46.20936" lon="-1.51336">
        <ele>2.74306</ele>
        <time>2022-05-17T12:40:03.000Z</time>
      </trkpt>
      <trkpt lat="46.20938" lon="-1.51333">
        <ele>2.69252</ele>
        <time>2022-05-17T12:40:04.000Z</time>
      </trkpt>
      <trkpt lat="46.2094" lon="-1.5133">
        <ele>2.65265</ele>
        <time>2022-05-17T12:40:05.000Z</time>
      </trkpt>
      <trkpt lat="46.20942" lon="-1.51329">
        <ele>2.62859</ele>
        <time>2022-05-17T12:40:06.000Z</time>
      </trkpt>
      <trkpt lat="46.20944" lon="-1.51327">
        <ele>2.61157</ele>
        <time>2022-05-17T12:40:07.000Z</time>
      </trkpt>
      <trkpt lat="46.20947" lon="-1.51325">
        <ele>2.6089</ele>
        <time>2022-05-17T12:40:08.000Z</time>
      </trkpt>
      <trkpt lat="46.20949" lon="-1.51324">
        <ele>2.61893</ele>
        <time>2022-05-17T12:40:09.000Z</time>
      </trkpt>
      <trkpt lat="46.20951" lon="-1.51322">
        <ele>2.63628</ele>
        <time>2022-05-17T12:40:10.000Z</time>
      </trkpt>
      <trkpt lat="46.20953" lon="-1.5132">
        <ele>2.65816</ele>
        <time>2022-05-17T12:40:11.000Z</time>
      </trkpt>
      <trkpt lat="46.20955" lon="-1.51318">
        <ele>2.67313</ele>
        <time>2022-05-17T12:40:12.000Z</time>
      </trkpt>
      <trkpt lat="46.20957" lon="-1.51316">
        <ele>2.68041</ele>
        <time>2022-05-17T12:40:13.000Z</time>
      </trkpt>
      <trkpt lat="46.20958" lon="-1.51314">
        <ele>2.67714</ele>
        <time>2022-05-17T12:40:14.000Z</time>
      </trkpt>
      <trkpt lat="46.2096" lon="-1.51312">
        <ele>2.66094</ele>
        <time>2022-05-17T12:40:15.000Z</time>
      </trkpt>
      <trkpt lat="46.20963" lon="-1.5131">
        <ele>2.62114</ele>
        <time>2022-05-17T12:40:16.000Z</time>
      </trkpt>
      <trkpt lat="46.20965" lon="-1.51307">
        <ele>2.56323</ele>
        <time>2022-05-17T12:40:17.000Z</time>
      </trkpt>
      <trkpt lat="46.20967" lon="-1.51303">
        <ele>2.50411</ele>
        <time>2022-05-17T12:40:18.000Z</time>
      </trkpt>
      <trkpt lat="46.20969" lon="-1.51301">
        <ele>2.46606</ele>
        <time>2022-05-17T12:40:19.000Z</time>
      </trkpt>
      <trkpt lat="46.20972" lon="-1.51297">
        <ele>2.43105</ele>
        <time>2022-05-17T12:40:20.000Z</time>
      </trkpt>
      <trkpt lat="46.20974" lon="-1.51296">
        <ele>2.42661</ele>
        <time>2022-05-17T12:40:21.000Z</time>
      </trkpt>
      <trkpt lat="46.20976" lon="-1.51292">
        <ele>2.42237</ele>
        <time>2022-05-17T12:40:22.000Z</time>
      </trkpt>
      <trkpt lat="46.20978" lon="-1.51289">
        <ele>2.42599</ele>
        <time>2022-05-17T12:40:23.000Z</time>
      </trkpt>
      <trkpt lat="46.2098" lon="-1.51285">
        <ele>2.41578</ele>
        <time>2022-05-17T12:40:24.000Z</time>
      </trkpt>
      <trkpt lat="46.20982" lon="-1.51281">
        <ele>2.3947</ele>
        <time>2022-05-17T12:40:25.000Z</time>
      </trkpt>
      <trkpt lat="46.20984" lon="-1.51277">
        <ele>2.36485</ele>
        <time>2022-05-17T12:40:26.000Z</time>
      </trkpt>
      <trkpt lat="46.20985" lon="-1.51274">
        <ele>2.339</ele>
        <time>2022-05-17T12:40:27.000Z</time>
      </trkpt>
      <trkpt lat="46.20986" lon="-1.51271">
        <ele>2.31337</ele>
        <time>2022-05-17T12:40:28.000Z</time>
      </trkpt>
      <trkpt lat="46.20988" lon="-1.51269">
        <ele>2.30197</ele>
        <time>2022-05-17T12:40:29.000Z</time>
      </trkpt>
      <trkpt lat="46.20989" lon="-1.51264">
        <ele>2.317</ele>
        <time>2022-05-17T12:40:31.000Z</time>
      </trkpt>
      <trkpt lat="46.20989" lon="-1.51261">
        <ele>2.36769</ele>
        <time>2022-05-17T12:40:32.000Z</time>
      </trkpt>
      <trkpt lat="46.20988" lon="-1.51258">
        <ele>2.45066</ele>
        <time>2022-05-17T12:40:33.000Z</time>
      </trkpt>
      <trkpt lat="46.20986" lon="-1.51256">
        <ele>2.53742</ele>
        <time>2022-05-17T12:40:34.000Z</time>
      </trkpt>
      <trkpt lat="46.20984" lon="-1.51253">
        <ele>2.62376</ele>
        <time>2022-05-17T12:40:35.000Z</time>
      </trkpt>
      <trkpt lat="46.20983" lon="-1.51252">
        <ele>2.66437</ele>
        <time>2022-05-17T12:40:36.000Z</time>
      </trkpt>
      <trkpt lat="46.20981" lon="-1.51249">
        <ele>2.72937</ele>
        <time>2022-05-17T12:40:37.000Z</time>
      </trkpt>
      <trkpt lat="46.20979" lon="-1.51246">
        <ele>2.7929</ele>
        <time>2022-05-17T12:40:38.000Z</time>
      </trkpt>
      <trkpt lat="46.20978" lon="-1.51243">
        <ele>2.84261</ele>
        <time>2022-05-17T12:40:39.000Z</time>
      </trkpt>
      <trkpt lat="46.20976" lon="-1.51239">
        <ele>2.8568</ele>
        <time>2022-05-17T12:40:40.000Z</time>
      </trkpt>
      <trkpt lat="46.20974" lon="-1.51236">
        <ele>2.85712</ele>
        <time>2022-05-17T12:40:41.000Z</time>
      </trkpt>
      <trkpt lat="46.20973" lon="-1.51234">
        <ele>2.85095</ele>
        <time>2022-05-17T12:40:42.000Z</time>
      </trkpt>
      <trkpt lat="46.20971" lon="-1.51231">
        <ele>2.86031</ele>
        <time>2022-05-17T12:40:43.000Z</time>
      </trkpt>
      <trkpt lat="46.20969" lon="-1.51228">
        <ele>2.89512</ele>
        <time>2022-05-17T12:40:44.000Z</time>
      </trkpt>
      <trkpt lat="46.20966" lon="-1.51225">
        <ele>2.96702</ele>
        <time>2022-05-17T12:40:45.000Z</time>
      </trkpt>
      <trkpt lat="46.20964" lon="-1.51222">
        <ele>3.06159</ele>
        <time>2022-05-17T12:40:46.000Z</time>
      </trkpt>
      <trkpt lat="46.20963" lon="-1.51218">
        <ele>3.1684</ele>
        <time>2022-05-17T12:40:47.000Z</time>
      </trkpt>
      <trkpt lat="46.20962" lon="-1.51215">
        <ele>3.26404</ele>
        <time>2022-05-17T12:40:48.000Z</time>
      </trkpt>
      <trkpt lat="46.20962" lon="-1.51212">
        <ele>3.34735</ele>
        <time>2022-05-17T12:40:49.000Z</time>
      </trkpt>
      <trkpt lat="46.20961" lon="-1.5121">
        <ele>3.37382</ele>
        <time>2022-05-17T12:40:50.000Z</time>
      </trkpt>
      <trkpt lat="46.20961" lon="-1.51207">
        <ele>3.39821</ele>
        <time>2022-05-17T12:40:52.000Z</time>
      </trkpt>
      <trkpt lat="46.20962" lon="-1.51211">
        <ele>3.40052</ele>
        <time>2022-05-17T12:40:54.000Z</time>
      </trkpt>
      <trkpt lat="46.20965" lon="-1.51212">
        <ele>3.49504</ele>
        <time>2022-05-17T12:40:55.000Z</time>
      </trkpt>
      <trkpt lat="46.20968" lon="-1.51213">
        <ele>3.57111</ele>
        <time>2022-05-17T12:40:56.000Z</time>
      </trkpt>
      <trkpt lat="46.2097" lon="-1.51211">
        <ele>3.67913</ele>
        <time>2022-05-17T12:40:58.000Z</time>
      </trkpt>
      <trkpt lat="46.2097" lon="-1.51207">
        <ele>3.79633</ele>
        <time>2022-05-17T12:40:59.000Z</time>
      </trkpt>
      <trkpt lat="46.20969" lon="-1.51204">
        <ele>3.85361</ele>
        <time>2022-05-17T12:41:00.000Z</time>
      </trkpt>
      <trkpt lat="46.20967" lon="-1.512">
        <ele>3.81419</ele>
        <time>2022-05-17T12:41:01.000Z</time>
      </trkpt>
      <trkpt lat="46.20967" lon="-1.51198">
        <ele>3.71755</ele>
        <time>2022-05-17T12:41:02.000Z</time>
      </trkpt>
      <trkpt lat="46.20965" lon="-1.51196">
        <ele>3.61206</ele>
        <time>2022-05-17T12:41:07.000Z</time>
      </trkpt>
      <trkpt lat="46.20963" lon="-1.51198">
        <ele>3.59867</ele>
        <time>2022-05-17T12:41:10.000Z</time>
      </trkpt>
      <trkpt lat="46.20961" lon="-1.51198">
        <ele>3.48024</ele>
        <time>2022-05-17T12:41:13.000Z</time>
      </trkpt>
      <trkpt lat="46.20961" lon="-1.51196">
        <ele>3.36804</ele>
        <time>2022-05-17T12:41:18.000Z</time>
      </trkpt>
      <trkpt lat="46.20962" lon="-1.51194">
        <ele>3.37242</ele>
        <time>2022-05-17T12:41:20.000Z</time>
      </trkpt>
      <trkpt lat="46.20963" lon="-1.51192">
        <ele>3.29844</ele>
        <time>2022-05-17T12:41:22.000Z</time>
      </trkpt>
      <trkpt lat="46.20964" lon="-1.51189">
        <ele>3.13534</ele>
        <time>2022-05-17T12:41:28.000Z</time>
      </trkpt>
      <trkpt lat="46.20965" lon="-1.51187">
        <ele>2.88183</ele>
        <time>2022-05-17T12:41:45.000Z</time>
      </trkpt>
      <trkpt lat="46.20967" lon="-1.51186">
        <ele>2.59408</ele>
        <time>2022-05-17T12:42:07.000Z</time>
      </trkpt>
      <trkpt lat="46.20967" lon="-1.51182">
        <ele>2.16483</ele>
        <time>2022-05-17T12:42:09.000Z</time>
      </trkpt>
      <trkpt lat="46.20967" lon="-1.51179">
        <ele>1.59724</ele>
        <time>2022-05-17T12:42:11.000Z</time>
      </trkpt>
      <trkpt lat="46.20969" lon="-1.51176">
        <ele>0.92401</ele>
        <time>2022-05-17T12:42:20.000Z</time>
      </trkpt>
      <trkpt lat="46.20969" lon="-1.51172">
        <ele>0.31643</ele>
        <time>2022-05-17T12:43:15.000Z</time>
      </trkpt>
      <trkpt lat="46.20967" lon="-1.51169">
        <ele>0.42838</ele>
        <time>2022-05-17T12:43:17.000Z</time>
      </trkpt>
      <trkpt lat="46.20966" lon="-1.51167">
        <ele>0.57801</ele>
        <time>2022-05-17T12:43:19.000Z</time>
      </trkpt>
      <trkpt lat="46.20964" lon="-1.51164">
        <ele>0.84345</ele>
        <time>2022-05-17T12:43:20.000Z</time>
      </trkpt>
      <trkpt lat="46.20962" lon="-1.51162">
        <ele>1.26563</ele>
        <time>2022-05-17T12:43:21.000Z</time>
      </trkpt>
      <trkpt lat="46.2096" lon="-1.5116">
        <ele>1.61545</ele>
        <time>2022-05-17T12:43:22.000Z</time>
      </trkpt>
      <trkpt lat="46.20958" lon="-1.51157">
        <ele>1.74245</ele>
        <time>2022-05-17T12:43:23.000Z</time>
      </trkpt>
      <trkpt lat="46.20956" lon="-1.51155">
        <ele>1.78032</ele>
        <time>2022-05-17T12:43:24.000Z</time>
      </trkpt>
      <trkpt lat="46.20954" lon="-1.51152">
        <ele>1.71897</ele>
        <time>2022-05-17T12:43:25.000Z</time>
      </trkpt>
      <trkpt lat="46.20952" lon="-1.51149">
        <ele>1.41117</ele>
        <time>2022-05-17T12:43:26.000Z</time>
      </trkpt>
      <trkpt lat="46.2095" lon="-1.51146">
        <ele>1.02873</ele>
        <time>2022-05-17T12:43:27.000Z</time>
      </trkpt>
      <trkpt lat="46.20948" lon="-1.51143">
        <ele>0.79056</ele>
        <time>2022-05-17T12:43:28.000Z</time>
      </trkpt>
      <trkpt lat="46.20946" lon="-1.5114">
        <ele>0.67719</ele>
        <time>2022-05-17T12:43:29.000Z</time>
      </trkpt>
      <trkpt lat="46.20944" lon="-1.51137">
        <ele>0.82461</ele>
        <time>2022-05-17T12:43:30.000Z</time>
      </trkpt>
      <trkpt lat="46.20941" lon="-1.51136">
        <ele>1.4206</ele>
        <time>2022-05-17T12:43:32.000Z</time>
      </trkpt>
      <trkpt lat="46.20939" lon="-1.51137">
        <ele>2.03312</ele>
        <time>2022-05-17T12:43:34.000Z</time>
      </trkpt>
      <trkpt lat="46.20938" lon="-1.51135">
        <ele>2.15535</ele>
        <time>2022-05-17T12:43:43.000Z</time>
      </trkpt>
      <trkpt lat="46.20936" lon="-1.51136">
        <ele>2.49412</ele>
        <time>2022-05-17T12:43:49.000Z</time>
      </trkpt>
      <trkpt lat="46.20935" lon="-1.51138">
        <ele>2.78677</ele>
        <time>2022-05-17T12:43:50.000Z</time>
      </trkpt>
      <trkpt lat="46.20933" lon="-1.5114">
        <ele>3.05734</ele>
        <time>2022-05-17T12:43:51.000Z</time>
      </trkpt>
      <trkpt lat="46.20931" lon="-1.51142">
        <ele>3.23168</ele>
        <time>2022-05-17T12:43:52.000Z</time>
      </trkpt>
      <trkpt lat="46.20929" lon="-1.51145">
        <ele>3.28697</ele>
        <time>2022-05-17T12:43:53.000Z</time>
      </trkpt>
      <trkpt lat="46.20927" lon="-1.51148">
        <ele>3.26562</ele>
        <time>2022-05-17T12:43:54.000Z</time>
      </trkpt>
      <trkpt lat="46.20924" lon="-1.51151">
        <ele>3.18508</ele>
        <time>2022-05-17T12:43:55.000Z</time>
      </trkpt>
      <trkpt lat="46.20922" lon="-1.51154">
        <ele>3.08836</ele>
        <time>2022-05-17T12:43:56.000Z</time>
      </trkpt>
      <trkpt lat="46.2092" lon="-1.51157">
        <ele>2.99718</ele>
        <time>2022-05-17T12:43:57.000Z</time>
      </trkpt>
      <trkpt lat="46.20917" lon="-1.51161">
        <ele>2.92245</ele>
        <time>2022-05-17T12:43:58.000Z</time>
      </trkpt>
      <trkpt lat="46.20915" lon="-1.51164">
        <ele>2.88787</ele>
        <time>2022-05-17T12:43:59.000Z</time>
      </trkpt>
      <trkpt lat="46.20912" lon="-1.51167">
        <ele>2.88125</ele>
        <time>2022-05-17T12:44:00.000Z</time>
      </trkpt>
      <trkpt lat="46.20909" lon="-1.5117">
        <ele>2.88837</ele>
        <time>2022-05-17T12:44:01.000Z</time>
      </trkpt>
      <trkpt lat="46.20906" lon="-1.51174">
        <ele>2.89637</ele>
        <time>2022-05-17T12:44:02.000Z</time>
      </trkpt>
      <trkpt lat="46.20904" lon="-1.51177">
        <ele>2.90265</ele>
        <time>2022-05-17T12:44:03.000Z</time>
      </trkpt>
      <trkpt lat="46.20901" lon="-1.5118">
        <ele>2.9104</ele>
        <time>2022-05-17T12:44:04.000Z</time>
      </trkpt>
      <trkpt lat="46.20898" lon="-1.51183">
        <ele>2.91509</ele>
        <time>2022-05-17T12:44:05.000Z</time>
      </trkpt>
      <trkpt lat="46.20895" lon="-1.51186">
        <ele>2.9111</ele>
        <time>2022-05-17T12:44:06.000Z</time>
      </trkpt>
      <trkpt lat="46.20893" lon="-1.51189">
        <ele>2.90305</ele>
        <time>2022-05-17T12:44:07.000Z</time>
      </trkpt>
      <trkpt lat="46.2089" lon="-1.51192">
        <ele>2.89528</ele>
        <time>2022-05-17T12:44:08.000Z</time>
      </trkpt>
      <trkpt lat="46.20888" lon="-1.51195">
        <ele>2.89141</ele>
        <time>2022-05-17T12:44:09.000Z</time>
      </trkpt>
      <trkpt lat="46.20885" lon="-1.51197">
        <ele>2.89247</ele>
        <time>2022-05-17T12:44:10.000Z</time>
      </trkpt>
      <trkpt lat="46.20883" lon="-1.512">
        <ele>2.89495</ele>
        <time>2022-05-17T12:44:11.000Z</time>
      </trkpt>
      <trkpt lat="46.2088" lon="-1.51201">
        <ele>2.89115</ele>
        <time>2022-05-17T12:44:12.000Z</time>
      </trkpt>
      <trkpt lat="46.20878" lon="-1.51204">
        <ele>2.87982</ele>
        <time>2022-05-17T12:44:13.000Z</time>
      </trkpt>
      <trkpt lat="46.20875" lon="-1.51206">
        <ele>2.8597</ele>
        <time>2022-05-17T12:44:14.000Z</time>
      </trkpt>
      <trkpt lat="46.20873" lon="-1.51208">
        <ele>2.82885</ele>
        <time>2022-05-17T12:44:15.000Z</time>
      </trkpt>
      <trkpt lat="46.2087" lon="-1.5121">
        <ele>2.78708</ele>
        <time>2022-05-17T12:44:16.000Z</time>
      </trkpt>
      <trkpt lat="46.20867" lon="-1.51212">
        <ele>2.73596</ele>
        <time>2022-05-17T12:44:17.000Z</time>
      </trkpt>
      <trkpt lat="46.20865" lon="-1.51214">
        <ele>2.68581</ele>
        <time>2022-05-17T12:44:18.000Z</time>
      </trkpt>
      <trkpt lat="46.20862" lon="-1.51216">
        <ele>2.64269</ele>
        <time>2022-05-17T12:44:19.000Z</time>
      </trkpt>
      <trkpt lat="46.20859" lon="-1.51218">
        <ele>2.60965</ele>
        <time>2022-05-17T12:44:20.000Z</time>
      </trkpt>
      <trkpt lat="46.20857" lon="-1.51221">
        <ele>2.59013</ele>
        <time>2022-05-17T12:44:21.000Z</time>
      </trkpt>
      <trkpt lat="46.20855" lon="-1.51223">
        <ele>2.58132</ele>
        <time>2022-05-17T12:44:22.000Z</time>
      </trkpt>
      <trkpt lat="46.20853" lon="-1.51226">
        <ele>2.58067</ele>
        <time>2022-05-17T12:44:23.000Z</time>
      </trkpt>
      <trkpt lat="46.20851" lon="-1.51229">
        <ele>2.5843</ele>
        <time>2022-05-17T12:44:24.000Z</time>
      </trkpt>
      <trkpt lat="46.2085" lon="-1.51232">
        <ele>2.58825</ele>
        <time>2022-05-17T12:44:25.000Z</time>
      </trkpt>
      <trkpt lat="46.20847" lon="-1.51235">
        <ele>2.59171</ele>
        <time>2022-05-17T12:44:27.000Z</time>
      </trkpt>
      <trkpt lat="46.20846" lon="-1.51237">
        <ele>2.59239</ele>
        <time>2022-05-17T12:44:28.000Z</time>
      </trkpt>
      <trkpt lat="46.20843" lon="-1.51241">
        <ele>2.59737</ele>
        <time>2022-05-17T12:44:30.000Z</time>
      </trkpt>
      <trkpt lat="46.2084" lon="-1.51244">
        <ele>2.60531</ele>
        <time>2022-05-17T12:44:32.000Z</time>
      </trkpt>
      <trkpt lat="46.20839" lon="-1.51246">
        <ele>2.6072</ele>
        <time>2022-05-17T12:44:33.000Z</time>
      </trkpt>
      <trkpt lat="46.20835" lon="-1.51244">
        <ele>2.59871</ele>
        <time>2022-05-17T12:44:35.000Z</time>
      </trkpt>
      <trkpt lat="46.20834" lon="-1.51242">
        <ele>2.59489</ele>
        <time>2022-05-17T12:44:36.000Z</time>
      </trkpt>
      <trkpt lat="46.20831" lon="-1.5124">
        <ele>2.59762</ele>
        <time>2022-05-17T12:44:37.000Z</time>
      </trkpt>
      <trkpt lat="46.20829" lon="-1.51238">
        <ele>2.6073</ele>
        <time>2022-05-17T12:44:38.000Z</time>
      </trkpt>
      <trkpt lat="46.20828" lon="-1.51236">
        <ele>2.61959</ele>
        <time>2022-05-17T12:44:39.000Z</time>
      </trkpt>
      <trkpt lat="46.20826" lon="-1.51234">
        <ele>2.63359</ele>
        <time>2022-05-17T12:44:40.000Z</time>
      </trkpt>
      <trkpt lat="46.20823" lon="-1.51232">
        <ele>2.655</ele>
        <time>2022-05-17T12:44:42.000Z</time>
      </trkpt>
      <trkpt lat="46.20822" lon="-1.51229">
        <ele>2.66445</ele>
        <time>2022-05-17T12:44:43.000Z</time>
      </trkpt>
      <trkpt lat="46.20821" lon="-1.51227">
        <ele>2.6734</ele>
        <time>2022-05-17T12:44:44.000Z</time>
      </trkpt>
      <trkpt lat="46.20819" lon="-1.51225">
        <ele>2.67688</ele>
        <time>2022-05-17T12:44:45.000Z</time>
      </trkpt>
      <trkpt lat="46.20818" lon="-1.51221">
        <ele>2.67141</ele>
        <time>2022-05-17T12:44:46.000Z</time>
      </trkpt>
      <trkpt lat="46.20817" lon="-1.51218">
        <ele>2.66031</ele>
        <time>2022-05-17T12:44:47.000Z</time>
      </trkpt>
      <trkpt lat="46.20816" lon="-1.51215">
        <ele>2.64481</ele>
        <time>2022-05-17T12:44:48.000Z</time>
      </trkpt>
      <trkpt lat="46.20815" lon="-1.51213">
        <ele>2.62705</ele>
        <time>2022-05-17T12:44:50.000Z</time>
      </trkpt>
      <trkpt lat="46.20817" lon="-1.51215">
        <ele>2.63686</ele>
        <time>2022-05-17T12:44:54.000Z</time>
      </trkpt>
      <trkpt lat="46.20817" lon="-1.51218">
        <ele>2.66205</ele>
        <time>2022-05-17T12:44:55.000Z</time>
      </trkpt>
      <trkpt lat="46.20815" lon="-1.5122">
        <ele>2.68416</ele>
        <time>2022-05-17T12:44:56.000Z</time>
      </trkpt>
      <trkpt lat="46.20813" lon="-1.51221">
        <ele>2.69558</ele>
        <time>2022-05-17T12:44:57.000Z</time>
      </trkpt>
      <trkpt lat="46.2081" lon="-1.51222">
        <ele>2.69467</ele>
        <time>2022-05-17T12:44:58.000Z</time>
      </trkpt>
      <trkpt lat="46.20808" lon="-1.51224">
        <ele>2.68661</ele>
        <time>2022-05-17T12:44:59.000Z</time>
      </trkpt>
      <trkpt lat="46.20806" lon="-1.51225">
        <ele>2.6679</ele>
        <time>2022-05-17T12:45:00.000Z</time>
      </trkpt>
      <trkpt lat="46.20803" lon="-1.51227">
        <ele>2.63077</ele>
        <time>2022-05-17T12:45:01.000Z</time>
      </trkpt>
      <trkpt lat="46.208" lon="-1.51228">
        <ele>2.5911</ele>
        <time>2022-05-17T12:45:02.000Z</time>
      </trkpt>
      <trkpt lat="46.20798" lon="-1.51228">
        <ele>2.55805</ele>
        <time>2022-05-17T12:45:03.000Z</time>
      </trkpt>
      <trkpt lat="46.20796" lon="-1.51229">
        <ele>2.53628</ele>
        <time>2022-05-17T12:45:04.000Z</time>
      </trkpt>
      <trkpt lat="46.20793" lon="-1.5123">
        <ele>2.51024</ele>
        <time>2022-05-17T12:45:06.000Z</time>
      </trkpt>
      <trkpt lat="46.20791" lon="-1.51233">
        <ele>2.49388</ele>
        <time>2022-05-17T12:45:08.000Z</time>
      </trkpt>
      <trkpt lat="46.20788" lon="-1.51236">
        <ele>2.49477</ele>
        <time>2022-05-17T12:45:09.000Z</time>
      </trkpt>
      <trkpt lat="46.20786" lon="-1.51239">
        <ele>2.52699</ele>
        <time>2022-05-17T12:45:10.000Z</time>
      </trkpt>
      <trkpt lat="46.20784" lon="-1.5124">
        <ele>2.57551</ele>
        <time>2022-05-17T12:45:11.000Z</time>
      </trkpt>
      <trkpt lat="46.20782" lon="-1.51242">
        <ele>2.63729</ele>
        <time>2022-05-17T12:45:12.000Z</time>
      </trkpt>
      <trkpt lat="46.20779" lon="-1.51244">
        <ele>2.70734</ele>
        <time>2022-05-17T12:45:13.000Z</time>
      </trkpt>
      <trkpt lat="46.20778" lon="-1.51246">
        <ele>2.75747</ele>
        <time>2022-05-17T12:45:14.000Z</time>
      </trkpt>
      <trkpt lat="46.20776" lon="-1.51249">
        <ele>2.80582</ele>
        <time>2022-05-17T12:45:15.000Z</time>
      </trkpt>
      <trkpt lat="46.20775" lon="-1.51253">
        <ele>2.84473</ele>
        <time>2022-05-17T12:45:16.000Z</time>
      </trkpt>
      <trkpt lat="46.20773" lon="-1.51256">
        <ele>2.87266</ele>
        <time>2022-05-17T12:45:17.000Z</time>
      </trkpt>
      <trkpt lat="46.20771" lon="-1.51258">
        <ele>2.88794</ele>
        <time>2022-05-17T12:45:18.000Z</time>
      </trkpt>
      <trkpt lat="46.20769" lon="-1.51261">
        <ele>2.88494</ele>
        <time>2022-05-17T12:45:19.000Z</time>
      </trkpt>
      <trkpt lat="46.20767" lon="-1.51264">
        <ele>2.86518</ele>
        <time>2022-05-17T12:45:20.000Z</time>
      </trkpt>
      <trkpt lat="46.20766" lon="-1.51266">
        <ele>2.83961</ele>
        <time>2022-05-17T12:45:21.000Z</time>
      </trkpt>
      <trkpt lat="46.20763" lon="-1.51269">
        <ele>2.80836</ele>
        <time>2022-05-17T12:45:22.000Z</time>
      </trkpt>
      <trkpt lat="46.20761" lon="-1.51272">
        <ele>2.77889</ele>
        <time>2022-05-17T12:45:23.000Z</time>
      </trkpt>
      <trkpt lat="46.20761" lon="-1.51275">
        <ele>2.75527</ele>
        <time>2022-05-17T12:45:24.000Z</time>
      </trkpt>
      <trkpt lat="46.2076" lon="-1.51278">
        <ele>2.73687</ele>
        <time>2022-05-17T12:45:25.000Z</time>
      </trkpt>
      <trkpt lat="46.2076" lon="-1.51281">
        <ele>2.71614</ele>
        <time>2022-05-17T12:45:26.000Z</time>
      </trkpt>
      <trkpt lat="46.2076" lon="-1.51285">
        <ele>2.69184</ele>
        <time>2022-05-17T12:45:27.000Z</time>
      </trkpt>
      <trkpt lat="46.20758" lon="-1.51288">
        <ele>2.68286</ele>
        <time>2022-05-17T12:45:30.000Z</time>
      </trkpt>
      <trkpt lat="46.20756" lon="-1.51284">
        <ele>2.72158</ele>
        <time>2022-05-17T12:45:33.000Z</time>
      </trkpt>
      <trkpt lat="46.20755" lon="-1.51278">
        <ele>2.76716</ele>
        <time>2022-05-17T12:45:34.000Z</time>
      </trkpt>
      <trkpt lat="46.20755" lon="-1.51272">
        <ele>2.81974</ele>
        <time>2022-05-17T12:45:35.000Z</time>
      </trkpt>
      <trkpt lat="46.20753" lon="-1.51267">
        <ele>2.86868</ele>
        <time>2022-05-17T12:45:36.000Z</time>
      </trkpt>
      <trkpt lat="46.20752" lon="-1.51262">
        <ele>2.91169</ele>
        <time>2022-05-17T12:45:37.000Z</time>
      </trkpt>
      <trkpt lat="46.20752" lon="-1.51258">
        <ele>2.9437</ele>
        <time>2022-05-17T12:45:38.000Z</time>
      </trkpt>
      <trkpt lat="46.2075" lon="-1.51253">
        <ele>2.97191</ele>
        <time>2022-05-17T12:45:39.000Z</time>
      </trkpt>
      <trkpt lat="46.20749" lon="-1.51247">
        <ele>2.98965</ele>
        <time>2022-05-17T12:45:40.000Z</time>
      </trkpt>
      <trkpt lat="46.20747" lon="-1.51241">
        <ele>3.00189</ele>
        <time>2022-05-17T12:45:41.000Z</time>
      </trkpt>
      <trkpt lat="46.20746" lon="-1.51234">
        <ele>3.01816</ele>
        <time>2022-05-17T12:45:42.000Z</time>
      </trkpt>
      <trkpt lat="46.20745" lon="-1.51226">
        <ele>3.02863</ele>
        <time>2022-05-17T12:45:43.000Z</time>
      </trkpt>
      <trkpt lat="46.20744" lon="-1.51218">
        <ele>3.01898</ele>
        <time>2022-05-17T12:45:44.000Z</time>
      </trkpt>
      <trkpt lat="46.20744" lon="-1.51212">
        <ele>2.99138</ele>
        <time>2022-05-17T12:45:45.000Z</time>
      </trkpt>
      <trkpt lat="46.20742" lon="-1.51205">
        <ele>2.94136</ele>
        <time>2022-05-17T12:45:46.000Z</time>
      </trkpt>
      <trkpt lat="46.2074" lon="-1.51198">
        <ele>2.88501</ele>
        <time>2022-05-17T12:45:47.000Z</time>
      </trkpt>
      <trkpt lat="46.20739" lon="-1.51191">
        <ele>2.84478</ele>
        <time>2022-05-17T12:45:48.000Z</time>
      </trkpt>
      <trkpt lat="46.20737" lon="-1.51185">
        <ele>2.85113</ele>
        <time>2022-05-17T12:45:49.000Z</time>
      </trkpt>
      <trkpt lat="46.20736" lon="-1.51179">
        <ele>2.86233</ele>
        <time>2022-05-17T12:45:50.000Z</time>
      </trkpt>
      <trkpt lat="46.20735" lon="-1.51175">
        <ele>2.89976</ele>
        <time>2022-05-17T12:45:51.000Z</time>
      </trkpt>
      <trkpt lat="46.20735" lon="-1.5117">
        <ele>2.92912</ele>
        <time>2022-05-17T12:45:52.000Z</time>
      </trkpt>
      <trkpt lat="46.20735" lon="-1.51166">
        <ele>2.94107</ele>
        <time>2022-05-17T12:45:53.000Z</time>
      </trkpt>
      <trkpt lat="46.20736" lon="-1.51163">
        <ele>2.95675</ele>
        <time>2022-05-17T12:45:54.000Z</time>
      </trkpt>
      <trkpt lat="46.20736" lon="-1.51158">
        <ele>2.97523</ele>
        <time>2022-05-17T12:45:55.000Z</time>
      </trkpt>
      <trkpt lat="46.20737" lon="-1.51154">
        <ele>2.98688</ele>
        <time>2022-05-17T12:45:56.000Z</time>
      </trkpt>
      <trkpt lat="46.20737" lon="-1.5115">
        <ele>2.99043</ele>
        <time>2022-05-17T12:45:57.000Z</time>
      </trkpt>
      <trkpt lat="46.20738" lon="-1.51146">
        <ele>2.97835</ele>
        <time>2022-05-17T12:45:58.000Z</time>
      </trkpt>
      <trkpt lat="46.20738" lon="-1.51142">
        <ele>2.94493</ele>
        <time>2022-05-17T12:45:59.000Z</time>
      </trkpt>
      <trkpt lat="46.20737" lon="-1.51137">
        <ele>2.89288</ele>
        <time>2022-05-17T12:46:00.000Z</time>
      </trkpt>
      <trkpt lat="46.20737" lon="-1.51132">
        <ele>2.83492</ele>
        <time>2022-05-17T12:46:01.000Z</time>
      </trkpt>
      <trkpt lat="46.20736" lon="-1.51127">
        <ele>2.79061</ele>
        <time>2022-05-17T12:46:02.000Z</time>
      </trkpt>
      <trkpt lat="46.20735" lon="-1.51123">
        <ele>2.76783</ele>
        <time>2022-05-17T12:46:03.000Z</time>
      </trkpt>
      <trkpt lat="46.20733" lon="-1.51118">
        <ele>2.76748</ele>
        <time>2022-05-17T12:46:04.000Z</time>
      </trkpt>
      <trkpt lat="46.20731" lon="-1.51114">
        <ele>2.77974</ele>
        <time>2022-05-17T12:46:05.000Z</time>
      </trkpt>
      <trkpt lat="46.20729" lon="-1.5111">
        <ele>2.78424</ele>
        <time>2022-05-17T12:46:06.000Z</time>
      </trkpt>
      <trkpt lat="46.20727" lon="-1.51105">
        <ele>2.76389</ele>
        <time>2022-05-17T12:46:07.000Z</time>
      </trkpt>
      <trkpt lat="46.20725" lon="-1.51101">
        <ele>2.72694</ele>
        <time>2022-05-17T12:46:08.000Z</time>
      </trkpt>
      <trkpt lat="46.20723" lon="-1.51096">
        <ele>2.69794</ele>
        <time>2022-05-17T12:46:09.000Z</time>
      </trkpt>
      <trkpt lat="46.20721" lon="-1.51092">
        <ele>2.68405</ele>
        <time>2022-05-17T12:46:10.000Z</time>
      </trkpt>
      <trkpt lat="46.20719" lon="-1.51087">
        <ele>2.69032</ele>
        <time>2022-05-17T12:46:11.000Z</time>
      </trkpt>
      <trkpt lat="46.20717" lon="-1.51082">
        <ele>2.69594</ele>
        <time>2022-05-17T12:46:12.000Z</time>
      </trkpt>
      <trkpt lat="46.20716" lon="-1.51077">
        <ele>2.73155</ele>
        <time>2022-05-17T12:46:13.000Z</time>
      </trkpt>
      <trkpt lat="46.20715" lon="-1.51073">
        <ele>2.77403</ele>
        <time>2022-05-17T12:46:14.000Z</time>
      </trkpt>
      <trkpt lat="46.20714" lon="-1.51069">
        <ele>2.82104</ele>
        <time>2022-05-17T12:46:15.000Z</time>
      </trkpt>
      <trkpt lat="46.20713" lon="-1.51065">
        <ele>2.87433</ele>
        <time>2022-05-17T12:46:16.000Z</time>
      </trkpt>
      <trkpt lat="46.20712" lon="-1.51061">
        <ele>2.92556</ele>
        <time>2022-05-17T12:46:17.000Z</time>
      </trkpt>
      <trkpt lat="46.20711" lon="-1.51057">
        <ele>2.96046</ele>
        <time>2022-05-17T12:46:18.000Z</time>
      </trkpt>
      <trkpt lat="46.2071" lon="-1.51053">
        <ele>2.97719</ele>
        <time>2022-05-17T12:46:19.000Z</time>
      </trkpt>
      <trkpt lat="46.20709" lon="-1.51048">
        <ele>2.97532</ele>
        <time>2022-05-17T12:46:20.000Z</time>
      </trkpt>
      <trkpt lat="46.20708" lon="-1.51043">
        <ele>2.94387</ele>
        <time>2022-05-17T12:46:21.000Z</time>
      </trkpt>
      <trkpt lat="46.20706" lon="-1.51039">
        <ele>2.87727</ele>
        <time>2022-05-17T12:46:22.000Z</time>
      </trkpt>
      <trkpt lat="46.20705" lon="-1.51035">
        <ele>2.79389</ele>
        <time>2022-05-17T12:46:23.000Z</time>
      </trkpt>
      <trkpt lat="46.20704" lon="-1.5103">
        <ele>2.6979</ele>
        <time>2022-05-17T12:46:24.000Z</time>
      </trkpt>
      <trkpt lat="46.20703" lon="-1.51025">
        <ele>2.62345</ele>
        <time>2022-05-17T12:46:25.000Z</time>
      </trkpt>
      <trkpt lat="46.20702" lon="-1.51021">
        <ele>2.5742</ele>
        <time>2022-05-17T12:46:26.000Z</time>
      </trkpt>
      <trkpt lat="46.20701" lon="-1.51016">
        <ele>2.57863</ele>
        <time>2022-05-17T12:46:27.000Z</time>
      </trkpt>
      <trkpt lat="46.20699" lon="-1.51012">
        <ele>2.60735</ele>
        <time>2022-05-17T12:46:28.000Z</time>
      </trkpt>
      <trkpt lat="46.20698" lon="-1.51009">
        <ele>2.64593</ele>
        <time>2022-05-17T12:46:29.000Z</time>
      </trkpt>
      <trkpt lat="46.20696" lon="-1.51005">
        <ele>2.68293</ele>
        <time>2022-05-17T12:46:30.000Z</time>
      </trkpt>
      <trkpt lat="46.20694" lon="-1.51001">
        <ele>2.69035</ele>
        <time>2022-05-17T12:46:31.000Z</time>
      </trkpt>
      <trkpt lat="46.20691" lon="-1.50997">
        <ele>2.66875</ele>
        <time>2022-05-17T12:46:32.000Z</time>
      </trkpt>
      <trkpt lat="46.20689" lon="-1.50993">
        <ele>2.62404</ele>
        <time>2022-05-17T12:46:33.000Z</time>
      </trkpt>
      <trkpt lat="46.20688" lon="-1.50991">
        <ele>2.5888</ele>
        <time>2022-05-17T12:46:34.000Z</time>
      </trkpt>
      <trkpt lat="46.20686" lon="-1.50989">
        <ele>2.55457</ele>
        <time>2022-05-17T12:46:35.000Z</time>
      </trkpt>
      <trkpt lat="46.20684" lon="-1.50986">
        <ele>2.53335</ele>
        <time>2022-05-17T12:46:36.000Z</time>
      </trkpt>
      <trkpt lat="46.20681" lon="-1.50983">
        <ele>2.5518</ele>
        <time>2022-05-17T12:46:37.000Z</time>
      </trkpt>
      <trkpt lat="46.20678" lon="-1.50979">
        <ele>2.59602</ele>
        <time>2022-05-17T12:46:38.000Z</time>
      </trkpt>
      <trkpt lat="46.20675" lon="-1.50976">
        <ele>2.64776</ele>
        <time>2022-05-17T12:46:39.000Z</time>
      </trkpt>
      <trkpt lat="46.20671" lon="-1.50972">
        <ele>2.68378</ele>
        <time>2022-05-17T12:46:40.000Z</time>
      </trkpt>
      <trkpt lat="46.20669" lon="-1.50968">
        <ele>2.67291</ele>
        <time>2022-05-17T12:46:41.000Z</time>
      </trkpt>
      <trkpt lat="46.20667" lon="-1.50965">
        <ele>2.64299</ele>
        <time>2022-05-17T12:46:42.000Z</time>
      </trkpt>
      <trkpt lat="46.20664" lon="-1.50962">
        <ele>2.59794</ele>
        <time>2022-05-17T12:46:43.000Z</time>
      </trkpt>
      <trkpt lat="46.20662" lon="-1.50959">
        <ele>2.55326</ele>
        <time>2022-05-17T12:46:44.000Z</time>
      </trkpt>
      <trkpt lat="46.20659" lon="-1.50956">
        <ele>2.52933</ele>
        <time>2022-05-17T12:46:45.000Z</time>
      </trkpt>
      <trkpt lat="46.20657" lon="-1.50953">
        <ele>2.51718</ele>
        <time>2022-05-17T12:46:46.000Z</time>
      </trkpt>
      <trkpt lat="46.20654" lon="-1.50949">
        <ele>2.53286</ele>
        <time>2022-05-17T12:46:47.000Z</time>
      </trkpt>
      <trkpt lat="46.20652" lon="-1.50947">
        <ele>2.55972</ele>
        <time>2022-05-17T12:46:48.000Z</time>
      </trkpt>
      <trkpt lat="46.20649" lon="-1.50944">
        <ele>2.59035</ele>
        <time>2022-05-17T12:46:49.000Z</time>
      </trkpt>
      <trkpt lat="46.20647" lon="-1.50941">
        <ele>2.6102</ele>
        <time>2022-05-17T12:46:50.000Z</time>
      </trkpt>
      <trkpt lat="46.20644" lon="-1.50938">
        <ele>2.60859</ele>
        <time>2022-05-17T12:46:51.000Z</time>
      </trkpt>
      <trkpt lat="46.20642" lon="-1.50936">
        <ele>2.59424</ele>
        <time>2022-05-17T12:46:52.000Z</time>
      </trkpt>
      <trkpt lat="46.20641" lon="-1.50933">
        <ele>2.57569</ele>
        <time>2022-05-17T12:46:53.000Z</time>
      </trkpt>
      <trkpt lat="46.20639" lon="-1.50931">
        <ele>2.56192</ele>
        <time>2022-05-17T12:46:54.000Z</time>
      </trkpt>
      <trkpt lat="46.20638" lon="-1.50929">
        <ele>2.55298</ele>
        <time>2022-05-17T12:46:55.000Z</time>
      </trkpt>
      <trkpt lat="46.20636" lon="-1.50927">
        <ele>2.55847</ele>
        <time>2022-05-17T12:46:56.000Z</time>
      </trkpt>
      <trkpt lat="46.20634" lon="-1.50925">
        <ele>2.56877</ele>
        <time>2022-05-17T12:46:57.000Z</time>
      </trkpt>
      <trkpt lat="46.20632" lon="-1.50922">
        <ele>2.57944</ele>
        <time>2022-05-17T12:46:59.000Z</time>
      </trkpt>
      <trkpt lat="46.2063" lon="-1.50919">
        <ele>2.61397</ele>
        <time>2022-05-17T12:47:01.000Z</time>
      </trkpt>
      <trkpt lat="46.20629" lon="-1.50917">
        <ele>2.64217</ele>
        <time>2022-05-17T12:47:02.000Z</time>
      </trkpt>
      <trkpt lat="46.20627" lon="-1.50915">
        <ele>2.67642</ele>
        <time>2022-05-17T12:47:03.000Z</time>
      </trkpt>
      <trkpt lat="46.20625" lon="-1.50912">
        <ele>2.71699</ele>
        <time>2022-05-17T12:47:04.000Z</time>
      </trkpt>
      <trkpt lat="46.20625" lon="-1.50907">
        <ele>2.71999</ele>
        <time>2022-05-17T12:47:06.000Z</time>
      </trkpt>
      <trkpt lat="46.20626" lon="-1.50904">
        <ele>2.69208</ele>
        <time>2022-05-17T12:47:07.000Z</time>
      </trkpt>
      <trkpt lat="46.20627" lon="-1.50901">
        <ele>2.64816</ele>
        <time>2022-05-17T12:47:08.000Z</time>
      </trkpt>
      <trkpt lat="46.20628" lon="-1.50898">
        <ele>2.60505</ele>
        <time>2022-05-17T12:47:09.000Z</time>
      </trkpt>
      <trkpt lat="46.2063" lon="-1.50896">
        <ele>2.566</ele>
        <time>2022-05-17T12:47:10.000Z</time>
      </trkpt>
      <trkpt lat="46.20631" lon="-1.50893">
        <ele>2.52792</ele>
        <time>2022-05-17T12:47:11.000Z</time>
      </trkpt>
      <trkpt lat="46.20632" lon="-1.5089">
        <ele>2.49717</ele>
        <time>2022-05-17T12:47:12.000Z</time>
      </trkpt>
      <trkpt lat="46.20633" lon="-1.50886">
        <ele>2.47906</ele>
        <time>2022-05-17T12:47:13.000Z</time>
      </trkpt>
      <trkpt lat="46.20635" lon="-1.50882">
        <ele>2.4665</ele>
        <time>2022-05-17T12:47:14.000Z</time>
      </trkpt>
      <trkpt lat="46.20636" lon="-1.50879">
        <ele>2.45297</ele>
        <time>2022-05-17T12:47:15.000Z</time>
      </trkpt>
      <trkpt lat="46.20638" lon="-1.50875">
        <ele>2.43479</ele>
        <time>2022-05-17T12:47:17.000Z</time>
      </trkpt>
      <trkpt lat="46.20639" lon="-1.50873">
        <ele>2.42642</ele>
        <time>2022-05-17T12:47:18.000Z</time>
      </trkpt>
      <trkpt lat="46.20641" lon="-1.50871">
        <ele>2.41642</ele>
        <time>2022-05-17T12:47:19.000Z</time>
      </trkpt>
      <trkpt lat="46.20643" lon="-1.50867">
        <ele>2.41376</ele>
        <time>2022-05-17T12:47:20.000Z</time>
      </trkpt>
      <trkpt lat="46.20645" lon="-1.50863">
        <ele>2.4131</ele>
        <time>2022-05-17T12:47:21.000Z</time>
      </trkpt>
      <trkpt lat="46.20646" lon="-1.5086">
        <ele>2.41336</ele>
        <time>2022-05-17T12:47:22.000Z</time>
      </trkpt>
      <trkpt lat="46.20648" lon="-1.50857">
        <ele>2.41516</ele>
        <time>2022-05-17T12:47:23.000Z</time>
      </trkpt>
      <trkpt lat="46.20649" lon="-1.50855">
        <ele>2.41973</ele>
        <time>2022-05-17T12:47:24.000Z</time>
      </trkpt>
      <trkpt lat="46.2065" lon="-1.50852">
        <ele>2.42535</ele>
        <time>2022-05-17T12:47:25.000Z</time>
      </trkpt>
      <trkpt lat="46.20652" lon="-1.50848">
        <ele>2.43169</ele>
        <time>2022-05-17T12:47:26.000Z</time>
      </trkpt>
      <trkpt lat="46.20654" lon="-1.50845">
        <ele>2.44513</ele>
        <time>2022-05-17T12:47:27.000Z</time>
      </trkpt>
      <trkpt lat="46.20655" lon="-1.50841">
        <ele>2.47047</ele>
        <time>2022-05-17T12:47:28.000Z</time>
      </trkpt>
      <trkpt lat="46.20657" lon="-1.50838">
        <ele>2.50686</ele>
        <time>2022-05-17T12:47:29.000Z</time>
      </trkpt>
      <trkpt lat="46.20658" lon="-1.50835">
        <ele>2.55011</ele>
        <time>2022-05-17T12:47:30.000Z</time>
      </trkpt>
      <trkpt lat="46.20659" lon="-1.50831">
        <ele>2.60228</ele>
        <time>2022-05-17T12:47:31.000Z</time>
      </trkpt>
      <trkpt lat="46.2066" lon="-1.50827">
        <ele>2.66017</ele>
        <time>2022-05-17T12:47:32.000Z</time>
      </trkpt>
      <trkpt lat="46.20662" lon="-1.50823">
        <ele>2.7108</ele>
        <time>2022-05-17T12:47:33.000Z</time>
      </trkpt>
      <trkpt lat="46.20663" lon="-1.5082">
        <ele>2.75192</ele>
        <time>2022-05-17T12:47:34.000Z</time>
      </trkpt>
      <trkpt lat="46.20664" lon="-1.50817">
        <ele>2.77676</ele>
        <time>2022-05-17T12:47:35.000Z</time>
      </trkpt>
      <trkpt lat="46.20666" lon="-1.50815">
        <ele>2.78947</ele>
        <time>2022-05-17T12:47:36.000Z</time>
      </trkpt>
      <trkpt lat="46.20667" lon="-1.5081">
        <ele>2.81165</ele>
        <time>2022-05-17T12:47:38.000Z</time>
      </trkpt>
      <trkpt lat="46.20668" lon="-1.50806">
        <ele>2.82333</ele>
        <time>2022-05-17T12:47:39.000Z</time>
      </trkpt>
      <trkpt lat="46.20669" lon="-1.50802">
        <ele>2.83095</ele>
        <time>2022-05-17T12:47:40.000Z</time>
      </trkpt>
      <trkpt lat="46.20669" lon="-1.50799">
        <ele>2.83741</ele>
        <time>2022-05-17T12:47:42.000Z</time>
      </trkpt>
      <trkpt lat="46.20667" lon="-1.50797">
        <ele>2.84325</ele>
        <time>2022-05-17T12:47:45.000Z</time>
      </trkpt>
      <trkpt lat="46.20665" lon="-1.50793">
        <ele>2.84173</ele>
        <time>2022-05-17T12:47:47.000Z</time>
      </trkpt>
      <trkpt lat="46.20665" lon="-1.5079">
        <ele>2.83497</ele>
        <time>2022-05-17T12:47:48.000Z</time>
      </trkpt>
      <trkpt lat="46.20665" lon="-1.50786">
        <ele>2.82751</ele>
        <time>2022-05-17T12:47:49.000Z</time>
      </trkpt>
      <trkpt lat="46.20664" lon="-1.50783">
        <ele>2.82079</ele>
        <time>2022-05-17T12:47:50.000Z</time>
      </trkpt>
      <trkpt lat="46.20665" lon="-1.5078">
        <ele>2.81663</ele>
        <time>2022-05-17T12:47:51.000Z</time>
      </trkpt>
      <trkpt lat="46.20665" lon="-1.50777">
        <ele>2.81265</ele>
        <time>2022-05-17T12:47:52.000Z</time>
      </trkpt>
      <trkpt lat="46.20665" lon="-1.50774">
        <ele>2.80335</ele>
        <time>2022-05-17T12:47:53.000Z</time>
      </trkpt>
      <trkpt lat="46.20664" lon="-1.50771">
        <ele>2.7904</ele>
        <time>2022-05-17T12:47:54.000Z</time>
      </trkpt>
      <trkpt lat="46.20663" lon="-1.50768">
        <ele>2.7754</ele>
        <time>2022-05-17T12:47:55.000Z</time>
      </trkpt>
      <trkpt lat="46.20662" lon="-1.50765">
        <ele>2.75439</ele>
        <time>2022-05-17T12:47:56.000Z</time>
      </trkpt>
      <trkpt lat="46.20661" lon="-1.50762">
        <ele>2.73645</ele>
        <time>2022-05-17T12:47:57.000Z</time>
      </trkpt>
      <trkpt lat="46.20659" lon="-1.50758">
        <ele>2.71794</ele>
        <time>2022-05-17T12:47:58.000Z</time>
      </trkpt>
      <trkpt lat="46.20658" lon="-1.50755">
        <ele>2.70388</ele>
        <time>2022-05-17T12:47:59.000Z</time>
      </trkpt>
      <trkpt lat="46.20656" lon="-1.50752">
        <ele>2.69554</ele>
        <time>2022-05-17T12:48:00.000Z</time>
      </trkpt>
      <trkpt lat="46.20655" lon="-1.50748">
        <ele>2.69004</ele>
        <time>2022-05-17T12:48:01.000Z</time>
      </trkpt>
      <trkpt lat="46.20654" lon="-1.50744">
        <ele>2.68433</ele>
        <time>2022-05-17T12:48:02.000Z</time>
      </trkpt>
      <trkpt lat="46.20652" lon="-1.50739">
        <ele>2.6792</ele>
        <time>2022-05-17T12:48:03.000Z</time>
      </trkpt>
      <trkpt lat="46.2065" lon="-1.50734">
        <ele>2.68267</ele>
        <time>2022-05-17T12:48:04.000Z</time>
      </trkpt>
      <trkpt lat="46.20648" lon="-1.5073">
        <ele>2.69342</ele>
        <time>2022-05-17T12:48:05.000Z</time>
      </trkpt>
      <trkpt lat="46.20647" lon="-1.50726">
        <ele>2.70971</ele>
        <time>2022-05-17T12:48:06.000Z</time>
      </trkpt>
      <trkpt lat="46.20646" lon="-1.50722">
        <ele>2.73323</ele>
        <time>2022-05-17T12:48:07.000Z</time>
      </trkpt>
      <trkpt lat="46.20645" lon="-1.50718">
        <ele>2.76295</ele>
        <time>2022-05-17T12:48:08.000Z</time>
      </trkpt>
      <trkpt lat="46.20644" lon="-1.50714">
        <ele>2.79271</ele>
        <time>2022-05-17T12:48:09.000Z</time>
      </trkpt>
      <trkpt lat="46.20642" lon="-1.50711">
        <ele>2.8208</ele>
        <time>2022-05-17T12:48:10.000Z</time>
      </trkpt>
      <trkpt lat="46.20641" lon="-1.50708">
        <ele>2.84177</ele>
        <time>2022-05-17T12:48:11.000Z</time>
      </trkpt>
      <trkpt lat="46.20639" lon="-1.50704">
        <ele>2.85049</ele>
        <time>2022-05-17T12:48:12.000Z</time>
      </trkpt>
      <trkpt lat="46.20637" lon="-1.50701">
        <ele>2.84589</ele>
        <time>2022-05-17T12:48:13.000Z</time>
      </trkpt>
      <trkpt lat="46.20635" lon="-1.50697">
        <ele>2.82321</ele>
        <time>2022-05-17T12:48:14.000Z</time>
      </trkpt>
      <trkpt lat="46.20633" lon="-1.50693">
        <ele>2.78345</ele>
        <time>2022-05-17T12:48:15.000Z</time>
      </trkpt>
      <trkpt lat="46.20631" lon="-1.5069">
        <ele>2.74746</ele>
        <time>2022-05-17T12:48:16.000Z</time>
      </trkpt>
      <trkpt lat="46.20629" lon="-1.50687">
        <ele>2.72082</ele>
        <time>2022-05-17T12:48:17.000Z</time>
      </trkpt>
      <trkpt lat="46.20627" lon="-1.50684">
        <ele>2.70179</ele>
        <time>2022-05-17T12:48:18.000Z</time>
      </trkpt>
      <trkpt lat="46.20627" lon="-1.50681">
        <ele>2.69297</ele>
        <time>2022-05-17T12:48:19.000Z</time>
      </trkpt>
      <trkpt lat="46.20626" lon="-1.50678">
        <ele>2.68658</ele>
        <time>2022-05-17T12:48:20.000Z</time>
      </trkpt>
      <trkpt lat="46.20625" lon="-1.50675">
        <ele>2.68351</ele>
        <time>2022-05-17T12:48:21.000Z</time>
      </trkpt>
      <trkpt lat="46.20624" lon="-1.50673">
        <ele>2.68054</ele>
        <time>2022-05-17T12:48:22.000Z</time>
      </trkpt>
      <trkpt lat="46.20623" lon="-1.5067">
        <ele>2.67584</ele>
        <time>2022-05-17T12:48:23.000Z</time>
      </trkpt>
      <trkpt lat="46.2062" lon="-1.50666">
        <ele>2.67049</ele>
        <time>2022-05-17T12:48:24.000Z</time>
      </trkpt>
      <trkpt lat="46.20618" lon="-1.50663">
        <ele>2.66571</ele>
        <time>2022-05-17T12:48:25.000Z</time>
      </trkpt>
      <trkpt lat="46.20616" lon="-1.50661">
        <ele>2.66332</ele>
        <time>2022-05-17T12:48:26.000Z</time>
      </trkpt>
      <trkpt lat="46.20614" lon="-1.50659">
        <ele>2.66289</ele>
        <time>2022-05-17T12:48:27.000Z</time>
      </trkpt>
      <trkpt lat="46.20611" lon="-1.50657">
        <ele>2.66466</ele>
        <time>2022-05-17T12:48:28.000Z</time>
      </trkpt>
      <trkpt lat="46.20608" lon="-1.50654">
        <ele>2.67494</ele>
        <time>2022-05-17T12:48:29.000Z</time>
      </trkpt>
      <trkpt lat="46.20605" lon="-1.50652">
        <ele>2.69666</ele>
        <time>2022-05-17T12:48:30.000Z</time>
      </trkpt>
      <trkpt lat="46.20603" lon="-1.50649">
        <ele>2.72099</ele>
        <time>2022-05-17T12:48:31.000Z</time>
      </trkpt>
      <trkpt lat="46.206" lon="-1.50646">
        <ele>2.74376</ele>
        <time>2022-05-17T12:48:32.000Z</time>
      </trkpt>
      <trkpt lat="46.20598" lon="-1.50643">
        <ele>2.76221</ele>
        <time>2022-05-17T12:48:33.000Z</time>
      </trkpt>
      <trkpt lat="46.20596" lon="-1.5064">
        <ele>2.77647</ele>
        <time>2022-05-17T12:48:34.000Z</time>
      </trkpt>
      <trkpt lat="46.20593" lon="-1.50638">
        <ele>2.78759</ele>
        <time>2022-05-17T12:48:35.000Z</time>
      </trkpt>
      <trkpt lat="46.20591" lon="-1.50635">
        <ele>2.79372</ele>
        <time>2022-05-17T12:48:36.000Z</time>
      </trkpt>
      <trkpt lat="46.20588" lon="-1.50633">
        <ele>2.79217</ele>
        <time>2022-05-17T12:48:37.000Z</time>
      </trkpt>
      <trkpt lat="46.20585" lon="-1.50631">
        <ele>2.78053</ele>
        <time>2022-05-17T12:48:38.000Z</time>
      </trkpt>
      <trkpt lat="46.20583" lon="-1.5063">
        <ele>2.76275</ele>
        <time>2022-05-17T12:48:39.000Z</time>
      </trkpt>
      <trkpt lat="46.20581" lon="-1.50628">
        <ele>2.73959</ele>
        <time>2022-05-17T12:48:40.000Z</time>
      </trkpt>
      <trkpt lat="46.2058" lon="-1.50625">
        <ele>2.70415</ele>
        <time>2022-05-17T12:48:41.000Z</time>
      </trkpt>
      <trkpt lat="46.2058" lon="-1.50622">
        <ele>2.66843</ele>
        <time>2022-05-17T12:48:42.000Z</time>
      </trkpt>
      <trkpt lat="46.2058" lon="-1.50619">
        <ele>2.63666</ele>
        <time>2022-05-17T12:48:43.000Z</time>
      </trkpt>
      <trkpt lat="46.20581" lon="-1.50614">
        <ele>2.61716</ele>
        <time>2022-05-17T12:48:44.000Z</time>
      </trkpt>
      <trkpt lat="46.20582" lon="-1.50611">
        <ele>2.61486</ele>
        <time>2022-05-17T12:48:45.000Z</time>
      </trkpt>
      <trkpt lat="46.20583" lon="-1.50608">
        <ele>2.61895</ele>
        <time>2022-05-17T12:48:46.000Z</time>
      </trkpt>
      <trkpt lat="46.20584" lon="-1.50605">
        <ele>2.62848</ele>
        <time>2022-05-17T12:48:47.000Z</time>
      </trkpt>
      <trkpt lat="46.20586" lon="-1.50601">
        <ele>2.64135</ele>
        <time>2022-05-17T12:48:48.000Z</time>
      </trkpt>
      <trkpt lat="46.20587" lon="-1.50597">
        <ele>2.65508</ele>
        <time>2022-05-17T12:48:49.000Z</time>
      </trkpt>
      <trkpt lat="46.20589" lon="-1.50593">
        <ele>2.66731</ele>
        <time>2022-05-17T12:48:50.000Z</time>
      </trkpt>
      <trkpt lat="46.2059" lon="-1.5059">
        <ele>2.67943</ele>
        <time>2022-05-17T12:48:51.000Z</time>
      </trkpt>
      <trkpt lat="46.20591" lon="-1.50587">
        <ele>2.69107</ele>
        <time>2022-05-17T12:48:52.000Z</time>
      </trkpt>
      <trkpt lat="46.20593" lon="-1.50581">
        <ele>2.71745</ele>
        <time>2022-05-17T12:48:54.000Z</time>
      </trkpt>
      <trkpt lat="46.20595" lon="-1.50578">
        <ele>2.74123</ele>
        <time>2022-05-17T12:48:55.000Z</time>
      </trkpt>
      <trkpt lat="46.20597" lon="-1.50574">
        <ele>2.76842</ele>
        <time>2022-05-17T12:48:56.000Z</time>
      </trkpt>
      <trkpt lat="46.20599" lon="-1.5057">
        <ele>2.79118</ele>
        <time>2022-05-17T12:48:57.000Z</time>
      </trkpt>
      <trkpt lat="46.20601" lon="-1.50566">
        <ele>2.8127</ele>
        <time>2022-05-17T12:48:58.000Z</time>
      </trkpt>
      <trkpt lat="46.20603" lon="-1.50562">
        <ele>2.826</ele>
        <time>2022-05-17T12:48:59.000Z</time>
      </trkpt>
      <trkpt lat="46.20604" lon="-1.50558">
        <ele>2.83338</ele>
        <time>2022-05-17T12:49:00.000Z</time>
      </trkpt>
      <trkpt lat="46.20606" lon="-1.50555">
        <ele>2.83723</ele>
        <time>2022-05-17T12:49:01.000Z</time>
      </trkpt>
      <trkpt lat="46.20607" lon="-1.50551">
        <ele>2.8378</ele>
        <time>2022-05-17T12:49:02.000Z</time>
      </trkpt>
      <trkpt lat="46.20607" lon="-1.50547">
        <ele>2.83726</ele>
        <time>2022-05-17T12:49:03.000Z</time>
      </trkpt>
      <trkpt lat="46.20608" lon="-1.50544">
        <ele>2.8372</ele>
        <time>2022-05-17T12:49:04.000Z</time>
      </trkpt>
      <trkpt lat="46.20608" lon="-1.50539">
        <ele>2.83714</ele>
        <time>2022-05-17T12:49:05.000Z</time>
      </trkpt>
      <trkpt lat="46.20609" lon="-1.50536">
        <ele>2.83836</ele>
        <time>2022-05-17T12:49:06.000Z</time>
      </trkpt>
      <trkpt lat="46.20609" lon="-1.50533">
        <ele>2.83899</ele>
        <time>2022-05-17T12:49:07.000Z</time>
      </trkpt>
      <trkpt lat="46.2061" lon="-1.5053">
        <ele>2.83835</ele>
        <time>2022-05-17T12:49:08.000Z</time>
      </trkpt>
      <trkpt lat="46.2061" lon="-1.50526">
        <ele>2.83166</ele>
        <time>2022-05-17T12:49:09.000Z</time>
      </trkpt>
      <trkpt lat="46.20608" lon="-1.50523">
        <ele>2.82104</ele>
        <time>2022-05-17T12:49:10.000Z</time>
      </trkpt>
      <trkpt lat="46.20606" lon="-1.50521">
        <ele>2.81454</ele>
        <time>2022-05-17T12:49:11.000Z</time>
      </trkpt>
      <trkpt lat="46.20602" lon="-1.50519">
        <ele>2.81291</ele>
        <time>2022-05-17T12:49:12.000Z</time>
      </trkpt>
      <trkpt lat="46.20599" lon="-1.50518">
        <ele>2.81349</ele>
        <time>2022-05-17T12:49:13.000Z</time>
      </trkpt>
      <trkpt lat="46.20597" lon="-1.50517">
        <ele>2.81383</ele>
        <time>2022-05-17T12:49:14.000Z</time>
      </trkpt>
      <trkpt lat="46.20594" lon="-1.50516">
        <ele>2.81274</ele>
        <time>2022-05-17T12:49:15.000Z</time>
      </trkpt>
      <trkpt lat="46.20591" lon="-1.50514">
        <ele>2.80075</ele>
        <time>2022-05-17T12:49:16.000Z</time>
      </trkpt>
      <trkpt lat="46.20587" lon="-1.50512">
        <ele>2.75842</ele>
        <time>2022-05-17T12:49:17.000Z</time>
      </trkpt>
      <trkpt lat="46.20584" lon="-1.5051">
        <ele>2.67292</ele>
        <time>2022-05-17T12:49:18.000Z</time>
      </trkpt>
      <trkpt lat="46.20581" lon="-1.50508">
        <ele>2.566</ele>
        <time>2022-05-17T12:49:19.000Z</time>
      </trkpt>
      <trkpt lat="46.20579" lon="-1.50506">
        <ele>2.44486</ele>
        <time>2022-05-17T12:49:20.000Z</time>
      </trkpt>
      <trkpt lat="46.20577" lon="-1.50504">
        <ele>2.29471</ele>
        <time>2022-05-17T12:49:21.000Z</time>
      </trkpt>
      <trkpt lat="46.20574" lon="-1.50501">
        <ele>2.12613</ele>
        <time>2022-05-17T12:49:22.000Z</time>
      </trkpt>
      <trkpt lat="46.20571" lon="-1.50499">
        <ele>2.00031</ele>
        <time>2022-05-17T12:49:23.000Z</time>
      </trkpt>
      <trkpt lat="46.20569" lon="-1.50497">
        <ele>1.94397</ele>
        <time>2022-05-17T12:49:24.000Z</time>
      </trkpt>
      <trkpt lat="46.20566" lon="-1.50495">
        <ele>1.9744</ele>
        <time>2022-05-17T12:49:25.000Z</time>
      </trkpt>
      <trkpt lat="46.20564" lon="-1.50494">
        <ele>2.06783</ele>
        <time>2022-05-17T12:49:26.000Z</time>
      </trkpt>
      <trkpt lat="46.20562" lon="-1.50493">
        <ele>2.20066</ele>
        <time>2022-05-17T12:49:27.000Z</time>
      </trkpt>
      <trkpt lat="46.20559" lon="-1.50492">
        <ele>2.35422</ele>
        <time>2022-05-17T12:49:28.000Z</time>
      </trkpt>
      <trkpt lat="46.20557" lon="-1.5049">
        <ele>2.51312</ele>
        <time>2022-05-17T12:49:29.000Z</time>
      </trkpt>
      <trkpt lat="46.20554" lon="-1.50489">
        <ele>2.6829</ele>
        <time>2022-05-17T12:49:31.000Z</time>
      </trkpt>
      <trkpt lat="46.20552" lon="-1.50488">
        <ele>2.78305</ele>
        <time>2022-05-17T12:49:32.000Z</time>
      </trkpt>
      <trkpt lat="46.2055" lon="-1.50487">
        <ele>2.85062</ele>
        <time>2022-05-17T12:49:33.000Z</time>
      </trkpt>
      <trkpt lat="46.20548" lon="-1.50485">
        <ele>2.8811</ele>
        <time>2022-05-17T12:49:34.000Z</time>
      </trkpt>
      <trkpt lat="46.20546" lon="-1.50484">
        <ele>2.88326</ele>
        <time>2022-05-17T12:49:35.000Z</time>
      </trkpt>
      <trkpt lat="46.20544" lon="-1.50483">
        <ele>2.85312</ele>
        <time>2022-05-17T12:49:36.000Z</time>
      </trkpt>
      <trkpt lat="46.20542" lon="-1.50481">
        <ele>2.78523</ele>
        <time>2022-05-17T12:49:37.000Z</time>
      </trkpt>
      <trkpt lat="46.20539" lon="-1.50478">
        <ele>2.67323</ele>
        <time>2022-05-17T12:49:38.000Z</time>
      </trkpt>
      <trkpt lat="46.20538" lon="-1.50476">
        <ele>2.53642</ele>
        <time>2022-05-17T12:49:39.000Z</time>
      </trkpt>
      <trkpt lat="46.20536" lon="-1.50473">
        <ele>2.35541</ele>
        <time>2022-05-17T12:49:40.000Z</time>
      </trkpt>
      <trkpt lat="46.20534" lon="-1.50471">
        <ele>2.16442</ele>
        <time>2022-05-17T12:49:41.000Z</time>
      </trkpt>
      <trkpt lat="46.20533" lon="-1.50468">
        <ele>1.99237</ele>
        <time>2022-05-17T12:49:42.000Z</time>
      </trkpt>
      <trkpt lat="46.20532" lon="-1.50465">
        <ele>1.82365</ele>
        <time>2022-05-17T12:49:43.000Z</time>
      </trkpt>
      <trkpt lat="46.2053" lon="-1.50462">
        <ele>1.61831</ele>
        <time>2022-05-17T12:49:44.000Z</time>
      </trkpt>
      <trkpt lat="46.20529" lon="-1.50458">
        <ele>1.42173</ele>
        <time>2022-05-17T12:49:45.000Z</time>
      </trkpt>
      <trkpt lat="46.20527" lon="-1.50454">
        <ele>1.27818</ele>
        <time>2022-05-17T12:49:46.000Z</time>
      </trkpt>
      <trkpt lat="46.20524" lon="-1.5045">
        <ele>1.2293</ele>
        <time>2022-05-17T12:49:47.000Z</time>
      </trkpt>
      <trkpt lat="46.20522" lon="-1.50446">
        <ele>1.31485</ele>
        <time>2022-05-17T12:49:48.000Z</time>
      </trkpt>
      <trkpt lat="46.20519" lon="-1.50442">
        <ele>1.50043</ele>
        <time>2022-05-17T12:49:49.000Z</time>
      </trkpt>
      <trkpt lat="46.20516" lon="-1.50438">
        <ele>1.71681</ele>
        <time>2022-05-17T12:49:50.000Z</time>
      </trkpt>
      <trkpt lat="46.20514" lon="-1.50435">
        <ele>1.93639</ele>
        <time>2022-05-17T12:49:51.000Z</time>
      </trkpt>
      <trkpt lat="46.20512" lon="-1.50431">
        <ele>2.13616</ele>
        <time>2022-05-17T12:49:52.000Z</time>
      </trkpt>
      <trkpt lat="46.2051" lon="-1.50428">
        <ele>2.30515</ele>
        <time>2022-05-17T12:49:53.000Z</time>
      </trkpt>
      <trkpt lat="46.20508" lon="-1.50425">
        <ele>2.44718</ele>
        <time>2022-05-17T12:49:54.000Z</time>
      </trkpt>
      <trkpt lat="46.20506" lon="-1.50421">
        <ele>2.52707</ele>
        <time>2022-05-17T12:49:55.000Z</time>
      </trkpt>
      <trkpt lat="46.20505" lon="-1.50418">
        <ele>2.53079</ele>
        <time>2022-05-17T12:49:56.000Z</time>
      </trkpt>
      <trkpt lat="46.20504" lon="-1.50415">
        <ele>2.48742</ele>
        <time>2022-05-17T12:49:57.000Z</time>
      </trkpt>
      <trkpt lat="46.20502" lon="-1.50411">
        <ele>2.40398</ele>
        <time>2022-05-17T12:49:58.000Z</time>
      </trkpt>
      <trkpt lat="46.20501" lon="-1.50408">
        <ele>2.25536</ele>
        <time>2022-05-17T12:49:59.000Z</time>
      </trkpt>
      <trkpt lat="46.20499" lon="-1.50404">
        <ele>2.04827</ele>
        <time>2022-05-17T12:50:00.000Z</time>
      </trkpt>
      <trkpt lat="46.20497" lon="-1.50401">
        <ele>1.86196</ele>
        <time>2022-05-17T12:50:01.000Z</time>
      </trkpt>
      <trkpt lat="46.20495" lon="-1.50397">
        <ele>1.71245</ele>
        <time>2022-05-17T12:50:02.000Z</time>
      </trkpt>
      <trkpt lat="46.20492" lon="-1.50392">
        <ele>1.65558</ele>
        <time>2022-05-17T12:50:03.000Z</time>
      </trkpt>
      <trkpt lat="46.2049" lon="-1.50388">
        <ele>1.70076</ele>
        <time>2022-05-17T12:50:04.000Z</time>
      </trkpt>
      <trkpt lat="46.20487" lon="-1.50385">
        <ele>1.78751</ele>
        <time>2022-05-17T12:50:05.000Z</time>
      </trkpt>
      <trkpt lat="46.20485" lon="-1.50382">
        <ele>1.88362</ele>
        <time>2022-05-17T12:50:06.000Z</time>
      </trkpt>
      <trkpt lat="46.20482" lon="-1.5038">
        <ele>1.993</ele>
        <time>2022-05-17T12:50:07.000Z</time>
      </trkpt>
      <trkpt lat="46.20479" lon="-1.50376">
        <ele>2.08846</ele>
        <time>2022-05-17T12:50:08.000Z</time>
      </trkpt>
      <trkpt lat="46.20477" lon="-1.50373">
        <ele>2.14063</ele>
        <time>2022-05-17T12:50:09.000Z</time>
      </trkpt>
      <trkpt lat="46.20474" lon="-1.5037">
        <ele>2.16644</ele>
        <time>2022-05-17T12:50:10.000Z</time>
      </trkpt>
      <trkpt lat="46.20471" lon="-1.50368">
        <ele>2.17239</ele>
        <time>2022-05-17T12:50:11.000Z</time>
      </trkpt>
      <trkpt lat="46.20469" lon="-1.50366">
        <ele>2.19842</ele>
        <time>2022-05-17T12:50:12.000Z</time>
      </trkpt>
      <trkpt lat="46.20466" lon="-1.50365">
        <ele>2.23486</ele>
        <time>2022-05-17T12:50:13.000Z</time>
      </trkpt>
      <trkpt lat="46.20464" lon="-1.50364">
        <ele>2.25599</ele>
        <time>2022-05-17T12:50:14.000Z</time>
      </trkpt>
      <trkpt lat="46.20451" lon="-1.50345">
        <ele>2.28109</ele>
        <time>2022-05-17T12:50:20.000Z</time>
      </trkpt>
      <trkpt lat="46.20449" lon="-1.50341">
        <ele>2.28365</ele>
        <time>2022-05-17T12:50:21.000Z</time>
      </trkpt>
      <trkpt lat="46.20447" lon="-1.50337">
        <ele>2.21149</ele>
        <time>2022-05-17T12:50:22.000Z</time>
      </trkpt>
      <trkpt lat="46.20445" lon="-1.50333">
        <ele>2.08361</ele>
        <time>2022-05-17T12:50:23.000Z</time>
      </trkpt>
      <trkpt lat="46.20443" lon="-1.5033">
        <ele>1.95969</ele>
        <time>2022-05-17T12:50:24.000Z</time>
      </trkpt>
      <trkpt lat="46.20441" lon="-1.50327">
        <ele>1.82134</ele>
        <time>2022-05-17T12:50:25.000Z</time>
      </trkpt>
      <trkpt lat="46.20439" lon="-1.50324">
        <ele>1.68511</ele>
        <time>2022-05-17T12:50:26.000Z</time>
      </trkpt>
      <trkpt lat="46.20437" lon="-1.50319">
        <ele>1.55239</ele>
        <time>2022-05-17T12:50:27.000Z</time>
      </trkpt>
      <trkpt lat="46.20435" lon="-1.50315">
        <ele>1.52723</ele>
        <time>2022-05-17T12:50:28.000Z</time>
      </trkpt>
      <trkpt lat="46.20433" lon="-1.50311">
        <ele>1.64051</ele>
        <time>2022-05-17T12:50:29.000Z</time>
      </trkpt>
      <trkpt lat="46.20431" lon="-1.50307">
        <ele>1.81136</ele>
        <time>2022-05-17T12:50:30.000Z</time>
      </trkpt>
      <trkpt lat="46.20429" lon="-1.50304">
        <ele>2.01496</ele>
        <time>2022-05-17T12:50:31.000Z</time>
      </trkpt>
      <trkpt lat="46.20427" lon="-1.503">
        <ele>2.20763</ele>
        <time>2022-05-17T12:50:32.000Z</time>
      </trkpt>
      <trkpt lat="46.20425" lon="-1.50296">
        <ele>2.32461</ele>
        <time>2022-05-17T12:50:33.000Z</time>
      </trkpt>
      <trkpt lat="46.20424" lon="-1.50292">
        <ele>2.39052</ele>
        <time>2022-05-17T12:50:34.000Z</time>
      </trkpt>
      <trkpt lat="46.20422" lon="-1.50289">
        <ele>2.41183</ele>
        <time>2022-05-17T12:50:35.000Z</time>
      </trkpt>
      <trkpt lat="46.20421" lon="-1.50284">
        <ele>2.40317</ele>
        <time>2022-05-17T12:50:36.000Z</time>
      </trkpt>
      <trkpt lat="46.20419" lon="-1.5028">
        <ele>2.37752</ele>
        <time>2022-05-17T12:50:37.000Z</time>
      </trkpt>
      <trkpt lat="46.20418" lon="-1.50277">
        <ele>2.34776</ele>
        <time>2022-05-17T12:50:38.000Z</time>
      </trkpt>
      <trkpt lat="46.20417" lon="-1.50273">
        <ele>2.32035</ele>
        <time>2022-05-17T12:50:39.000Z</time>
      </trkpt>
      <trkpt lat="46.20415" lon="-1.50269">
        <ele>2.29077</ele>
        <time>2022-05-17T12:50:40.000Z</time>
      </trkpt>
      <trkpt lat="46.20414" lon="-1.50265">
        <ele>2.25144</ele>
        <time>2022-05-17T12:50:41.000Z</time>
      </trkpt>
      <trkpt lat="46.20414" lon="-1.50261">
        <ele>2.19426</ele>
        <time>2022-05-17T12:50:42.000Z</time>
      </trkpt>
      <trkpt lat="46.20413" lon="-1.50256">
        <ele>2.1181</ele>
        <time>2022-05-17T12:50:43.000Z</time>
      </trkpt>
      <trkpt lat="46.20413" lon="-1.50252">
        <ele>2.04523</ele>
        <time>2022-05-17T12:50:44.000Z</time>
      </trkpt>
      <trkpt lat="46.20412" lon="-1.50248">
        <ele>1.9712</ele>
        <time>2022-05-17T12:50:45.000Z</time>
      </trkpt>
      <trkpt lat="46.20412" lon="-1.50244">
        <ele>1.90049</ele>
        <time>2022-05-17T12:50:46.000Z</time>
      </trkpt>
      <trkpt lat="46.20412" lon="-1.5024">
        <ele>1.85522</ele>
        <time>2022-05-17T12:50:47.000Z</time>
      </trkpt>
      <trkpt lat="46.20411" lon="-1.50236">
        <ele>1.81799</ele>
        <time>2022-05-17T12:50:48.000Z</time>
      </trkpt>
      <trkpt lat="46.20411" lon="-1.50232">
        <ele>1.79101</ele>
        <time>2022-05-17T12:50:49.000Z</time>
      </trkpt>
      <trkpt lat="46.20411" lon="-1.50228">
        <ele>1.7776</ele>
        <time>2022-05-17T12:50:50.000Z</time>
      </trkpt>
      <trkpt lat="46.20411" lon="-1.50224">
        <ele>1.78741</ele>
        <time>2022-05-17T12:50:51.000Z</time>
      </trkpt>
      <trkpt lat="46.20411" lon="-1.5022">
        <ele>1.82808</ele>
        <time>2022-05-17T12:50:52.000Z</time>
      </trkpt>
      <trkpt lat="46.2041" lon="-1.50216">
        <ele>1.91283</ele>
        <time>2022-05-17T12:50:53.000Z</time>
      </trkpt>
      <trkpt lat="46.20409" lon="-1.50212">
        <ele>1.99155</ele>
        <time>2022-05-17T12:50:54.000Z</time>
      </trkpt>
      <trkpt lat="46.20409" lon="-1.50208">
        <ele>2.07104</ele>
        <time>2022-05-17T12:50:55.000Z</time>
      </trkpt>
      <trkpt lat="46.20408" lon="-1.50204">
        <ele>2.17041</ele>
        <time>2022-05-17T12:50:56.000Z</time>
      </trkpt>
      <trkpt lat="46.20407" lon="-1.502">
        <ele>2.24417</ele>
        <time>2022-05-17T12:50:57.000Z</time>
      </trkpt>
      <trkpt lat="46.20406" lon="-1.50195">
        <ele>2.29248</ele>
        <time>2022-05-17T12:50:58.000Z</time>
      </trkpt>
      <trkpt lat="46.20405" lon="-1.50191">
        <ele>2.30014</ele>
        <time>2022-05-17T12:50:59.000Z</time>
      </trkpt>
      <trkpt lat="46.20405" lon="-1.50187">
        <ele>2.29058</ele>
        <time>2022-05-17T12:51:00.000Z</time>
      </trkpt>
      <trkpt lat="46.20404" lon="-1.50183">
        <ele>2.27325</ele>
        <time>2022-05-17T12:51:01.000Z</time>
      </trkpt>
      <trkpt lat="46.20404" lon="-1.50179">
        <ele>2.24749</ele>
        <time>2022-05-17T12:51:02.000Z</time>
      </trkpt>
      <trkpt lat="46.20403" lon="-1.50175">
        <ele>2.20759</ele>
        <time>2022-05-17T12:51:03.000Z</time>
      </trkpt>
      <trkpt lat="46.20402" lon="-1.50171">
        <ele>2.15789</ele>
        <time>2022-05-17T12:51:04.000Z</time>
      </trkpt>
      <trkpt lat="46.20402" lon="-1.50167">
        <ele>2.10546</ele>
        <time>2022-05-17T12:51:05.000Z</time>
      </trkpt>
      <trkpt lat="46.20401" lon="-1.50163">
        <ele>2.0482</ele>
        <time>2022-05-17T12:51:06.000Z</time>
      </trkpt>
      <trkpt lat="46.20401" lon="-1.50159">
        <ele>1.99585</ele>
        <time>2022-05-17T12:51:07.000Z</time>
      </trkpt>
      <trkpt lat="46.20401" lon="-1.50154">
        <ele>1.94233</ele>
        <time>2022-05-17T12:51:08.000Z</time>
      </trkpt>
      <trkpt lat="46.20401" lon="-1.50149">
        <ele>1.88453</ele>
        <time>2022-05-17T12:51:09.000Z</time>
      </trkpt>
      <trkpt lat="46.20401" lon="-1.50144">
        <ele>1.84328</ele>
        <time>2022-05-17T12:51:10.000Z</time>
      </trkpt>
      <trkpt lat="46.20401" lon="-1.50139">
        <ele>1.81219</ele>
        <time>2022-05-17T12:51:11.000Z</time>
      </trkpt>
      <trkpt lat="46.20402" lon="-1.50135">
        <ele>1.78496</ele>
        <time>2022-05-17T12:51:12.000Z</time>
      </trkpt>
      <trkpt lat="46.20402" lon="-1.50131">
        <ele>1.7621</ele>
        <time>2022-05-17T12:51:13.000Z</time>
      </trkpt>
      <trkpt lat="46.20401" lon="-1.50126">
        <ele>1.73949</ele>
        <time>2022-05-17T12:51:14.000Z</time>
      </trkpt>
      <trkpt lat="46.20401" lon="-1.50122">
        <ele>1.72489</ele>
        <time>2022-05-17T12:51:15.000Z</time>
      </trkpt>
      <trkpt lat="46.204" lon="-1.50118">
        <ele>1.71733</ele>
        <time>2022-05-17T12:51:16.000Z</time>
      </trkpt>
      <trkpt lat="46.204" lon="-1.50113">
        <ele>1.71561</ele>
        <time>2022-05-17T12:51:17.000Z</time>
      </trkpt>
      <trkpt lat="46.20399" lon="-1.50109">
        <ele>1.71813</ele>
        <time>2022-05-17T12:51:18.000Z</time>
      </trkpt>
      <trkpt lat="46.20399" lon="-1.50105">
        <ele>1.72872</ele>
        <time>2022-05-17T12:51:19.000Z</time>
      </trkpt>
      <trkpt lat="46.20399" lon="-1.50101">
        <ele>1.74353</ele>
        <time>2022-05-17T12:51:20.000Z</time>
      </trkpt>
      <trkpt lat="46.20399" lon="-1.50096">
        <ele>1.75964</ele>
        <time>2022-05-17T12:51:21.000Z</time>
      </trkpt>
      <trkpt lat="46.20399" lon="-1.50092">
        <ele>1.77736</ele>
        <time>2022-05-17T12:51:22.000Z</time>
      </trkpt>
      <trkpt lat="46.20399" lon="-1.50089">
        <ele>1.77487</ele>
        <time>2022-05-17T12:51:23.000Z</time>
      </trkpt>
      <trkpt lat="46.20399" lon="-1.50085">
        <ele>1.77877</ele>
        <time>2022-05-17T12:51:24.000Z</time>
      </trkpt>
      <trkpt lat="46.204" lon="-1.50081">
        <ele>1.76302</ele>
        <time>2022-05-17T12:51:25.000Z</time>
      </trkpt>
      <trkpt lat="46.204" lon="-1.50076">
        <ele>1.7426</ele>
        <time>2022-05-17T12:51:26.000Z</time>
      </trkpt>
      <trkpt lat="46.204" lon="-1.50072">
        <ele>1.7112</ele>
        <time>2022-05-17T12:51:27.000Z</time>
      </trkpt>
      <trkpt lat="46.20401" lon="-1.50067">
        <ele>1.66809</ele>
        <time>2022-05-17T12:51:28.000Z</time>
      </trkpt>
      <trkpt lat="46.20401" lon="-1.50062">
        <ele>1.63886</ele>
        <time>2022-05-17T12:51:29.000Z</time>
      </trkpt>
      <trkpt lat="46.20402" lon="-1.50057">
        <ele>1.62662</ele>
        <time>2022-05-17T12:51:30.000Z</time>
      </trkpt>
      <trkpt lat="46.20402" lon="-1.50053">
        <ele>1.59746</ele>
        <time>2022-05-17T12:51:31.000Z</time>
      </trkpt>
      <trkpt lat="46.20402" lon="-1.50048">
        <ele>1.56202</ele>
        <time>2022-05-17T12:51:32.000Z</time>
      </trkpt>
      <trkpt lat="46.20402" lon="-1.50043">
        <ele>1.48397</ele>
        <time>2022-05-17T12:51:33.000Z</time>
      </trkpt>
      <trkpt lat="46.20401" lon="-1.50038">
        <ele>1.35248</ele>
        <time>2022-05-17T12:51:34.000Z</time>
      </trkpt>
      <trkpt lat="46.20401" lon="-1.50033">
        <ele>1.24104</ele>
        <time>2022-05-17T12:51:35.000Z</time>
      </trkpt>
      <trkpt lat="46.20401" lon="-1.50028">
        <ele>1.17634</ele>
        <time>2022-05-17T12:51:36.000Z</time>
      </trkpt>
      <trkpt lat="46.20401" lon="-1.50023">
        <ele>1.16225</ele>
        <time>2022-05-17T12:51:37.000Z</time>
      </trkpt>
      <trkpt lat="46.20401" lon="-1.50018">
        <ele>1.17714</ele>
        <time>2022-05-17T12:51:38.000Z</time>
      </trkpt>
      <trkpt lat="46.20401" lon="-1.50014">
        <ele>1.23414</ele>
        <time>2022-05-17T12:51:39.000Z</time>
      </trkpt>
      <trkpt lat="46.20402" lon="-1.50009">
        <ele>1.34333</ele>
        <time>2022-05-17T12:51:40.000Z</time>
      </trkpt>
      <trkpt lat="46.20402" lon="-1.50004">
        <ele>1.52985</ele>
        <time>2022-05-17T12:51:41.000Z</time>
      </trkpt>
      <trkpt lat="46.20403" lon="-1.49999">
        <ele>1.7444</ele>
        <time>2022-05-17T12:51:42.000Z</time>
      </trkpt>
      <trkpt lat="46.20404" lon="-1.49994">
        <ele>1.94123</ele>
        <time>2022-05-17T12:51:43.000Z</time>
      </trkpt>
      <trkpt lat="46.20405" lon="-1.49989">
        <ele>2.09323</ele>
        <time>2022-05-17T12:51:44.000Z</time>
      </trkpt>
      <trkpt lat="46.20405" lon="-1.49984">
        <ele>2.20837</ele>
        <time>2022-05-17T12:51:45.000Z</time>
      </trkpt>
      <trkpt lat="46.20405" lon="-1.4998">
        <ele>2.28739</ele>
        <time>2022-05-17T12:51:46.000Z</time>
      </trkpt>
      <trkpt lat="46.20406" lon="-1.49975">
        <ele>2.34495</ele>
        <time>2022-05-17T12:51:47.000Z</time>
      </trkpt>
      <trkpt lat="46.20406" lon="-1.49971">
        <ele>2.39005</ele>
        <time>2022-05-17T12:51:48.000Z</time>
      </trkpt>
      <trkpt lat="46.20406" lon="-1.49966">
        <ele>2.42644</ele>
        <time>2022-05-17T12:51:49.000Z</time>
      </trkpt>
      <trkpt lat="46.20406" lon="-1.49962">
        <ele>2.45051</ele>
        <time>2022-05-17T12:51:50.000Z</time>
      </trkpt>
      <trkpt lat="46.20407" lon="-1.49958">
        <ele>2.45943</ele>
        <time>2022-05-17T12:51:51.000Z</time>
      </trkpt>
      <trkpt lat="46.20408" lon="-1.49954">
        <ele>2.45571</ele>
        <time>2022-05-17T12:51:52.000Z</time>
      </trkpt>
      <trkpt lat="46.20409" lon="-1.49951">
        <ele>2.44456</ele>
        <time>2022-05-17T12:51:53.000Z</time>
      </trkpt>
      <trkpt lat="46.2041" lon="-1.49948">
        <ele>2.41633</ele>
        <time>2022-05-17T12:51:54.000Z</time>
      </trkpt>
      <trkpt lat="46.20411" lon="-1.49944">
        <ele>2.3692</ele>
        <time>2022-05-17T12:51:55.000Z</time>
      </trkpt>
      <trkpt lat="46.20413" lon="-1.4994">
        <ele>2.29102</ele>
        <time>2022-05-17T12:51:56.000Z</time>
      </trkpt>
      <trkpt lat="46.20413" lon="-1.49936">
        <ele>2.24035</ele>
        <time>2022-05-17T12:51:57.000Z</time>
      </trkpt>
      <trkpt lat="46.20412" lon="-1.49932">
        <ele>2.18244</ele>
        <time>2022-05-17T12:51:58.000Z</time>
      </trkpt>
      <trkpt lat="46.20411" lon="-1.49927">
        <ele>2.14516</ele>
        <time>2022-05-17T12:51:59.000Z</time>
      </trkpt>
      <trkpt lat="46.20411" lon="-1.49922">
        <ele>2.10856</ele>
        <time>2022-05-17T12:52:00.000Z</time>
      </trkpt>
      <trkpt lat="46.20412" lon="-1.49918">
        <ele>2.03928</ele>
        <time>2022-05-17T12:52:01.000Z</time>
      </trkpt>
      <trkpt lat="46.20412" lon="-1.49913">
        <ele>1.99778</ele>
        <time>2022-05-17T12:52:02.000Z</time>
      </trkpt>
      <trkpt lat="46.20412" lon="-1.49908">
        <ele>1.96375</ele>
        <time>2022-05-17T12:52:03.000Z</time>
      </trkpt>
      <trkpt lat="46.20411" lon="-1.49904">
        <ele>1.92908</ele>
        <time>2022-05-17T12:52:04.000Z</time>
      </trkpt>
      <trkpt lat="46.20411" lon="-1.49899">
        <ele>1.87808</ele>
        <time>2022-05-17T12:52:05.000Z</time>
      </trkpt>
      <trkpt lat="46.20411" lon="-1.49895">
        <ele>1.80266</ele>
        <time>2022-05-17T12:52:06.000Z</time>
      </trkpt>
      <trkpt lat="46.2041" lon="-1.49891">
        <ele>1.68536</ele>
        <time>2022-05-17T12:52:07.000Z</time>
      </trkpt>
      <trkpt lat="46.2041" lon="-1.49887">
        <ele>1.56948</ele>
        <time>2022-05-17T12:52:08.000Z</time>
      </trkpt>
      <trkpt lat="46.20409" lon="-1.49884">
        <ele>1.44947</ele>
        <time>2022-05-17T12:52:09.000Z</time>
      </trkpt>
      <trkpt lat="46.20408" lon="-1.49879">
        <ele>1.28461</ele>
        <time>2022-05-17T12:52:10.000Z</time>
      </trkpt>
      <trkpt lat="46.20408" lon="-1.49875">
        <ele>1.14826</ele>
        <time>2022-05-17T12:52:11.000Z</time>
      </trkpt>
      <trkpt lat="46.20408" lon="-1.4987">
        <ele>1.08341</ele>
        <time>2022-05-17T12:52:12.000Z</time>
      </trkpt>
      <trkpt lat="46.20408" lon="-1.49866">
        <ele>1.0401</ele>
        <time>2022-05-17T12:52:13.000Z</time>
      </trkpt>
      <trkpt lat="46.20408" lon="-1.49861">
        <ele>1.01433</ele>
        <time>2022-05-17T12:52:14.000Z</time>
      </trkpt>
      <trkpt lat="46.20408" lon="-1.49857">
        <ele>0.99767</ele>
        <time>2022-05-17T12:52:15.000Z</time>
      </trkpt>
      <trkpt lat="46.20408" lon="-1.49853">
        <ele>0.98595</ele>
        <time>2022-05-17T12:52:16.000Z</time>
      </trkpt>
      <trkpt lat="46.20408" lon="-1.4985">
        <ele>0.98978</ele>
        <time>2022-05-17T12:52:17.000Z</time>
      </trkpt>
      <trkpt lat="46.20407" lon="-1.49846">
        <ele>1.01087</ele>
        <time>2022-05-17T12:52:18.000Z</time>
      </trkpt>
      <trkpt lat="46.20406" lon="-1.49843">
        <ele>1.06403</ele>
        <time>2022-05-17T12:52:19.000Z</time>
      </trkpt>
      <trkpt lat="46.20406" lon="-1.4984">
        <ele>1.14632</ele>
        <time>2022-05-17T12:52:20.000Z</time>
      </trkpt>
      <trkpt lat="46.20405" lon="-1.49836">
        <ele>1.29604</ele>
        <time>2022-05-17T12:52:21.000Z</time>
      </trkpt>
      <trkpt lat="46.20405" lon="-1.49832">
        <ele>1.47624</ele>
        <time>2022-05-17T12:52:22.000Z</time>
      </trkpt>
      <trkpt lat="46.20404" lon="-1.49828">
        <ele>1.65645</ele>
        <time>2022-05-17T12:52:23.000Z</time>
      </trkpt>
      <trkpt lat="46.20404" lon="-1.49824">
        <ele>1.82182</ele>
        <time>2022-05-17T12:52:24.000Z</time>
      </trkpt>
      <trkpt lat="46.20403" lon="-1.49819">
        <ele>1.94729</ele>
        <time>2022-05-17T12:52:25.000Z</time>
      </trkpt>
      <trkpt lat="46.20403" lon="-1.49815">
        <ele>1.98806</ele>
        <time>2022-05-17T12:52:26.000Z</time>
      </trkpt>
      <trkpt lat="46.20402" lon="-1.49811">
        <ele>1.97502</ele>
        <time>2022-05-17T12:52:27.000Z</time>
      </trkpt>
      <trkpt lat="46.20401" lon="-1.49807">
        <ele>1.90575</ele>
        <time>2022-05-17T12:52:28.000Z</time>
      </trkpt>
      <trkpt lat="46.20399" lon="-1.49802">
        <ele>1.78706</ele>
        <time>2022-05-17T12:52:29.000Z</time>
      </trkpt>
      <trkpt lat="46.20398" lon="-1.49797">
        <ele>1.62715</ele>
        <time>2022-05-17T12:52:30.000Z</time>
      </trkpt>
      <trkpt lat="46.20397" lon="-1.49793">
        <ele>1.46474</ele>
        <time>2022-05-17T12:52:31.000Z</time>
      </trkpt>
      <trkpt lat="46.20395" lon="-1.49788">
        <ele>1.31761</ele>
        <time>2022-05-17T12:52:32.000Z</time>
      </trkpt>
      <trkpt lat="46.20393" lon="-1.49783">
        <ele>1.22819</ele>
        <time>2022-05-17T12:52:33.000Z</time>
      </trkpt>
      <trkpt lat="46.20391" lon="-1.49778">
        <ele>1.20049</ele>
        <time>2022-05-17T12:52:34.000Z</time>
      </trkpt>
      <trkpt lat="46.20389" lon="-1.49773">
        <ele>1.2405</ele>
        <time>2022-05-17T12:52:35.000Z</time>
      </trkpt>
      <trkpt lat="46.20387" lon="-1.4977">
        <ele>1.31234</ele>
        <time>2022-05-17T12:52:36.000Z</time>
      </trkpt>
      <trkpt lat="46.20385" lon="-1.49766">
        <ele>1.42046</ele>
        <time>2022-05-17T12:52:37.000Z</time>
      </trkpt>
      <trkpt lat="46.20383" lon="-1.49763">
        <ele>1.55556</ele>
        <time>2022-05-17T12:52:38.000Z</time>
      </trkpt>
      <trkpt lat="46.2038" lon="-1.49761">
        <ele>1.6912</ele>
        <time>2022-05-17T12:52:39.000Z</time>
      </trkpt>
      <trkpt lat="46.20378" lon="-1.49758">
        <ele>1.80457</ele>
        <time>2022-05-17T12:52:40.000Z</time>
      </trkpt>
      <trkpt lat="46.20376" lon="-1.49756">
        <ele>1.88317</ele>
        <time>2022-05-17T12:52:41.000Z</time>
      </trkpt>
      <trkpt lat="46.20373" lon="-1.49753">
        <ele>1.93593</ele>
        <time>2022-05-17T12:52:42.000Z</time>
      </trkpt>
      <trkpt lat="46.20371" lon="-1.49751">
        <ele>1.96288</ele>
        <time>2022-05-17T12:52:43.000Z</time>
      </trkpt>
      <trkpt lat="46.20369" lon="-1.49749">
        <ele>1.97115</ele>
        <time>2022-05-17T12:52:44.000Z</time>
      </trkpt>
      <trkpt lat="46.20366" lon="-1.49746">
        <ele>1.97533</ele>
        <time>2022-05-17T12:52:45.000Z</time>
      </trkpt>
      <trkpt lat="46.20364" lon="-1.49744">
        <ele>1.98604</ele>
        <time>2022-05-17T12:52:46.000Z</time>
      </trkpt>
      <trkpt lat="46.20362" lon="-1.49741">
        <ele>2.00331</ele>
        <time>2022-05-17T12:52:47.000Z</time>
      </trkpt>
      <trkpt lat="46.2036" lon="-1.49738">
        <ele>2.04581</ele>
        <time>2022-05-17T12:52:48.000Z</time>
      </trkpt>
      <trkpt lat="46.20357" lon="-1.49735">
        <ele>2.11325</ele>
        <time>2022-05-17T12:52:49.000Z</time>
      </trkpt>
      <trkpt lat="46.20355" lon="-1.49731">
        <ele>2.1863</ele>
        <time>2022-05-17T12:52:50.000Z</time>
      </trkpt>
      <trkpt lat="46.20353" lon="-1.49728">
        <ele>2.22367</ele>
        <time>2022-05-17T12:52:51.000Z</time>
      </trkpt>
      <trkpt lat="46.20351" lon="-1.49724">
        <ele>2.23196</ele>
        <time>2022-05-17T12:52:52.000Z</time>
      </trkpt>
      <trkpt lat="46.20349" lon="-1.4972">
        <ele>2.21862</ele>
        <time>2022-05-17T12:52:53.000Z</time>
      </trkpt>
      <trkpt lat="46.20346" lon="-1.49717">
        <ele>2.1906</ele>
        <time>2022-05-17T12:52:54.000Z</time>
      </trkpt>
      <trkpt lat="46.20344" lon="-1.49713">
        <ele>2.15303</ele>
        <time>2022-05-17T12:52:55.000Z</time>
      </trkpt>
      <trkpt lat="46.20342" lon="-1.49711">
        <ele>2.1348</ele>
        <time>2022-05-17T12:52:56.000Z</time>
      </trkpt>
      <trkpt lat="46.20341" lon="-1.49708">
        <ele>2.13698</ele>
        <time>2022-05-17T12:52:57.000Z</time>
      </trkpt>
      <trkpt lat="46.20339" lon="-1.49706">
        <ele>2.17909</ele>
        <time>2022-05-17T12:52:58.000Z</time>
      </trkpt>
      <trkpt lat="46.20337" lon="-1.49702">
        <ele>2.25405</ele>
        <time>2022-05-17T12:52:59.000Z</time>
      </trkpt>
      <trkpt lat="46.20335" lon="-1.49699">
        <ele>2.34028</ele>
        <time>2022-05-17T12:53:00.000Z</time>
      </trkpt>
      <trkpt lat="46.20333" lon="-1.49696">
        <ele>2.39727</ele>
        <time>2022-05-17T12:53:01.000Z</time>
      </trkpt>
      <trkpt lat="46.20332" lon="-1.49694">
        <ele>2.38518</ele>
        <time>2022-05-17T12:53:02.000Z</time>
      </trkpt>
      <trkpt lat="46.2033" lon="-1.49691">
        <ele>2.28914</ele>
        <time>2022-05-17T12:53:03.000Z</time>
      </trkpt>
      <trkpt lat="46.20328" lon="-1.49688">
        <ele>2.11892</ele>
        <time>2022-05-17T12:53:04.000Z</time>
      </trkpt>
      <trkpt lat="46.20326" lon="-1.49685">
        <ele>1.89075</ele>
        <time>2022-05-17T12:53:05.000Z</time>
      </trkpt>
      <trkpt lat="46.20324" lon="-1.49682">
        <ele>1.62226</ele>
        <time>2022-05-17T12:53:06.000Z</time>
      </trkpt>
      <trkpt lat="46.20323" lon="-1.49678">
        <ele>1.39118</ele>
        <time>2022-05-17T12:53:07.000Z</time>
      </trkpt>
      <trkpt lat="46.20322" lon="-1.49675">
        <ele>1.25296</ele>
        <time>2022-05-17T12:53:08.000Z</time>
      </trkpt>
      <trkpt lat="46.20321" lon="-1.49672">
        <ele>1.21414</ele>
        <time>2022-05-17T12:53:09.000Z</time>
      </trkpt>
      <trkpt lat="46.20319" lon="-1.49668">
        <ele>1.25984</ele>
        <time>2022-05-17T12:53:10.000Z</time>
      </trkpt>
      <trkpt lat="46.20318" lon="-1.49664">
        <ele>1.41783</ele>
        <time>2022-05-17T12:53:11.000Z</time>
      </trkpt>
      <trkpt lat="46.20318" lon="-1.4966">
        <ele>1.6374</ele>
        <time>2022-05-17T12:53:12.000Z</time>
      </trkpt>
      <trkpt lat="46.20317" lon="-1.49656">
        <ele>1.88725</ele>
        <time>2022-05-17T12:53:13.000Z</time>
      </trkpt>
      <trkpt lat="46.20315" lon="-1.49652">
        <ele>2.08675</ele>
        <time>2022-05-17T12:53:14.000Z</time>
      </trkpt>
      <trkpt lat="46.20313" lon="-1.49648">
        <ele>2.17808</ele>
        <time>2022-05-17T12:53:15.000Z</time>
      </trkpt>
      <trkpt lat="46.20311" lon="-1.49644">
        <ele>2.09461</ele>
        <time>2022-05-17T12:53:16.000Z</time>
      </trkpt>
      <trkpt lat="46.20308" lon="-1.49641">
        <ele>1.89767</ele>
        <time>2022-05-17T12:53:17.000Z</time>
      </trkpt>
      <trkpt lat="46.20307" lon="-1.49638">
        <ele>1.70003</ele>
        <time>2022-05-17T12:53:18.000Z</time>
      </trkpt>
      <trkpt lat="46.20305" lon="-1.49634">
        <ele>1.52135</ele>
        <time>2022-05-17T12:53:19.000Z</time>
      </trkpt>
      <trkpt lat="46.20303" lon="-1.4963">
        <ele>1.44176</ele>
        <time>2022-05-17T12:53:20.000Z</time>
      </trkpt>
      <trkpt lat="46.20301" lon="-1.49626">
        <ele>1.48901</ele>
        <time>2022-05-17T12:53:21.000Z</time>
      </trkpt>
      <trkpt lat="46.203" lon="-1.49622">
        <ele>1.63037</ele>
        <time>2022-05-17T12:53:22.000Z</time>
      </trkpt>
      <trkpt lat="46.20298" lon="-1.49618">
        <ele>1.81289</ele>
        <time>2022-05-17T12:53:23.000Z</time>
      </trkpt>
      <trkpt lat="46.20297" lon="-1.49614">
        <ele>1.92779</ele>
        <time>2022-05-17T12:53:24.000Z</time>
      </trkpt>
      <trkpt lat="46.20296" lon="-1.4961">
        <ele>1.93262</ele>
        <time>2022-05-17T12:53:25.000Z</time>
      </trkpt>
      <trkpt lat="46.20294" lon="-1.49606">
        <ele>1.82082</ele>
        <time>2022-05-17T12:53:26.000Z</time>
      </trkpt>
      <trkpt lat="46.20293" lon="-1.49602">
        <ele>1.61116</ele>
        <time>2022-05-17T12:53:27.000Z</time>
      </trkpt>
      <trkpt lat="46.20291" lon="-1.49598">
        <ele>1.37169</ele>
        <time>2022-05-17T12:53:28.000Z</time>
      </trkpt>
      <trkpt lat="46.2029" lon="-1.49594">
        <ele>1.18038</ele>
        <time>2022-05-17T12:53:29.000Z</time>
      </trkpt>
      <trkpt lat="46.20289" lon="-1.4959">
        <ele>1.04269</ele>
        <time>2022-05-17T12:53:30.000Z</time>
      </trkpt>
      <trkpt lat="46.20288" lon="-1.49587">
        <ele>0.99523</ele>
        <time>2022-05-17T12:53:31.000Z</time>
      </trkpt>
      <trkpt lat="46.20286" lon="-1.49584">
        <ele>1.08748</ele>
        <time>2022-05-17T12:53:32.000Z</time>
      </trkpt>
      <trkpt lat="46.20285" lon="-1.4958">
        <ele>1.24958</ele>
        <time>2022-05-17T12:53:33.000Z</time>
      </trkpt>
      <trkpt lat="46.20283" lon="-1.49577">
        <ele>1.45968</ele>
        <time>2022-05-17T12:53:34.000Z</time>
      </trkpt>
      <trkpt lat="46.20282" lon="-1.49574">
        <ele>1.6145</ele>
        <time>2022-05-17T12:53:35.000Z</time>
      </trkpt>
      <trkpt lat="46.2028" lon="-1.49571">
        <ele>1.7413</ele>
        <time>2022-05-17T12:53:36.000Z</time>
      </trkpt>
      <trkpt lat="46.20279" lon="-1.49567">
        <ele>1.78381</ele>
        <time>2022-05-17T12:53:37.000Z</time>
      </trkpt>
      <trkpt lat="46.20277" lon="-1.49563">
        <ele>1.71572</ele>
        <time>2022-05-17T12:53:38.000Z</time>
      </trkpt>
      <trkpt lat="46.20275" lon="-1.4956">
        <ele>1.53973</ele>
        <time>2022-05-17T12:53:39.000Z</time>
      </trkpt>
      <trkpt lat="46.20274" lon="-1.49556">
        <ele>1.32388</ele>
        <time>2022-05-17T12:53:40.000Z</time>
      </trkpt>
      <trkpt lat="46.20273" lon="-1.49552">
        <ele>1.11661</ele>
        <time>2022-05-17T12:53:41.000Z</time>
      </trkpt>
      <trkpt lat="46.20271" lon="-1.49549">
        <ele>0.98378</ele>
        <time>2022-05-17T12:53:42.000Z</time>
      </trkpt>
      <trkpt lat="46.2027" lon="-1.49545">
        <ele>0.92842</ele>
        <time>2022-05-17T12:53:43.000Z</time>
      </trkpt>
      <trkpt lat="46.2027" lon="-1.49542">
        <ele>0.90886</ele>
        <time>2022-05-17T12:53:46.000Z</time>
      </trkpt>
      <trkpt lat="46.20268" lon="-1.49545">
        <ele>0.96527</ele>
        <time>2022-05-17T12:53:50.000Z</time>
      </trkpt>
      <trkpt lat="46.20267" lon="-1.49546">
        <ele>1.03462</ele>
        <time>2022-05-17T12:54:35.000Z</time>
      </trkpt>
      <trkpt lat="46.20265" lon="-1.49543">
        <ele>1.08962</ele>
        <time>2022-05-17T12:55:10.000Z</time>
      </trkpt>
      <trkpt lat="46.20264" lon="-1.49539">
        <ele>1.23092</ele>
        <time>2022-05-17T12:55:11.000Z</time>
      </trkpt>
      <trkpt lat="46.20262" lon="-1.49536">
        <ele>1.41319</ele>
        <time>2022-05-17T12:55:12.000Z</time>
      </trkpt>
      <trkpt lat="46.20261" lon="-1.49533">
        <ele>1.60839</ele>
        <time>2022-05-17T12:55:13.000Z</time>
      </trkpt>
      <trkpt lat="46.20259" lon="-1.4953">
        <ele>1.87737</ele>
        <time>2022-05-17T12:55:14.000Z</time>
      </trkpt>
      <trkpt lat="46.20258" lon="-1.49526">
        <ele>2.15521</ele>
        <time>2022-05-17T12:55:15.000Z</time>
      </trkpt>
      <trkpt lat="46.20256" lon="-1.49522">
        <ele>2.4049</ele>
        <time>2022-05-17T12:55:16.000Z</time>
      </trkpt>
      <trkpt lat="46.20254" lon="-1.49518">
        <ele>2.5932</ele>
        <time>2022-05-17T12:55:17.000Z</time>
      </trkpt>
      <trkpt lat="46.20253" lon="-1.49514">
        <ele>2.65737</ele>
        <time>2022-05-17T12:55:18.000Z</time>
      </trkpt>
      <trkpt lat="46.20251" lon="-1.49509">
        <ele>2.54764</ele>
        <time>2022-05-17T12:55:19.000Z</time>
      </trkpt>
      <trkpt lat="46.20249" lon="-1.49503">
        <ele>2.22233</ele>
        <time>2022-05-17T12:55:20.000Z</time>
      </trkpt>
      <trkpt lat="46.20248" lon="-1.49497">
        <ele>1.8486</ele>
        <time>2022-05-17T12:55:21.000Z</time>
      </trkpt>
      <trkpt lat="46.20246" lon="-1.4949">
        <ele>1.57866</ele>
        <time>2022-05-17T12:55:22.000Z</time>
      </trkpt>
      <trkpt lat="46.20243" lon="-1.49484">
        <ele>1.55449</ele>
        <time>2022-05-17T12:55:23.000Z</time>
      </trkpt>
      <trkpt lat="46.20241" lon="-1.49478">
        <ele>1.78345</ele>
        <time>2022-05-17T12:55:24.000Z</time>
      </trkpt>
      <trkpt lat="46.20238" lon="-1.49472">
        <ele>2.11444</ele>
        <time>2022-05-17T12:55:25.000Z</time>
      </trkpt>
      <trkpt lat="46.20236" lon="-1.49466">
        <ele>2.40491</ele>
        <time>2022-05-17T12:55:26.000Z</time>
      </trkpt>
      <trkpt lat="46.20233" lon="-1.49448">
        <ele>2.46102</ele>
        <time>2022-05-17T12:55:27.000Z</time>
      </trkpt>
      <trkpt lat="46.20229" lon="-1.49433">
        <ele>1.87504</ele>
        <time>2022-05-17T12:55:28.000Z</time>
      </trkpt>
      <trkpt lat="46.20228" lon="-1.49429">
        <ele>1.71591</ele>
        <time>2022-05-17T12:55:29.000Z</time>
      </trkpt>
      <trkpt lat="46.20224" lon="-1.49422">
        <ele>1.69029</ele>
        <time>2022-05-17T12:55:30.000Z</time>
      </trkpt>
      <trkpt lat="46.20222" lon="-1.4942">
        <ele>1.80855</ele>
        <time>2022-05-17T12:55:31.000Z</time>
      </trkpt>
      <trkpt lat="46.2022" lon="-1.49413">
        <ele>2.06243</ele>
        <time>2022-05-17T12:55:32.000Z</time>
      </trkpt>
      <trkpt lat="46.20218" lon="-1.49411">
        <ele>2.22551</ele>
        <time>2022-05-17T12:55:39.000Z</time>
      </trkpt>
      <trkpt lat="46.20218" lon="-1.49408">
        <ele>2.25672</ele>
        <time>2022-05-17T12:55:43.000Z</time>
      </trkpt>
      <trkpt lat="46.20219" lon="-1.49405">
        <ele>2.08342</ele>
        <time>2022-05-17T12:55:46.000Z</time>
      </trkpt>
      <trkpt lat="46.20221" lon="-1.49406">
        <ele>1.90236</ele>
        <time>2022-05-17T12:55:50.000Z</time>
      </trkpt>
      <trkpt lat="46.20219" lon="-1.49409">
        <ele>2.11558</ele>
        <time>2022-05-17T12:55:56.000Z</time>
      </trkpt>
      <trkpt lat="46.2022" lon="-1.49412">
        <ele>2.04791</ele>
        <time>2022-05-17T12:56:02.000Z</time>
      </trkpt>
      <trkpt lat="46.20222" lon="-1.49414">
        <ele>1.85745</ele>
        <time>2022-05-17T12:56:04.000Z</time>
      </trkpt>
      <trkpt lat="46.2022" lon="-1.49413">
        <ele>2.05103</ele>
        <time>2022-05-17T12:56:08.000Z</time>
      </trkpt>
      <trkpt lat="46.20218" lon="-1.49411">
        <ele>2.28204</ele>
        <time>2022-05-17T12:56:09.000Z</time>
      </trkpt>
      <trkpt lat="46.20215" lon="-1.49407">
        <ele>2.5143</ele>
        <time>2022-05-17T12:56:10.000Z</time>
      </trkpt>
      <trkpt lat="46.20213" lon="-1.49401">
        <ele>2.605</ele>
        <time>2022-05-17T12:56:11.000Z</time>
      </trkpt>
      <trkpt lat="46.20209" lon="-1.49386">
        <ele>2.32219</ele>
        <time>2022-05-17T12:56:12.000Z</time>
      </trkpt>
      <trkpt lat="46.20209" lon="-1.49377">
        <ele>2.24603</ele>
        <time>2022-05-17T12:56:13.000Z</time>
      </trkpt>
      <trkpt lat="46.20207" lon="-1.49372">
        <ele>2.22759</ele>
        <time>2022-05-17T12:56:14.000Z</time>
      </trkpt>
      <trkpt lat="46.20208" lon="-1.49367">
        <ele>2.2809</ele>
        <time>2022-05-17T12:56:15.000Z</time>
      </trkpt>
      <trkpt lat="46.20208" lon="-1.49361">
        <ele>2.33164</ele>
        <time>2022-05-17T12:56:16.000Z</time>
      </trkpt>
      <trkpt lat="46.20209" lon="-1.49354">
        <ele>2.41514</ele>
        <time>2022-05-17T12:56:17.000Z</time>
      </trkpt>
      <trkpt lat="46.20211" lon="-1.49346">
        <ele>2.49112</ele>
        <time>2022-05-17T12:56:18.000Z</time>
      </trkpt>
      <trkpt lat="46.20212" lon="-1.49341">
        <ele>2.50757</ele>
        <time>2022-05-17T12:56:19.000Z</time>
      </trkpt>
      <trkpt lat="46.20214" lon="-1.49336">
        <ele>2.46398</ele>
        <time>2022-05-17T12:56:20.000Z</time>
      </trkpt>
      <trkpt lat="46.20216" lon="-1.49327">
        <ele>2.32693</ele>
        <time>2022-05-17T12:56:21.000Z</time>
      </trkpt>
      <trkpt lat="46.20218" lon="-1.49318">
        <ele>2.1417</ele>
        <time>2022-05-17T12:56:22.000Z</time>
      </trkpt>
      <trkpt lat="46.20219" lon="-1.49308">
        <ele>1.91832</ele>
        <time>2022-05-17T12:56:23.000Z</time>
      </trkpt>
      <trkpt lat="46.20218" lon="-1.49297">
        <ele>1.71677</ele>
        <time>2022-05-17T12:56:24.000Z</time>
      </trkpt>
      <trkpt lat="46.2022" lon="-1.4929">
        <ele>1.51844</ele>
        <time>2022-05-17T12:56:25.000Z</time>
      </trkpt>
      <trkpt lat="46.20221" lon="-1.49282">
        <ele>1.38509</ele>
        <time>2022-05-17T12:56:26.000Z</time>
      </trkpt>
      <trkpt lat="46.20222" lon="-1.49274">
        <ele>1.30114</ele>
        <time>2022-05-17T12:56:27.000Z</time>
      </trkpt>
      <trkpt lat="46.20223" lon="-1.49262">
        <ele>1.22761</ele>
        <time>2022-05-17T12:56:28.000Z</time>
      </trkpt>
      <trkpt lat="46.20225" lon="-1.49252">
        <ele>1.19481</ele>
        <time>2022-05-17T12:56:29.000Z</time>
      </trkpt>
      <trkpt lat="46.20225" lon="-1.49242">
        <ele>1.0752</ele>
        <time>2022-05-17T12:56:30.000Z</time>
      </trkpt>
      <trkpt lat="46.20227" lon="-1.49229">
        <ele>0.93959</ele>
        <time>2022-05-17T12:56:31.000Z</time>
      </trkpt>
      <trkpt lat="46.20227" lon="-1.49219">
        <ele>0.9236</ele>
        <time>2022-05-17T12:56:32.000Z</time>
      </trkpt>
      <trkpt lat="46.20222" lon="-1.49215">
        <ele>0.91308</ele>
        <time>2022-05-17T12:56:33.000Z</time>
      </trkpt>
      <trkpt lat="46.2022" lon="-1.49208">
        <ele>1.10639</ele>
        <time>2022-05-17T12:56:34.000Z</time>
      </trkpt>
      <trkpt lat="46.20218" lon="-1.49197">
        <ele>1.51718</ele>
        <time>2022-05-17T12:56:35.000Z</time>
      </trkpt>
      <trkpt lat="46.20216" lon="-1.4919">
        <ele>1.65746</ele>
        <time>2022-05-17T12:56:36.000Z</time>
      </trkpt>
      <trkpt lat="46.20215" lon="-1.49183">
        <ele>1.67912</ele>
        <time>2022-05-17T12:56:37.000Z</time>
      </trkpt>
      <trkpt lat="46.20214" lon="-1.49171">
        <ele>1.48892</ele>
        <time>2022-05-17T12:56:38.000Z</time>
      </trkpt>
      <trkpt lat="46.20215" lon="-1.49158">
        <ele>1.26108</ele>
        <time>2022-05-17T12:56:39.000Z</time>
      </trkpt>
      <trkpt lat="46.20212" lon="-1.49152">
        <ele>1.3773</ele>
        <time>2022-05-17T12:56:40.000Z</time>
      </trkpt>
      <trkpt lat="46.20209" lon="-1.49146">
        <ele>1.62151</ele>
        <time>2022-05-17T12:56:41.000Z</time>
      </trkpt>
      <trkpt lat="46.20207" lon="-1.49139">
        <ele>1.91789</ele>
        <time>2022-05-17T12:56:42.000Z</time>
      </trkpt>
      <trkpt lat="46.20204" lon="-1.49131">
        <ele>2.25004</ele>
        <time>2022-05-17T12:56:43.000Z</time>
      </trkpt>
      <trkpt lat="46.20201" lon="-1.49125">
        <ele>2.45709</ele>
        <time>2022-05-17T12:56:44.000Z</time>
      </trkpt>
      <trkpt lat="46.20199" lon="-1.49121">
        <ele>2.51039</ele>
        <time>2022-05-17T12:56:45.000Z</time>
      </trkpt>
      <trkpt lat="46.20196" lon="-1.49111">
        <ele>2.15604</ele>
        <time>2022-05-17T12:56:46.000Z</time>
      </trkpt>
      <trkpt lat="46.20192" lon="-1.49103">
        <ele>1.63926</ele>
        <time>2022-05-17T12:56:47.000Z</time>
      </trkpt>
      <trkpt lat="46.20189" lon="-1.49094">
        <ele>1.13672</ele>
        <time>2022-05-17T12:56:48.000Z</time>
      </trkpt>
      <trkpt lat="46.20186" lon="-1.49085">
        <ele>1.05626</ele>
        <time>2022-05-17T12:56:49.000Z</time>
      </trkpt>
      <trkpt lat="46.20186" lon="-1.49079">
        <ele>1.20042</ele>
        <time>2022-05-17T12:56:50.000Z</time>
      </trkpt>
      <trkpt lat="46.20184" lon="-1.49072">
        <ele>1.57978</ele>
        <time>2022-05-17T12:56:51.000Z</time>
      </trkpt>
      <trkpt lat="46.20184" lon="-1.49063">
        <ele>1.9923</ele>
        <time>2022-05-17T12:56:52.000Z</time>
      </trkpt>
      <trkpt lat="46.20182" lon="-1.49056">
        <ele>2.25875</ele>
        <time>2022-05-17T12:56:53.000Z</time>
      </trkpt>
      <trkpt lat="46.20179" lon="-1.49055">
        <ele>2.34191</ele>
        <time>2022-05-17T12:56:54.000Z</time>
      </trkpt>
      <trkpt lat="46.20176" lon="-1.49049">
        <ele>2.2677</ele>
        <time>2022-05-17T12:56:55.000Z</time>
      </trkpt>
      <trkpt lat="46.20174" lon="-1.49042">
        <ele>1.96545</ele>
        <time>2022-05-17T12:56:56.000Z</time>
      </trkpt>
      <trkpt lat="46.20174" lon="-1.49034">
        <ele>1.60117</ele>
        <time>2022-05-17T12:56:57.000Z</time>
      </trkpt>
      <trkpt lat="46.20174" lon="-1.49025">
        <ele>1.26945</ele>
        <time>2022-05-17T12:56:58.000Z</time>
      </trkpt>
      <trkpt lat="46.20172" lon="-1.49017">
        <ele>1.20989</ele>
        <time>2022-05-17T12:56:59.000Z</time>
      </trkpt>
      <trkpt lat="46.2017" lon="-1.49006">
        <ele>1.4469</ele>
        <time>2022-05-17T12:57:00.000Z</time>
      </trkpt>
      <trkpt lat="46.20167" lon="-1.49001">
        <ele>1.74255</ele>
        <time>2022-05-17T12:57:01.000Z</time>
      </trkpt>
      <trkpt lat="46.20165" lon="-1.48995">
        <ele>1.99043</ele>
        <time>2022-05-17T12:57:02.000Z</time>
      </trkpt>
      <trkpt lat="46.20162" lon="-1.48987">
        <ele>2.17649</ele>
        <time>2022-05-17T12:57:03.000Z</time>
      </trkpt>
      <trkpt lat="46.20161" lon="-1.48978">
        <ele>1.98464</ele>
        <time>2022-05-17T12:57:04.000Z</time>
      </trkpt>
      <trkpt lat="46.20159" lon="-1.48971">
        <ele>1.70893</ele>
        <time>2022-05-17T12:57:05.000Z</time>
      </trkpt>
      <trkpt lat="46.20156" lon="-1.48962">
        <ele>1.30595</ele>
        <time>2022-05-17T12:57:06.000Z</time>
      </trkpt>
      <trkpt lat="46.20155" lon="-1.48957">
        <ele>1.15088</ele>
        <time>2022-05-17T12:57:07.000Z</time>
      </trkpt>
      <trkpt lat="46.20153" lon="-1.48947">
        <ele>1.10452</ele>
        <time>2022-05-17T12:57:08.000Z</time>
      </trkpt>
      <trkpt lat="46.2015" lon="-1.48942">
        <ele>1.23991</ele>
        <time>2022-05-17T12:57:09.000Z</time>
      </trkpt>
      <trkpt lat="46.20148" lon="-1.48937">
        <ele>1.46122</ele>
        <time>2022-05-17T12:57:10.000Z</time>
      </trkpt>
      <trkpt lat="46.20144" lon="-1.48927">
        <ele>1.87114</ele>
        <time>2022-05-17T12:57:11.000Z</time>
      </trkpt>
      <trkpt lat="46.20142" lon="-1.48921">
        <ele>1.99708</ele>
        <time>2022-05-17T12:57:12.000Z</time>
      </trkpt>
      <trkpt lat="46.20141" lon="-1.48915">
        <ele>1.96435</ele>
        <time>2022-05-17T12:57:13.000Z</time>
      </trkpt>
      <trkpt lat="46.20141" lon="-1.48913">
        <ele>1.89594</ele>
        <time>2022-05-17T12:57:14.000Z</time>
      </trkpt>
      <trkpt lat="46.20139" lon="-1.48906">
        <ele>1.70414</ele>
        <time>2022-05-17T12:57:15.000Z</time>
      </trkpt>
      <trkpt lat="46.20138" lon="-1.48901">
        <ele>1.51253</ele>
        <time>2022-05-17T12:57:16.000Z</time>
      </trkpt>
      <trkpt lat="46.20136" lon="-1.48893">
        <ele>1.20743</ele>
        <time>2022-05-17T12:57:17.000Z</time>
      </trkpt>
      <trkpt lat="46.20136" lon="-1.48884">
        <ele>1.06318</ele>
        <time>2022-05-17T12:57:18.000Z</time>
      </trkpt>
      <trkpt lat="46.20134" lon="-1.48881">
        <ele>1.07264</ele>
        <time>2022-05-17T12:57:19.000Z</time>
      </trkpt>
      <trkpt lat="46.20133" lon="-1.48875">
        <ele>1.13106</ele>
        <time>2022-05-17T12:57:20.000Z</time>
      </trkpt>
      <trkpt lat="46.20131" lon="-1.48872">
        <ele>1.22086</ele>
        <time>2022-05-17T12:57:21.000Z</time>
      </trkpt>
      <trkpt lat="46.2013" lon="-1.48864">
        <ele>1.42069</ele>
        <time>2022-05-17T12:57:22.000Z</time>
      </trkpt>
      <trkpt lat="46.20127" lon="-1.48858">
        <ele>1.75666</ele>
        <time>2022-05-17T12:57:24.000Z</time>
      </trkpt>
      <trkpt lat="46.20125" lon="-1.48851">
        <ele>2.05184</ele>
        <time>2022-05-17T12:57:25.000Z</time>
      </trkpt>
      <trkpt lat="46.20123" lon="-1.48848">
        <ele>2.17804</ele>
        <time>2022-05-17T12:57:26.000Z</time>
      </trkpt>
      <trkpt lat="46.20122" lon="-1.4884">
        <ele>2.39936</ele>
        <time>2022-05-17T12:57:27.000Z</time>
      </trkpt>
      <trkpt lat="46.20122" lon="-1.48838">
        <ele>2.3967</ele>
        <time>2022-05-17T12:57:28.000Z</time>
      </trkpt>
      <trkpt lat="46.2012" lon="-1.48834">
        <ele>2.52852</ele>
        <time>2022-05-17T12:57:29.000Z</time>
      </trkpt>
      <trkpt lat="46.20117" lon="-1.48829">
        <ele>2.66781</ele>
        <time>2022-05-17T12:57:30.000Z</time>
      </trkpt>
      <trkpt lat="46.20115" lon="-1.48824">
        <ele>2.74387</ele>
        <time>2022-05-17T12:57:31.000Z</time>
      </trkpt>
      <trkpt lat="46.20113" lon="-1.48819">
        <ele>2.79075</ele>
        <time>2022-05-17T12:57:32.000Z</time>
      </trkpt>
      <trkpt lat="46.20111" lon="-1.48814">
        <ele>2.83457</ele>
        <time>2022-05-17T12:57:33.000Z</time>
      </trkpt>
      <trkpt lat="46.20109" lon="-1.48808">
        <ele>2.87746</ele>
        <time>2022-05-17T12:57:35.000Z</time>
      </trkpt>
      <trkpt lat="46.20108" lon="-1.48804">
        <ele>2.92034</ele>
        <time>2022-05-17T12:57:36.000Z</time>
      </trkpt>
      <trkpt lat="46.20107" lon="-1.48801">
        <ele>2.95535</ele>
        <time>2022-05-17T12:57:37.000Z</time>
      </trkpt>
      <trkpt lat="46.20106" lon="-1.48796">
        <ele>3.01531</ele>
        <time>2022-05-17T12:57:38.000Z</time>
      </trkpt>
      <trkpt lat="46.20104" lon="-1.48791">
        <ele>3.08201</ele>
        <time>2022-05-17T12:57:39.000Z</time>
      </trkpt>
      <trkpt lat="46.20103" lon="-1.48787">
        <ele>3.1354</ele>
        <time>2022-05-17T12:57:40.000Z</time>
      </trkpt>
      <trkpt lat="46.20102" lon="-1.48783">
        <ele>3.18427</ele>
        <time>2022-05-17T12:57:41.000Z</time>
      </trkpt>
      <trkpt lat="46.20102" lon="-1.48779">
        <ele>3.23987</ele>
        <time>2022-05-17T12:57:42.000Z</time>
      </trkpt>
      <trkpt lat="46.20101" lon="-1.48776">
        <ele>3.29395</ele>
        <time>2022-05-17T12:57:43.000Z</time>
      </trkpt>
      <trkpt lat="46.201" lon="-1.48772">
        <ele>3.33727</ele>
        <time>2022-05-17T12:57:44.000Z</time>
      </trkpt>
      <trkpt lat="46.201" lon="-1.48769">
        <ele>3.37723</ele>
        <time>2022-05-17T12:57:45.000Z</time>
      </trkpt>
      <trkpt lat="46.20101" lon="-1.48766">
        <ele>3.40693</ele>
        <time>2022-05-17T12:57:46.000Z</time>
      </trkpt>
      <trkpt lat="46.20101" lon="-1.48763">
        <ele>3.4321</ele>
        <time>2022-05-17T12:57:47.000Z</time>
      </trkpt>
      <trkpt lat="46.20102" lon="-1.4876">
        <ele>3.45793</ele>
        <time>2022-05-17T12:57:48.000Z</time>
      </trkpt>
      <trkpt lat="46.20102" lon="-1.48756">
        <ele>3.48268</ele>
        <time>2022-05-17T12:57:49.000Z</time>
      </trkpt>
      <trkpt lat="46.20103" lon="-1.48751">
        <ele>3.50307</ele>
        <time>2022-05-17T12:57:50.000Z</time>
      </trkpt>
      <trkpt lat="46.20103" lon="-1.48746">
        <ele>3.51315</ele>
        <time>2022-05-17T12:57:51.000Z</time>
      </trkpt>
      <trkpt lat="46.20104" lon="-1.48741">
        <ele>3.51382</ele>
        <time>2022-05-17T12:57:52.000Z</time>
      </trkpt>
      <trkpt lat="46.20104" lon="-1.48738">
        <ele>3.51073</ele>
        <time>2022-05-17T12:57:53.000Z</time>
      </trkpt>
      <trkpt lat="46.20104" lon="-1.48735">
        <ele>3.50795</ele>
        <time>2022-05-17T12:57:54.000Z</time>
      </trkpt>
      <trkpt lat="46.20105" lon="-1.48731">
        <ele>3.50679</ele>
        <time>2022-05-17T12:57:55.000Z</time>
      </trkpt>
      <trkpt lat="46.20105" lon="-1.48727">
        <ele>3.51144</ele>
        <time>2022-05-17T12:57:56.000Z</time>
      </trkpt>
      <trkpt lat="46.20104" lon="-1.48721">
        <ele>3.52969</ele>
        <time>2022-05-17T12:57:57.000Z</time>
      </trkpt>
      <trkpt lat="46.20104" lon="-1.48716">
        <ele>3.56007</ele>
        <time>2022-05-17T12:57:58.000Z</time>
      </trkpt>
      <trkpt lat="46.20104" lon="-1.48712">
        <ele>3.59422</ele>
        <time>2022-05-17T12:57:59.000Z</time>
      </trkpt>
      <trkpt lat="46.20103" lon="-1.4871">
        <ele>3.62174</ele>
        <time>2022-05-17T12:58:00.000Z</time>
      </trkpt>
      <trkpt lat="46.20101" lon="-1.48706">
        <ele>3.67275</ele>
        <time>2022-05-17T12:58:02.000Z</time>
      </trkpt>
      <trkpt lat="46.20102" lon="-1.48703">
        <ele>3.68758</ele>
        <time>2022-05-17T12:58:03.000Z</time>
      </trkpt>
      <trkpt lat="46.20103" lon="-1.487">
        <ele>3.69691</ele>
        <time>2022-05-17T12:58:04.000Z</time>
      </trkpt>
      <trkpt lat="46.20105" lon="-1.48698">
        <ele>3.69078</ele>
        <time>2022-05-17T12:58:06.000Z</time>
      </trkpt>
      <trkpt lat="46.20102" lon="-1.48698">
        <ele>3.71958</ele>
        <time>2022-05-17T12:58:24.000Z</time>
      </trkpt>
      <trkpt lat="46.201" lon="-1.48698">
        <ele>3.74394</ele>
        <time>2022-05-17T12:58:25.000Z</time>
      </trkpt>
      <trkpt lat="46.20098" lon="-1.48697">
        <ele>3.76887</ele>
        <time>2022-05-17T12:58:26.000Z</time>
      </trkpt>
      <trkpt lat="46.20096" lon="-1.48697">
        <ele>3.78969</ele>
        <time>2022-05-17T12:58:27.000Z</time>
      </trkpt>
      <trkpt lat="46.20093" lon="-1.48697">
        <ele>3.81903</ele>
        <time>2022-05-17T12:58:29.000Z</time>
      </trkpt>
      <trkpt lat="46.20091" lon="-1.48695">
        <ele>3.83153</ele>
        <time>2022-05-17T12:58:31.000Z</time>
      </trkpt>
      <trkpt lat="46.2009" lon="-1.48691">
        <ele>3.82106</ele>
        <time>2022-05-17T12:58:33.000Z</time>
      </trkpt>
      <trkpt lat="46.20088" lon="-1.48686">
        <ele>3.79689</ele>
        <time>2022-05-17T12:58:35.000Z</time>
      </trkpt>
      <trkpt lat="46.20086" lon="-1.48682">
        <ele>3.77083</ele>
        <time>2022-05-17T12:58:37.000Z</time>
      </trkpt>
      <trkpt lat="46.20084" lon="-1.4868">
        <ele>3.76318</ele>
        <time>2022-05-17T12:58:38.000Z</time>
      </trkpt>
      <trkpt lat="46.20081" lon="-1.48681">
        <ele>3.80665</ele>
        <time>2022-05-17T12:58:40.000Z</time>
      </trkpt>
      <trkpt lat="46.20079" lon="-1.48682">
        <ele>3.85388</ele>
        <time>2022-05-17T12:58:41.000Z</time>
      </trkpt>
      <trkpt lat="46.20077" lon="-1.48684">
        <ele>3.93687</ele>
        <time>2022-05-17T12:58:42.000Z</time>
      </trkpt>
      <trkpt lat="46.20075" lon="-1.48686">
        <ele>4.03452</ele>
        <time>2022-05-17T12:58:43.000Z</time>
      </trkpt>
      <trkpt lat="46.20074" lon="-1.48687">
        <ele>4.11833</ele>
        <time>2022-05-17T12:58:44.000Z</time>
      </trkpt>
      <trkpt lat="46.20072" lon="-1.4869">
        <ele>4.23455</ele>
        <time>2022-05-17T12:58:46.000Z</time>
      </trkpt>
      <trkpt lat="46.20069" lon="-1.48693">
        <ele>4.36542</ele>
        <time>2022-05-17T12:58:48.000Z</time>
      </trkpt>
      <trkpt lat="46.20068" lon="-1.48694">
        <ele>4.44303</ele>
        <time>2022-05-17T12:58:49.000Z</time>
      </trkpt>
      <trkpt lat="46.20065" lon="-1.48695">
        <ele>4.52096</ele>
        <time>2022-05-17T12:58:50.000Z</time>
      </trkpt>
      <trkpt lat="46.20063" lon="-1.48697">
        <ele>4.566</ele>
        <time>2022-05-17T12:58:51.000Z</time>
      </trkpt>
      <trkpt lat="46.20062" lon="-1.48698">
        <ele>4.58047</ele>
        <time>2022-05-17T12:58:52.000Z</time>
      </trkpt>
      <trkpt lat="46.2006" lon="-1.487">
        <ele>4.56517</ele>
        <time>2022-05-17T12:58:53.000Z</time>
      </trkpt>
      <trkpt lat="46.20058" lon="-1.48702">
        <ele>4.52688</ele>
        <time>2022-05-17T12:58:54.000Z</time>
      </trkpt>
      <trkpt lat="46.20056" lon="-1.48703">
        <ele>4.45727</ele>
        <time>2022-05-17T12:58:55.000Z</time>
      </trkpt>
      <trkpt lat="46.20054" lon="-1.48703">
        <ele>4.34987</ele>
        <time>2022-05-17T12:58:56.000Z</time>
      </trkpt>
      <trkpt lat="46.20056" lon="-1.48705">
        <ele>4.43299</ele>
        <time>2022-05-17T12:59:02.000Z</time>
      </trkpt>
      <trkpt lat="46.20057" lon="-1.48707">
        <ele>4.46985</ele>
        <time>2022-05-17T12:59:08.000Z</time>
      </trkpt>
      <trkpt lat="46.20055" lon="-1.4871">
        <ele>4.40116</ele>
        <time>2022-05-17T12:59:10.000Z</time>
      </trkpt>
      <trkpt lat="46.20053" lon="-1.48713">
        <ele>4.30866</ele>
        <time>2022-05-17T12:59:12.000Z</time>
      </trkpt>
      <trkpt lat="46.20051" lon="-1.48717">
        <ele>4.22049</ele>
        <time>2022-05-17T12:59:14.000Z</time>
      </trkpt>
      <trkpt lat="46.2005" lon="-1.48719">
        <ele>4.19171</ele>
        <time>2022-05-17T12:59:17.000Z</time>
      </trkpt>
      <trkpt lat="46.20051" lon="-1.48716">
        <ele>4.22874</ele>
        <time>2022-05-17T12:59:28.000Z</time>
      </trkpt>
      <trkpt lat="46.20051" lon="-1.48713">
        <ele>4.20086</ele>
        <time>2022-05-17T12:59:32.000Z</time>
      </trkpt>
      <trkpt lat="46.20049" lon="-1.48709">
        <ele>4.06747</ele>
        <time>2022-05-17T12:59:36.000Z</time>
      </trkpt>
      <trkpt lat="46.20048" lon="-1.48707">
        <ele>3.9462</ele>
        <time>2022-05-17T12:59:48.000Z</time>
      </trkpt>
      <trkpt lat="46.20051" lon="-1.48706">
        <ele>4.19566</ele>
        <time>2022-05-17T13:01:05.000Z</time>
      </trkpt>
      <trkpt lat="46.20054" lon="-1.48706">
        <ele>4.33173</ele>
        <time>2022-05-17T13:01:06.000Z</time>
      </trkpt>
      <trkpt lat="46.20055" lon="-1.48706">
        <ele>4.42679</ele>
        <time>2022-05-17T13:01:07.000Z</time>
      </trkpt>
      <trkpt lat="46.20057" lon="-1.48702">
        <ele>4.50293</ele>
        <time>2022-05-17T13:01:09.000Z</time>
      </trkpt>
      <trkpt lat="46.20056" lon="-1.48697">
        <ele>4.47271</ele>
        <time>2022-05-17T13:01:11.000Z</time>
      </trkpt>
      <trkpt lat="46.20054" lon="-1.48695">
        <ele>4.36494</ele>
        <time>2022-05-17T13:01:12.000Z</time>
      </trkpt>
      <trkpt lat="46.20052" lon="-1.48694">
        <ele>4.19442</ele>
        <time>2022-05-17T13:01:13.000Z</time>
      </trkpt>
      <trkpt lat="46.2005" lon="-1.48694">
        <ele>4.01087</ele>
        <time>2022-05-17T13:01:14.000Z</time>
      </trkpt>
      <trkpt lat="46.20048" lon="-1.48695">
        <ele>3.80347</ele>
        <time>2022-05-17T13:01:16.000Z</time>
      </trkpt>
      <trkpt lat="46.20047" lon="-1.48693">
        <ele>3.61545</ele>
        <time>2022-05-17T13:01:20.000Z</time>
      </trkpt>
      <trkpt lat="46.20046" lon="-1.4869">
        <ele>3.382</ele>
        <time>2022-05-17T13:01:24.000Z</time>
      </trkpt>
      <trkpt lat="46.20047" lon="-1.4869">
        <ele>3.60095</ele>
        <time>2022-05-17T13:01:33.000Z</time>
      </trkpt>
      <trkpt lat="46.20046" lon="-1.4869">
        <ele>3.37566</ele>
        <time>2022-05-17T13:01:47.000Z</time>
      </trkpt>
      <trkpt lat="46.20045" lon="-1.48695">
        <ele>3.43569</ele>
        <time>2022-05-17T13:02:16.000Z</time>
      </trkpt>
      <trkpt lat="46.20045" lon="-1.48699">
        <ele>3.46228</ele>
        <time>2022-05-17T13:02:18.000Z</time>
      </trkpt>
      <trkpt lat="46.20045" lon="-1.48703">
        <ele>3.57313</ele>
        <time>2022-05-17T13:02:20.000Z</time>
      </trkpt>
      <trkpt lat="46.20045" lon="-1.48706">
        <ele>3.65202</ele>
        <time>2022-05-17T13:02:21.000Z</time>
      </trkpt>
      <trkpt lat="46.20045" lon="-1.48709">
        <ele>3.72525</ele>
        <time>2022-05-17T13:02:22.000Z</time>
      </trkpt>
      <trkpt lat="46.20044" lon="-1.48712">
        <ele>3.75296</ele>
        <time>2022-05-17T13:02:24.000Z</time>
      </trkpt>
      <trkpt lat="46.20043" lon="-1.48715">
        <ele>3.74605</ele>
        <time>2022-05-17T13:02:26.000Z</time>
      </trkpt>
      <trkpt lat="46.20042" lon="-1.48719">
        <ele>3.76184</ele>
        <time>2022-05-17T13:02:28.000Z</time>
      </trkpt>
      <trkpt lat="46.20042" lon="-1.48722">
        <ele>3.80611</ele>
        <time>2022-05-17T13:02:29.000Z</time>
      </trkpt>
      <trkpt lat="46.20042" lon="-1.48725">
        <ele>3.82844</ele>
        <time>2022-05-17T13:02:30.000Z</time>
      </trkpt>
      <trkpt lat="46.20042" lon="-1.48729">
        <ele>3.84967</ele>
        <time>2022-05-17T13:02:32.000Z</time>
      </trkpt>
      <trkpt lat="46.2004" lon="-1.48733">
        <ele>3.80776</ele>
        <time>2022-05-17T13:02:34.000Z</time>
      </trkpt>
      <trkpt lat="46.2004" lon="-1.48737">
        <ele>3.77311</ele>
        <time>2022-05-17T13:02:35.000Z</time>
      </trkpt>
      <trkpt lat="46.20039" lon="-1.48739">
        <ele>3.73831</ele>
        <time>2022-05-17T13:02:36.000Z</time>
      </trkpt>
      <trkpt lat="46.20037" lon="-1.48743">
        <ele>3.69743</ele>
        <time>2022-05-17T13:02:38.000Z</time>
      </trkpt>
      <trkpt lat="46.20035" lon="-1.48743">
        <ele>3.56389</ele>
        <time>2022-05-17T13:02:43.000Z</time>
      </trkpt>
      <trkpt lat="46.20037" lon="-1.48741">
        <ele>3.65338</ele>
        <time>2022-05-17T13:02:54.000Z</time>
      </trkpt>
      <trkpt lat="46.20038" lon="-1.48738">
        <ele>3.65111</ele>
        <time>2022-05-17T13:04:28.000Z</time>
      </trkpt>
      <trkpt lat="46.20038" lon="-1.48734">
        <ele>3.65483</ele>
        <time>2022-05-17T13:04:29.000Z</time>
      </trkpt>
      <trkpt lat="46.20038" lon="-1.48731">
        <ele>3.65861</ele>
        <time>2022-05-17T13:04:30.000Z</time>
      </trkpt>
      <trkpt lat="46.20038" lon="-1.48731">
        <ele>3.65861</ele>
        <time>2022-05-17T13:04:30.000Z</time>
      </trkpt>
      <trkpt lat="46.20038" lon="-1.48729">
        <ele>3.65067</ele>
        <time>2022-05-17T13:04:31.000Z</time>
      </trkpt>
      <trkpt lat="46.20039" lon="-1.48726">
        <ele>3.67209</ele>
        <time>2022-05-17T13:04:32.000Z</time>
      </trkpt>
      <trkpt lat="46.2004" lon="-1.48722">
        <ele>3.67938</ele>
        <time>2022-05-17T13:04:33.000Z</time>
      </trkpt>
      <trkpt lat="46.20041" lon="-1.48718">
        <ele>3.71508</ele>
        <time>2022-05-17T13:04:34.000Z</time>
      </trkpt>
      <trkpt lat="46.20044" lon="-1.48715">
        <ele>3.81259</ele>
        <time>2022-05-17T13:04:35.000Z</time>
      </trkpt>
      <trkpt lat="46.20046" lon="-1.48713">
        <ele>3.89772</ele>
        <time>2022-05-17T13:04:36.000Z</time>
      </trkpt>
      <trkpt lat="46.20048" lon="-1.48712">
        <ele>4.01391</ele>
        <time>2022-05-17T13:04:37.000Z</time>
      </trkpt>
      <trkpt lat="46.2005" lon="-1.4871">
        <ele>4.10984</ele>
        <time>2022-05-17T13:04:38.000Z</time>
      </trkpt>
      <trkpt lat="46.20051" lon="-1.48707">
        <ele>4.18696</ele>
        <time>2022-05-17T13:04:40.000Z</time>
      </trkpt>
      <trkpt lat="46.20051" lon="-1.48701">
        <ele>4.11261</ele>
        <time>2022-05-17T13:04:42.000Z</time>
      </trkpt>
      <trkpt lat="46.2005" lon="-1.48698">
        <ele>4.00473</ele>
        <time>2022-05-17T13:04:43.000Z</time>
      </trkpt>
      <trkpt lat="46.20049" lon="-1.48695">
        <ele>3.83035</ele>
        <time>2022-05-17T13:04:45.000Z</time>
      </trkpt>
      <trkpt lat="46.20047" lon="-1.48694">
        <ele>3.60518</ele>
        <time>2022-05-17T13:04:53.000Z</time>
      </trkpt>
      <trkpt lat="46.20048" lon="-1.48691">
        <ele>3.74209</ele>
        <time>2022-05-17T13:05:38.000Z</time>
      </trkpt>
      <trkpt lat="46.2005" lon="-1.4869">
        <ele>3.94743</ele>
        <time>2022-05-17T13:05:39.000Z</time>
      </trkpt>
      <trkpt lat="46.20053" lon="-1.48689">
        <ele>4.20999</ele>
        <time>2022-05-17T13:05:40.000Z</time>
      </trkpt>
      <trkpt lat="46.20056" lon="-1.48689">
        <ele>4.43725</ele>
        <time>2022-05-17T13:05:41.000Z</time>
      </trkpt>
      <trkpt lat="46.20059" lon="-1.48687">
        <ele>4.5535</ele>
        <time>2022-05-17T13:05:42.000Z</time>
      </trkpt>
      <trkpt lat="46.20062" lon="-1.48686">
        <ele>4.56782</ele>
        <time>2022-05-17T13:05:43.000Z</time>
      </trkpt>
      <trkpt lat="46.20065" lon="-1.48685">
        <ele>4.50139</ele>
        <time>2022-05-17T13:05:44.000Z</time>
      </trkpt>
      <trkpt lat="46.20068" lon="-1.48684">
        <ele>4.37467</ele>
        <time>2022-05-17T13:05:45.000Z</time>
      </trkpt>
      <trkpt lat="46.20072" lon="-1.48684">
        <ele>4.18862</ele>
        <time>2022-05-17T13:05:46.000Z</time>
      </trkpt>
      <trkpt lat="46.20076" lon="-1.48685">
        <ele>4.01126</ele>
        <time>2022-05-17T13:05:47.000Z</time>
      </trkpt>
      <trkpt lat="46.20078" lon="-1.48685">
        <ele>3.91204</ele>
        <time>2022-05-17T13:05:48.000Z</time>
      </trkpt>
      <trkpt lat="46.20081" lon="-1.48686">
        <ele>3.86663</ele>
        <time>2022-05-17T13:05:49.000Z</time>
      </trkpt>
      <trkpt lat="46.20083" lon="-1.48685">
        <ele>3.83306</ele>
        <time>2022-05-17T13:05:50.000Z</time>
      </trkpt>
      <trkpt lat="46.20086" lon="-1.48684">
        <ele>3.7953</ele>
        <time>2022-05-17T13:05:51.000Z</time>
      </trkpt>
      <trkpt lat="46.2009" lon="-1.48683">
        <ele>3.76571</ele>
        <time>2022-05-17T13:05:52.000Z</time>
      </trkpt>
      <trkpt lat="46.20094" lon="-1.48682">
        <ele>3.75572</ele>
        <time>2022-05-17T13:05:53.000Z</time>
      </trkpt>
      <trkpt lat="46.20098" lon="-1.48683">
        <ele>3.75703</ele>
        <time>2022-05-17T13:05:54.000Z</time>
      </trkpt>
      <trkpt lat="46.20102" lon="-1.48684">
        <ele>3.75335</ele>
        <time>2022-05-17T13:05:55.000Z</time>
      </trkpt>
      <trkpt lat="46.20104" lon="-1.48685">
        <ele>3.73933</ele>
        <time>2022-05-17T13:05:56.000Z</time>
      </trkpt>
      <trkpt lat="46.20106" lon="-1.48683">
        <ele>3.72745</ele>
        <time>2022-05-17T13:05:57.000Z</time>
      </trkpt>
      <trkpt lat="46.20107" lon="-1.48686">
        <ele>3.71166</ele>
        <time>2022-05-17T13:06:00.000Z</time>
      </trkpt>
      <trkpt lat="46.20108" lon="-1.4869">
        <ele>3.69055</ele>
        <time>2022-05-17T13:06:01.000Z</time>
      </trkpt>
      <trkpt lat="46.2011" lon="-1.48694">
        <ele>3.64877</ele>
        <time>2022-05-17T13:06:02.000Z</time>
      </trkpt>
      <trkpt lat="46.20112" lon="-1.48697">
        <ele>3.61418</ele>
        <time>2022-05-17T13:06:03.000Z</time>
      </trkpt>
      <trkpt lat="46.20113" lon="-1.48695">
        <ele>3.6044</ele>
        <time>2022-05-17T13:06:05.000Z</time>
      </trkpt>
      <trkpt lat="46.20112" lon="-1.48692">
        <ele>3.62925</ele>
        <time>2022-05-17T13:06:06.000Z</time>
      </trkpt>
      <trkpt lat="46.20111" lon="-1.48693">
        <ele>3.64574</ele>
        <time>2022-05-17T13:06:09.000Z</time>
      </trkpt>
      <trkpt lat="46.20111" lon="-1.48697">
        <ele>3.62577</ele>
        <time>2022-05-17T13:06:11.000Z</time>
      </trkpt>
      <trkpt lat="46.20113" lon="-1.487">
        <ele>3.59198</ele>
        <time>2022-05-17T13:06:15.000Z</time>
      </trkpt>
      <trkpt lat="46.20115" lon="-1.487">
        <ele>3.57152</ele>
        <time>2022-05-17T13:06:17.000Z</time>
      </trkpt>
      <trkpt lat="46.20116" lon="-1.48697">
        <ele>3.55914</ele>
        <time>2022-05-17T13:06:19.000Z</time>
      </trkpt>
      <trkpt lat="46.20117" lon="-1.48693">
        <ele>3.56755</ele>
        <time>2022-05-17T13:06:21.000Z</time>
      </trkpt>
      <trkpt lat="46.20118" lon="-1.4869">
        <ele>3.57225</ele>
        <time>2022-05-17T13:06:22.000Z</time>
      </trkpt>
      <trkpt lat="46.20119" lon="-1.48688">
        <ele>3.58856</ele>
        <time>2022-05-17T13:06:23.000Z</time>
      </trkpt>
      <trkpt lat="46.2012" lon="-1.48685">
        <ele>3.61633</ele>
        <time>2022-05-17T13:06:24.000Z</time>
      </trkpt>
      <trkpt lat="46.20121" lon="-1.48683">
        <ele>3.65885</ele>
        <time>2022-05-17T13:06:25.000Z</time>
      </trkpt>
      <trkpt lat="46.20122" lon="-1.48679">
        <ele>3.72263</ele>
        <time>2022-05-17T13:06:26.000Z</time>
      </trkpt>
      <trkpt lat="46.20122" lon="-1.48675">
        <ele>3.80368</ele>
        <time>2022-05-17T13:06:27.000Z</time>
      </trkpt>
      <trkpt lat="46.20122" lon="-1.48672">
        <ele>3.85337</ele>
        <time>2022-05-17T13:06:28.000Z</time>
      </trkpt>
      <trkpt lat="46.20125" lon="-1.48668">
        <ele>3.94678</ele>
        <time>2022-05-17T13:06:30.000Z</time>
      </trkpt>
      <trkpt lat="46.20127" lon="-1.48665">
        <ele>3.9867</ele>
        <time>2022-05-17T13:06:31.000Z</time>
      </trkpt>
      <trkpt lat="46.20129" lon="-1.48662">
        <ele>4.00273</ele>
        <time>2022-05-17T13:06:32.000Z</time>
      </trkpt>
      <trkpt lat="46.20131" lon="-1.48659">
        <ele>3.98709</ele>
        <time>2022-05-17T13:06:33.000Z</time>
      </trkpt>
      <trkpt lat="46.20133" lon="-1.48658">
        <ele>3.95941</ele>
        <time>2022-05-17T13:06:34.000Z</time>
      </trkpt>
      <trkpt lat="46.20135" lon="-1.48657">
        <ele>3.93001</ele>
        <time>2022-05-17T13:06:35.000Z</time>
      </trkpt>
      <trkpt lat="46.20137" lon="-1.48655">
        <ele>3.89862</ele>
        <time>2022-05-17T13:06:36.000Z</time>
      </trkpt>
      <trkpt lat="46.20138" lon="-1.48653">
        <ele>3.86321</ele>
        <time>2022-05-17T13:06:37.000Z</time>
      </trkpt>
      <trkpt lat="46.20139" lon="-1.48651">
        <ele>3.83542</ele>
        <time>2022-05-17T13:06:38.000Z</time>
      </trkpt>
      <trkpt lat="46.2014" lon="-1.48648">
        <ele>3.80774</ele>
        <time>2022-05-17T13:06:39.000Z</time>
      </trkpt>
      <trkpt lat="46.20143" lon="-1.48645">
        <ele>3.78378</ele>
        <time>2022-05-17T13:06:40.000Z</time>
      </trkpt>
      <trkpt lat="46.20145" lon="-1.48641">
        <ele>3.77417</ele>
        <time>2022-05-17T13:06:41.000Z</time>
      </trkpt>
      <trkpt lat="46.20147" lon="-1.48637">
        <ele>3.7816</ele>
        <time>2022-05-17T13:06:42.000Z</time>
      </trkpt>
      <trkpt lat="46.2015" lon="-1.48634">
        <ele>3.79707</ele>
        <time>2022-05-17T13:06:43.000Z</time>
      </trkpt>
      <trkpt lat="46.20152" lon="-1.48629">
        <ele>3.80615</ele>
        <time>2022-05-17T13:06:44.000Z</time>
      </trkpt>
      <trkpt lat="46.20155" lon="-1.48626">
        <ele>3.80935</ele>
        <time>2022-05-17T13:06:45.000Z</time>
      </trkpt>
      <trkpt lat="46.20155" lon="-1.48623">
        <ele>3.81216</ele>
        <time>2022-05-17T13:06:46.000Z</time>
      </trkpt>
      <trkpt lat="46.20156" lon="-1.48619">
        <ele>3.81516</ele>
        <time>2022-05-17T13:06:47.000Z</time>
      </trkpt>
      <trkpt lat="46.20157" lon="-1.48615">
        <ele>3.82049</ele>
        <time>2022-05-17T13:06:48.000Z</time>
      </trkpt>
      <trkpt lat="46.20158" lon="-1.48611">
        <ele>3.82396</ele>
        <time>2022-05-17T13:06:49.000Z</time>
      </trkpt>
      <trkpt lat="46.2016" lon="-1.48607">
        <ele>3.82596</ele>
        <time>2022-05-17T13:06:50.000Z</time>
      </trkpt>
      <trkpt lat="46.20162" lon="-1.48602">
        <ele>3.83078</ele>
        <time>2022-05-17T13:06:51.000Z</time>
      </trkpt>
      <trkpt lat="46.20164" lon="-1.48598">
        <ele>3.84042</ele>
        <time>2022-05-17T13:06:52.000Z</time>
      </trkpt>
      <trkpt lat="46.20165" lon="-1.48594">
        <ele>3.8515</ele>
        <time>2022-05-17T13:06:53.000Z</time>
      </trkpt>
      <trkpt lat="46.20166" lon="-1.4859">
        <ele>3.87312</ele>
        <time>2022-05-17T13:06:54.000Z</time>
      </trkpt>
      <trkpt lat="46.20168" lon="-1.48585">
        <ele>3.92016</ele>
        <time>2022-05-17T13:06:55.000Z</time>
      </trkpt>
      <trkpt lat="46.2017" lon="-1.48579">
        <ele>3.98864</ele>
        <time>2022-05-17T13:06:56.000Z</time>
      </trkpt>
      <trkpt lat="46.20171" lon="-1.48574">
        <ele>4.05374</ele>
        <time>2022-05-17T13:06:57.000Z</time>
      </trkpt>
      <trkpt lat="46.20173" lon="-1.4857">
        <ele>4.10399</ele>
        <time>2022-05-17T13:06:58.000Z</time>
      </trkpt>
      <trkpt lat="46.20174" lon="-1.48565">
        <ele>4.12457</ele>
        <time>2022-05-17T13:06:59.000Z</time>
      </trkpt>
      <trkpt lat="46.20176" lon="-1.48558">
        <ele>4.08048</ele>
        <time>2022-05-17T13:07:00.000Z</time>
      </trkpt>
      <trkpt lat="46.20177" lon="-1.48555">
        <ele>4.03135</ele>
        <time>2022-05-17T13:07:01.000Z</time>
      </trkpt>
      <trkpt lat="46.20179" lon="-1.4855">
        <ele>3.94543</ele>
        <time>2022-05-17T13:07:02.000Z</time>
      </trkpt>
      <trkpt lat="46.2018" lon="-1.48543">
        <ele>3.82859</ele>
        <time>2022-05-17T13:07:04.000Z</time>
      </trkpt>
      <trkpt lat="46.20179" lon="-1.48538">
        <ele>3.80026</ele>
        <time>2022-05-17T13:07:05.000Z</time>
      </trkpt>
      <trkpt lat="46.20181" lon="-1.48531">
        <ele>3.79975</ele>
        <time>2022-05-17T13:07:06.000Z</time>
      </trkpt>
      <trkpt lat="46.20181" lon="-1.48526">
        <ele>3.85618</ele>
        <time>2022-05-17T13:07:07.000Z</time>
      </trkpt>
      <trkpt lat="46.20185" lon="-1.4852">
        <ele>3.9391</ele>
        <time>2022-05-17T13:07:08.000Z</time>
      </trkpt>
      <trkpt lat="46.20189" lon="-1.48513">
        <ele>3.95693</ele>
        <time>2022-05-17T13:07:09.000Z</time>
      </trkpt>
      <trkpt lat="46.20189" lon="-1.48507">
        <ele>4.01518</ele>
        <time>2022-05-17T13:07:10.000Z</time>
      </trkpt>
      <trkpt lat="46.20192" lon="-1.48502">
        <ele>3.9719</ele>
        <time>2022-05-17T13:07:11.000Z</time>
      </trkpt>
      <trkpt lat="46.20195" lon="-1.48494">
        <ele>3.92912</ele>
        <time>2022-05-17T13:07:12.000Z</time>
      </trkpt>
      <trkpt lat="46.20196" lon="-1.48487">
        <ele>3.97768</ele>
        <time>2022-05-17T13:07:13.000Z</time>
      </trkpt>
      <trkpt lat="46.20202" lon="-1.48477">
        <ele>3.79666</ele>
        <time>2022-05-17T13:07:14.000Z</time>
      </trkpt>
      <trkpt lat="46.20203" lon="-1.4847">
        <ele>3.78628</ele>
        <time>2022-05-17T13:07:15.000Z</time>
      </trkpt>
      <trkpt lat="46.20204" lon="-1.48461">
        <ele>3.81812</ele>
        <time>2022-05-17T13:07:16.000Z</time>
      </trkpt>
      <trkpt lat="46.20205" lon="-1.48458">
        <ele>3.79197</ele>
        <time>2022-05-17T13:07:17.000Z</time>
      </trkpt>
      <trkpt lat="46.20206" lon="-1.48451">
        <ele>3.65868</ele>
        <time>2022-05-17T13:07:18.000Z</time>
      </trkpt>
      <trkpt lat="46.20207" lon="-1.48447">
        <ele>3.5654</ele>
        <time>2022-05-17T13:07:19.000Z</time>
      </trkpt>
      <trkpt lat="46.20209" lon="-1.48439">
        <ele>3.43631</ele>
        <time>2022-05-17T13:07:20.000Z</time>
      </trkpt>
      <trkpt lat="46.20208" lon="-1.48433">
        <ele>3.43639</ele>
        <time>2022-05-17T13:07:21.000Z</time>
      </trkpt>
      <trkpt lat="46.20208" lon="-1.48427">
        <ele>3.41235</ele>
        <time>2022-05-17T13:07:22.000Z</time>
      </trkpt>
      <trkpt lat="46.20209" lon="-1.48421">
        <ele>3.24477</ele>
        <time>2022-05-17T13:07:23.000Z</time>
      </trkpt>
      <trkpt lat="46.20209" lon="-1.48417">
        <ele>3.2704</ele>
        <time>2022-05-17T13:07:24.000Z</time>
      </trkpt>
      <trkpt lat="46.20209" lon="-1.48412">
        <ele>3.19614</ele>
        <time>2022-05-17T13:07:25.000Z</time>
      </trkpt>
      <trkpt lat="46.2021" lon="-1.48407">
        <ele>3.05556</ele>
        <time>2022-05-17T13:07:26.000Z</time>
      </trkpt>
      <trkpt lat="46.20211" lon="-1.48402">
        <ele>2.97337</ele>
        <time>2022-05-17T13:07:27.000Z</time>
      </trkpt>
      <trkpt lat="46.20212" lon="-1.48397">
        <ele>2.90078</ele>
        <time>2022-05-17T13:07:28.000Z</time>
      </trkpt>
      <trkpt lat="46.20213" lon="-1.48392">
        <ele>2.82071</ele>
        <time>2022-05-17T13:07:29.000Z</time>
      </trkpt>
      <trkpt lat="46.20213" lon="-1.48387">
        <ele>2.77271</ele>
        <time>2022-05-17T13:07:30.000Z</time>
      </trkpt>
      <trkpt lat="46.20214" lon="-1.48381">
        <ele>2.7604</ele>
        <time>2022-05-17T13:07:31.000Z</time>
      </trkpt>
      <trkpt lat="46.20215" lon="-1.48375">
        <ele>2.78132</ele>
        <time>2022-05-17T13:07:32.000Z</time>
      </trkpt>
      <trkpt lat="46.20215" lon="-1.48368">
        <ele>2.89618</ele>
        <time>2022-05-17T13:07:33.000Z</time>
      </trkpt>
      <trkpt lat="46.20216" lon="-1.48362">
        <ele>3.05683</ele>
        <time>2022-05-17T13:07:34.000Z</time>
      </trkpt>
      <trkpt lat="46.20218" lon="-1.48356">
        <ele>3.3291</ele>
        <time>2022-05-17T13:07:35.000Z</time>
      </trkpt>
      <trkpt lat="46.20216" lon="-1.48341">
        <ele>3.82287</ele>
        <time>2022-05-17T13:07:36.000Z</time>
      </trkpt>
      <trkpt lat="46.20217" lon="-1.48336">
        <ele>3.89136</ele>
        <time>2022-05-17T13:07:37.000Z</time>
      </trkpt>
      <trkpt lat="46.20216" lon="-1.48332">
        <ele>3.8973</ele>
        <time>2022-05-17T13:07:38.000Z</time>
      </trkpt>
      <trkpt lat="46.20214" lon="-1.48331">
        <ele>3.87005</ele>
        <time>2022-05-17T13:07:40.000Z</time>
      </trkpt>
      <trkpt lat="46.20216" lon="-1.48323">
        <ele>3.9021</ele>
        <time>2022-05-17T13:07:41.000Z</time>
      </trkpt>
      <trkpt lat="46.20217" lon="-1.48317">
        <ele>3.91999</ele>
        <time>2022-05-17T13:07:42.000Z</time>
      </trkpt>
      <trkpt lat="46.20219" lon="-1.48312">
        <ele>3.9451</ele>
        <time>2022-05-17T13:07:43.000Z</time>
      </trkpt>
      <trkpt lat="46.20222" lon="-1.48308">
        <ele>3.98348</ele>
        <time>2022-05-17T13:07:44.000Z</time>
      </trkpt>
      <trkpt lat="46.20222" lon="-1.48302">
        <ele>4.01506</ele>
        <time>2022-05-17T13:07:45.000Z</time>
      </trkpt>
      <trkpt lat="46.20226" lon="-1.48295">
        <ele>4.09003</ele>
        <time>2022-05-17T13:07:46.000Z</time>
      </trkpt>
      <trkpt lat="46.20228" lon="-1.48291">
        <ele>4.12107</ele>
        <time>2022-05-17T13:07:47.000Z</time>
      </trkpt>
      <trkpt lat="46.20229" lon="-1.48285">
        <ele>4.14102</ele>
        <time>2022-05-17T13:07:48.000Z</time>
      </trkpt>
      <trkpt lat="46.2023" lon="-1.4828">
        <ele>4.13741</ele>
        <time>2022-05-17T13:07:49.000Z</time>
      </trkpt>
      <trkpt lat="46.20231" lon="-1.48275">
        <ele>4.10659</ele>
        <time>2022-05-17T13:07:50.000Z</time>
      </trkpt>
      <trkpt lat="46.20233" lon="-1.48269">
        <ele>4.0177</ele>
        <time>2022-05-17T13:07:51.000Z</time>
      </trkpt>
      <trkpt lat="46.20234" lon="-1.48263">
        <ele>3.887</ele>
        <time>2022-05-17T13:07:52.000Z</time>
      </trkpt>
      <trkpt lat="46.20233" lon="-1.48251">
        <ele>3.76544</ele>
        <time>2022-05-17T13:07:53.000Z</time>
      </trkpt>
      <trkpt lat="46.20234" lon="-1.48243">
        <ele>3.74206</ele>
        <time>2022-05-17T13:07:54.000Z</time>
      </trkpt>
      <trkpt lat="46.20234" lon="-1.48233">
        <ele>3.90211</ele>
        <time>2022-05-17T13:07:55.000Z</time>
      </trkpt>
      <trkpt lat="46.20237" lon="-1.4823">
        <ele>3.89412</ele>
        <time>2022-05-17T13:07:56.000Z</time>
      </trkpt>
      <trkpt lat="46.2024" lon="-1.48222">
        <ele>3.94729</ele>
        <time>2022-05-17T13:07:58.000Z</time>
      </trkpt>
      <trkpt lat="46.20242" lon="-1.48215">
        <ele>3.94041</ele>
        <time>2022-05-17T13:07:59.000Z</time>
      </trkpt>
      <trkpt lat="46.20242" lon="-1.4821">
        <ele>3.93442</ele>
        <time>2022-05-17T13:08:00.000Z</time>
      </trkpt>
      <trkpt lat="46.20245" lon="-1.48204">
        <ele>3.68894</ele>
        <time>2022-05-17T13:08:01.000Z</time>
      </trkpt>
      <trkpt lat="46.20245" lon="-1.48194">
        <ele>3.46334</ele>
        <time>2022-05-17T13:08:05.000Z</time>
      </trkpt>
      <trkpt lat="46.20243" lon="-1.48195">
        <ele>3.70724</ele>
        <time>2022-05-17T13:08:06.000Z</time>
      </trkpt>
      <trkpt lat="46.20242" lon="-1.48199">
        <ele>3.83768</ele>
        <time>2022-05-17T13:08:07.000Z</time>
      </trkpt>
      <trkpt lat="46.20238" lon="-1.48199">
        <ele>4.06145</ele>
        <time>2022-05-17T13:08:10.000Z</time>
      </trkpt>
      <trkpt lat="46.20235" lon="-1.48199">
        <ele>4.20911</ele>
        <time>2022-05-17T13:08:11.000Z</time>
      </trkpt>
      <trkpt lat="46.20233" lon="-1.48197">
        <ele>4.26484</ele>
        <time>2022-05-17T13:08:12.000Z</time>
      </trkpt>
      <trkpt lat="46.20231" lon="-1.48196">
        <ele>4.30784</ele>
        <time>2022-05-17T13:08:14.000Z</time>
      </trkpt>
      <trkpt lat="46.20229" lon="-1.48199">
        <ele>4.32972</ele>
        <time>2022-05-17T13:08:16.000Z</time>
      </trkpt>
      <trkpt lat="46.20229" lon="-1.48202">
        <ele>4.33495</ele>
        <time>2022-05-17T13:08:17.000Z</time>
      </trkpt>
      <trkpt lat="46.20228" lon="-1.48205">
        <ele>4.34165</ele>
        <time>2022-05-17T13:08:18.000Z</time>
      </trkpt>
      <trkpt lat="46.2023" lon="-1.48207">
        <ele>4.32797</ele>
        <time>2022-05-17T13:08:25.000Z</time>
      </trkpt>
      <trkpt lat="46.2023" lon="-1.48211">
        <ele>4.31418</ele>
        <time>2022-05-17T13:08:32.000Z</time>
      </trkpt>
      <trkpt lat="46.2023" lon="-1.48213">
        <ele>4.30721</ele>
        <time>2022-05-17T13:08:38.000Z</time>
      </trkpt>
      <trkpt lat="46.20232" lon="-1.48214">
        <ele>4.27407</ele>
        <time>2022-05-17T13:26:30.000Z</time>
      </trkpt>
      <trkpt lat="46.20233" lon="-1.48212">
        <ele>4.26986</ele>
        <time>2022-05-17T13:26:30.000Z</time>
      </trkpt>
      <trkpt lat="46.20234" lon="-1.48208">
        <ele>4.23774</ele>
        <time>2022-05-17T13:26:31.000Z</time>
      </trkpt>
      <trkpt lat="46.20237" lon="-1.48203">
        <ele>4.14367</ele>
        <time>2022-05-17T13:26:32.000Z</time>
      </trkpt>
      <trkpt lat="46.20239" lon="-1.48197">
        <ele>3.97421</ele>
        <time>2022-05-17T13:26:33.000Z</time>
      </trkpt>
      <trkpt lat="46.20241" lon="-1.48191">
        <ele>3.74443</ele>
        <time>2022-05-17T13:26:34.000Z</time>
      </trkpt>
      <trkpt lat="46.20243" lon="-1.48185">
        <ele>3.52559</ele>
        <time>2022-05-17T13:26:35.000Z</time>
      </trkpt>
      <trkpt lat="46.20245" lon="-1.4818">
        <ele>3.38078</ele>
        <time>2022-05-17T13:26:36.000Z</time>
      </trkpt>
      <trkpt lat="46.20247" lon="-1.48177">
        <ele>3.23743</ele>
        <time>2022-05-17T13:26:37.000Z</time>
      </trkpt>
      <trkpt lat="46.20249" lon="-1.48172">
        <ele>3.16721</ele>
        <time>2022-05-17T13:26:38.000Z</time>
      </trkpt>
      <trkpt lat="46.20251" lon="-1.48167">
        <ele>3.11203</ele>
        <time>2022-05-17T13:26:39.000Z</time>
      </trkpt>
      <trkpt lat="46.20253" lon="-1.48161">
        <ele>3.12406</ele>
        <time>2022-05-17T13:26:40.000Z</time>
      </trkpt>
      <trkpt lat="46.20255" lon="-1.48156">
        <ele>3.19156</ele>
        <time>2022-05-17T13:26:41.000Z</time>
      </trkpt>
      <trkpt lat="46.20258" lon="-1.48151">
        <ele>3.24752</ele>
        <time>2022-05-17T13:26:42.000Z</time>
      </trkpt>
      <trkpt lat="46.2026" lon="-1.48147">
        <ele>3.28777</ele>
        <time>2022-05-17T13:26:43.000Z</time>
      </trkpt>
      <trkpt lat="46.20262" lon="-1.48144">
        <ele>3.32388</ele>
        <time>2022-05-17T13:26:44.000Z</time>
      </trkpt>
      <trkpt lat="46.20264" lon="-1.48141">
        <ele>3.35682</ele>
        <time>2022-05-17T13:26:45.000Z</time>
      </trkpt>
      <trkpt lat="46.20266" lon="-1.48137">
        <ele>3.36611</ele>
        <time>2022-05-17T13:26:46.000Z</time>
      </trkpt>
      <trkpt lat="46.20268" lon="-1.48134">
        <ele>3.30748</ele>
        <time>2022-05-17T13:26:47.000Z</time>
      </trkpt>
      <trkpt lat="46.20271" lon="-1.4813">
        <ele>3.16649</ele>
        <time>2022-05-17T13:26:48.000Z</time>
      </trkpt>
      <trkpt lat="46.20274" lon="-1.48125">
        <ele>2.9425</ele>
        <time>2022-05-17T13:26:49.000Z</time>
      </trkpt>
      <trkpt lat="46.20276" lon="-1.4812">
        <ele>2.75723</ele>
        <time>2022-05-17T13:26:50.000Z</time>
      </trkpt>
      <trkpt lat="46.20279" lon="-1.48115">
        <ele>2.68145</ele>
        <time>2022-05-17T13:26:51.000Z</time>
      </trkpt>
      <trkpt lat="46.20281" lon="-1.48109">
        <ele>2.72937</ele>
        <time>2022-05-17T13:26:52.000Z</time>
      </trkpt>
      <trkpt lat="46.20286" lon="-1.48097">
        <ele>3.1091</ele>
        <time>2022-05-17T13:26:53.000Z</time>
      </trkpt>
      <trkpt lat="46.20288" lon="-1.4809">
        <ele>3.27909</ele>
        <time>2022-05-17T13:26:54.000Z</time>
      </trkpt>
      <trkpt lat="46.20289" lon="-1.48084">
        <ele>3.34632</ele>
        <time>2022-05-17T13:26:55.000Z</time>
      </trkpt>
      <trkpt lat="46.2029" lon="-1.48081">
        <ele>3.32178</ele>
        <time>2022-05-17T13:26:56.000Z</time>
      </trkpt>
      <trkpt lat="46.20292" lon="-1.48084">
        <ele>3.21622</ele>
        <time>2022-05-17T13:26:57.000Z</time>
      </trkpt>
      <trkpt lat="46.20295" lon="-1.48076">
        <ele>3.00727</ele>
        <time>2022-05-17T13:26:58.000Z</time>
      </trkpt>
      <trkpt lat="46.20296" lon="-1.48069">
        <ele>2.88657</ele>
        <time>2022-05-17T13:26:59.000Z</time>
      </trkpt>
      <trkpt lat="46.20298" lon="-1.48067">
        <ele>2.62383</ele>
        <time>2022-05-17T13:27:01.000Z</time>
      </trkpt>
      <trkpt lat="46.203" lon="-1.48062">
        <ele>2.45196</ele>
        <time>2022-05-17T13:27:02.000Z</time>
      </trkpt>
      <trkpt lat="46.20301" lon="-1.4806">
        <ele>2.31164</ele>
        <time>2022-05-17T13:27:03.000Z</time>
      </trkpt>
      <trkpt lat="46.20303" lon="-1.48054">
        <ele>2.23177</ele>
        <time>2022-05-17T13:27:04.000Z</time>
      </trkpt>
      <trkpt lat="46.20306" lon="-1.48053">
        <ele>2.10335</ele>
        <time>2022-05-17T13:27:05.000Z</time>
      </trkpt>
      <trkpt lat="46.20308" lon="-1.4805">
        <ele>2.18481</ele>
        <time>2022-05-17T13:27:06.000Z</time>
      </trkpt>
      <trkpt lat="46.2031" lon="-1.48046">
        <ele>2.38252</ele>
        <time>2022-05-17T13:27:07.000Z</time>
      </trkpt>
      <trkpt lat="46.20312" lon="-1.48042">
        <ele>2.55264</ele>
        <time>2022-05-17T13:27:08.000Z</time>
      </trkpt>
      <trkpt lat="46.20314" lon="-1.48038">
        <ele>2.7143</ele>
        <time>2022-05-17T13:27:09.000Z</time>
      </trkpt>
      <trkpt lat="46.20317" lon="-1.48034">
        <ele>2.82549</ele>
        <time>2022-05-17T13:27:10.000Z</time>
      </trkpt>
      <trkpt lat="46.20319" lon="-1.48029">
        <ele>2.82292</ele>
        <time>2022-05-17T13:27:11.000Z</time>
      </trkpt>
      <trkpt lat="46.20321" lon="-1.48026">
        <ele>2.77452</ele>
        <time>2022-05-17T13:27:12.000Z</time>
      </trkpt>
      <trkpt lat="46.20323" lon="-1.48023">
        <ele>2.71215</ele>
        <time>2022-05-17T13:27:13.000Z</time>
      </trkpt>
      <trkpt lat="46.20324" lon="-1.4802">
        <ele>2.66567</ele>
        <time>2022-05-17T13:27:14.000Z</time>
      </trkpt>
      <trkpt lat="46.20326" lon="-1.48017">
        <ele>2.64262</ele>
        <time>2022-05-17T13:27:15.000Z</time>
      </trkpt>
      <trkpt lat="46.20328" lon="-1.48013">
        <ele>2.63148</ele>
        <time>2022-05-17T13:27:16.000Z</time>
      </trkpt>
      <trkpt lat="46.2033" lon="-1.48009">
        <ele>2.66423</ele>
        <time>2022-05-17T13:27:17.000Z</time>
      </trkpt>
      <trkpt lat="46.20332" lon="-1.48005">
        <ele>2.68761</ele>
        <time>2022-05-17T13:27:18.000Z</time>
      </trkpt>
      <trkpt lat="46.20334" lon="-1.48">
        <ele>2.74063</ele>
        <time>2022-05-17T13:27:19.000Z</time>
      </trkpt>
      <trkpt lat="46.20336" lon="-1.47996">
        <ele>2.76945</ele>
        <time>2022-05-17T13:27:20.000Z</time>
      </trkpt>
      <trkpt lat="46.20338" lon="-1.47992">
        <ele>2.76516</ele>
        <time>2022-05-17T13:27:21.000Z</time>
      </trkpt>
      <trkpt lat="46.2034" lon="-1.47988">
        <ele>2.77855</ele>
        <time>2022-05-17T13:27:22.000Z</time>
      </trkpt>
      <trkpt lat="46.20342" lon="-1.47983">
        <ele>2.85823</ele>
        <time>2022-05-17T13:27:23.000Z</time>
      </trkpt>
      <trkpt lat="46.20343" lon="-1.47978">
        <ele>2.99618</ele>
        <time>2022-05-17T13:27:24.000Z</time>
      </trkpt>
      <trkpt lat="46.20346" lon="-1.47973">
        <ele>3.14981</ele>
        <time>2022-05-17T13:27:25.000Z</time>
      </trkpt>
      <trkpt lat="46.20348" lon="-1.47967">
        <ele>3.33893</ele>
        <time>2022-05-17T13:27:26.000Z</time>
      </trkpt>
      <trkpt lat="46.2035" lon="-1.47962">
        <ele>3.39064</ele>
        <time>2022-05-17T13:27:27.000Z</time>
      </trkpt>
      <trkpt lat="46.20352" lon="-1.47957">
        <ele>3.3196</ele>
        <time>2022-05-17T13:27:28.000Z</time>
      </trkpt>
      <trkpt lat="46.20354" lon="-1.47952">
        <ele>3.20517</ele>
        <time>2022-05-17T13:27:29.000Z</time>
      </trkpt>
      <trkpt lat="46.20356" lon="-1.47948">
        <ele>3.07906</ele>
        <time>2022-05-17T13:27:30.000Z</time>
      </trkpt>
      <trkpt lat="46.20358" lon="-1.47944">
        <ele>2.96263</ele>
        <time>2022-05-17T13:27:31.000Z</time>
      </trkpt>
      <trkpt lat="46.20361" lon="-1.4794">
        <ele>2.86719</ele>
        <time>2022-05-17T13:27:32.000Z</time>
      </trkpt>
      <trkpt lat="46.20363" lon="-1.47936">
        <ele>2.82483</ele>
        <time>2022-05-17T13:27:33.000Z</time>
      </trkpt>
      <trkpt lat="46.20364" lon="-1.47932">
        <ele>2.84071</ele>
        <time>2022-05-17T13:27:34.000Z</time>
      </trkpt>
      <trkpt lat="46.20366" lon="-1.47927">
        <ele>2.8764</ele>
        <time>2022-05-17T13:27:35.000Z</time>
      </trkpt>
      <trkpt lat="46.20368" lon="-1.47923">
        <ele>2.92199</ele>
        <time>2022-05-17T13:27:36.000Z</time>
      </trkpt>
      <trkpt lat="46.2037" lon="-1.47918">
        <ele>2.97162</ele>
        <time>2022-05-17T13:27:37.000Z</time>
      </trkpt>
      <trkpt lat="46.20371" lon="-1.47914">
        <ele>3.01781</ele>
        <time>2022-05-17T13:27:38.000Z</time>
      </trkpt>
      <trkpt lat="46.20372" lon="-1.4791">
        <ele>3.05298</ele>
        <time>2022-05-17T13:27:39.000Z</time>
      </trkpt>
      <trkpt lat="46.20373" lon="-1.47906">
        <ele>3.08479</ele>
        <time>2022-05-17T13:27:40.000Z</time>
      </trkpt>
      <trkpt lat="46.20374" lon="-1.47901">
        <ele>3.10244</ele>
        <time>2022-05-17T13:27:41.000Z</time>
      </trkpt>
      <trkpt lat="46.20376" lon="-1.47897">
        <ele>3.09779</ele>
        <time>2022-05-17T13:27:42.000Z</time>
      </trkpt>
      <trkpt lat="46.20377" lon="-1.47894">
        <ele>3.05738</ele>
        <time>2022-05-17T13:27:43.000Z</time>
      </trkpt>
      <trkpt lat="46.20379" lon="-1.4789">
        <ele>3.01186</ele>
        <time>2022-05-17T13:27:44.000Z</time>
      </trkpt>
      <trkpt lat="46.20381" lon="-1.47886">
        <ele>2.96896</ele>
        <time>2022-05-17T13:27:45.000Z</time>
      </trkpt>
      <trkpt lat="46.20383" lon="-1.47882">
        <ele>2.93717</ele>
        <time>2022-05-17T13:27:46.000Z</time>
      </trkpt>
      <trkpt lat="46.20384" lon="-1.47877">
        <ele>2.92983</ele>
        <time>2022-05-17T13:27:47.000Z</time>
      </trkpt>
      <trkpt lat="46.20386" lon="-1.47874">
        <ele>2.94962</ele>
        <time>2022-05-17T13:27:48.000Z</time>
      </trkpt>
      <trkpt lat="46.20387" lon="-1.47869">
        <ele>3.00127</ele>
        <time>2022-05-17T13:27:49.000Z</time>
      </trkpt>
      <trkpt lat="46.20389" lon="-1.47865">
        <ele>3.09132</ele>
        <time>2022-05-17T13:27:50.000Z</time>
      </trkpt>
      <trkpt lat="46.20391" lon="-1.47861">
        <ele>3.18307</ele>
        <time>2022-05-17T13:27:51.000Z</time>
      </trkpt>
      <trkpt lat="46.20393" lon="-1.47857">
        <ele>3.25073</ele>
        <time>2022-05-17T13:27:52.000Z</time>
      </trkpt>
      <trkpt lat="46.20394" lon="-1.47854">
        <ele>3.28994</ele>
        <time>2022-05-17T13:27:53.000Z</time>
      </trkpt>
      <trkpt lat="46.20396" lon="-1.47851">
        <ele>3.3142</ele>
        <time>2022-05-17T13:27:54.000Z</time>
      </trkpt>
      <trkpt lat="46.20397" lon="-1.47847">
        <ele>3.3115</ele>
        <time>2022-05-17T13:27:55.000Z</time>
      </trkpt>
      <trkpt lat="46.20399" lon="-1.47843">
        <ele>3.29623</ele>
        <time>2022-05-17T13:27:56.000Z</time>
      </trkpt>
      <trkpt lat="46.204" lon="-1.47839">
        <ele>3.26066</ele>
        <time>2022-05-17T13:27:57.000Z</time>
      </trkpt>
      <trkpt lat="46.20401" lon="-1.47835">
        <ele>3.22368</ele>
        <time>2022-05-17T13:27:58.000Z</time>
      </trkpt>
      <trkpt lat="46.20403" lon="-1.47831">
        <ele>3.18377</ele>
        <time>2022-05-17T13:27:59.000Z</time>
      </trkpt>
      <trkpt lat="46.20404" lon="-1.47827">
        <ele>3.15116</ele>
        <time>2022-05-17T13:28:00.000Z</time>
      </trkpt>
      <trkpt lat="46.20405" lon="-1.47822">
        <ele>3.12625</ele>
        <time>2022-05-17T13:28:01.000Z</time>
      </trkpt>
      <trkpt lat="46.20406" lon="-1.47819">
        <ele>3.12073</ele>
        <time>2022-05-17T13:28:02.000Z</time>
      </trkpt>
      <trkpt lat="46.20407" lon="-1.47816">
        <ele>3.11137</ele>
        <time>2022-05-17T13:28:03.000Z</time>
      </trkpt>
      <trkpt lat="46.20408" lon="-1.47812">
        <ele>3.1288</ele>
        <time>2022-05-17T13:28:04.000Z</time>
      </trkpt>
      <trkpt lat="46.20409" lon="-1.47808">
        <ele>3.15543</ele>
        <time>2022-05-17T13:28:05.000Z</time>
      </trkpt>
      <trkpt lat="46.2041" lon="-1.47805">
        <ele>3.18427</ele>
        <time>2022-05-17T13:28:06.000Z</time>
      </trkpt>
      <trkpt lat="46.20411" lon="-1.47802">
        <ele>3.24056</ele>
        <time>2022-05-17T13:28:07.000Z</time>
      </trkpt>
      <trkpt lat="46.20412" lon="-1.47798">
        <ele>3.32619</ele>
        <time>2022-05-17T13:28:08.000Z</time>
      </trkpt>
      <trkpt lat="46.20413" lon="-1.47794">
        <ele>3.40852</ele>
        <time>2022-05-17T13:28:09.000Z</time>
      </trkpt>
      <trkpt lat="46.20414" lon="-1.4779">
        <ele>3.49884</ele>
        <time>2022-05-17T13:28:10.000Z</time>
      </trkpt>
      <trkpt lat="46.20415" lon="-1.47786">
        <ele>3.57868</ele>
        <time>2022-05-17T13:28:11.000Z</time>
      </trkpt>
      <trkpt lat="46.20417" lon="-1.47782">
        <ele>3.62905</ele>
        <time>2022-05-17T13:28:12.000Z</time>
      </trkpt>
      <trkpt lat="46.20418" lon="-1.47779">
        <ele>3.66164</ele>
        <time>2022-05-17T13:28:13.000Z</time>
      </trkpt>
      <trkpt lat="46.20419" lon="-1.47776">
        <ele>3.68657</ele>
        <time>2022-05-17T13:28:14.000Z</time>
      </trkpt>
      <trkpt lat="46.2042" lon="-1.47772">
        <ele>3.71269</ele>
        <time>2022-05-17T13:28:15.000Z</time>
      </trkpt>
      <trkpt lat="46.2042" lon="-1.47768">
        <ele>3.71887</ele>
        <time>2022-05-17T13:28:16.000Z</time>
      </trkpt>
      <trkpt lat="46.20421" lon="-1.47763">
        <ele>3.71666</ele>
        <time>2022-05-17T13:28:17.000Z</time>
      </trkpt>
      <trkpt lat="46.20422" lon="-1.47757">
        <ele>3.68859</ele>
        <time>2022-05-17T13:28:18.000Z</time>
      </trkpt>
      <trkpt lat="46.20424" lon="-1.47752">
        <ele>3.65462</ele>
        <time>2022-05-17T13:28:19.000Z</time>
      </trkpt>
      <trkpt lat="46.20424" lon="-1.47747">
        <ele>3.6488</ele>
        <time>2022-05-17T13:28:20.000Z</time>
      </trkpt>
      <trkpt lat="46.20425" lon="-1.47743">
        <ele>3.66032</ele>
        <time>2022-05-17T13:28:21.000Z</time>
      </trkpt>
      <trkpt lat="46.20425" lon="-1.47737">
        <ele>3.66555</ele>
        <time>2022-05-17T13:28:22.000Z</time>
      </trkpt>
      <trkpt lat="46.20426" lon="-1.47732">
        <ele>3.67865</ele>
        <time>2022-05-17T13:28:23.000Z</time>
      </trkpt>
      <trkpt lat="46.20427" lon="-1.47727">
        <ele>3.68141</ele>
        <time>2022-05-17T13:28:24.000Z</time>
      </trkpt>
      <trkpt lat="46.20428" lon="-1.47722">
        <ele>3.67979</ele>
        <time>2022-05-17T13:28:25.000Z</time>
      </trkpt>
      <trkpt lat="46.20429" lon="-1.47717">
        <ele>3.6818</ele>
        <time>2022-05-17T13:28:26.000Z</time>
      </trkpt>
      <trkpt lat="46.20431" lon="-1.47712">
        <ele>3.69042</ele>
        <time>2022-05-17T13:28:27.000Z</time>
      </trkpt>
      <trkpt lat="46.20432" lon="-1.47707">
        <ele>3.70445</ele>
        <time>2022-05-17T13:28:28.000Z</time>
      </trkpt>
      <trkpt lat="46.20432" lon="-1.47704">
        <ele>3.72078</ele>
        <time>2022-05-17T13:28:29.000Z</time>
      </trkpt>
      <trkpt lat="46.20433" lon="-1.477">
        <ele>3.7383</ele>
        <time>2022-05-17T13:28:30.000Z</time>
      </trkpt>
      <trkpt lat="46.20434" lon="-1.47695">
        <ele>3.75745</ele>
        <time>2022-05-17T13:28:31.000Z</time>
      </trkpt>
      <trkpt lat="46.20436" lon="-1.4769">
        <ele>3.76619</ele>
        <time>2022-05-17T13:28:32.000Z</time>
      </trkpt>
      <trkpt lat="46.20437" lon="-1.47685">
        <ele>3.76213</ele>
        <time>2022-05-17T13:28:33.000Z</time>
      </trkpt>
      <trkpt lat="46.20438" lon="-1.47679">
        <ele>3.73954</ele>
        <time>2022-05-17T13:28:34.000Z</time>
      </trkpt>
      <trkpt lat="46.20439" lon="-1.47672">
        <ele>3.67274</ele>
        <time>2022-05-17T13:28:35.000Z</time>
      </trkpt>
      <trkpt lat="46.20439" lon="-1.47666">
        <ele>3.5693</ele>
        <time>2022-05-17T13:28:36.000Z</time>
      </trkpt>
      <trkpt lat="46.2044" lon="-1.47659">
        <ele>3.44807</ele>
        <time>2022-05-17T13:28:37.000Z</time>
      </trkpt>
      <trkpt lat="46.20442" lon="-1.47651">
        <ele>3.31969</ele>
        <time>2022-05-17T13:28:38.000Z</time>
      </trkpt>
      <trkpt lat="46.20443" lon="-1.47645">
        <ele>3.27462</ele>
        <time>2022-05-17T13:28:39.000Z</time>
      </trkpt>
      <trkpt lat="46.20446" lon="-1.4764">
        <ele>3.29092</ele>
        <time>2022-05-17T13:28:40.000Z</time>
      </trkpt>
      <trkpt lat="46.20449" lon="-1.47637">
        <ele>3.32134</ele>
        <time>2022-05-17T13:28:41.000Z</time>
      </trkpt>
      <trkpt lat="46.20451" lon="-1.47635">
        <ele>3.36118</ele>
        <time>2022-05-17T13:28:42.000Z</time>
      </trkpt>
      <trkpt lat="46.20454" lon="-1.47633">
        <ele>3.39095</ele>
        <time>2022-05-17T13:28:43.000Z</time>
      </trkpt>
      <trkpt lat="46.20455" lon="-1.47631">
        <ele>3.42011</ele>
        <time>2022-05-17T13:28:44.000Z</time>
      </trkpt>
      <trkpt lat="46.20458" lon="-1.4763">
        <ele>3.43553</ele>
        <time>2022-05-17T13:28:45.000Z</time>
      </trkpt>
      <trkpt lat="46.2046" lon="-1.47629">
        <ele>3.45106</ele>
        <time>2022-05-17T13:28:46.000Z</time>
      </trkpt>
      <trkpt lat="46.20463" lon="-1.47627">
        <ele>3.45416</ele>
        <time>2022-05-17T13:28:47.000Z</time>
      </trkpt>
      <trkpt lat="46.20466" lon="-1.47625">
        <ele>3.43403</ele>
        <time>2022-05-17T13:28:48.000Z</time>
      </trkpt>
      <trkpt lat="46.20468" lon="-1.47622">
        <ele>3.38938</ele>
        <time>2022-05-17T13:28:49.000Z</time>
      </trkpt>
      <trkpt lat="46.2047" lon="-1.47619">
        <ele>3.32305</ele>
        <time>2022-05-17T13:28:50.000Z</time>
      </trkpt>
      <trkpt lat="46.20472" lon="-1.47616">
        <ele>3.26757</ele>
        <time>2022-05-17T13:28:51.000Z</time>
      </trkpt>
      <trkpt lat="46.20473" lon="-1.47613">
        <ele>3.20979</ele>
        <time>2022-05-17T13:28:52.000Z</time>
      </trkpt>
      <trkpt lat="46.20474" lon="-1.47609">
        <ele>3.15937</ele>
        <time>2022-05-17T13:28:53.000Z</time>
      </trkpt>
      <trkpt lat="46.20475" lon="-1.47606">
        <ele>3.11462</ele>
        <time>2022-05-17T13:28:54.000Z</time>
      </trkpt>
      <trkpt lat="46.20476" lon="-1.47603">
        <ele>3.0932</ele>
        <time>2022-05-17T13:28:55.000Z</time>
      </trkpt>
      <trkpt lat="46.20479" lon="-1.476">
        <ele>3.09183</ele>
        <time>2022-05-17T13:28:56.000Z</time>
      </trkpt>
      <trkpt lat="46.2048" lon="-1.47597">
        <ele>3.10638</ele>
        <time>2022-05-17T13:28:57.000Z</time>
      </trkpt>
      <trkpt lat="46.20485" lon="-1.47593">
        <ele>3.13686</ele>
        <time>2022-05-17T13:28:58.000Z</time>
      </trkpt>
      <trkpt lat="46.2049" lon="-1.47589">
        <ele>3.07961</ele>
        <time>2022-05-17T13:28:59.000Z</time>
      </trkpt>
      <trkpt lat="46.20494" lon="-1.47584">
        <ele>2.92512</ele>
        <time>2022-05-17T13:29:00.000Z</time>
      </trkpt>
      <trkpt lat="46.20498" lon="-1.4758">
        <ele>2.74615</ele>
        <time>2022-05-17T13:29:01.000Z</time>
      </trkpt>
      <trkpt lat="46.205" lon="-1.47575">
        <ele>2.606</ele>
        <time>2022-05-17T13:29:02.000Z</time>
      </trkpt>
      <trkpt lat="46.20501" lon="-1.47571">
        <ele>2.50182</ele>
        <time>2022-05-17T13:29:03.000Z</time>
      </trkpt>
      <trkpt lat="46.20502" lon="-1.47565">
        <ele>2.38522</ele>
        <time>2022-05-17T13:29:04.000Z</time>
      </trkpt>
      <trkpt lat="46.20504" lon="-1.47559">
        <ele>2.28917</ele>
        <time>2022-05-17T13:29:05.000Z</time>
      </trkpt>
      <trkpt lat="46.20506" lon="-1.47554">
        <ele>2.21497</ele>
        <time>2022-05-17T13:29:06.000Z</time>
      </trkpt>
      <trkpt lat="46.20509" lon="-1.47548">
        <ele>2.12512</ele>
        <time>2022-05-17T13:29:07.000Z</time>
      </trkpt>
      <trkpt lat="46.20512" lon="-1.47543">
        <ele>1.98992</ele>
        <time>2022-05-17T13:29:08.000Z</time>
      </trkpt>
      <trkpt lat="46.20515" lon="-1.47537">
        <ele>1.85799</ele>
        <time>2022-05-17T13:29:09.000Z</time>
      </trkpt>
      <trkpt lat="46.20517" lon="-1.47532">
        <ele>1.73697</ele>
        <time>2022-05-17T13:29:10.000Z</time>
      </trkpt>
      <trkpt lat="46.2052" lon="-1.47527">
        <ele>1.65285</ele>
        <time>2022-05-17T13:29:11.000Z</time>
      </trkpt>
      <trkpt lat="46.20522" lon="-1.47523">
        <ele>1.618</ele>
        <time>2022-05-17T13:29:12.000Z</time>
      </trkpt>
      <trkpt lat="46.20524" lon="-1.47518">
        <ele>1.65341</ele>
        <time>2022-05-17T13:29:13.000Z</time>
      </trkpt>
      <trkpt lat="46.20525" lon="-1.47514">
        <ele>1.7406</ele>
        <time>2022-05-17T13:29:14.000Z</time>
      </trkpt>
      <trkpt lat="46.20527" lon="-1.4751">
        <ele>1.88012</ele>
        <time>2022-05-17T13:29:15.000Z</time>
      </trkpt>
      <trkpt lat="46.20529" lon="-1.47506">
        <ele>2.05968</ele>
        <time>2022-05-17T13:29:16.000Z</time>
      </trkpt>
      <trkpt lat="46.20531" lon="-1.47502">
        <ele>2.25324</ele>
        <time>2022-05-17T13:29:17.000Z</time>
      </trkpt>
      <trkpt lat="46.20533" lon="-1.47498">
        <ele>2.44926</ele>
        <time>2022-05-17T13:29:18.000Z</time>
      </trkpt>
      <trkpt lat="46.20536" lon="-1.47493">
        <ele>2.60178</ele>
        <time>2022-05-17T13:29:19.000Z</time>
      </trkpt>
      <trkpt lat="46.20538" lon="-1.47488">
        <ele>2.65668</ele>
        <time>2022-05-17T13:29:20.000Z</time>
      </trkpt>
      <trkpt lat="46.2054" lon="-1.47483">
        <ele>2.64357</ele>
        <time>2022-05-17T13:29:21.000Z</time>
      </trkpt>
      <trkpt lat="46.20543" lon="-1.47479">
        <ele>2.60829</ele>
        <time>2022-05-17T13:29:22.000Z</time>
      </trkpt>
      <trkpt lat="46.20547" lon="-1.47474">
        <ele>2.59976</ele>
        <time>2022-05-17T13:29:23.000Z</time>
      </trkpt>
      <trkpt lat="46.2055" lon="-1.47471">
        <ele>2.60371</ele>
        <time>2022-05-17T13:29:24.000Z</time>
      </trkpt>
      <trkpt lat="46.20554" lon="-1.47468">
        <ele>2.60671</ele>
        <time>2022-05-17T13:29:25.000Z</time>
      </trkpt>
      <trkpt lat="46.20557" lon="-1.47466">
        <ele>2.57048</ele>
        <time>2022-05-17T13:29:26.000Z</time>
      </trkpt>
      <trkpt lat="46.20561" lon="-1.47463">
        <ele>2.47249</ele>
        <time>2022-05-17T13:29:27.000Z</time>
      </trkpt>
      <trkpt lat="46.20564" lon="-1.47461">
        <ele>2.35518</ele>
        <time>2022-05-17T13:29:28.000Z</time>
      </trkpt>
      <trkpt lat="46.20567" lon="-1.47459">
        <ele>2.23561</ele>
        <time>2022-05-17T13:29:29.000Z</time>
      </trkpt>
      <trkpt lat="46.2057" lon="-1.47457">
        <ele>2.11678</ele>
        <time>2022-05-17T13:29:30.000Z</time>
      </trkpt>
      <trkpt lat="46.20573" lon="-1.47455">
        <ele>2.0379</ele>
        <time>2022-05-17T13:29:31.000Z</time>
      </trkpt>
      <trkpt lat="46.20579" lon="-1.47452">
        <ele>2.01616</ele>
        <time>2022-05-17T13:29:32.000Z</time>
      </trkpt>
      <trkpt lat="46.20583" lon="-1.47451">
        <ele>2.0645</ele>
        <time>2022-05-17T13:29:33.000Z</time>
      </trkpt>
      <trkpt lat="46.20586" lon="-1.47449">
        <ele>2.14937</ele>
        <time>2022-05-17T13:29:34.000Z</time>
      </trkpt>
      <trkpt lat="46.20588" lon="-1.47449">
        <ele>2.15277</ele>
        <time>2022-05-17T13:29:35.000Z</time>
      </trkpt>
      <trkpt lat="46.20591" lon="-1.47448">
        <ele>2.19565</ele>
        <time>2022-05-17T13:29:36.000Z</time>
      </trkpt>
      <trkpt lat="46.20595" lon="-1.47445">
        <ele>2.21809</ele>
        <time>2022-05-17T13:29:37.000Z</time>
      </trkpt>
      <trkpt lat="46.20597" lon="-1.47444">
        <ele>2.21446</ele>
        <time>2022-05-17T13:29:38.000Z</time>
      </trkpt>
      <trkpt lat="46.20599" lon="-1.47441">
        <ele>2.19851</ele>
        <time>2022-05-17T13:29:39.000Z</time>
      </trkpt>
      <trkpt lat="46.20602" lon="-1.4744">
        <ele>2.18321</ele>
        <time>2022-05-17T13:29:40.000Z</time>
      </trkpt>
      <trkpt lat="46.20604" lon="-1.47438">
        <ele>2.17677</ele>
        <time>2022-05-17T13:29:41.000Z</time>
      </trkpt>
      <trkpt lat="46.20607" lon="-1.47436">
        <ele>2.19089</ele>
        <time>2022-05-17T13:29:42.000Z</time>
      </trkpt>
      <trkpt lat="46.2061" lon="-1.47434">
        <ele>2.22447</ele>
        <time>2022-05-17T13:29:43.000Z</time>
      </trkpt>
      <trkpt lat="46.20612" lon="-1.47433">
        <ele>2.25665</ele>
        <time>2022-05-17T13:29:44.000Z</time>
      </trkpt>
      <trkpt lat="46.20614" lon="-1.47432">
        <ele>2.28913</ele>
        <time>2022-05-17T13:29:45.000Z</time>
      </trkpt>
      <trkpt lat="46.20617" lon="-1.47431">
        <ele>2.32484</ele>
        <time>2022-05-17T13:29:46.000Z</time>
      </trkpt>
      <trkpt lat="46.2062" lon="-1.47429">
        <ele>2.38157</ele>
        <time>2022-05-17T13:29:48.000Z</time>
      </trkpt>
      <trkpt lat="46.20623" lon="-1.47428">
        <ele>2.39886</ele>
        <time>2022-05-17T13:29:49.000Z</time>
      </trkpt>
      <trkpt lat="46.20625" lon="-1.47426">
        <ele>2.41148</ele>
        <time>2022-05-17T13:29:50.000Z</time>
      </trkpt>
      <trkpt lat="46.20628" lon="-1.47425">
        <ele>2.42934</ele>
        <time>2022-05-17T13:29:51.000Z</time>
      </trkpt>
      <trkpt lat="46.20632" lon="-1.47423">
        <ele>2.49077</ele>
        <time>2022-05-17T13:29:52.000Z</time>
      </trkpt>
      <trkpt lat="46.20637" lon="-1.47422">
        <ele>2.60312</ele>
        <time>2022-05-17T13:29:53.000Z</time>
      </trkpt>
      <trkpt lat="46.20641" lon="-1.47421">
        <ele>2.73059</ele>
        <time>2022-05-17T13:29:54.000Z</time>
      </trkpt>
      <trkpt lat="46.20645" lon="-1.4742">
        <ele>2.84166</ele>
        <time>2022-05-17T13:29:55.000Z</time>
      </trkpt>
      <trkpt lat="46.20649" lon="-1.47419">
        <ele>2.89491</ele>
        <time>2022-05-17T13:29:56.000Z</time>
      </trkpt>
      <trkpt lat="46.20652" lon="-1.47419">
        <ele>2.90627</ele>
        <time>2022-05-17T13:29:57.000Z</time>
      </trkpt>
      <trkpt lat="46.20654" lon="-1.47419">
        <ele>2.88624</ele>
        <time>2022-05-17T13:29:58.000Z</time>
      </trkpt>
      <trkpt lat="46.20658" lon="-1.47418">
        <ele>2.86573</ele>
        <time>2022-05-17T13:29:59.000Z</time>
      </trkpt>
      <trkpt lat="46.20661" lon="-1.47417">
        <ele>2.84627</ele>
        <time>2022-05-17T13:30:00.000Z</time>
      </trkpt>
      <trkpt lat="46.20664" lon="-1.47416">
        <ele>2.81933</ele>
        <time>2022-05-17T13:30:01.000Z</time>
      </trkpt>
      <trkpt lat="46.20668" lon="-1.47415">
        <ele>2.80005</ele>
        <time>2022-05-17T13:30:02.000Z</time>
      </trkpt>
      <trkpt lat="46.20672" lon="-1.47414">
        <ele>2.7796</ele>
        <time>2022-05-17T13:30:03.000Z</time>
      </trkpt>
      <trkpt lat="46.20676" lon="-1.47413">
        <ele>2.77371</ele>
        <time>2022-05-17T13:30:04.000Z</time>
      </trkpt>
      <trkpt lat="46.2068" lon="-1.47412">
        <ele>2.74654</ele>
        <time>2022-05-17T13:30:05.000Z</time>
      </trkpt>
      <trkpt lat="46.20683" lon="-1.47411">
        <ele>2.71163</ele>
        <time>2022-05-17T13:30:06.000Z</time>
      </trkpt>
      <trkpt lat="46.20686" lon="-1.47411">
        <ele>2.66445</ele>
        <time>2022-05-17T13:30:07.000Z</time>
      </trkpt>
      <trkpt lat="46.20689" lon="-1.47411">
        <ele>2.60811</ele>
        <time>2022-05-17T13:30:08.000Z</time>
      </trkpt>
      <trkpt lat="46.20693" lon="-1.47411">
        <ele>2.5178</ele>
        <time>2022-05-17T13:30:09.000Z</time>
      </trkpt>
      <trkpt lat="46.20697" lon="-1.47412">
        <ele>2.38767</ele>
        <time>2022-05-17T13:30:10.000Z</time>
      </trkpt>
      <trkpt lat="46.20701" lon="-1.47412">
        <ele>2.21601</ele>
        <time>2022-05-17T13:30:11.000Z</time>
      </trkpt>
      <trkpt lat="46.20705" lon="-1.47412">
        <ele>2.0411</ele>
        <time>2022-05-17T13:30:12.000Z</time>
      </trkpt>
      <trkpt lat="46.20709" lon="-1.47412">
        <ele>1.88713</ele>
        <time>2022-05-17T13:30:13.000Z</time>
      </trkpt>
      <trkpt lat="46.20713" lon="-1.47412">
        <ele>1.78648</ele>
        <time>2022-05-17T13:30:14.000Z</time>
      </trkpt>
      <trkpt lat="46.20717" lon="-1.47412">
        <ele>1.77017</ele>
        <time>2022-05-17T13:30:15.000Z</time>
      </trkpt>
      <trkpt lat="46.2072" lon="-1.4741">
        <ele>1.85464</ele>
        <time>2022-05-17T13:30:16.000Z</time>
      </trkpt>
      <trkpt lat="46.20723" lon="-1.47408">
        <ele>2.02505</ele>
        <time>2022-05-17T13:30:17.000Z</time>
      </trkpt>
      <trkpt lat="46.20725" lon="-1.47405">
        <ele>2.2396</ele>
        <time>2022-05-17T13:30:18.000Z</time>
      </trkpt>
      <trkpt lat="46.20727" lon="-1.47401">
        <ele>2.46175</ele>
        <time>2022-05-17T13:30:19.000Z</time>
      </trkpt>
      <trkpt lat="46.20727" lon="-1.47397">
        <ele>2.6326</ele>
        <time>2022-05-17T13:30:20.000Z</time>
      </trkpt>
      <trkpt lat="46.20726" lon="-1.47393">
        <ele>2.79822</ele>
        <time>2022-05-17T13:30:21.000Z</time>
      </trkpt>
      <trkpt lat="46.20724" lon="-1.47388">
        <ele>3.03217</ele>
        <time>2022-05-17T13:30:22.000Z</time>
      </trkpt>
      <trkpt lat="46.20722" lon="-1.47382">
        <ele>3.28723</ele>
        <time>2022-05-17T13:30:23.000Z</time>
      </trkpt>
      <trkpt lat="46.20719" lon="-1.47378">
        <ele>3.43727</ele>
        <time>2022-05-17T13:30:24.000Z</time>
      </trkpt>
      <trkpt lat="46.20716" lon="-1.47374">
        <ele>3.44521</ele>
        <time>2022-05-17T13:30:25.000Z</time>
      </trkpt>
      <trkpt lat="46.20713" lon="-1.47369">
        <ele>3.31014</ele>
        <time>2022-05-17T13:30:26.000Z</time>
      </trkpt>
      <trkpt lat="46.2071" lon="-1.47365">
        <ele>3.22406</ele>
        <time>2022-05-17T13:30:27.000Z</time>
      </trkpt>
      <trkpt lat="46.20706" lon="-1.47363">
        <ele>3.22571</ele>
        <time>2022-05-17T13:30:28.000Z</time>
      </trkpt>
      <trkpt lat="46.20703" lon="-1.4736">
        <ele>3.29136</ele>
        <time>2022-05-17T13:30:29.000Z</time>
      </trkpt>
      <trkpt lat="46.20699" lon="-1.47358">
        <ele>3.38434</ele>
        <time>2022-05-17T13:30:30.000Z</time>
      </trkpt>
      <trkpt lat="46.20696" lon="-1.47355">
        <ele>3.47338</ele>
        <time>2022-05-17T13:30:31.000Z</time>
      </trkpt>
      <trkpt lat="46.20693" lon="-1.47352">
        <ele>3.54221</ele>
        <time>2022-05-17T13:30:32.000Z</time>
      </trkpt>
      <trkpt lat="46.2069" lon="-1.47348">
        <ele>3.60334</ele>
        <time>2022-05-17T13:30:33.000Z</time>
      </trkpt>
      <trkpt lat="46.20687" lon="-1.47345">
        <ele>3.62524</ele>
        <time>2022-05-17T13:30:34.000Z</time>
      </trkpt>
      <trkpt lat="46.20684" lon="-1.47342">
        <ele>3.61412</ele>
        <time>2022-05-17T13:30:35.000Z</time>
      </trkpt>
      <trkpt lat="46.2068" lon="-1.47338">
        <ele>3.57057</ele>
        <time>2022-05-17T13:30:36.000Z</time>
      </trkpt>
      <trkpt lat="46.20677" lon="-1.47335">
        <ele>3.53199</ele>
        <time>2022-05-17T13:30:37.000Z</time>
      </trkpt>
      <trkpt lat="46.20674" lon="-1.47332">
        <ele>3.50349</ele>
        <time>2022-05-17T13:30:38.000Z</time>
      </trkpt>
      <trkpt lat="46.20671" lon="-1.4733">
        <ele>3.46817</ele>
        <time>2022-05-17T13:30:39.000Z</time>
      </trkpt>
      <trkpt lat="46.20669" lon="-1.47328">
        <ele>3.43131</ele>
        <time>2022-05-17T13:30:40.000Z</time>
      </trkpt>
      <trkpt lat="46.20667" lon="-1.47325">
        <ele>3.42068</ele>
        <time>2022-05-17T13:30:41.000Z</time>
      </trkpt>
      <trkpt lat="46.20665" lon="-1.47322">
        <ele>3.42614</ele>
        <time>2022-05-17T13:30:42.000Z</time>
      </trkpt>
      <trkpt lat="46.20663" lon="-1.47319">
        <ele>3.47438</ele>
        <time>2022-05-17T13:30:43.000Z</time>
      </trkpt>
      <trkpt lat="46.20661" lon="-1.47316">
        <ele>3.5381</ele>
        <time>2022-05-17T13:30:44.000Z</time>
      </trkpt>
      <trkpt lat="46.20659" lon="-1.47312">
        <ele>3.61783</ele>
        <time>2022-05-17T13:30:45.000Z</time>
      </trkpt>
      <trkpt lat="46.20657" lon="-1.47308">
        <ele>3.6718</ele>
        <time>2022-05-17T13:30:46.000Z</time>
      </trkpt>
      <trkpt lat="46.20655" lon="-1.47305">
        <ele>3.68982</ele>
        <time>2022-05-17T13:30:47.000Z</time>
      </trkpt>
      <trkpt lat="46.20654" lon="-1.47301">
        <ele>3.66012</ele>
        <time>2022-05-17T13:30:48.000Z</time>
      </trkpt>
      <trkpt lat="46.20652" lon="-1.47298">
        <ele>3.60357</ele>
        <time>2022-05-17T13:30:49.000Z</time>
      </trkpt>
      <trkpt lat="46.20651" lon="-1.47296">
        <ele>3.55895</ele>
        <time>2022-05-17T13:30:50.000Z</time>
      </trkpt>
      <trkpt lat="46.2065" lon="-1.47294">
        <ele>3.51342</ele>
        <time>2022-05-17T13:30:51.000Z</time>
      </trkpt>
      <trkpt lat="46.20648" lon="-1.47292">
        <ele>3.46525</ele>
        <time>2022-05-17T13:30:52.000Z</time>
      </trkpt>
      <trkpt lat="46.20646" lon="-1.47288">
        <ele>3.41865</ele>
        <time>2022-05-17T13:30:53.000Z</time>
      </trkpt>
      <trkpt lat="46.20644" lon="-1.47285">
        <ele>3.40192</ele>
        <time>2022-05-17T13:30:54.000Z</time>
      </trkpt>
      <trkpt lat="46.20642" lon="-1.47282">
        <ele>3.42752</ele>
        <time>2022-05-17T13:30:55.000Z</time>
      </trkpt>
      <trkpt lat="46.2064" lon="-1.47279">
        <ele>3.47719</ele>
        <time>2022-05-17T13:30:56.000Z</time>
      </trkpt>
      <trkpt lat="46.20637" lon="-1.47275">
        <ele>3.55714</ele>
        <time>2022-05-17T13:30:58.000Z</time>
      </trkpt>
      <trkpt lat="46.20636" lon="-1.47272">
        <ele>3.61006</ele>
        <time>2022-05-17T13:30:59.000Z</time>
      </trkpt>
      <trkpt lat="46.20634" lon="-1.47268">
        <ele>3.64687</ele>
        <time>2022-05-17T13:31:00.000Z</time>
      </trkpt>
      <trkpt lat="46.20631" lon="-1.47264">
        <ele>3.6576</ele>
        <time>2022-05-17T13:31:01.000Z</time>
      </trkpt>
      <trkpt lat="46.20628" lon="-1.4726">
        <ele>3.63012</ele>
        <time>2022-05-17T13:31:02.000Z</time>
      </trkpt>
      <trkpt lat="46.20625" lon="-1.47258">
        <ele>3.61326</ele>
        <time>2022-05-17T13:31:03.000Z</time>
      </trkpt>
      <trkpt lat="46.20623" lon="-1.47256">
        <ele>3.6013</ele>
        <time>2022-05-17T13:31:04.000Z</time>
      </trkpt>
      <trkpt lat="46.2062" lon="-1.47255">
        <ele>3.61519</ele>
        <time>2022-05-17T13:31:05.000Z</time>
      </trkpt>
      <trkpt lat="46.20617" lon="-1.47255">
        <ele>3.63424</ele>
        <time>2022-05-17T13:31:06.000Z</time>
      </trkpt>
      <trkpt lat="46.20615" lon="-1.47256">
        <ele>3.64532</ele>
        <time>2022-05-17T13:31:07.000Z</time>
      </trkpt>
      <trkpt lat="46.20612" lon="-1.47258">
        <ele>3.64629</ele>
        <time>2022-05-17T13:31:08.000Z</time>
      </trkpt>
      <trkpt lat="46.20609" lon="-1.47259">
        <ele>3.64645</ele>
        <time>2022-05-17T13:31:09.000Z</time>
      </trkpt>
      <trkpt lat="46.20606" lon="-1.4726">
        <ele>3.66086</ele>
        <time>2022-05-17T13:31:10.000Z</time>
      </trkpt>
      <trkpt lat="46.20603" lon="-1.4726">
        <ele>3.68942</ele>
        <time>2022-05-17T13:31:11.000Z</time>
      </trkpt>
      <trkpt lat="46.206" lon="-1.47259">
        <ele>3.72388</ele>
        <time>2022-05-17T13:31:12.000Z</time>
      </trkpt>
      <trkpt lat="46.20597" lon="-1.47258">
        <ele>3.76727</ele>
        <time>2022-05-17T13:31:13.000Z</time>
      </trkpt>
      <trkpt lat="46.20595" lon="-1.47257">
        <ele>3.80292</ele>
        <time>2022-05-17T13:31:14.000Z</time>
      </trkpt>
      <trkpt lat="46.20593" lon="-1.47256">
        <ele>3.83029</ele>
        <time>2022-05-17T13:31:15.000Z</time>
      </trkpt>
      <trkpt lat="46.20592" lon="-1.47255">
        <ele>3.85366</ele>
        <time>2022-05-17T13:31:16.000Z</time>
      </trkpt>
      <trkpt lat="46.20591" lon="-1.47251">
        <ele>3.90129</ele>
        <time>2022-05-17T13:31:18.000Z</time>
      </trkpt>
      <trkpt lat="46.2059" lon="-1.47247">
        <ele>3.93244</ele>
        <time>2022-05-17T13:31:19.000Z</time>
      </trkpt>
      <trkpt lat="46.20588" lon="-1.47244">
        <ele>3.95575</ele>
        <time>2022-05-17T13:31:20.000Z</time>
      </trkpt>
      <trkpt lat="46.20587" lon="-1.47239">
        <ele>3.9704</ele>
        <time>2022-05-17T13:31:21.000Z</time>
      </trkpt>
      <trkpt lat="46.20586" lon="-1.47234">
        <ele>3.9652</ele>
        <time>2022-05-17T13:31:22.000Z</time>
      </trkpt>
      <trkpt lat="46.20584" lon="-1.47229">
        <ele>3.91872</ele>
        <time>2022-05-17T13:31:23.000Z</time>
      </trkpt>
      <trkpt lat="46.20582" lon="-1.47224">
        <ele>3.85594</ele>
        <time>2022-05-17T13:31:24.000Z</time>
      </trkpt>
      <trkpt lat="46.20581" lon="-1.47222">
        <ele>3.81213</ele>
        <time>2022-05-17T13:31:25.000Z</time>
      </trkpt>
      <trkpt lat="46.20579" lon="-1.47217">
        <ele>3.73942</ele>
        <time>2022-05-17T13:31:27.000Z</time>
      </trkpt>
      <trkpt lat="46.20578" lon="-1.47213">
        <ele>3.68577</ele>
        <time>2022-05-17T13:31:28.000Z</time>
      </trkpt>
      <trkpt lat="46.20577" lon="-1.47211">
        <ele>3.64774</ele>
        <time>2022-05-17T13:31:29.000Z</time>
      </trkpt>
      <trkpt lat="46.20577" lon="-1.47206">
        <ele>3.58932</ele>
        <time>2022-05-17T13:31:31.000Z</time>
      </trkpt>
      <trkpt lat="46.20578" lon="-1.47203">
        <ele>3.56012</ele>
        <time>2022-05-17T13:31:32.000Z</time>
      </trkpt>
      <trkpt lat="46.20578" lon="-1.472">
        <ele>3.54352</ele>
        <time>2022-05-17T13:31:33.000Z</time>
      </trkpt>
      <trkpt lat="46.20577" lon="-1.47194">
        <ele>3.51976</ele>
        <time>2022-05-17T13:31:35.000Z</time>
      </trkpt>
      <trkpt lat="46.20577" lon="-1.47191">
        <ele>3.51797</ele>
        <time>2022-05-17T13:31:36.000Z</time>
      </trkpt>
      <trkpt lat="46.20576" lon="-1.47188">
        <ele>3.52064</ele>
        <time>2022-05-17T13:31:37.000Z</time>
      </trkpt>
      <trkpt lat="46.20575" lon="-1.47185">
        <ele>3.53365</ele>
        <time>2022-05-17T13:31:39.000Z</time>
      </trkpt>
      <trkpt lat="46.20572" lon="-1.47182">
        <ele>3.55641</ele>
        <time>2022-05-17T13:31:41.000Z</time>
      </trkpt>
      <trkpt lat="46.2057" lon="-1.47179">
        <ele>3.58031</ele>
        <time>2022-05-17T13:31:42.000Z</time>
      </trkpt>
      <trkpt lat="46.20567" lon="-1.47175">
        <ele>3.58895</ele>
        <time>2022-05-17T13:31:43.000Z</time>
      </trkpt>
      <trkpt lat="46.20565" lon="-1.4717">
        <ele>3.57994</ele>
        <time>2022-05-17T13:31:44.000Z</time>
      </trkpt>
      <trkpt lat="46.20564" lon="-1.47167">
        <ele>3.56765</ele>
        <time>2022-05-17T13:31:45.000Z</time>
      </trkpt>
      <trkpt lat="46.20562" lon="-1.47164">
        <ele>3.55424</ele>
        <time>2022-05-17T13:31:46.000Z</time>
      </trkpt>
      <trkpt lat="46.2056" lon="-1.47162">
        <ele>3.54437</ele>
        <time>2022-05-17T13:31:47.000Z</time>
      </trkpt>
      <trkpt lat="46.20558" lon="-1.4716">
        <ele>3.53772</ele>
        <time>2022-05-17T13:31:48.000Z</time>
      </trkpt>
      <trkpt lat="46.20555" lon="-1.47158">
        <ele>3.54101</ele>
        <time>2022-05-17T13:31:49.000Z</time>
      </trkpt>
      <trkpt lat="46.20552" lon="-1.47156">
        <ele>3.55084</ele>
        <time>2022-05-17T13:31:50.000Z</time>
      </trkpt>
      <trkpt lat="46.2055" lon="-1.47154">
        <ele>3.56024</ele>
        <time>2022-05-17T13:31:51.000Z</time>
      </trkpt>
      <trkpt lat="46.20549" lon="-1.47152">
        <ele>3.57309</ele>
        <time>2022-05-17T13:31:52.000Z</time>
      </trkpt>
      <trkpt lat="46.20547" lon="-1.4715">
        <ele>3.58531</ele>
        <time>2022-05-17T13:31:53.000Z</time>
      </trkpt>
      <trkpt lat="46.20545" lon="-1.47148">
        <ele>3.61819</ele>
        <time>2022-05-17T13:31:55.000Z</time>
      </trkpt>
      <trkpt lat="46.20542" lon="-1.47146">
        <ele>3.65907</ele>
        <time>2022-05-17T13:31:57.000Z</time>
      </trkpt>
      <trkpt lat="46.2054" lon="-1.47145">
        <ele>3.68848</ele>
        <time>2022-05-17T13:31:58.000Z</time>
      </trkpt>
      <trkpt lat="46.20538" lon="-1.47142">
        <ele>3.72965</ele>
        <time>2022-05-17T13:32:00.000Z</time>
      </trkpt>
      <trkpt lat="46.20535" lon="-1.47142">
        <ele>3.77871</ele>
        <time>2022-05-17T13:32:02.000Z</time>
      </trkpt>
      <trkpt lat="46.20533" lon="-1.47143">
        <ele>3.80227</ele>
        <time>2022-05-17T13:32:03.000Z</time>
      </trkpt>
      <trkpt lat="46.20531" lon="-1.47145">
        <ele>3.82709</ele>
        <time>2022-05-17T13:32:04.000Z</time>
      </trkpt>
      <trkpt lat="46.20529" lon="-1.47146">
        <ele>3.84722</ele>
        <time>2022-05-17T13:32:05.000Z</time>
      </trkpt>
      <trkpt lat="46.20527" lon="-1.47148">
        <ele>3.85499</ele>
        <time>2022-05-17T13:32:06.000Z</time>
      </trkpt>
      <trkpt lat="46.20526" lon="-1.4715">
        <ele>3.85624</ele>
        <time>2022-05-17T13:32:07.000Z</time>
      </trkpt>
      <trkpt lat="46.20524" lon="-1.47153">
        <ele>3.84757</ele>
        <time>2022-05-17T13:32:09.000Z</time>
      </trkpt>
      <trkpt lat="46.20522" lon="-1.47154">
        <ele>3.84208</ele>
        <time>2022-05-17T13:32:10.000Z</time>
      </trkpt>
      <trkpt lat="46.2052" lon="-1.47154">
        <ele>3.82973</ele>
        <time>2022-05-17T13:32:11.000Z</time>
      </trkpt>
      <trkpt lat="46.20517" lon="-1.47155">
        <ele>3.80074</ele>
        <time>2022-05-17T13:32:12.000Z</time>
      </trkpt>
      <trkpt lat="46.20514" lon="-1.47159">
        <ele>3.72748</ele>
        <time>2022-05-17T13:32:14.000Z</time>
      </trkpt>
      <trkpt lat="46.20511" lon="-1.47163">
        <ele>3.66491</ele>
        <time>2022-05-17T13:32:15.000Z</time>
      </trkpt>
      <trkpt lat="46.20509" lon="-1.47167">
        <ele>3.64453</ele>
        <time>2022-05-17T13:32:16.000Z</time>
      </trkpt>
      <trkpt lat="46.20506" lon="-1.47171">
        <ele>3.68496</ele>
        <time>2022-05-17T13:32:17.000Z</time>
      </trkpt>
      <trkpt lat="46.20504" lon="-1.47174">
        <ele>3.75729</ele>
        <time>2022-05-17T13:32:18.000Z</time>
      </trkpt>
      <trkpt lat="46.20502" lon="-1.47176">
        <ele>3.83485</ele>
        <time>2022-05-17T13:32:19.000Z</time>
      </trkpt>
      <trkpt lat="46.205" lon="-1.47178">
        <ele>3.89718</ele>
        <time>2022-05-17T13:32:20.000Z</time>
      </trkpt>
      <trkpt lat="46.20498" lon="-1.47178">
        <ele>3.93248</ele>
        <time>2022-05-17T13:32:21.000Z</time>
      </trkpt>
      <trkpt lat="46.20496" lon="-1.47178">
        <ele>3.95847</ele>
        <time>2022-05-17T13:32:22.000Z</time>
      </trkpt>
      <trkpt lat="46.20492" lon="-1.47175">
        <ele>3.98472</ele>
        <time>2022-05-17T13:32:24.000Z</time>
      </trkpt>
      <trkpt lat="46.20487" lon="-1.47173">
        <ele>4.12032</ele>
        <time>2022-05-17T13:32:25.000Z</time>
      </trkpt>
      <trkpt lat="46.20482" lon="-1.47171">
        <ele>4.29959</ele>
        <time>2022-05-17T13:32:26.000Z</time>
      </trkpt>
      <trkpt lat="46.20477" lon="-1.47169">
        <ele>4.43446</ele>
        <time>2022-05-17T13:32:27.000Z</time>
      </trkpt>
      <trkpt lat="46.20472" lon="-1.47167">
        <ele>4.48157</ele>
        <time>2022-05-17T13:32:28.000Z</time>
      </trkpt>
      <trkpt lat="46.20467" lon="-1.47166">
        <ele>4.46113</ele>
        <time>2022-05-17T13:32:29.000Z</time>
      </trkpt>
      <trkpt lat="46.20463" lon="-1.47166">
        <ele>4.40532</ele>
        <time>2022-05-17T13:32:30.000Z</time>
      </trkpt>
      <trkpt lat="46.20429" lon="-1.47165">
        <ele>3.76201</ele>
        <time>2022-05-17T13:32:36.000Z</time>
      </trkpt>
      <trkpt lat="46.20424" lon="-1.47165">
        <ele>3.78153</ele>
        <time>2022-05-17T13:32:37.000Z</time>
      </trkpt>
      <trkpt lat="46.20419" lon="-1.47165">
        <ele>3.80543</ele>
        <time>2022-05-17T13:32:38.000Z</time>
      </trkpt>
      <trkpt lat="46.20415" lon="-1.47165">
        <ele>3.80662</ele>
        <time>2022-05-17T13:32:39.000Z</time>
      </trkpt>
      <trkpt lat="46.2041" lon="-1.47165">
        <ele>3.75249</ele>
        <time>2022-05-17T13:32:40.000Z</time>
      </trkpt>
      <trkpt lat="46.20405" lon="-1.47165">
        <ele>3.62447</ele>
        <time>2022-05-17T13:32:41.000Z</time>
      </trkpt>
      <trkpt lat="46.20398" lon="-1.47166">
        <ele>3.41824</ele>
        <time>2022-05-17T13:32:42.000Z</time>
      </trkpt>
      <trkpt lat="46.20392" lon="-1.47166">
        <ele>3.24624</ele>
        <time>2022-05-17T13:32:43.000Z</time>
      </trkpt>
      <trkpt lat="46.20387" lon="-1.47166">
        <ele>3.16706</ele>
        <time>2022-05-17T13:32:44.000Z</time>
      </trkpt>
      <trkpt lat="46.20382" lon="-1.47166">
        <ele>3.18434</ele>
        <time>2022-05-17T13:32:45.000Z</time>
      </trkpt>
      <trkpt lat="46.20378" lon="-1.47166">
        <ele>3.2476</ele>
        <time>2022-05-17T13:32:46.000Z</time>
      </trkpt>
      <trkpt lat="46.20373" lon="-1.47167">
        <ele>3.3337</ele>
        <time>2022-05-17T13:32:47.000Z</time>
      </trkpt>
      <trkpt lat="46.20369" lon="-1.47168">
        <ele>3.41091</ele>
        <time>2022-05-17T13:32:48.000Z</time>
      </trkpt>
      <trkpt lat="46.20366" lon="-1.47168">
        <ele>3.4442</ele>
        <time>2022-05-17T13:32:49.000Z</time>
      </trkpt>
      <trkpt lat="46.20364" lon="-1.47168">
        <ele>3.46336</ele>
        <time>2022-05-17T13:32:51.000Z</time>
      </trkpt>
      <trkpt lat="46.20366" lon="-1.47168">
        <ele>3.45382</ele>
        <time>2022-05-17T13:32:57.000Z</time>
      </trkpt>
      <trkpt lat="46.20363" lon="-1.4717">
        <ele>3.47517</ele>
        <time>2022-05-17T13:33:00.000Z</time>
      </trkpt>
      <trkpt lat="46.20361" lon="-1.47171">
        <ele>3.49255</ele>
        <time>2022-05-17T13:33:03.000Z</time>
      </trkpt>
      <trkpt lat="46.20363" lon="-1.47172">
        <ele>3.49519</ele>
        <time>2022-05-17T13:33:15.000Z</time>
      </trkpt>
      <trkpt lat="46.20365" lon="-1.47172">
        <ele>3.48577</ele>
        <time>2022-05-17T13:34:17.000Z</time>
      </trkpt>
      <trkpt lat="46.20368" lon="-1.47172">
        <ele>3.45303</ele>
        <time>2022-05-17T13:34:30.000Z</time>
      </trkpt>
      <trkpt lat="46.20371" lon="-1.47171">
        <ele>3.38044</ele>
        <time>2022-05-17T13:34:31.000Z</time>
      </trkpt>
      <trkpt lat="46.20374" lon="-1.4717">
        <ele>3.31154</ele>
        <time>2022-05-17T13:34:32.000Z</time>
      </trkpt>
      <trkpt lat="46.20376" lon="-1.47169">
        <ele>3.25332</ele>
        <time>2022-05-17T13:34:33.000Z</time>
      </trkpt>
      <trkpt lat="46.20379" lon="-1.47169">
        <ele>3.19646</ele>
        <time>2022-05-17T13:34:34.000Z</time>
      </trkpt>
      <trkpt lat="46.20381" lon="-1.47169">
        <ele>3.16671</ele>
        <time>2022-05-17T13:34:35.000Z</time>
      </trkpt>
      <trkpt lat="46.20384" lon="-1.47169">
        <ele>3.1306</ele>
        <time>2022-05-17T13:34:36.000Z</time>
      </trkpt>
      <trkpt lat="46.20387" lon="-1.47168">
        <ele>3.13201</ele>
        <time>2022-05-17T13:34:37.000Z</time>
      </trkpt>
      <trkpt lat="46.2039" lon="-1.47167">
        <ele>3.1777</ele>
        <time>2022-05-17T13:34:38.000Z</time>
      </trkpt>
      <trkpt lat="46.20392" lon="-1.47166">
        <ele>3.22675</ele>
        <time>2022-05-17T13:34:39.000Z</time>
      </trkpt>
      <trkpt lat="46.20395" lon="-1.47166">
        <ele>3.29696</ele>
        <time>2022-05-17T13:34:40.000Z</time>
      </trkpt>
      <trkpt lat="46.20398" lon="-1.47166">
        <ele>3.39111</ele>
        <time>2022-05-17T13:34:41.000Z</time>
      </trkpt>
      <trkpt lat="46.204" lon="-1.47166">
        <ele>3.47622</ele>
        <time>2022-05-17T13:34:42.000Z</time>
      </trkpt>
      <trkpt lat="46.20403" lon="-1.47166">
        <ele>3.54919</ele>
        <time>2022-05-17T13:34:43.000Z</time>
      </trkpt>
      <trkpt lat="46.20405" lon="-1.47166">
        <ele>3.62427</ele>
        <time>2022-05-17T13:34:44.000Z</time>
      </trkpt>
      <trkpt lat="46.20407" lon="-1.47165">
        <ele>3.68676</ele>
        <time>2022-05-17T13:34:45.000Z</time>
      </trkpt>
      <trkpt lat="46.20409" lon="-1.47166">
        <ele>3.72771</ele>
        <time>2022-05-17T13:34:46.000Z</time>
      </trkpt>
      <trkpt lat="46.20411" lon="-1.47165">
        <ele>3.77257</ele>
        <time>2022-05-17T13:34:47.000Z</time>
      </trkpt>
      <trkpt lat="46.20415" lon="-1.47164">
        <ele>3.83606</ele>
        <time>2022-05-17T13:34:48.000Z</time>
      </trkpt>
      <trkpt lat="46.20419" lon="-1.47162">
        <ele>3.84876</ele>
        <time>2022-05-17T13:34:49.000Z</time>
      </trkpt>
      <trkpt lat="46.20422" lon="-1.4716">
        <ele>3.82014</ele>
        <time>2022-05-17T13:34:50.000Z</time>
      </trkpt>
      <trkpt lat="46.20424" lon="-1.47159">
        <ele>3.78189</ele>
        <time>2022-05-17T13:34:51.000Z</time>
      </trkpt>
      <trkpt lat="46.20426" lon="-1.47158">
        <ele>3.74327</ele>
        <time>2022-05-17T13:34:52.000Z</time>
      </trkpt>
      <trkpt lat="46.20429" lon="-1.47157">
        <ele>3.70408</ele>
        <time>2022-05-17T13:34:53.000Z</time>
      </trkpt>
      <trkpt lat="46.20431" lon="-1.47156">
        <ele>3.67247</ele>
        <time>2022-05-17T13:34:54.000Z</time>
      </trkpt>
      <trkpt lat="46.20433" lon="-1.47156">
        <ele>3.66362</ele>
        <time>2022-05-17T13:34:55.000Z</time>
      </trkpt>
      <trkpt lat="46.20436" lon="-1.47156">
        <ele>3.6868</ele>
        <time>2022-05-17T13:34:56.000Z</time>
      </trkpt>
      <trkpt lat="46.20439" lon="-1.47156">
        <ele>3.73224</ele>
        <time>2022-05-17T13:34:57.000Z</time>
      </trkpt>
      <trkpt lat="46.20441" lon="-1.47156">
        <ele>3.77951</ele>
        <time>2022-05-17T13:34:58.000Z</time>
      </trkpt>
      <trkpt lat="46.20445" lon="-1.47155">
        <ele>3.85887</ele>
        <time>2022-05-17T13:35:00.000Z</time>
      </trkpt>
      <trkpt lat="46.20447" lon="-1.47156">
        <ele>3.91838</ele>
        <time>2022-05-17T13:35:01.000Z</time>
      </trkpt>
      <trkpt lat="46.2045" lon="-1.47155">
        <ele>3.98383</ele>
        <time>2022-05-17T13:35:02.000Z</time>
      </trkpt>
      <trkpt lat="46.20452" lon="-1.47155">
        <ele>4.04405</ele>
        <time>2022-05-17T13:35:03.000Z</time>
      </trkpt>
      <trkpt lat="46.20455" lon="-1.47155">
        <ele>4.08864</ele>
        <time>2022-05-17T13:35:04.000Z</time>
      </trkpt>
      <trkpt lat="46.20457" lon="-1.47154">
        <ele>4.12893</ele>
        <time>2022-05-17T13:35:05.000Z</time>
      </trkpt>
      <trkpt lat="46.2046" lon="-1.47154">
        <ele>4.1889</ele>
        <time>2022-05-17T13:35:06.000Z</time>
      </trkpt>
      <trkpt lat="46.20463" lon="-1.47154">
        <ele>4.27786</ele>
        <time>2022-05-17T13:35:07.000Z</time>
      </trkpt>
      <trkpt lat="46.20465" lon="-1.47154">
        <ele>4.36041</ele>
        <time>2022-05-17T13:35:08.000Z</time>
      </trkpt>
      <trkpt lat="46.20468" lon="-1.47154">
        <ele>4.44144</ele>
        <time>2022-05-17T13:35:09.000Z</time>
      </trkpt>
      <trkpt lat="46.2047" lon="-1.47153">
        <ele>4.48952</ele>
        <time>2022-05-17T13:35:10.000Z</time>
      </trkpt>
      <trkpt lat="46.20472" lon="-1.47152">
        <ele>4.52579</ele>
        <time>2022-05-17T13:35:11.000Z</time>
      </trkpt>
      <trkpt lat="46.20473" lon="-1.47149">
        <ele>4.50247</ele>
        <time>2022-05-17T13:35:14.000Z</time>
      </trkpt>
      <trkpt lat="46.20473" lon="-1.47147">
        <ele>4.46733</ele>
        <time>2022-05-17T13:35:15.000Z</time>
      </trkpt>
      <trkpt lat="46.20474" lon="-1.47143">
        <ele>4.44558</ele>
        <time>2022-05-17T13:35:16.000Z</time>
      </trkpt>
      <trkpt lat="46.20474" lon="-1.47139">
        <ele>4.3905</ele>
        <time>2022-05-17T13:35:17.000Z</time>
      </trkpt>
      <trkpt lat="46.20474" lon="-1.47135">
        <ele>4.33606</ele>
        <time>2022-05-17T13:35:18.000Z</time>
      </trkpt>
      <trkpt lat="46.20476" lon="-1.47131">
        <ele>4.37521</ele>
        <time>2022-05-17T13:35:20.000Z</time>
      </trkpt>
      <trkpt lat="46.20479" lon="-1.47129">
        <ele>4.44546</ele>
        <time>2022-05-17T13:35:21.000Z</time>
      </trkpt>
      <trkpt lat="46.20481" lon="-1.47128">
        <ele>4.47261</ele>
        <time>2022-05-17T13:35:22.000Z</time>
      </trkpt>
      <trkpt lat="46.20483" lon="-1.47127">
        <ele>4.48032</ele>
        <time>2022-05-17T13:35:23.000Z</time>
      </trkpt>
      <trkpt lat="46.20486" lon="-1.47128">
        <ele>4.46412</ele>
        <time>2022-05-17T13:35:24.000Z</time>
      </trkpt>
      <trkpt lat="46.20489" lon="-1.47128">
        <ele>4.41662</ele>
        <time>2022-05-17T13:35:25.000Z</time>
      </trkpt>
      <trkpt lat="46.20492" lon="-1.47129">
        <ele>4.34636</ele>
        <time>2022-05-17T13:35:26.000Z</time>
      </trkpt>
      <trkpt lat="46.20496" lon="-1.4713">
        <ele>4.25304</ele>
        <time>2022-05-17T13:35:27.000Z</time>
      </trkpt>
      <trkpt lat="46.20501" lon="-1.4713">
        <ele>4.13785</ele>
        <time>2022-05-17T13:35:28.000Z</time>
      </trkpt>
      <trkpt lat="46.20508" lon="-1.47129">
        <ele>4.06712</ele>
        <time>2022-05-17T13:35:29.000Z</time>
      </trkpt>
      <trkpt lat="46.20513" lon="-1.47128">
        <ele>4.00232</ele>
        <time>2022-05-17T13:35:30.000Z</time>
      </trkpt>
      <trkpt lat="46.20518" lon="-1.47127">
        <ele>3.92928</ele>
        <time>2022-05-17T13:35:31.000Z</time>
      </trkpt>
      <trkpt lat="46.20522" lon="-1.47125">
        <ele>3.84251</ele>
        <time>2022-05-17T13:35:32.000Z</time>
      </trkpt>
      <trkpt lat="46.20525" lon="-1.47122">
        <ele>3.74164</ele>
        <time>2022-05-17T13:35:33.000Z</time>
      </trkpt>
      <trkpt lat="46.20529" lon="-1.47119">
        <ele>3.64936</ele>
        <time>2022-05-17T13:35:34.000Z</time>
      </trkpt>
      <trkpt lat="46.20534" lon="-1.47117">
        <ele>3.60373</ele>
        <time>2022-05-17T13:35:35.000Z</time>
      </trkpt>
      <trkpt lat="46.20539" lon="-1.47118">
        <ele>3.62917</ele>
        <time>2022-05-17T13:35:36.000Z</time>
      </trkpt>
      <trkpt lat="46.20544" lon="-1.4712">
        <ele>3.63788</ele>
        <time>2022-05-17T13:35:37.000Z</time>
      </trkpt>
      <trkpt lat="46.20548" lon="-1.47122">
        <ele>3.61437</ele>
        <time>2022-05-17T13:35:38.000Z</time>
      </trkpt>
      <trkpt lat="46.20551" lon="-1.47123">
        <ele>3.57201</ele>
        <time>2022-05-17T13:35:39.000Z</time>
      </trkpt>
      <trkpt lat="46.20554" lon="-1.47123">
        <ele>3.5285</ele>
        <time>2022-05-17T13:35:40.000Z</time>
      </trkpt>
      <trkpt lat="46.20557" lon="-1.47123">
        <ele>3.48507</ele>
        <time>2022-05-17T13:35:41.000Z</time>
      </trkpt>
      <trkpt lat="46.2056" lon="-1.47122">
        <ele>3.44235</ele>
        <time>2022-05-17T13:35:42.000Z</time>
      </trkpt>
      <trkpt lat="46.20562" lon="-1.47122">
        <ele>3.40076</ele>
        <time>2022-05-17T13:35:43.000Z</time>
      </trkpt>
      <trkpt lat="46.20565" lon="-1.47122">
        <ele>3.35789</ele>
        <time>2022-05-17T13:35:44.000Z</time>
      </trkpt>
      <trkpt lat="46.20568" lon="-1.47123">
        <ele>3.31919</ele>
        <time>2022-05-17T13:35:45.000Z</time>
      </trkpt>
      <trkpt lat="46.2057" lon="-1.47124">
        <ele>3.2896</ele>
        <time>2022-05-17T13:35:46.000Z</time>
      </trkpt>
      <trkpt lat="46.20573" lon="-1.47125">
        <ele>3.25806</ele>
        <time>2022-05-17T13:35:47.000Z</time>
      </trkpt>
      <trkpt lat="46.20575" lon="-1.47123">
        <ele>3.25117</ele>
        <time>2022-05-17T13:35:48.000Z</time>
      </trkpt>
      <trkpt lat="46.20579" lon="-1.47125">
        <ele>3.21633</ele>
        <time>2022-05-17T13:35:49.000Z</time>
      </trkpt>
      <trkpt lat="46.20583" lon="-1.47126">
        <ele>3.18443</ele>
        <time>2022-05-17T13:35:50.000Z</time>
      </trkpt>
      <trkpt lat="46.20586" lon="-1.47127">
        <ele>3.1588</ele>
        <time>2022-05-17T13:35:51.000Z</time>
      </trkpt>
      <trkpt lat="46.20589" lon="-1.47127">
        <ele>3.13679</ele>
        <time>2022-05-17T13:35:52.000Z</time>
      </trkpt>
      <trkpt lat="46.20592" lon="-1.47127">
        <ele>3.13642</ele>
        <time>2022-05-17T13:35:53.000Z</time>
      </trkpt>
      <trkpt lat="46.20595" lon="-1.47126">
        <ele>3.1405</ele>
        <time>2022-05-17T13:35:54.000Z</time>
      </trkpt>
      <trkpt lat="46.20598" lon="-1.47125">
        <ele>3.15501</ele>
        <time>2022-05-17T13:35:55.000Z</time>
      </trkpt>
      <trkpt lat="46.20601" lon="-1.47123">
        <ele>3.1687</ele>
        <time>2022-05-17T13:35:56.000Z</time>
      </trkpt>
      <trkpt lat="46.20604" lon="-1.47121">
        <ele>3.17499</ele>
        <time>2022-05-17T13:35:57.000Z</time>
      </trkpt>
      <trkpt lat="46.20606" lon="-1.4712">
        <ele>3.16988</ele>
        <time>2022-05-17T13:35:58.000Z</time>
      </trkpt>
      <trkpt lat="46.20607" lon="-1.47118">
        <ele>3.15906</ele>
        <time>2022-05-17T13:35:59.000Z</time>
      </trkpt>
      <trkpt lat="46.20609" lon="-1.47117">
        <ele>3.14529</ele>
        <time>2022-05-17T13:36:00.000Z</time>
      </trkpt>
      <trkpt lat="46.20611" lon="-1.47114">
        <ele>3.11157</ele>
        <time>2022-05-17T13:36:02.000Z</time>
      </trkpt>
      <trkpt lat="46.20613" lon="-1.4711">
        <ele>3.07472</ele>
        <time>2022-05-17T13:36:04.000Z</time>
      </trkpt>
      <trkpt lat="46.20611" lon="-1.47105">
        <ele>3.04916</ele>
        <time>2022-05-17T13:36:06.000Z</time>
      </trkpt>
      <trkpt lat="46.20612" lon="-1.47102">
        <ele>2.99834</ele>
        <time>2022-05-17T13:36:07.000Z</time>
      </trkpt>
      <trkpt lat="46.20612" lon="-1.47097">
        <ele>2.9265</ele>
        <time>2022-05-17T13:36:08.000Z</time>
      </trkpt>
      <trkpt lat="46.20613" lon="-1.4709">
        <ele>2.79615</ele>
        <time>2022-05-17T13:36:09.000Z</time>
      </trkpt>
      <trkpt lat="46.20614" lon="-1.47082">
        <ele>2.66875</ele>
        <time>2022-05-17T13:36:10.000Z</time>
      </trkpt>
      <trkpt lat="46.20616" lon="-1.47075">
        <ele>2.59146</ele>
        <time>2022-05-17T13:36:11.000Z</time>
      </trkpt>
      <trkpt lat="46.20619" lon="-1.4707">
        <ele>2.54365</ele>
        <time>2022-05-17T13:36:12.000Z</time>
      </trkpt>
      <trkpt lat="46.20623" lon="-1.47066">
        <ele>2.51767</ele>
        <time>2022-05-17T13:36:13.000Z</time>
      </trkpt>
      <trkpt lat="46.20628" lon="-1.47062">
        <ele>2.48624</ele>
        <time>2022-05-17T13:36:14.000Z</time>
      </trkpt>
      <trkpt lat="46.20648" lon="-1.47054">
        <ele>2.32981</ele>
        <time>2022-05-17T13:36:15.000Z</time>
      </trkpt>
      <trkpt lat="46.20654" lon="-1.47058">
        <ele>2.41888</ele>
        <time>2022-05-17T13:36:16.000Z</time>
      </trkpt>
      <trkpt lat="46.2066" lon="-1.47057">
        <ele>2.40614</ele>
        <time>2022-05-17T13:36:17.000Z</time>
      </trkpt>
      <trkpt lat="46.20664" lon="-1.47059">
        <ele>2.43044</ele>
        <time>2022-05-17T13:36:18.000Z</time>
      </trkpt>
      <trkpt lat="46.2067" lon="-1.47062">
        <ele>2.40931</ele>
        <time>2022-05-17T13:36:19.000Z</time>
      </trkpt>
      <trkpt lat="46.20674" lon="-1.47061">
        <ele>2.35427</ele>
        <time>2022-05-17T13:36:20.000Z</time>
      </trkpt>
      <trkpt lat="46.20677" lon="-1.4706">
        <ele>2.33865</ele>
        <time>2022-05-17T13:36:21.000Z</time>
      </trkpt>
      <trkpt lat="46.20682" lon="-1.47061">
        <ele>2.30389</ele>
        <time>2022-05-17T13:36:22.000Z</time>
      </trkpt>
      <trkpt lat="46.20685" lon="-1.47062">
        <ele>2.31249</ele>
        <time>2022-05-17T13:36:23.000Z</time>
      </trkpt>
      <trkpt lat="46.20687" lon="-1.4706">
        <ele>2.38759</ele>
        <time>2022-05-17T13:36:24.000Z</time>
      </trkpt>
      <trkpt lat="46.20692" lon="-1.47059">
        <ele>2.52707</ele>
        <time>2022-05-17T13:36:25.000Z</time>
      </trkpt>
      <trkpt lat="46.20695" lon="-1.47061">
        <ele>2.57029</ele>
        <time>2022-05-17T13:36:26.000Z</time>
      </trkpt>
      <trkpt lat="46.20699" lon="-1.4706">
        <ele>2.73275</ele>
        <time>2022-05-17T13:36:27.000Z</time>
      </trkpt>
      <trkpt lat="46.20703" lon="-1.4706">
        <ele>2.83903</ele>
        <time>2022-05-17T13:36:28.000Z</time>
      </trkpt>
      <trkpt lat="46.20707" lon="-1.4706">
        <ele>2.9437</ele>
        <time>2022-05-17T13:36:29.000Z</time>
      </trkpt>
      <trkpt lat="46.20712" lon="-1.47059">
        <ele>3.08033</ele>
        <time>2022-05-17T13:36:30.000Z</time>
      </trkpt>
      <trkpt lat="46.20719" lon="-1.47057">
        <ele>3.33977</ele>
        <time>2022-05-17T13:36:31.000Z</time>
      </trkpt>
      <trkpt lat="46.20726" lon="-1.47055">
        <ele>3.45918</ele>
        <time>2022-05-17T13:36:32.000Z</time>
      </trkpt>
      <trkpt lat="46.20731" lon="-1.47053">
        <ele>3.37045</ele>
        <time>2022-05-17T13:36:33.000Z</time>
      </trkpt>
      <trkpt lat="46.20737" lon="-1.47049">
        <ele>3.06196</ele>
        <time>2022-05-17T13:36:34.000Z</time>
      </trkpt>
      <trkpt lat="46.20741" lon="-1.47047">
        <ele>2.70986</ele>
        <time>2022-05-17T13:36:35.000Z</time>
      </trkpt>
      <trkpt lat="46.20747" lon="-1.47045">
        <ele>2.37757</ele>
        <time>2022-05-17T13:36:36.000Z</time>
      </trkpt>
      <trkpt lat="46.2075" lon="-1.47042">
        <ele>2.33495</ele>
        <time>2022-05-17T13:36:37.000Z</time>
      </trkpt>
      <trkpt lat="46.20755" lon="-1.47038">
        <ele>2.4092</ele>
        <time>2022-05-17T13:36:38.000Z</time>
      </trkpt>
      <trkpt lat="46.20759" lon="-1.47035">
        <ele>2.51669</ele>
        <time>2022-05-17T13:36:39.000Z</time>
      </trkpt>
      <trkpt lat="46.20761" lon="-1.47032">
        <ele>2.57885</ele>
        <time>2022-05-17T13:36:40.000Z</time>
      </trkpt>
      <trkpt lat="46.20766" lon="-1.47026">
        <ele>2.58289</ele>
        <time>2022-05-17T13:36:41.000Z</time>
      </trkpt>
      <trkpt lat="46.2077" lon="-1.47023">
        <ele>2.42677</ele>
        <time>2022-05-17T13:36:42.000Z</time>
      </trkpt>
      <trkpt lat="46.20773" lon="-1.4702">
        <ele>2.32992</ele>
        <time>2022-05-17T13:36:43.000Z</time>
      </trkpt>
      <trkpt lat="46.20777" lon="-1.47017">
        <ele>2.20557</ele>
        <time>2022-05-17T13:36:44.000Z</time>
      </trkpt>
      <trkpt lat="46.20781" lon="-1.47012">
        <ele>2.2012</ele>
        <time>2022-05-17T13:36:45.000Z</time>
      </trkpt>
      <trkpt lat="46.20783" lon="-1.47009">
        <ele>2.25969</ele>
        <time>2022-05-17T13:36:46.000Z</time>
      </trkpt>
      <trkpt lat="46.20788" lon="-1.47006">
        <ele>2.44297</ele>
        <time>2022-05-17T13:36:47.000Z</time>
      </trkpt>
      <trkpt lat="46.20791" lon="-1.47003">
        <ele>2.61103</ele>
        <time>2022-05-17T13:36:48.000Z</time>
      </trkpt>
      <trkpt lat="46.20796" lon="-1.47001">
        <ele>2.82934</ele>
        <time>2022-05-17T13:36:49.000Z</time>
      </trkpt>
      <trkpt lat="46.20801" lon="-1.46999">
        <ele>2.88666</ele>
        <time>2022-05-17T13:36:50.000Z</time>
      </trkpt>
      <trkpt lat="46.20806" lon="-1.46995">
        <ele>2.78483</ele>
        <time>2022-05-17T13:36:51.000Z</time>
      </trkpt>
      <trkpt lat="46.20812" lon="-1.46991">
        <ele>2.43568</ele>
        <time>2022-05-17T13:36:52.000Z</time>
      </trkpt>
      <trkpt lat="46.20817" lon="-1.46988">
        <ele>2.15935</ele>
        <time>2022-05-17T13:36:53.000Z</time>
      </trkpt>
      <trkpt lat="46.20825" lon="-1.46985">
        <ele>1.88915</ele>
        <time>2022-05-17T13:36:54.000Z</time>
      </trkpt>
      <trkpt lat="46.2083" lon="-1.46981">
        <ele>2.02036</ele>
        <time>2022-05-17T13:36:55.000Z</time>
      </trkpt>
      <trkpt lat="46.20834" lon="-1.46976">
        <ele>2.28923</ele>
        <time>2022-05-17T13:36:56.000Z</time>
      </trkpt>
      <trkpt lat="46.20838" lon="-1.46974">
        <ele>2.49355</ele>
        <time>2022-05-17T13:36:57.000Z</time>
      </trkpt>
      <trkpt lat="46.20842" lon="-1.4697">
        <ele>2.77261</ele>
        <time>2022-05-17T13:36:58.000Z</time>
      </trkpt>
      <trkpt lat="46.20846" lon="-1.46966">
        <ele>2.87089</ele>
        <time>2022-05-17T13:36:59.000Z</time>
      </trkpt>
      <trkpt lat="46.20851" lon="-1.46963">
        <ele>2.76555</ele>
        <time>2022-05-17T13:37:00.000Z</time>
      </trkpt>
      <trkpt lat="46.20856" lon="-1.46959">
        <ele>2.56895</ele>
        <time>2022-05-17T13:37:01.000Z</time>
      </trkpt>
      <trkpt lat="46.20858" lon="-1.46955">
        <ele>2.50514</ele>
        <time>2022-05-17T13:37:02.000Z</time>
      </trkpt>
      <trkpt lat="46.20864" lon="-1.46951">
        <ele>2.37222</ele>
        <time>2022-05-17T13:37:03.000Z</time>
      </trkpt>
      <trkpt lat="46.20868" lon="-1.46947">
        <ele>2.38833</ele>
        <time>2022-05-17T13:37:04.000Z</time>
      </trkpt>
      <trkpt lat="46.20873" lon="-1.46943">
        <ele>2.41375</ele>
        <time>2022-05-17T13:37:05.000Z</time>
      </trkpt>
      <trkpt lat="46.20877" lon="-1.46939">
        <ele>2.38827</ele>
        <time>2022-05-17T13:37:06.000Z</time>
      </trkpt>
      <trkpt lat="46.20884" lon="-1.46934">
        <ele>2.15517</ele>
        <time>2022-05-17T13:37:07.000Z</time>
      </trkpt>
      <trkpt lat="46.20889" lon="-1.46931">
        <ele>2.00848</ele>
        <time>2022-05-17T13:37:08.000Z</time>
      </trkpt>
      <trkpt lat="46.20893" lon="-1.46927">
        <ele>2.00464</ele>
        <time>2022-05-17T13:37:09.000Z</time>
      </trkpt>
      <trkpt lat="46.20897" lon="-1.46925">
        <ele>2.06929</ele>
        <time>2022-05-17T13:37:10.000Z</time>
      </trkpt>
      <trkpt lat="46.20903" lon="-1.46921">
        <ele>2.26431</ele>
        <time>2022-05-17T13:37:11.000Z</time>
      </trkpt>
      <trkpt lat="46.20907" lon="-1.46918">
        <ele>2.48905</ele>
        <time>2022-05-17T13:37:12.000Z</time>
      </trkpt>
      <trkpt lat="46.20909" lon="-1.46917">
        <ele>2.57765</ele>
        <time>2022-05-17T13:37:13.000Z</time>
      </trkpt>
      <trkpt lat="46.20914" lon="-1.46915">
        <ele>2.72082</ele>
        <time>2022-05-17T13:37:14.000Z</time>
      </trkpt>
      <trkpt lat="46.20918" lon="-1.46913">
        <ele>2.73708</ele>
        <time>2022-05-17T13:37:15.000Z</time>
      </trkpt>
      <trkpt lat="46.20923" lon="-1.46908">
        <ele>2.68338</ele>
        <time>2022-05-17T13:37:16.000Z</time>
      </trkpt>
      <trkpt lat="46.20925" lon="-1.46906">
        <ele>2.57295</ele>
        <time>2022-05-17T13:37:17.000Z</time>
      </trkpt>
      <trkpt lat="46.20931" lon="-1.46904">
        <ele>2.25594</ele>
        <time>2022-05-17T13:37:18.000Z</time>
      </trkpt>
      <trkpt lat="46.20936" lon="-1.469">
        <ele>2.09339</ele>
        <time>2022-05-17T13:37:19.000Z</time>
      </trkpt>
      <trkpt lat="46.2094" lon="-1.46896">
        <ele>2.0991</ele>
        <time>2022-05-17T13:37:20.000Z</time>
      </trkpt>
      <trkpt lat="46.20944" lon="-1.46892">
        <ele>2.25543</ele>
        <time>2022-05-17T13:37:21.000Z</time>
      </trkpt>
      <trkpt lat="46.20948" lon="-1.4689">
        <ele>2.37654</ele>
        <time>2022-05-17T13:37:22.000Z</time>
      </trkpt>
      <trkpt lat="46.20952" lon="-1.46887">
        <ele>2.51562</ele>
        <time>2022-05-17T13:37:23.000Z</time>
      </trkpt>
      <trkpt lat="46.20956" lon="-1.46883">
        <ele>2.73828</ele>
        <time>2022-05-17T13:37:24.000Z</time>
      </trkpt>
      <trkpt lat="46.20959" lon="-1.4688">
        <ele>2.86608</ele>
        <time>2022-05-17T13:37:25.000Z</time>
      </trkpt>
      <trkpt lat="46.20964" lon="-1.46872">
        <ele>2.91376</ele>
        <time>2022-05-17T13:37:26.000Z</time>
      </trkpt>
      <trkpt lat="46.20968" lon="-1.46869">
        <ele>2.77622</ele>
        <time>2022-05-17T13:37:27.000Z</time>
      </trkpt>
      <trkpt lat="46.20973" lon="-1.46865">
        <ele>2.57243</ele>
        <time>2022-05-17T13:37:28.000Z</time>
      </trkpt>
      <trkpt lat="46.20977" lon="-1.46863">
        <ele>2.40229</ele>
        <time>2022-05-17T13:37:29.000Z</time>
      </trkpt>
      <trkpt lat="46.2098" lon="-1.46857">
        <ele>2.38837</ele>
        <time>2022-05-17T13:37:30.000Z</time>
      </trkpt>
      <trkpt lat="46.20985" lon="-1.46853">
        <ele>2.38866</ele>
        <time>2022-05-17T13:37:31.000Z</time>
      </trkpt>
      <trkpt lat="46.20989" lon="-1.46848">
        <ele>2.43675</ele>
        <time>2022-05-17T13:37:32.000Z</time>
      </trkpt>
      <trkpt lat="46.20994" lon="-1.46841">
        <ele>2.35836</ele>
        <time>2022-05-17T13:37:33.000Z</time>
      </trkpt>
      <trkpt lat="46.20997" lon="-1.46832">
        <ele>2.07988</ele>
        <time>2022-05-17T13:37:34.000Z</time>
      </trkpt>
      <trkpt lat="46.20999" lon="-1.46825">
        <ele>1.8301</ele>
        <time>2022-05-17T13:37:35.000Z</time>
      </trkpt>
      <trkpt lat="46.21001" lon="-1.4682">
        <ele>1.79325</ele>
        <time>2022-05-17T13:37:36.000Z</time>
      </trkpt>
      <trkpt lat="46.21003" lon="-1.46814">
        <ele>1.81751</ele>
        <time>2022-05-17T13:37:37.000Z</time>
      </trkpt>
      <trkpt lat="46.21005" lon="-1.46805">
        <ele>2.05994</ele>
        <time>2022-05-17T13:37:38.000Z</time>
      </trkpt>
      <trkpt lat="46.21009" lon="-1.46797">
        <ele>2.35153</ele>
        <time>2022-05-17T13:37:39.000Z</time>
      </trkpt>
      <trkpt lat="46.21012" lon="-1.46791">
        <ele>2.48344</ele>
        <time>2022-05-17T13:37:40.000Z</time>
      </trkpt>
      <trkpt lat="46.21015" lon="-1.46785">
        <ele>2.61636</ele>
        <time>2022-05-17T13:37:41.000Z</time>
      </trkpt>
      <trkpt lat="46.21018" lon="-1.4678">
        <ele>2.72995</ele>
        <time>2022-05-17T13:37:42.000Z</time>
      </trkpt>
      <trkpt lat="46.21023" lon="-1.46769">
        <ele>2.90829</ele>
        <time>2022-05-17T13:37:44.000Z</time>
      </trkpt>
      <trkpt lat="46.21025" lon="-1.46764">
        <ele>2.92527</ele>
        <time>2022-05-17T13:37:45.000Z</time>
      </trkpt>
      <trkpt lat="46.21028" lon="-1.46758">
        <ele>2.85567</ele>
        <time>2022-05-17T13:37:46.000Z</time>
      </trkpt>
      <trkpt lat="46.21031" lon="-1.46752">
        <ele>2.73014</ele>
        <time>2022-05-17T13:37:47.000Z</time>
      </trkpt>
      <trkpt lat="46.21034" lon="-1.46747">
        <ele>2.62768</ele>
        <time>2022-05-17T13:37:48.000Z</time>
      </trkpt>
      <trkpt lat="46.21038" lon="-1.46739">
        <ele>2.53931</ele>
        <time>2022-05-17T13:37:49.000Z</time>
      </trkpt>
      <trkpt lat="46.2104" lon="-1.46731">
        <ele>2.53363</ele>
        <time>2022-05-17T13:37:50.000Z</time>
      </trkpt>
      <trkpt lat="46.21041" lon="-1.46726">
        <ele>2.53148</ele>
        <time>2022-05-17T13:37:51.000Z</time>
      </trkpt>
      <trkpt lat="46.21042" lon="-1.46722">
        <ele>2.50885</ele>
        <time>2022-05-17T13:37:52.000Z</time>
      </trkpt>
      <trkpt lat="46.21042" lon="-1.46716">
        <ele>2.45632</ele>
        <time>2022-05-17T13:37:53.000Z</time>
      </trkpt>
      <trkpt lat="46.21043" lon="-1.46712">
        <ele>2.41763</ele>
        <time>2022-05-17T13:37:54.000Z</time>
      </trkpt>
      <trkpt lat="46.21044" lon="-1.46706">
        <ele>2.37418</ele>
        <time>2022-05-17T13:37:55.000Z</time>
      </trkpt>
      <trkpt lat="46.21046" lon="-1.46699">
        <ele>2.37676</ele>
        <time>2022-05-17T13:37:56.000Z</time>
      </trkpt>
      <trkpt lat="46.21048" lon="-1.46695">
        <ele>2.4483</ele>
        <time>2022-05-17T13:37:57.000Z</time>
      </trkpt>
      <trkpt lat="46.2105" lon="-1.46688">
        <ele>2.49547</ele>
        <time>2022-05-17T13:37:58.000Z</time>
      </trkpt>
      <trkpt lat="46.21051" lon="-1.46682">
        <ele>2.52597</ele>
        <time>2022-05-17T13:37:59.000Z</time>
      </trkpt>
      <trkpt lat="46.21051" lon="-1.46678">
        <ele>2.4847</ele>
        <time>2022-05-17T13:38:00.000Z</time>
      </trkpt>
      <trkpt lat="46.21053" lon="-1.46673">
        <ele>2.59739</ele>
        <time>2022-05-17T13:38:01.000Z</time>
      </trkpt>
      <trkpt lat="46.21053" lon="-1.46667">
        <ele>2.60709</ele>
        <time>2022-05-17T13:38:02.000Z</time>
      </trkpt>
      <trkpt lat="46.21052" lon="-1.46662">
        <ele>2.51734</ele>
        <time>2022-05-17T13:38:03.000Z</time>
      </trkpt>
      <trkpt lat="46.21053" lon="-1.46654">
        <ele>2.61871</ele>
        <time>2022-05-17T13:38:04.000Z</time>
      </trkpt>
      <trkpt lat="46.21054" lon="-1.46647">
        <ele>2.64892</ele>
        <time>2022-05-17T13:38:05.000Z</time>
      </trkpt>
      <trkpt lat="46.21053" lon="-1.46638">
        <ele>2.64165</ele>
        <time>2022-05-17T13:38:06.000Z</time>
      </trkpt>
      <trkpt lat="46.21054" lon="-1.46633">
        <ele>2.74097</ele>
        <time>2022-05-17T13:38:07.000Z</time>
      </trkpt>
      <trkpt lat="46.21056" lon="-1.46626">
        <ele>2.87371</ele>
        <time>2022-05-17T13:38:08.000Z</time>
      </trkpt>
      <trkpt lat="46.21056" lon="-1.4662">
        <ele>2.93279</ele>
        <time>2022-05-17T13:38:09.000Z</time>
      </trkpt>
      <trkpt lat="46.21057" lon="-1.46615">
        <ele>2.98479</ele>
        <time>2022-05-17T13:38:10.000Z</time>
      </trkpt>
      <trkpt lat="46.21057" lon="-1.46611">
        <ele>3.0064</ele>
        <time>2022-05-17T13:38:11.000Z</time>
      </trkpt>
      <trkpt lat="46.21058" lon="-1.46606">
        <ele>3.0479</ele>
        <time>2022-05-17T13:38:12.000Z</time>
      </trkpt>
      <trkpt lat="46.21059" lon="-1.46601">
        <ele>3.09293</ele>
        <time>2022-05-17T13:38:13.000Z</time>
      </trkpt>
      <trkpt lat="46.21059" lon="-1.46595">
        <ele>3.0783</ele>
        <time>2022-05-17T13:38:14.000Z</time>
      </trkpt>
      <trkpt lat="46.2106" lon="-1.46592">
        <ele>3.08032</ele>
        <time>2022-05-17T13:38:15.000Z</time>
      </trkpt>
      <trkpt lat="46.2106" lon="-1.46587">
        <ele>3.06896</ele>
        <time>2022-05-17T13:38:16.000Z</time>
      </trkpt>
      <trkpt lat="46.21061" lon="-1.46581">
        <ele>3.06365</ele>
        <time>2022-05-17T13:38:17.000Z</time>
      </trkpt>
      <trkpt lat="46.21061" lon="-1.46577">
        <ele>3.05255</ele>
        <time>2022-05-17T13:38:18.000Z</time>
      </trkpt>
      <trkpt lat="46.21061" lon="-1.46574">
        <ele>3.04397</ele>
        <time>2022-05-17T13:38:19.000Z</time>
      </trkpt>
      <trkpt lat="46.21062" lon="-1.46569">
        <ele>3.02633</ele>
        <time>2022-05-17T13:38:20.000Z</time>
      </trkpt>
      <trkpt lat="46.21062" lon="-1.46565">
        <ele>3.00549</ele>
        <time>2022-05-17T13:38:21.000Z</time>
      </trkpt>
      <trkpt lat="46.21062" lon="-1.4656">
        <ele>2.98662</ele>
        <time>2022-05-17T13:38:22.000Z</time>
      </trkpt>
      <trkpt lat="46.21063" lon="-1.46556">
        <ele>2.96937</ele>
        <time>2022-05-17T13:38:23.000Z</time>
      </trkpt>
      <trkpt lat="46.21063" lon="-1.46552">
        <ele>2.94352</ele>
        <time>2022-05-17T13:38:24.000Z</time>
      </trkpt>
      <trkpt lat="46.21063" lon="-1.46547">
        <ele>2.91178</ele>
        <time>2022-05-17T13:38:25.000Z</time>
      </trkpt>
      <trkpt lat="46.21063" lon="-1.46543">
        <ele>2.87837</ele>
        <time>2022-05-17T13:38:26.000Z</time>
      </trkpt>
      <trkpt lat="46.21063" lon="-1.46538">
        <ele>2.84924</ele>
        <time>2022-05-17T13:38:27.000Z</time>
      </trkpt>
      <trkpt lat="46.21063" lon="-1.46534">
        <ele>2.8265</ele>
        <time>2022-05-17T13:38:28.000Z</time>
      </trkpt>
      <trkpt lat="46.21063" lon="-1.4653">
        <ele>2.81048</ele>
        <time>2022-05-17T13:38:29.000Z</time>
      </trkpt>
      <trkpt lat="46.21063" lon="-1.46526">
        <ele>2.8015</ele>
        <time>2022-05-17T13:38:30.000Z</time>
      </trkpt>
      <trkpt lat="46.21064" lon="-1.46521">
        <ele>2.79661</ele>
        <time>2022-05-17T13:38:31.000Z</time>
      </trkpt>
      <trkpt lat="46.21064" lon="-1.46517">
        <ele>2.79659</ele>
        <time>2022-05-17T13:38:32.000Z</time>
      </trkpt>
      <trkpt lat="46.21064" lon="-1.46513">
        <ele>2.80124</ele>
        <time>2022-05-17T13:38:33.000Z</time>
      </trkpt>
      <trkpt lat="46.21065" lon="-1.46509">
        <ele>2.81043</ele>
        <time>2022-05-17T13:38:34.000Z</time>
      </trkpt>
      <trkpt lat="46.21064" lon="-1.46504">
        <ele>2.8219</ele>
        <time>2022-05-17T13:38:35.000Z</time>
      </trkpt>
      <trkpt lat="46.21064" lon="-1.46499">
        <ele>2.83755</ele>
        <time>2022-05-17T13:38:36.000Z</time>
      </trkpt>
      <trkpt lat="46.21065" lon="-1.46495">
        <ele>2.86017</ele>
        <time>2022-05-17T13:38:37.000Z</time>
      </trkpt>
      <trkpt lat="46.21065" lon="-1.46491">
        <ele>2.88547</ele>
        <time>2022-05-17T13:38:38.000Z</time>
      </trkpt>
      <trkpt lat="46.21065" lon="-1.46487">
        <ele>2.91623</ele>
        <time>2022-05-17T13:38:39.000Z</time>
      </trkpt>
      <trkpt lat="46.21065" lon="-1.46482">
        <ele>2.9551</ele>
        <time>2022-05-17T13:38:40.000Z</time>
      </trkpt>
      <trkpt lat="46.21066" lon="-1.46477">
        <ele>3.0013</ele>
        <time>2022-05-17T13:38:41.000Z</time>
      </trkpt>
      <trkpt lat="46.21066" lon="-1.46473">
        <ele>3.04169</ele>
        <time>2022-05-17T13:38:42.000Z</time>
      </trkpt>
      <trkpt lat="46.21066" lon="-1.46468">
        <ele>3.0819</ele>
        <time>2022-05-17T13:38:43.000Z</time>
      </trkpt>
      <trkpt lat="46.21067" lon="-1.46464">
        <ele>3.10878</ele>
        <time>2022-05-17T13:38:44.000Z</time>
      </trkpt>
      <trkpt lat="46.21067" lon="-1.4646">
        <ele>3.13394</ele>
        <time>2022-05-17T13:38:45.000Z</time>
      </trkpt>
      <trkpt lat="46.21068" lon="-1.46457">
        <ele>3.16334</ele>
        <time>2022-05-17T13:38:46.000Z</time>
      </trkpt>
      <trkpt lat="46.21069" lon="-1.46452">
        <ele>3.19998</ele>
        <time>2022-05-17T13:38:47.000Z</time>
      </trkpt>
      <trkpt lat="46.2107" lon="-1.46448">
        <ele>3.22428</ele>
        <time>2022-05-17T13:38:48.000Z</time>
      </trkpt>
      <trkpt lat="46.2107" lon="-1.46444">
        <ele>3.237</ele>
        <time>2022-05-17T13:38:49.000Z</time>
      </trkpt>
      <trkpt lat="46.21071" lon="-1.46439">
        <ele>3.23289</ele>
        <time>2022-05-17T13:38:50.000Z</time>
      </trkpt>
      <trkpt lat="46.21072" lon="-1.46434">
        <ele>3.18869</ele>
        <time>2022-05-17T13:38:51.000Z</time>
      </trkpt>
      <trkpt lat="46.21073" lon="-1.46429">
        <ele>3.08762</ele>
        <time>2022-05-17T13:38:52.000Z</time>
      </trkpt>
      <trkpt lat="46.21074" lon="-1.46422">
        <ele>2.92045</ele>
        <time>2022-05-17T13:38:53.000Z</time>
      </trkpt>
      <trkpt lat="46.21075" lon="-1.46416">
        <ele>2.77281</ele>
        <time>2022-05-17T13:38:54.000Z</time>
      </trkpt>
      <trkpt lat="46.21075" lon="-1.46412">
        <ele>2.65866</ele>
        <time>2022-05-17T13:38:55.000Z</time>
      </trkpt>
      <trkpt lat="46.21076" lon="-1.46407">
        <ele>2.55754</ele>
        <time>2022-05-17T13:38:56.000Z</time>
      </trkpt>
      <trkpt lat="46.21077" lon="-1.46401">
        <ele>2.45869</ele>
        <time>2022-05-17T13:38:57.000Z</time>
      </trkpt>
      <trkpt lat="46.21077" lon="-1.46396">
        <ele>2.36868</ele>
        <time>2022-05-17T13:38:58.000Z</time>
      </trkpt>
      <trkpt lat="46.21077" lon="-1.46391">
        <ele>2.26488</ele>
        <time>2022-05-17T13:38:59.000Z</time>
      </trkpt>
      <trkpt lat="46.21078" lon="-1.46387">
        <ele>2.13157</ele>
        <time>2022-05-17T13:39:00.000Z</time>
      </trkpt>
      <trkpt lat="46.21078" lon="-1.46381">
        <ele>1.98084</ele>
        <time>2022-05-17T13:39:01.000Z</time>
      </trkpt>
      <trkpt lat="46.21079" lon="-1.46376">
        <ele>1.84602</ele>
        <time>2022-05-17T13:39:02.000Z</time>
      </trkpt>
      <trkpt lat="46.2108" lon="-1.4637">
        <ele>1.76764</ele>
        <time>2022-05-17T13:39:03.000Z</time>
      </trkpt>
      <trkpt lat="46.2108" lon="-1.46363">
        <ele>1.81292</ele>
        <time>2022-05-17T13:39:04.000Z</time>
      </trkpt>
      <trkpt lat="46.21081" lon="-1.46357">
        <ele>1.98707</ele>
        <time>2022-05-17T13:39:05.000Z</time>
      </trkpt>
      <trkpt lat="46.21082" lon="-1.46347">
        <ele>2.45285</ele>
        <time>2022-05-17T13:39:06.000Z</time>
      </trkpt>
      <trkpt lat="46.21083" lon="-1.46338">
        <ele>2.77491</ele>
        <time>2022-05-17T13:39:07.000Z</time>
      </trkpt>
      <trkpt lat="46.21085" lon="-1.46331">
        <ele>2.88799</ele>
        <time>2022-05-17T13:39:08.000Z</time>
      </trkpt>
      <trkpt lat="46.21086" lon="-1.46322">
        <ele>2.8842</ele>
        <time>2022-05-17T13:39:09.000Z</time>
      </trkpt>
      <trkpt lat="46.21086" lon="-1.46316">
        <ele>2.82812</ele>
        <time>2022-05-17T13:39:10.000Z</time>
      </trkpt>
      <trkpt lat="46.21086" lon="-1.46313">
        <ele>2.79893</ele>
        <time>2022-05-17T13:39:11.000Z</time>
      </trkpt>
      <trkpt lat="46.21087" lon="-1.46305">
        <ele>2.72248</ele>
        <time>2022-05-17T13:39:12.000Z</time>
      </trkpt>
      <trkpt lat="46.21088" lon="-1.46298">
        <ele>2.70439</ele>
        <time>2022-05-17T13:39:13.000Z</time>
      </trkpt>
      <trkpt lat="46.21089" lon="-1.46293">
        <ele>2.71049</ele>
        <time>2022-05-17T13:39:14.000Z</time>
      </trkpt>
      <trkpt lat="46.21092" lon="-1.46287">
        <ele>2.78103</ele>
        <time>2022-05-17T13:39:15.000Z</time>
      </trkpt>
      <trkpt lat="46.21093" lon="-1.46279">
        <ele>2.87705</ele>
        <time>2022-05-17T13:39:16.000Z</time>
      </trkpt>
      <trkpt lat="46.21095" lon="-1.46272">
        <ele>3.06933</ele>
        <time>2022-05-17T13:39:17.000Z</time>
      </trkpt>
      <trkpt lat="46.21097" lon="-1.46264">
        <ele>3.19842</ele>
        <time>2022-05-17T13:39:18.000Z</time>
      </trkpt>
      <trkpt lat="46.21098" lon="-1.46258">
        <ele>3.22644</ele>
        <time>2022-05-17T13:39:19.000Z</time>
      </trkpt>
      <trkpt lat="46.211" lon="-1.46252">
        <ele>3.2271</ele>
        <time>2022-05-17T13:39:20.000Z</time>
      </trkpt>
      <trkpt lat="46.21103" lon="-1.46247">
        <ele>3.12995</ele>
        <time>2022-05-17T13:39:21.000Z</time>
      </trkpt>
      <trkpt lat="46.21103" lon="-1.46243">
        <ele>3.0765</ele>
        <time>2022-05-17T13:39:22.000Z</time>
      </trkpt>
      <trkpt lat="46.21103" lon="-1.46237">
        <ele>2.9758</ele>
        <time>2022-05-17T13:39:23.000Z</time>
      </trkpt>
      <trkpt lat="46.21103" lon="-1.46232">
        <ele>2.86978</ele>
        <time>2022-05-17T13:39:24.000Z</time>
      </trkpt>
      <trkpt lat="46.21104" lon="-1.46227">
        <ele>2.72544</ele>
        <time>2022-05-17T13:39:25.000Z</time>
      </trkpt>
      <trkpt lat="46.21105" lon="-1.46221">
        <ele>2.53177</ele>
        <time>2022-05-17T13:39:26.000Z</time>
      </trkpt>
      <trkpt lat="46.21107" lon="-1.46216">
        <ele>2.34658</ele>
        <time>2022-05-17T13:39:27.000Z</time>
      </trkpt>
      <trkpt lat="46.2111" lon="-1.46206">
        <ele>2.15832</ele>
        <time>2022-05-17T13:39:28.000Z</time>
      </trkpt>
      <trkpt lat="46.21112" lon="-1.46199">
        <ele>2.08195</ele>
        <time>2022-05-17T13:39:29.000Z</time>
      </trkpt>
      <trkpt lat="46.21114" lon="-1.46191">
        <ele>2.08742</ele>
        <time>2022-05-17T13:39:30.000Z</time>
      </trkpt>
      <trkpt lat="46.21116" lon="-1.46186">
        <ele>2.12403</ele>
        <time>2022-05-17T13:39:31.000Z</time>
      </trkpt>
      <trkpt lat="46.21117" lon="-1.4618">
        <ele>2.18261</ele>
        <time>2022-05-17T13:39:32.000Z</time>
      </trkpt>
      <trkpt lat="46.21119" lon="-1.46172">
        <ele>2.27752</ele>
        <time>2022-05-17T13:39:33.000Z</time>
      </trkpt>
      <trkpt lat="46.21119" lon="-1.46167">
        <ele>2.35166</ele>
        <time>2022-05-17T13:39:34.000Z</time>
      </trkpt>
      <trkpt lat="46.2112" lon="-1.4616">
        <ele>2.44242</ele>
        <time>2022-05-17T13:39:35.000Z</time>
      </trkpt>
      <trkpt lat="46.21119" lon="-1.46156">
        <ele>2.47963</ele>
        <time>2022-05-17T13:39:36.000Z</time>
      </trkpt>
      <trkpt lat="46.21119" lon="-1.46149">
        <ele>2.54854</ele>
        <time>2022-05-17T13:39:37.000Z</time>
      </trkpt>
      <trkpt lat="46.2112" lon="-1.46143">
        <ele>2.66858</ele>
        <time>2022-05-17T13:39:38.000Z</time>
      </trkpt>
      <trkpt lat="46.2112" lon="-1.46134">
        <ele>2.82214</ele>
        <time>2022-05-17T13:39:39.000Z</time>
      </trkpt>
      <trkpt lat="46.21121" lon="-1.4613">
        <ele>2.94777</ele>
        <time>2022-05-17T13:39:40.000Z</time>
      </trkpt>
      <trkpt lat="46.2112" lon="-1.46124">
        <ele>3.04589</ele>
        <time>2022-05-17T13:39:41.000Z</time>
      </trkpt>
      <trkpt lat="46.2112" lon="-1.46118">
        <ele>3.12126</ele>
        <time>2022-05-17T13:39:42.000Z</time>
      </trkpt>
      <trkpt lat="46.2112" lon="-1.46112">
        <ele>3.11529</ele>
        <time>2022-05-17T13:39:43.000Z</time>
      </trkpt>
      <trkpt lat="46.21119" lon="-1.46105">
        <ele>2.96389</ele>
        <time>2022-05-17T13:39:44.000Z</time>
      </trkpt>
      <trkpt lat="46.21118" lon="-1.461">
        <ele>2.77482</ele>
        <time>2022-05-17T13:39:45.000Z</time>
      </trkpt>
      <trkpt lat="46.21119" lon="-1.46089">
        <ele>2.35866</ele>
        <time>2022-05-17T13:39:46.000Z</time>
      </trkpt>
      <trkpt lat="46.21117" lon="-1.46085">
        <ele>2.37202</ele>
        <time>2022-05-17T13:39:47.000Z</time>
      </trkpt>
      <trkpt lat="46.21116" lon="-1.46078">
        <ele>2.3221</ele>
        <time>2022-05-17T13:39:48.000Z</time>
      </trkpt>
      <trkpt lat="46.21116" lon="-1.4607">
        <ele>2.37653</ele>
        <time>2022-05-17T13:39:49.000Z</time>
      </trkpt>
      <trkpt lat="46.21117" lon="-1.46064">
        <ele>2.43907</ele>
        <time>2022-05-17T13:39:50.000Z</time>
      </trkpt>
      <trkpt lat="46.21116" lon="-1.46061">
        <ele>2.54424</ele>
        <time>2022-05-17T13:39:51.000Z</time>
      </trkpt>
      <trkpt lat="46.21116" lon="-1.46052">
        <ele>2.69987</ele>
        <time>2022-05-17T13:39:52.000Z</time>
      </trkpt>
      <trkpt lat="46.21118" lon="-1.46045">
        <ele>2.78921</ele>
        <time>2022-05-17T13:39:53.000Z</time>
      </trkpt>
      <trkpt lat="46.21118" lon="-1.46037">
        <ele>2.88837</ele>
        <time>2022-05-17T13:39:54.000Z</time>
      </trkpt>
      <trkpt lat="46.21115" lon="-1.46036">
        <ele>2.85545</ele>
        <time>2022-05-17T13:39:55.000Z</time>
      </trkpt>
      <trkpt lat="46.21113" lon="-1.46033">
        <ele>2.85115</ele>
        <time>2022-05-17T13:39:56.000Z</time>
      </trkpt>
      <trkpt lat="46.21111" lon="-1.46037">
        <ele>2.79338</ele>
        <time>2022-05-17T13:39:57.000Z</time>
      </trkpt>
      <trkpt lat="46.21109" lon="-1.46032">
        <ele>2.80718</ele>
        <time>2022-05-17T13:39:58.000Z</time>
      </trkpt>
      <trkpt lat="46.21107" lon="-1.46032">
        <ele>2.78538</ele>
        <time>2022-05-17T13:39:59.000Z</time>
      </trkpt>
      <trkpt lat="46.21106" lon="-1.46028">
        <ele>2.80986</ele>
        <time>2022-05-17T13:40:00.000Z</time>
      </trkpt>
      <trkpt lat="46.21103" lon="-1.46026">
        <ele>2.81629</ele>
        <time>2022-05-17T13:40:02.000Z</time>
      </trkpt>
      <trkpt lat="46.21101" lon="-1.46024">
        <ele>2.83492</ele>
        <time>2022-05-17T13:40:03.000Z</time>
      </trkpt>
      <trkpt lat="46.211" lon="-1.46021">
        <ele>2.86867</ele>
        <time>2022-05-17T13:40:04.000Z</time>
      </trkpt>
      <trkpt lat="46.21097" lon="-1.46018">
        <ele>2.91448</ele>
        <time>2022-05-17T13:40:06.000Z</time>
      </trkpt>
      <trkpt lat="46.21096" lon="-1.46016">
        <ele>2.93932</ele>
        <time>2022-05-17T13:40:07.000Z</time>
      </trkpt>
      <trkpt lat="46.21094" lon="-1.46015">
        <ele>2.96588</ele>
        <time>2022-05-17T13:40:08.000Z</time>
      </trkpt>
      <trkpt lat="46.21092" lon="-1.46011">
        <ele>3.01119</ele>
        <time>2022-05-17T13:40:10.000Z</time>
      </trkpt>
      <trkpt lat="46.2109" lon="-1.46006">
        <ele>3.04016</ele>
        <time>2022-05-17T13:40:12.000Z</time>
      </trkpt>
      <trkpt lat="46.21089" lon="-1.46002">
        <ele>3.03045</ele>
        <time>2022-05-17T13:40:13.000Z</time>
      </trkpt>
      <trkpt lat="46.21088" lon="-1.45997">
        <ele>2.998</ele>
        <time>2022-05-17T13:40:14.000Z</time>
      </trkpt>
      <trkpt lat="46.21087" lon="-1.45992">
        <ele>2.93435</ele>
        <time>2022-05-17T13:40:15.000Z</time>
      </trkpt>
      <trkpt lat="46.21086" lon="-1.45985">
        <ele>2.86245</ele>
        <time>2022-05-17T13:40:16.000Z</time>
      </trkpt>
      <trkpt lat="46.21086" lon="-1.4598">
        <ele>2.82074</ele>
        <time>2022-05-17T13:40:17.000Z</time>
      </trkpt>
      <trkpt lat="46.21085" lon="-1.45975">
        <ele>2.81488</ele>
        <time>2022-05-17T13:40:18.000Z</time>
      </trkpt>
      <trkpt lat="46.21084" lon="-1.45971">
        <ele>2.82416</ele>
        <time>2022-05-17T13:40:19.000Z</time>
      </trkpt>
      <trkpt lat="46.21084" lon="-1.45966">
        <ele>2.84721</ele>
        <time>2022-05-17T13:40:20.000Z</time>
      </trkpt>
      <trkpt lat="46.21083" lon="-1.45962">
        <ele>2.86777</ele>
        <time>2022-05-17T13:40:21.000Z</time>
      </trkpt>
      <trkpt lat="46.21083" lon="-1.45958">
        <ele>2.88923</ele>
        <time>2022-05-17T13:40:22.000Z</time>
      </trkpt>
      <trkpt lat="46.21083" lon="-1.45953">
        <ele>2.89421</ele>
        <time>2022-05-17T13:40:23.000Z</time>
      </trkpt>
      <trkpt lat="46.21082" lon="-1.45948">
        <ele>2.8821</ele>
        <time>2022-05-17T13:40:24.000Z</time>
      </trkpt>
      <trkpt lat="46.21082" lon="-1.45943">
        <ele>2.85091</ele>
        <time>2022-05-17T13:40:25.000Z</time>
      </trkpt>
      <trkpt lat="46.21082" lon="-1.45937">
        <ele>2.79607</ele>
        <time>2022-05-17T13:40:26.000Z</time>
      </trkpt>
      <trkpt lat="46.21081" lon="-1.45932">
        <ele>2.74167</ele>
        <time>2022-05-17T13:40:27.000Z</time>
      </trkpt>
      <trkpt lat="46.21081" lon="-1.45926">
        <ele>2.68755</ele>
        <time>2022-05-17T13:40:28.000Z</time>
      </trkpt>
      <trkpt lat="46.21081" lon="-1.45921">
        <ele>2.6048</ele>
        <time>2022-05-17T13:40:29.000Z</time>
      </trkpt>
      <trkpt lat="46.2108" lon="-1.45915">
        <ele>2.48546</ele>
        <time>2022-05-17T13:40:30.000Z</time>
      </trkpt>
      <trkpt lat="46.2108" lon="-1.45908">
        <ele>2.33615</ele>
        <time>2022-05-17T13:40:31.000Z</time>
      </trkpt>
      <trkpt lat="46.21079" lon="-1.45902">
        <ele>2.14734</ele>
        <time>2022-05-17T13:40:32.000Z</time>
      </trkpt>
      <trkpt lat="46.21079" lon="-1.45897">
        <ele>1.97996</ele>
        <time>2022-05-17T13:40:33.000Z</time>
      </trkpt>
      <trkpt lat="46.21079" lon="-1.45893">
        <ele>1.84017</ele>
        <time>2022-05-17T13:40:34.000Z</time>
      </trkpt>
      <trkpt lat="46.21079" lon="-1.45888">
        <ele>1.69049</ele>
        <time>2022-05-17T13:40:35.000Z</time>
      </trkpt>
      <trkpt lat="46.21078" lon="-1.45882">
        <ele>1.62453</ele>
        <time>2022-05-17T13:40:36.000Z</time>
      </trkpt>
      <trkpt lat="46.21078" lon="-1.45876">
        <ele>1.72051</ele>
        <time>2022-05-17T13:40:37.000Z</time>
      </trkpt>
      <trkpt lat="46.21077" lon="-1.4587">
        <ele>1.98944</ele>
        <time>2022-05-17T13:40:38.000Z</time>
      </trkpt>
      <trkpt lat="46.21076" lon="-1.45865">
        <ele>2.38793</ele>
        <time>2022-05-17T13:40:39.000Z</time>
      </trkpt>
      <trkpt lat="46.21075" lon="-1.45859">
        <ele>2.82792</ele>
        <time>2022-05-17T13:40:40.000Z</time>
      </trkpt>
      <trkpt lat="46.21074" lon="-1.45854">
        <ele>3.28521</ele>
        <time>2022-05-17T13:40:41.000Z</time>
      </trkpt>
      <trkpt lat="46.21073" lon="-1.45848">
        <ele>3.61409</ele>
        <time>2022-05-17T13:40:42.000Z</time>
      </trkpt>
      <trkpt lat="46.21072" lon="-1.45843">
        <ele>3.74081</ele>
        <time>2022-05-17T13:40:43.000Z</time>
      </trkpt>
      <trkpt lat="46.21071" lon="-1.45838">
        <ele>3.74969</ele>
        <time>2022-05-17T13:40:44.000Z</time>
      </trkpt>
      <trkpt lat="46.21071" lon="-1.45834">
        <ele>3.6776</ele>
        <time>2022-05-17T13:40:45.000Z</time>
      </trkpt>
      <trkpt lat="46.2107" lon="-1.4583">
        <ele>3.57366</ele>
        <time>2022-05-17T13:40:46.000Z</time>
      </trkpt>
      <trkpt lat="46.2107" lon="-1.45825">
        <ele>3.41613</ele>
        <time>2022-05-17T13:40:47.000Z</time>
      </trkpt>
      <trkpt lat="46.21069" lon="-1.45821">
        <ele>3.24139</ele>
        <time>2022-05-17T13:40:48.000Z</time>
      </trkpt>
      <trkpt lat="46.21068" lon="-1.45816">
        <ele>3.05584</ele>
        <time>2022-05-17T13:40:49.000Z</time>
      </trkpt>
      <trkpt lat="46.21067" lon="-1.4581">
        <ele>2.83835</ele>
        <time>2022-05-17T13:40:50.000Z</time>
      </trkpt>
      <trkpt lat="46.21066" lon="-1.45805">
        <ele>2.57308</ele>
        <time>2022-05-17T13:40:51.000Z</time>
      </trkpt>
      <trkpt lat="46.21065" lon="-1.45799">
        <ele>2.31701</ele>
        <time>2022-05-17T13:40:52.000Z</time>
      </trkpt>
      <trkpt lat="46.21064" lon="-1.45795">
        <ele>2.15755</ele>
        <time>2022-05-17T13:40:53.000Z</time>
      </trkpt>
      <trkpt lat="46.21063" lon="-1.4579">
        <ele>2.06339</ele>
        <time>2022-05-17T13:40:54.000Z</time>
      </trkpt>
      <trkpt lat="46.21062" lon="-1.45785">
        <ele>2.0415</ele>
        <time>2022-05-17T13:40:55.000Z</time>
      </trkpt>
      <trkpt lat="46.2106" lon="-1.4578">
        <ele>2.12282</ele>
        <time>2022-05-17T13:40:56.000Z</time>
      </trkpt>
      <trkpt lat="46.21059" lon="-1.45774">
        <ele>2.19555</ele>
        <time>2022-05-17T13:40:57.000Z</time>
      </trkpt>
      <trkpt lat="46.21058" lon="-1.45769">
        <ele>2.20173</ele>
        <time>2022-05-17T13:40:58.000Z</time>
      </trkpt>
      <trkpt lat="46.21057" lon="-1.45764">
        <ele>2.14315</ele>
        <time>2022-05-17T13:40:59.000Z</time>
      </trkpt>
      <trkpt lat="46.21056" lon="-1.45759">
        <ele>2.02136</ele>
        <time>2022-05-17T13:41:00.000Z</time>
      </trkpt>
      <trkpt lat="46.21054" lon="-1.45753">
        <ele>1.88479</ele>
        <time>2022-05-17T13:41:01.000Z</time>
      </trkpt>
      <trkpt lat="46.21053" lon="-1.45748">
        <ele>1.80989</ele>
        <time>2022-05-17T13:41:02.000Z</time>
      </trkpt>
      <trkpt lat="46.21053" lon="-1.45742">
        <ele>1.84574</ele>
        <time>2022-05-17T13:41:03.000Z</time>
      </trkpt>
      <trkpt lat="46.21052" lon="-1.45736">
        <ele>1.99664</ele>
        <time>2022-05-17T13:41:04.000Z</time>
      </trkpt>
      <trkpt lat="46.21052" lon="-1.45731">
        <ele>2.16453</ele>
        <time>2022-05-17T13:41:05.000Z</time>
      </trkpt>
      <trkpt lat="46.21051" lon="-1.45727">
        <ele>2.34463</ele>
        <time>2022-05-17T13:41:06.000Z</time>
      </trkpt>
      <trkpt lat="46.21051" lon="-1.45721">
        <ele>2.51218</ele>
        <time>2022-05-17T13:41:07.000Z</time>
      </trkpt>
      <trkpt lat="46.2105" lon="-1.45716">
        <ele>2.62392</ele>
        <time>2022-05-17T13:41:08.000Z</time>
      </trkpt>
      <trkpt lat="46.21049" lon="-1.4571">
        <ele>2.67916</ele>
        <time>2022-05-17T13:41:09.000Z</time>
      </trkpt>
      <trkpt lat="46.21048" lon="-1.45704">
        <ele>2.71664</ele>
        <time>2022-05-17T13:41:10.000Z</time>
      </trkpt>
      <trkpt lat="46.21047" lon="-1.45698">
        <ele>2.72212</ele>
        <time>2022-05-17T13:41:11.000Z</time>
      </trkpt>
      <trkpt lat="46.21046" lon="-1.45692">
        <ele>2.69754</ele>
        <time>2022-05-17T13:41:12.000Z</time>
      </trkpt>
      <trkpt lat="46.21046" lon="-1.45686">
        <ele>2.6456</ele>
        <time>2022-05-17T13:41:13.000Z</time>
      </trkpt>
      <trkpt lat="46.21045" lon="-1.45681">
        <ele>2.55706</ele>
        <time>2022-05-17T13:41:14.000Z</time>
      </trkpt>
      <trkpt lat="46.21044" lon="-1.45676">
        <ele>2.4139</ele>
        <time>2022-05-17T13:41:15.000Z</time>
      </trkpt>
      <trkpt lat="46.21045" lon="-1.45671">
        <ele>2.33033</ele>
        <time>2022-05-17T13:41:16.000Z</time>
      </trkpt>
      <trkpt lat="46.21044" lon="-1.45664">
        <ele>2.10799</ele>
        <time>2022-05-17T13:41:17.000Z</time>
      </trkpt>
      <trkpt lat="46.21042" lon="-1.45655">
        <ele>1.93101</ele>
        <time>2022-05-17T13:41:19.000Z</time>
      </trkpt>
      <trkpt lat="46.21041" lon="-1.45651">
        <ele>1.91746</ele>
        <time>2022-05-17T13:41:20.000Z</time>
      </trkpt>
      <trkpt lat="46.21041" lon="-1.45644">
        <ele>1.97699</ele>
        <time>2022-05-17T13:41:21.000Z</time>
      </trkpt>
      <trkpt lat="46.2104" lon="-1.45638">
        <ele>2.12771</ele>
        <time>2022-05-17T13:41:22.000Z</time>
      </trkpt>
      <trkpt lat="46.21039" lon="-1.45636">
        <ele>2.22074</ele>
        <time>2022-05-17T13:41:23.000Z</time>
      </trkpt>
      <trkpt lat="46.21037" lon="-1.45628">
        <ele>2.46015</ele>
        <time>2022-05-17T13:41:24.000Z</time>
      </trkpt>
      <trkpt lat="46.21035" lon="-1.45624">
        <ele>2.62158</ele>
        <time>2022-05-17T13:41:25.000Z</time>
      </trkpt>
      <trkpt lat="46.21036" lon="-1.4562">
        <ele>2.6905</ele>
        <time>2022-05-17T13:41:26.000Z</time>
      </trkpt>
      <trkpt lat="46.21035" lon="-1.45616">
        <ele>2.74391</ele>
        <time>2022-05-17T13:41:27.000Z</time>
      </trkpt>
      <trkpt lat="46.21034" lon="-1.45613">
        <ele>2.7561</ele>
        <time>2022-05-17T13:41:28.000Z</time>
      </trkpt>
      <trkpt lat="46.21032" lon="-1.45609">
        <ele>2.73303</ele>
        <time>2022-05-17T13:41:29.000Z</time>
      </trkpt>
      <trkpt lat="46.21031" lon="-1.45605">
        <ele>2.68302</ele>
        <time>2022-05-17T13:41:30.000Z</time>
      </trkpt>
      <trkpt lat="46.21031" lon="-1.45602">
        <ele>2.61362</ele>
        <time>2022-05-17T13:41:32.000Z</time>
      </trkpt>
      <trkpt lat="46.21035" lon="-1.456">
        <ele>2.5753</ele>
        <time>2022-05-17T13:41:34.000Z</time>
      </trkpt>
      <trkpt lat="46.21038" lon="-1.456">
        <ele>2.55821</ele>
        <time>2022-05-17T13:41:35.000Z</time>
      </trkpt>
      <trkpt lat="46.21041" lon="-1.456">
        <ele>2.53471</ele>
        <time>2022-05-17T13:41:36.000Z</time>
      </trkpt>
      <trkpt lat="46.21043" lon="-1.456">
        <ele>2.50732</ele>
        <time>2022-05-17T13:41:37.000Z</time>
      </trkpt>
      <trkpt lat="46.21045" lon="-1.45598">
        <ele>2.48158</ele>
        <time>2022-05-17T13:41:38.000Z</time>
      </trkpt>
      <trkpt lat="46.21047" lon="-1.45596">
        <ele>2.47304</ele>
        <time>2022-05-17T13:41:39.000Z</time>
      </trkpt>
      <trkpt lat="46.2105" lon="-1.45594">
        <ele>2.48892</ele>
        <time>2022-05-17T13:41:40.000Z</time>
      </trkpt>
      <trkpt lat="46.21052" lon="-1.45592">
        <ele>2.51936</ele>
        <time>2022-05-17T13:41:41.000Z</time>
      </trkpt>
      <trkpt lat="46.21055" lon="-1.45591">
        <ele>2.56217</ele>
        <time>2022-05-17T13:41:42.000Z</time>
      </trkpt>
      <trkpt lat="46.21058" lon="-1.4559">
        <ele>2.60832</ele>
        <time>2022-05-17T13:41:43.000Z</time>
      </trkpt>
      <trkpt lat="46.21062" lon="-1.45588">
        <ele>2.6711</ele>
        <time>2022-05-17T13:41:44.000Z</time>
      </trkpt>
      <trkpt lat="46.21066" lon="-1.45587">
        <ele>2.73365</ele>
        <time>2022-05-17T13:41:45.000Z</time>
      </trkpt>
      <trkpt lat="46.21069" lon="-1.45585">
        <ele>2.78892</ele>
        <time>2022-05-17T13:41:46.000Z</time>
      </trkpt>
      <trkpt lat="46.21073" lon="-1.45584">
        <ele>2.83838</ele>
        <time>2022-05-17T13:41:47.000Z</time>
      </trkpt>
      <trkpt lat="46.21076" lon="-1.45583">
        <ele>2.88171</ele>
        <time>2022-05-17T13:41:48.000Z</time>
      </trkpt>
      <trkpt lat="46.2108" lon="-1.45582">
        <ele>2.91267</ele>
        <time>2022-05-17T13:41:49.000Z</time>
      </trkpt>
      <trkpt lat="46.21083" lon="-1.45582">
        <ele>2.91444</ele>
        <time>2022-05-17T13:41:50.000Z</time>
      </trkpt>
      <trkpt lat="46.21087" lon="-1.45581">
        <ele>2.88257</ele>
        <time>2022-05-17T13:41:51.000Z</time>
      </trkpt>
      <trkpt lat="46.2109" lon="-1.45581">
        <ele>2.82674</ele>
        <time>2022-05-17T13:41:52.000Z</time>
      </trkpt>
      <trkpt lat="46.21093" lon="-1.4558">
        <ele>2.73979</ele>
        <time>2022-05-17T13:41:53.000Z</time>
      </trkpt>
      <trkpt lat="46.21096" lon="-1.45579">
        <ele>2.63781</ele>
        <time>2022-05-17T13:41:54.000Z</time>
      </trkpt>
      <trkpt lat="46.21099" lon="-1.45579">
        <ele>2.51712</ele>
        <time>2022-05-17T13:41:55.000Z</time>
      </trkpt>
      <trkpt lat="46.21102" lon="-1.45578">
        <ele>2.37883</ele>
        <time>2022-05-17T13:41:56.000Z</time>
      </trkpt>
      <trkpt lat="46.21106" lon="-1.45577">
        <ele>2.26912</ele>
        <time>2022-05-17T13:41:57.000Z</time>
      </trkpt>
      <trkpt lat="46.21108" lon="-1.45576">
        <ele>2.20411</ele>
        <time>2022-05-17T13:41:58.000Z</time>
      </trkpt>
      <trkpt lat="46.21111" lon="-1.45575">
        <ele>2.1818</ele>
        <time>2022-05-17T13:41:59.000Z</time>
      </trkpt>
      <trkpt lat="46.21114" lon="-1.45574">
        <ele>2.19229</ele>
        <time>2022-05-17T13:42:00.000Z</time>
      </trkpt>
      <trkpt lat="46.21117" lon="-1.45573">
        <ele>2.26625</ele>
        <time>2022-05-17T13:42:01.000Z</time>
      </trkpt>
      <trkpt lat="46.21121" lon="-1.45572">
        <ele>2.39581</ele>
        <time>2022-05-17T13:42:02.000Z</time>
      </trkpt>
      <trkpt lat="46.21124" lon="-1.45571">
        <ele>2.53955</ele>
        <time>2022-05-17T13:42:03.000Z</time>
      </trkpt>
      <trkpt lat="46.21127" lon="-1.4557">
        <ele>2.64432</ele>
        <time>2022-05-17T13:42:04.000Z</time>
      </trkpt>
      <trkpt lat="46.21129" lon="-1.45569">
        <ele>2.73605</ele>
        <time>2022-05-17T13:42:05.000Z</time>
      </trkpt>
      <trkpt lat="46.21131" lon="-1.45568">
        <ele>2.83654</ele>
        <time>2022-05-17T13:42:06.000Z</time>
      </trkpt>
      <trkpt lat="46.21134" lon="-1.45567">
        <ele>2.91251</ele>
        <time>2022-05-17T13:42:07.000Z</time>
      </trkpt>
      <trkpt lat="46.21137" lon="-1.45566">
        <ele>2.97406</ele>
        <time>2022-05-17T13:42:08.000Z</time>
      </trkpt>
      <trkpt lat="46.21139" lon="-1.45565">
        <ele>3.02496</ele>
        <time>2022-05-17T13:42:09.000Z</time>
      </trkpt>
      <trkpt lat="46.21141" lon="-1.45563">
        <ele>3.07787</ele>
        <time>2022-05-17T13:42:10.000Z</time>
      </trkpt>
      <trkpt lat="46.21143" lon="-1.45562">
        <ele>3.12132</ele>
        <time>2022-05-17T13:42:11.000Z</time>
      </trkpt>
      <trkpt lat="46.21145" lon="-1.45561">
        <ele>3.14727</ele>
        <time>2022-05-17T13:42:12.000Z</time>
      </trkpt>
      <trkpt lat="46.21147" lon="-1.4556">
        <ele>3.16242</ele>
        <time>2022-05-17T13:42:13.000Z</time>
      </trkpt>
      <trkpt lat="46.21149" lon="-1.45559">
        <ele>3.17152</ele>
        <time>2022-05-17T13:42:14.000Z</time>
      </trkpt>
      <trkpt lat="46.21151" lon="-1.45558">
        <ele>3.19814</ele>
        <time>2022-05-17T13:42:15.000Z</time>
      </trkpt>
      <trkpt lat="46.21152" lon="-1.45556">
        <ele>3.23521</ele>
        <time>2022-05-17T13:42:16.000Z</time>
      </trkpt>
      <trkpt lat="46.21153" lon="-1.45553">
        <ele>3.26183</ele>
        <time>2022-05-17T13:42:17.000Z</time>
      </trkpt>
      <trkpt lat="46.21154" lon="-1.4555">
        <ele>3.27147</ele>
        <time>2022-05-17T13:42:18.000Z</time>
      </trkpt>
      <trkpt lat="46.21155" lon="-1.45546">
        <ele>3.2622</ele>
        <time>2022-05-17T13:42:19.000Z</time>
      </trkpt>
      <trkpt lat="46.21155" lon="-1.45543">
        <ele>3.24006</ele>
        <time>2022-05-17T13:42:20.000Z</time>
      </trkpt>
      <trkpt lat="46.21154" lon="-1.4554">
        <ele>3.20873</ele>
        <time>2022-05-17T13:42:21.000Z</time>
      </trkpt>
      <trkpt lat="46.21153" lon="-1.45536">
        <ele>3.14467</ele>
        <time>2022-05-17T13:42:23.000Z</time>
      </trkpt>
      <trkpt lat="46.21153" lon="-1.45536">
        <ele>3.14467</ele>
        <time>2022-05-17T13:42:23.000Z</time>
      </trkpt>
      <trkpt lat="46.2115" lon="-1.45536">
        <ele>3.15074</ele>
        <time>2022-05-17T13:42:25.000Z</time>
      </trkpt>
      <trkpt lat="46.21149" lon="-1.45535">
        <ele>3.15742</ele>
        <time>2022-05-17T13:42:27.000Z</time>
      </trkpt>
      <trkpt lat="46.21151" lon="-1.45533">
        <ele>3.09917</ele>
        <time>2022-05-17T13:42:31.000Z</time>
      </trkpt>
      <trkpt lat="46.21151" lon="-1.4553">
        <ele>3.02025</ele>
        <time>2022-05-17T13:42:35.000Z</time>
      </trkpt>
      <trkpt lat="46.21152" lon="-1.45527">
        <ele>2.91723</ele>
        <time>2022-05-17T13:42:38.000Z</time>
      </trkpt>
      <trkpt lat="46.21154" lon="-1.45527">
        <ele>2.91446</ele>
        <time>2022-05-17T13:42:42.000Z</time>
      </trkpt>
      <trkpt lat="46.2116" lon="-1.4552">
        <ele>2.70158</ele>
        <time>2022-05-17T13:44:26.000Z</time>
      </trkpt>
      <trkpt lat="46.21154" lon="-1.45527">
        <ele>2.89605</ele>
        <time>2022-05-17T13:44:27.000Z</time>
      </trkpt>
      <trkpt lat="46.21154" lon="-1.4552">
        <ele>2.60303</ele>
        <time>2022-05-17T13:44:36.000Z</time>
      </trkpt>
      <trkpt lat="46.21167" lon="-1.45522">
        <ele>2.90087</ele>
        <time>2022-05-17T13:47:51.368Z</time>
      </trkpt>
      <trkpt lat="46.21155" lon="-1.45527">
        <ele>2.90376</ele>
        <time>2022-05-17T13:47:52.000Z</time>
      </trkpt>
      <trkpt lat="46.21152" lon="-1.45529">
        <ele>2.97223</ele>
        <time>2022-05-17T13:49:45.000Z</time>
      </trkpt>
      <trkpt lat="46.21149" lon="-1.45531">
        <ele>3.07318</ele>
        <time>2022-05-17T13:49:46.000Z</time>
      </trkpt>
      <trkpt lat="46.21145" lon="-1.45534">
        <ele>3.19626</ele>
        <time>2022-05-17T13:49:47.000Z</time>
      </trkpt>
      <trkpt lat="46.21142" lon="-1.45537">
        <ele>3.30075</ele>
        <time>2022-05-17T13:49:48.000Z</time>
      </trkpt>
      <trkpt lat="46.21137" lon="-1.45539">
        <ele>3.37483</ele>
        <time>2022-05-17T13:49:49.000Z</time>
      </trkpt>
      <trkpt lat="46.21133" lon="-1.45541">
        <ele>3.38488</ele>
        <time>2022-05-17T13:49:50.000Z</time>
      </trkpt>
      <trkpt lat="46.2113" lon="-1.45543">
        <ele>3.33578</ele>
        <time>2022-05-17T13:49:51.000Z</time>
      </trkpt>
      <trkpt lat="46.21126" lon="-1.45545">
        <ele>3.20167</ele>
        <time>2022-05-17T13:49:52.000Z</time>
      </trkpt>
      <trkpt lat="46.21123" lon="-1.45548">
        <ele>2.98857</ele>
        <time>2022-05-17T13:49:53.000Z</time>
      </trkpt>
      <trkpt lat="46.21119" lon="-1.4555">
        <ele>2.68977</ele>
        <time>2022-05-17T13:49:54.000Z</time>
      </trkpt>
      <trkpt lat="46.21115" lon="-1.45552">
        <ele>2.34725</ele>
        <time>2022-05-17T13:49:55.000Z</time>
      </trkpt>
      <trkpt lat="46.21112" lon="-1.45553">
        <ele>2.08399</ele>
        <time>2022-05-17T13:49:56.000Z</time>
      </trkpt>
      <trkpt lat="46.21109" lon="-1.45555">
        <ele>1.91206</ele>
        <time>2022-05-17T13:49:57.000Z</time>
      </trkpt>
      <trkpt lat="46.21107" lon="-1.45556">
        <ele>1.82916</ele>
        <time>2022-05-17T13:49:58.000Z</time>
      </trkpt>
      <trkpt lat="46.21104" lon="-1.45557">
        <ele>1.81897</ele>
        <time>2022-05-17T13:49:59.000Z</time>
      </trkpt>
      <trkpt lat="46.21102" lon="-1.45558">
        <ele>1.88664</ele>
        <time>2022-05-17T13:50:00.000Z</time>
      </trkpt>
      <trkpt lat="46.21098" lon="-1.45559">
        <ele>2.05356</ele>
        <time>2022-05-17T13:50:01.000Z</time>
      </trkpt>
      <trkpt lat="46.21095" lon="-1.45559">
        <ele>2.27508</ele>
        <time>2022-05-17T13:50:02.000Z</time>
      </trkpt>
      <trkpt lat="46.21091" lon="-1.4556">
        <ele>2.54617</ele>
        <time>2022-05-17T13:50:03.000Z</time>
      </trkpt>
      <trkpt lat="46.21088" lon="-1.45561">
        <ele>2.73385</ele>
        <time>2022-05-17T13:50:04.000Z</time>
      </trkpt>
      <trkpt lat="46.21086" lon="-1.45562">
        <ele>2.85463</ele>
        <time>2022-05-17T13:50:05.000Z</time>
      </trkpt>
      <trkpt lat="46.21083" lon="-1.45564">
        <ele>2.92065</ele>
        <time>2022-05-17T13:50:06.000Z</time>
      </trkpt>
      <trkpt lat="46.2108" lon="-1.45565">
        <ele>2.91967</ele>
        <time>2022-05-17T13:50:07.000Z</time>
      </trkpt>
      <trkpt lat="46.21077" lon="-1.45566">
        <ele>2.8578</ele>
        <time>2022-05-17T13:50:08.000Z</time>
      </trkpt>
      <trkpt lat="46.21073" lon="-1.45567">
        <ele>2.74956</ele>
        <time>2022-05-17T13:50:09.000Z</time>
      </trkpt>
      <trkpt lat="46.21069" lon="-1.45568">
        <ele>2.63193</ele>
        <time>2022-05-17T13:50:10.000Z</time>
      </trkpt>
      <trkpt lat="46.21067" lon="-1.45569">
        <ele>2.54369</ele>
        <time>2022-05-17T13:50:11.000Z</time>
      </trkpt>
      <trkpt lat="46.21064" lon="-1.4557">
        <ele>2.48297</ele>
        <time>2022-05-17T13:50:12.000Z</time>
      </trkpt>
      <trkpt lat="46.21062" lon="-1.45571">
        <ele>2.45821</ele>
        <time>2022-05-17T13:50:13.000Z</time>
      </trkpt>
      <trkpt lat="46.21059" lon="-1.45572">
        <ele>2.44012</ele>
        <time>2022-05-17T13:50:14.000Z</time>
      </trkpt>
      <trkpt lat="46.21056" lon="-1.45574">
        <ele>2.44302</ele>
        <time>2022-05-17T13:50:15.000Z</time>
      </trkpt>
      <trkpt lat="46.21053" lon="-1.45576">
        <ele>2.44981</ele>
        <time>2022-05-17T13:50:16.000Z</time>
      </trkpt>
      <trkpt lat="46.2105" lon="-1.45577">
        <ele>2.43437</ele>
        <time>2022-05-17T13:50:17.000Z</time>
      </trkpt>
      <trkpt lat="46.21047" lon="-1.45579">
        <ele>2.4086</ele>
        <time>2022-05-17T13:50:18.000Z</time>
      </trkpt>
      <trkpt lat="46.21045" lon="-1.4558">
        <ele>2.38088</ele>
        <time>2022-05-17T13:50:19.000Z</time>
      </trkpt>
      <trkpt lat="46.21042" lon="-1.45582">
        <ele>2.35853</ele>
        <time>2022-05-17T13:50:20.000Z</time>
      </trkpt>
      <trkpt lat="46.2104" lon="-1.45584">
        <ele>2.34795</ele>
        <time>2022-05-17T13:50:21.000Z</time>
      </trkpt>
      <trkpt lat="46.21039" lon="-1.45586">
        <ele>2.3494</ele>
        <time>2022-05-17T13:50:22.000Z</time>
      </trkpt>
      <trkpt lat="46.21037" lon="-1.45589">
        <ele>2.36789</ele>
        <time>2022-05-17T13:50:23.000Z</time>
      </trkpt>
      <trkpt lat="46.21035" lon="-1.45591">
        <ele>2.39819</ele>
        <time>2022-05-17T13:50:24.000Z</time>
      </trkpt>
      <trkpt lat="46.21034" lon="-1.45593">
        <ele>2.43417</ele>
        <time>2022-05-17T13:50:25.000Z</time>
      </trkpt>
      <trkpt lat="46.21032" lon="-1.45595">
        <ele>2.47147</ele>
        <time>2022-05-17T13:50:26.000Z</time>
      </trkpt>
      <trkpt lat="46.21021" lon="-1.45592">
        <ele>2.39832</ele>
        <time>2022-05-17T13:50:33.000Z</time>
      </trkpt>
      <trkpt lat="46.2102" lon="-1.4559">
        <ele>2.37024</ele>
        <time>2022-05-17T13:50:34.000Z</time>
      </trkpt>
      <trkpt lat="46.21018" lon="-1.45587">
        <ele>2.35046</ele>
        <time>2022-05-17T13:50:35.000Z</time>
      </trkpt>
      <trkpt lat="46.21016" lon="-1.45583">
        <ele>2.34159</ele>
        <time>2022-05-17T13:50:36.000Z</time>
      </trkpt>
      <trkpt lat="46.21015" lon="-1.4558">
        <ele>2.35074</ele>
        <time>2022-05-17T13:50:37.000Z</time>
      </trkpt>
      <trkpt lat="46.21014" lon="-1.45574">
        <ele>2.38265</ele>
        <time>2022-05-17T13:50:38.000Z</time>
      </trkpt>
      <trkpt lat="46.21014" lon="-1.45569">
        <ele>2.4291</ele>
        <time>2022-05-17T13:50:39.000Z</time>
      </trkpt>
      <trkpt lat="46.21013" lon="-1.45563">
        <ele>2.47795</ele>
        <time>2022-05-17T13:50:40.000Z</time>
      </trkpt>
      <trkpt lat="46.21012" lon="-1.45558">
        <ele>2.52443</ele>
        <time>2022-05-17T13:50:41.000Z</time>
      </trkpt>
      <trkpt lat="46.21011" lon="-1.45553">
        <ele>2.56344</ele>
        <time>2022-05-17T13:50:42.000Z</time>
      </trkpt>
      <trkpt lat="46.2101" lon="-1.45548">
        <ele>2.58797</ele>
        <time>2022-05-17T13:50:43.000Z</time>
      </trkpt>
      <trkpt lat="46.21009" lon="-1.45544">
        <ele>2.61356</ele>
        <time>2022-05-17T13:50:44.000Z</time>
      </trkpt>
      <trkpt lat="46.21007" lon="-1.45538">
        <ele>2.61736</ele>
        <time>2022-05-17T13:50:45.000Z</time>
      </trkpt>
      <trkpt lat="46.21006" lon="-1.45532">
        <ele>2.61986</ele>
        <time>2022-05-17T13:50:46.000Z</time>
      </trkpt>
      <trkpt lat="46.21005" lon="-1.45526">
        <ele>2.60753</ele>
        <time>2022-05-17T13:50:47.000Z</time>
      </trkpt>
      <trkpt lat="46.21004" lon="-1.45521">
        <ele>2.57393</ele>
        <time>2022-05-17T13:50:48.000Z</time>
      </trkpt>
      <trkpt lat="46.21003" lon="-1.45516">
        <ele>2.5168</ele>
        <time>2022-05-17T13:50:49.000Z</time>
      </trkpt>
      <trkpt lat="46.21001" lon="-1.45513">
        <ele>2.45432</ele>
        <time>2022-05-17T13:50:50.000Z</time>
      </trkpt>
      <trkpt lat="46.21" lon="-1.4551">
        <ele>2.38088</ele>
        <time>2022-05-17T13:50:51.000Z</time>
      </trkpt>
      <trkpt lat="46.20998" lon="-1.45507">
        <ele>2.33204</ele>
        <time>2022-05-17T13:50:52.000Z</time>
      </trkpt>
      <trkpt lat="46.20996" lon="-1.45504">
        <ele>2.30936</ele>
        <time>2022-05-17T13:50:53.000Z</time>
      </trkpt>
      <trkpt lat="46.20994" lon="-1.45501">
        <ele>2.30893</ele>
        <time>2022-05-17T13:50:54.000Z</time>
      </trkpt>
      <trkpt lat="46.20993" lon="-1.45498">
        <ele>2.3275</ele>
        <time>2022-05-17T13:50:55.000Z</time>
      </trkpt>
      <trkpt lat="46.20992" lon="-1.45494">
        <ele>2.34652</ele>
        <time>2022-05-17T13:50:56.000Z</time>
      </trkpt>
      <trkpt lat="46.20991" lon="-1.45491">
        <ele>2.35936</ele>
        <time>2022-05-17T13:50:57.000Z</time>
      </trkpt>
      <trkpt lat="46.2099" lon="-1.45488">
        <ele>2.37005</ele>
        <time>2022-05-17T13:50:58.000Z</time>
      </trkpt>
      <trkpt lat="46.20989" lon="-1.45484">
        <ele>2.36781</ele>
        <time>2022-05-17T13:50:59.000Z</time>
      </trkpt>
      <trkpt lat="46.20988" lon="-1.4548">
        <ele>2.35096</ele>
        <time>2022-05-17T13:51:00.000Z</time>
      </trkpt>
      <trkpt lat="46.20987" lon="-1.45476">
        <ele>2.32778</ele>
        <time>2022-05-17T13:51:01.000Z</time>
      </trkpt>
      <trkpt lat="46.20986" lon="-1.45472">
        <ele>2.29794</ele>
        <time>2022-05-17T13:51:02.000Z</time>
      </trkpt>
      <trkpt lat="46.20985" lon="-1.45467">
        <ele>2.28036</ele>
        <time>2022-05-17T13:51:03.000Z</time>
      </trkpt>
      <trkpt lat="46.20984" lon="-1.45463">
        <ele>2.27469</ele>
        <time>2022-05-17T13:51:04.000Z</time>
      </trkpt>
      <trkpt lat="46.20983" lon="-1.45459">
        <ele>2.28343</ele>
        <time>2022-05-17T13:51:05.000Z</time>
      </trkpt>
      <trkpt lat="46.20983" lon="-1.45455">
        <ele>2.30323</ele>
        <time>2022-05-17T13:51:06.000Z</time>
      </trkpt>
      <trkpt lat="46.20982" lon="-1.45451">
        <ele>2.33252</ele>
        <time>2022-05-17T13:51:07.000Z</time>
      </trkpt>
      <trkpt lat="46.2098" lon="-1.45447">
        <ele>2.37325</ele>
        <time>2022-05-17T13:51:08.000Z</time>
      </trkpt>
      <trkpt lat="46.20979" lon="-1.45443">
        <ele>2.41325</ele>
        <time>2022-05-17T13:51:09.000Z</time>
      </trkpt>
      <trkpt lat="46.20977" lon="-1.4544">
        <ele>2.45431</ele>
        <time>2022-05-17T13:51:10.000Z</time>
      </trkpt>
      <trkpt lat="46.20976" lon="-1.45436">
        <ele>2.49355</ele>
        <time>2022-05-17T13:51:11.000Z</time>
      </trkpt>
      <trkpt lat="46.20974" lon="-1.45432">
        <ele>2.51841</ele>
        <time>2022-05-17T13:51:12.000Z</time>
      </trkpt>
      <trkpt lat="46.20973" lon="-1.45428">
        <ele>2.52794</ele>
        <time>2022-05-17T13:51:13.000Z</time>
      </trkpt>
      <trkpt lat="46.20971" lon="-1.45425">
        <ele>2.52722</ele>
        <time>2022-05-17T13:51:14.000Z</time>
      </trkpt>
      <trkpt lat="46.2097" lon="-1.45421">
        <ele>2.51482</ele>
        <time>2022-05-17T13:51:15.000Z</time>
      </trkpt>
      <trkpt lat="46.20968" lon="-1.45417">
        <ele>2.49022</ele>
        <time>2022-05-17T13:51:16.000Z</time>
      </trkpt>
      <trkpt lat="46.20967" lon="-1.45413">
        <ele>2.45835</ele>
        <time>2022-05-17T13:51:17.000Z</time>
      </trkpt>
      <trkpt lat="46.20965" lon="-1.45409">
        <ele>2.4202</ele>
        <time>2022-05-17T13:51:18.000Z</time>
      </trkpt>
      <trkpt lat="46.20964" lon="-1.45406">
        <ele>2.39003</ele>
        <time>2022-05-17T13:51:19.000Z</time>
      </trkpt>
      <trkpt lat="46.20963" lon="-1.45401">
        <ele>2.36997</ele>
        <time>2022-05-17T13:51:20.000Z</time>
      </trkpt>
      <trkpt lat="46.20962" lon="-1.45398">
        <ele>2.35789</ele>
        <time>2022-05-17T13:51:21.000Z</time>
      </trkpt>
      <trkpt lat="46.20961" lon="-1.45394">
        <ele>2.35251</ele>
        <time>2022-05-17T13:51:22.000Z</time>
      </trkpt>
      <trkpt lat="46.2096" lon="-1.4539">
        <ele>2.3524</ele>
        <time>2022-05-17T13:51:23.000Z</time>
      </trkpt>
      <trkpt lat="46.20959" lon="-1.45386">
        <ele>2.35578</ele>
        <time>2022-05-17T13:51:24.000Z</time>
      </trkpt>
      <trkpt lat="46.20958" lon="-1.45382">
        <ele>2.36173</ele>
        <time>2022-05-17T13:51:25.000Z</time>
      </trkpt>
      <trkpt lat="46.20956" lon="-1.45376">
        <ele>2.36686</ele>
        <time>2022-05-17T13:51:26.000Z</time>
      </trkpt>
      <trkpt lat="46.20955" lon="-1.45371">
        <ele>2.36726</ele>
        <time>2022-05-17T13:51:27.000Z</time>
      </trkpt>
      <trkpt lat="46.20954" lon="-1.45365">
        <ele>2.36191</ele>
        <time>2022-05-17T13:51:28.000Z</time>
      </trkpt>
      <trkpt lat="46.20953" lon="-1.45358">
        <ele>2.35066</ele>
        <time>2022-05-17T13:51:29.000Z</time>
      </trkpt>
      <trkpt lat="46.20951" lon="-1.45352">
        <ele>2.33648</ele>
        <time>2022-05-17T13:51:30.000Z</time>
      </trkpt>
      <trkpt lat="46.2095" lon="-1.45346">
        <ele>2.31973</ele>
        <time>2022-05-17T13:51:31.000Z</time>
      </trkpt>
      <trkpt lat="46.20948" lon="-1.45342">
        <ele>2.30016</ele>
        <time>2022-05-17T13:51:32.000Z</time>
      </trkpt>
      <trkpt lat="46.20947" lon="-1.45338">
        <ele>2.28522</ele>
        <time>2022-05-17T13:51:33.000Z</time>
      </trkpt>
      <trkpt lat="46.20945" lon="-1.45335">
        <ele>2.27833</ele>
        <time>2022-05-17T13:51:34.000Z</time>
      </trkpt>
      <trkpt lat="46.20943" lon="-1.45332">
        <ele>2.27126</ele>
        <time>2022-05-17T13:51:35.000Z</time>
      </trkpt>
      <trkpt lat="46.20941" lon="-1.45328">
        <ele>2.26343</ele>
        <time>2022-05-17T13:51:36.000Z</time>
      </trkpt>
      <trkpt lat="46.2094" lon="-1.45323">
        <ele>2.25417</ele>
        <time>2022-05-17T13:51:37.000Z</time>
      </trkpt>
      <trkpt lat="46.20938" lon="-1.45318">
        <ele>2.24896</ele>
        <time>2022-05-17T13:51:38.000Z</time>
      </trkpt>
      <trkpt lat="46.20936" lon="-1.45313">
        <ele>2.241</ele>
        <time>2022-05-17T13:51:39.000Z</time>
      </trkpt>
      <trkpt lat="46.20935" lon="-1.45308">
        <ele>2.22519</ele>
        <time>2022-05-17T13:51:40.000Z</time>
      </trkpt>
      <trkpt lat="46.20933" lon="-1.45304">
        <ele>2.2052</ele>
        <time>2022-05-17T13:51:41.000Z</time>
      </trkpt>
      <trkpt lat="46.20932" lon="-1.45299">
        <ele>2.17983</ele>
        <time>2022-05-17T13:51:42.000Z</time>
      </trkpt>
      <trkpt lat="46.20931" lon="-1.45295">
        <ele>2.15539</ele>
        <time>2022-05-17T13:51:43.000Z</time>
      </trkpt>
      <trkpt lat="46.2093" lon="-1.45291">
        <ele>2.13116</ele>
        <time>2022-05-17T13:51:44.000Z</time>
      </trkpt>
      <trkpt lat="46.20928" lon="-1.45286">
        <ele>2.10916</ele>
        <time>2022-05-17T13:51:45.000Z</time>
      </trkpt>
      <trkpt lat="46.20927" lon="-1.45283">
        <ele>2.09795</ele>
        <time>2022-05-17T13:51:46.000Z</time>
      </trkpt>
      <trkpt lat="46.20925" lon="-1.45279">
        <ele>2.09976</ele>
        <time>2022-05-17T13:51:47.000Z</time>
      </trkpt>
      <trkpt lat="46.20923" lon="-1.45275">
        <ele>2.11911</ele>
        <time>2022-05-17T13:51:48.000Z</time>
      </trkpt>
      <trkpt lat="46.20921" lon="-1.45272">
        <ele>2.16241</ele>
        <time>2022-05-17T13:51:49.000Z</time>
      </trkpt>
      <trkpt lat="46.20919" lon="-1.45267">
        <ele>2.22716</ele>
        <time>2022-05-17T13:51:50.000Z</time>
      </trkpt>
      <trkpt lat="46.20917" lon="-1.45263">
        <ele>2.31439</ele>
        <time>2022-05-17T13:51:51.000Z</time>
      </trkpt>
      <trkpt lat="46.20915" lon="-1.45257">
        <ele>2.40164</ele>
        <time>2022-05-17T13:51:52.000Z</time>
      </trkpt>
      <trkpt lat="46.20914" lon="-1.45252">
        <ele>2.44831</ele>
        <time>2022-05-17T13:51:53.000Z</time>
      </trkpt>
      <trkpt lat="46.20912" lon="-1.45247">
        <ele>2.4493</ele>
        <time>2022-05-17T13:51:54.000Z</time>
      </trkpt>
      <trkpt lat="46.20911" lon="-1.45243">
        <ele>2.41927</ele>
        <time>2022-05-17T13:51:55.000Z</time>
      </trkpt>
      <trkpt lat="46.2091" lon="-1.45238">
        <ele>2.36993</ele>
        <time>2022-05-17T13:51:56.000Z</time>
      </trkpt>
      <trkpt lat="46.20908" lon="-1.45233">
        <ele>2.3117</ele>
        <time>2022-05-17T13:51:57.000Z</time>
      </trkpt>
      <trkpt lat="46.20907" lon="-1.45229">
        <ele>2.26174</ele>
        <time>2022-05-17T13:51:58.000Z</time>
      </trkpt>
      <trkpt lat="46.20906" lon="-1.45226">
        <ele>2.22706</ele>
        <time>2022-05-17T13:51:59.000Z</time>
      </trkpt>
      <trkpt lat="46.20904" lon="-1.45222">
        <ele>2.20066</ele>
        <time>2022-05-17T13:52:00.000Z</time>
      </trkpt>
      <trkpt lat="46.20903" lon="-1.45217">
        <ele>2.19341</ele>
        <time>2022-05-17T13:52:01.000Z</time>
      </trkpt>
      <trkpt lat="46.20902" lon="-1.45212">
        <ele>2.21551</ele>
        <time>2022-05-17T13:52:02.000Z</time>
      </trkpt>
      <trkpt lat="46.20901" lon="-1.45208">
        <ele>2.26309</ele>
        <time>2022-05-17T13:52:03.000Z</time>
      </trkpt>
      <trkpt lat="46.20899" lon="-1.45204">
        <ele>2.33338</ele>
        <time>2022-05-17T13:52:04.000Z</time>
      </trkpt>
      <trkpt lat="46.20898" lon="-1.45199">
        <ele>2.43168</ele>
        <time>2022-05-17T13:52:05.000Z</time>
      </trkpt>
      <trkpt lat="46.20897" lon="-1.45195">
        <ele>2.53905</ele>
        <time>2022-05-17T13:52:06.000Z</time>
      </trkpt>
      <trkpt lat="46.20895" lon="-1.4519">
        <ele>2.64399</ele>
        <time>2022-05-17T13:52:07.000Z</time>
      </trkpt>
      <trkpt lat="46.20893" lon="-1.45186">
        <ele>2.71376</ele>
        <time>2022-05-17T13:52:08.000Z</time>
      </trkpt>
      <trkpt lat="46.20892" lon="-1.45181">
        <ele>2.73838</ele>
        <time>2022-05-17T13:52:09.000Z</time>
      </trkpt>
      <trkpt lat="46.2089" lon="-1.45176">
        <ele>2.72354</ele>
        <time>2022-05-17T13:52:10.000Z</time>
      </trkpt>
      <trkpt lat="46.20889" lon="-1.45171">
        <ele>2.66781</ele>
        <time>2022-05-17T13:52:11.000Z</time>
      </trkpt>
      <trkpt lat="46.20887" lon="-1.45167">
        <ele>2.58867</ele>
        <time>2022-05-17T13:52:12.000Z</time>
      </trkpt>
      <trkpt lat="46.20886" lon="-1.45161">
        <ele>2.49261</ele>
        <time>2022-05-17T13:52:13.000Z</time>
      </trkpt>
      <trkpt lat="46.20884" lon="-1.45156">
        <ele>2.38176</ele>
        <time>2022-05-17T13:52:14.000Z</time>
      </trkpt>
      <trkpt lat="46.20883" lon="-1.45152">
        <ele>2.29258</ele>
        <time>2022-05-17T13:52:15.000Z</time>
      </trkpt>
      <trkpt lat="46.20881" lon="-1.45147">
        <ele>2.23837</ele>
        <time>2022-05-17T13:52:16.000Z</time>
      </trkpt>
      <trkpt lat="46.2088" lon="-1.45142">
        <ele>2.21639</ele>
        <time>2022-05-17T13:52:17.000Z</time>
      </trkpt>
      <trkpt lat="46.20878" lon="-1.45137">
        <ele>2.23786</ele>
        <time>2022-05-17T13:52:18.000Z</time>
      </trkpt>
      <trkpt lat="46.20877" lon="-1.45133">
        <ele>2.29942</ele>
        <time>2022-05-17T13:52:19.000Z</time>
      </trkpt>
      <trkpt lat="46.20875" lon="-1.45128">
        <ele>2.39785</ele>
        <time>2022-05-17T13:52:20.000Z</time>
      </trkpt>
      <trkpt lat="46.20874" lon="-1.45122">
        <ele>2.51001</ele>
        <time>2022-05-17T13:52:21.000Z</time>
      </trkpt>
      <trkpt lat="46.20873" lon="-1.45116">
        <ele>2.57515</ele>
        <time>2022-05-17T13:52:22.000Z</time>
      </trkpt>
      <trkpt lat="46.20871" lon="-1.4511">
        <ele>2.58349</ele>
        <time>2022-05-17T13:52:23.000Z</time>
      </trkpt>
      <trkpt lat="46.20869" lon="-1.45105">
        <ele>2.54844</ele>
        <time>2022-05-17T13:52:24.000Z</time>
      </trkpt>
      <trkpt lat="46.20868" lon="-1.451">
        <ele>2.48977</ele>
        <time>2022-05-17T13:52:25.000Z</time>
      </trkpt>
      <trkpt lat="46.20866" lon="-1.45095">
        <ele>2.41936</ele>
        <time>2022-05-17T13:52:26.000Z</time>
      </trkpt>
      <trkpt lat="46.20863" lon="-1.4509">
        <ele>2.34335</ele>
        <time>2022-05-17T13:52:27.000Z</time>
      </trkpt>
      <trkpt lat="46.20861" lon="-1.45084">
        <ele>2.29349</ele>
        <time>2022-05-17T13:52:28.000Z</time>
      </trkpt>
      <trkpt lat="46.2086" lon="-1.45079">
        <ele>2.27555</ele>
        <time>2022-05-17T13:52:29.000Z</time>
      </trkpt>
      <trkpt lat="46.20858" lon="-1.45073">
        <ele>2.29277</ele>
        <time>2022-05-17T13:52:30.000Z</time>
      </trkpt>
      <trkpt lat="46.20856" lon="-1.45068">
        <ele>2.33502</ele>
        <time>2022-05-17T13:52:31.000Z</time>
      </trkpt>
      <trkpt lat="46.20854" lon="-1.45058">
        <ele>2.43726</ele>
        <time>2022-05-17T13:52:32.000Z</time>
      </trkpt>
      <trkpt lat="46.20852" lon="-1.45055">
        <ele>2.45012</ele>
        <time>2022-05-17T13:52:33.000Z</time>
      </trkpt>
      <trkpt lat="46.20852" lon="-1.4505">
        <ele>2.47815</ele>
        <time>2022-05-17T13:52:34.000Z</time>
      </trkpt>
      <trkpt lat="46.2085" lon="-1.45047">
        <ele>2.46066</ele>
        <time>2022-05-17T13:52:35.000Z</time>
      </trkpt>
      <trkpt lat="46.20848" lon="-1.45043">
        <ele>2.43814</ele>
        <time>2022-05-17T13:52:36.000Z</time>
      </trkpt>
      <trkpt lat="46.20847" lon="-1.45032">
        <ele>2.41586</ele>
        <time>2022-05-17T13:52:37.000Z</time>
      </trkpt>
      <trkpt lat="46.20846" lon="-1.45028">
        <ele>2.40398</ele>
        <time>2022-05-17T13:52:38.000Z</time>
      </trkpt>
      <trkpt lat="46.20843" lon="-1.45022">
        <ele>2.38183</ele>
        <time>2022-05-17T13:52:39.000Z</time>
      </trkpt>
      <trkpt lat="46.20842" lon="-1.45017">
        <ele>2.39113</ele>
        <time>2022-05-17T13:52:40.000Z</time>
      </trkpt>
      <trkpt lat="46.2084" lon="-1.45011">
        <ele>2.39069</ele>
        <time>2022-05-17T13:52:41.000Z</time>
      </trkpt>
      <trkpt lat="46.20838" lon="-1.45008">
        <ele>2.35923</ele>
        <time>2022-05-17T13:52:42.000Z</time>
      </trkpt>
      <trkpt lat="46.20836" lon="-1.45005">
        <ele>2.32308</ele>
        <time>2022-05-17T13:52:43.000Z</time>
      </trkpt>
      <trkpt lat="46.20834" lon="-1.45001">
        <ele>2.28498</ele>
        <time>2022-05-17T13:52:44.000Z</time>
      </trkpt>
      <trkpt lat="46.20832" lon="-1.44996">
        <ele>2.24387</ele>
        <time>2022-05-17T13:52:45.000Z</time>
      </trkpt>
      <trkpt lat="46.2083" lon="-1.44991">
        <ele>2.20362</ele>
        <time>2022-05-17T13:52:46.000Z</time>
      </trkpt>
      <trkpt lat="46.20827" lon="-1.44986">
        <ele>2.17708</ele>
        <time>2022-05-17T13:52:47.000Z</time>
      </trkpt>
      <trkpt lat="46.20825" lon="-1.44981">
        <ele>2.17553</ele>
        <time>2022-05-17T13:52:48.000Z</time>
      </trkpt>
      <trkpt lat="46.20823" lon="-1.44976">
        <ele>2.19421</ele>
        <time>2022-05-17T13:52:49.000Z</time>
      </trkpt>
      <trkpt lat="46.20821" lon="-1.4497">
        <ele>2.23339</ele>
        <time>2022-05-17T13:52:50.000Z</time>
      </trkpt>
      <trkpt lat="46.2082" lon="-1.44965">
        <ele>2.29376</ele>
        <time>2022-05-17T13:52:51.000Z</time>
      </trkpt>
      <trkpt lat="46.20818" lon="-1.4496">
        <ele>2.35389</ele>
        <time>2022-05-17T13:52:52.000Z</time>
      </trkpt>
      <trkpt lat="46.20817" lon="-1.44957">
        <ele>2.40135</ele>
        <time>2022-05-17T13:52:53.000Z</time>
      </trkpt>
      <trkpt lat="46.20816" lon="-1.44952">
        <ele>2.43824</ele>
        <time>2022-05-17T13:52:54.000Z</time>
      </trkpt>
      <trkpt lat="46.20816" lon="-1.44948">
        <ele>2.45725</ele>
        <time>2022-05-17T13:52:55.000Z</time>
      </trkpt>
      <trkpt lat="46.20814" lon="-1.44942">
        <ele>2.44234</ele>
        <time>2022-05-17T13:52:56.000Z</time>
      </trkpt>
      <trkpt lat="46.20813" lon="-1.44936">
        <ele>2.37407</ele>
        <time>2022-05-17T13:52:57.000Z</time>
      </trkpt>
      <trkpt lat="46.20811" lon="-1.4493">
        <ele>2.29079</ele>
        <time>2022-05-17T13:52:58.000Z</time>
      </trkpt>
      <trkpt lat="46.2081" lon="-1.44925">
        <ele>2.22844</ele>
        <time>2022-05-17T13:52:59.000Z</time>
      </trkpt>
      <trkpt lat="46.20808" lon="-1.44921">
        <ele>2.19664</ele>
        <time>2022-05-17T13:53:00.000Z</time>
      </trkpt>
      <trkpt lat="46.20806" lon="-1.44916">
        <ele>2.19659</ele>
        <time>2022-05-17T13:53:01.000Z</time>
      </trkpt>
      <trkpt lat="46.20805" lon="-1.44912">
        <ele>2.24501</ele>
        <time>2022-05-17T13:53:02.000Z</time>
      </trkpt>
      <trkpt lat="46.20803" lon="-1.44906">
        <ele>2.34518</ele>
        <time>2022-05-17T13:53:03.000Z</time>
      </trkpt>
      <trkpt lat="46.20801" lon="-1.44901">
        <ele>2.47034</ele>
        <time>2022-05-17T13:53:04.000Z</time>
      </trkpt>
      <trkpt lat="46.20799" lon="-1.44896">
        <ele>2.5846</ele>
        <time>2022-05-17T13:53:05.000Z</time>
      </trkpt>
      <trkpt lat="46.20797" lon="-1.44891">
        <ele>2.6765</ele>
        <time>2022-05-17T13:53:06.000Z</time>
      </trkpt>
      <trkpt lat="46.20794" lon="-1.44886">
        <ele>2.7343</ele>
        <time>2022-05-17T13:53:07.000Z</time>
      </trkpt>
      <trkpt lat="46.20792" lon="-1.44882">
        <ele>2.75536</ele>
        <time>2022-05-17T13:53:08.000Z</time>
      </trkpt>
      <trkpt lat="46.2079" lon="-1.44877">
        <ele>2.73381</ele>
        <time>2022-05-17T13:53:09.000Z</time>
      </trkpt>
      <trkpt lat="46.20788" lon="-1.4487">
        <ele>2.6611</ele>
        <time>2022-05-17T13:53:10.000Z</time>
      </trkpt>
      <trkpt lat="46.20787" lon="-1.44861">
        <ele>2.50045</ele>
        <time>2022-05-17T13:53:11.000Z</time>
      </trkpt>
      <trkpt lat="46.20784" lon="-1.44856">
        <ele>2.45836</ele>
        <time>2022-05-17T13:53:12.000Z</time>
      </trkpt>
      <trkpt lat="46.20783" lon="-1.44852">
        <ele>2.43977</ele>
        <time>2022-05-17T13:53:13.000Z</time>
      </trkpt>
      <trkpt lat="46.20781" lon="-1.44847">
        <ele>2.43655</ele>
        <time>2022-05-17T13:53:14.000Z</time>
      </trkpt>
      <trkpt lat="46.20779" lon="-1.4484">
        <ele>2.47984</ele>
        <time>2022-05-17T13:53:15.000Z</time>
      </trkpt>
      <trkpt lat="46.20776" lon="-1.44837">
        <ele>2.52823</ele>
        <time>2022-05-17T13:53:16.000Z</time>
      </trkpt>
      <trkpt lat="46.20774" lon="-1.4483">
        <ele>2.57327</ele>
        <time>2022-05-17T13:53:17.000Z</time>
      </trkpt>
      <trkpt lat="46.20772" lon="-1.44824">
        <ele>2.59895</ele>
        <time>2022-05-17T13:53:18.000Z</time>
      </trkpt>
      <trkpt lat="46.2077" lon="-1.44819">
        <ele>2.60002</ele>
        <time>2022-05-17T13:53:19.000Z</time>
      </trkpt>
      <trkpt lat="46.20768" lon="-1.44814">
        <ele>2.57407</ele>
        <time>2022-05-17T13:53:20.000Z</time>
      </trkpt>
      <trkpt lat="46.20767" lon="-1.44805">
        <ele>2.48305</ele>
        <time>2022-05-17T13:53:21.000Z</time>
      </trkpt>
      <trkpt lat="46.20766" lon="-1.44798">
        <ele>2.37984</ele>
        <time>2022-05-17T13:53:22.000Z</time>
      </trkpt>
      <trkpt lat="46.20764" lon="-1.44792">
        <ele>2.30133</ele>
        <time>2022-05-17T13:53:23.000Z</time>
      </trkpt>
      <trkpt lat="46.20762" lon="-1.44786">
        <ele>2.24115</ele>
        <time>2022-05-17T13:53:24.000Z</time>
      </trkpt>
      <trkpt lat="46.20761" lon="-1.44781">
        <ele>2.22008</ele>
        <time>2022-05-17T13:53:25.000Z</time>
      </trkpt>
      <trkpt lat="46.20758" lon="-1.44775">
        <ele>2.23084</ele>
        <time>2022-05-17T13:53:26.000Z</time>
      </trkpt>
      <trkpt lat="46.20757" lon="-1.44771">
        <ele>2.25547</ele>
        <time>2022-05-17T13:53:27.000Z</time>
      </trkpt>
      <trkpt lat="46.20755" lon="-1.44766">
        <ele>2.30055</ele>
        <time>2022-05-17T13:53:28.000Z</time>
      </trkpt>
      <trkpt lat="46.20754" lon="-1.44758">
        <ele>2.33829</ele>
        <time>2022-05-17T13:53:29.000Z</time>
      </trkpt>
      <trkpt lat="46.20752" lon="-1.44753">
        <ele>2.35545</ele>
        <time>2022-05-17T13:53:30.000Z</time>
      </trkpt>
      <trkpt lat="46.2075" lon="-1.44749">
        <ele>2.34912</ele>
        <time>2022-05-17T13:53:31.000Z</time>
      </trkpt>
      <trkpt lat="46.20749" lon="-1.44745">
        <ele>2.3271</ele>
        <time>2022-05-17T13:53:32.000Z</time>
      </trkpt>
      <trkpt lat="46.20747" lon="-1.4474">
        <ele>2.28592</ele>
        <time>2022-05-17T13:53:33.000Z</time>
      </trkpt>
      <trkpt lat="46.20745" lon="-1.44734">
        <ele>2.23845</ele>
        <time>2022-05-17T13:53:34.000Z</time>
      </trkpt>
      <trkpt lat="46.20742" lon="-1.44729">
        <ele>2.19667</ele>
        <time>2022-05-17T13:53:35.000Z</time>
      </trkpt>
      <trkpt lat="46.2074" lon="-1.44723">
        <ele>2.17083</ele>
        <time>2022-05-17T13:53:36.000Z</time>
      </trkpt>
      <trkpt lat="46.20737" lon="-1.44717">
        <ele>2.16159</ele>
        <time>2022-05-17T13:53:37.000Z</time>
      </trkpt>
      <trkpt lat="46.20733" lon="-1.44708">
        <ele>2.17134</ele>
        <time>2022-05-17T13:53:38.000Z</time>
      </trkpt>
      <trkpt lat="46.20732" lon="-1.44704">
        <ele>2.17989</ele>
        <time>2022-05-17T13:53:39.000Z</time>
      </trkpt>
      <trkpt lat="46.2073" lon="-1.44699">
        <ele>2.19068</ele>
        <time>2022-05-17T13:53:40.000Z</time>
      </trkpt>
      <trkpt lat="46.20728" lon="-1.44693">
        <ele>2.19693</ele>
        <time>2022-05-17T13:53:41.000Z</time>
      </trkpt>
      <trkpt lat="46.20726" lon="-1.44689">
        <ele>2.19635</ele>
        <time>2022-05-17T13:53:42.000Z</time>
      </trkpt>
      <trkpt lat="46.20725" lon="-1.44684">
        <ele>2.19297</ele>
        <time>2022-05-17T13:53:43.000Z</time>
      </trkpt>
      <trkpt lat="46.20723" lon="-1.4468">
        <ele>2.19136</ele>
        <time>2022-05-17T13:53:44.000Z</time>
      </trkpt>
      <trkpt lat="46.20721" lon="-1.44675">
        <ele>2.19947</ele>
        <time>2022-05-17T13:53:45.000Z</time>
      </trkpt>
      <trkpt lat="46.20719" lon="-1.4467">
        <ele>2.22678</ele>
        <time>2022-05-17T13:53:46.000Z</time>
      </trkpt>
      <trkpt lat="46.20719" lon="-1.44663">
        <ele>2.27047</ele>
        <time>2022-05-17T13:53:47.000Z</time>
      </trkpt>
      <trkpt lat="46.20717" lon="-1.44657">
        <ele>2.32137</ele>
        <time>2022-05-17T13:53:48.000Z</time>
      </trkpt>
      <trkpt lat="46.20716" lon="-1.44652">
        <ele>2.35832</ele>
        <time>2022-05-17T13:53:49.000Z</time>
      </trkpt>
      <trkpt lat="46.20714" lon="-1.44648">
        <ele>2.381</ele>
        <time>2022-05-17T13:53:50.000Z</time>
      </trkpt>
      <trkpt lat="46.20713" lon="-1.44643">
        <ele>2.38657</ele>
        <time>2022-05-17T13:53:51.000Z</time>
      </trkpt>
      <trkpt lat="46.20711" lon="-1.44638">
        <ele>2.37223</ele>
        <time>2022-05-17T13:53:52.000Z</time>
      </trkpt>
      <trkpt lat="46.2071" lon="-1.44632">
        <ele>2.33965</ele>
        <time>2022-05-17T13:53:53.000Z</time>
      </trkpt>
      <trkpt lat="46.20708" lon="-1.44626">
        <ele>2.30266</ele>
        <time>2022-05-17T13:53:54.000Z</time>
      </trkpt>
      <trkpt lat="46.20706" lon="-1.44621">
        <ele>2.27417</ele>
        <time>2022-05-17T13:53:55.000Z</time>
      </trkpt>
      <trkpt lat="46.20704" lon="-1.44616">
        <ele>2.2604</ele>
        <time>2022-05-17T13:53:56.000Z</time>
      </trkpt>
      <trkpt lat="46.20702" lon="-1.44612">
        <ele>2.2659</ele>
        <time>2022-05-17T13:53:57.000Z</time>
      </trkpt>
      <trkpt lat="46.20701" lon="-1.44607">
        <ele>2.29287</ele>
        <time>2022-05-17T13:53:58.000Z</time>
      </trkpt>
      <trkpt lat="46.20699" lon="-1.44603">
        <ele>2.33894</ele>
        <time>2022-05-17T13:53:59.000Z</time>
      </trkpt>
      <trkpt lat="46.20697" lon="-1.44597">
        <ele>2.40208</ele>
        <time>2022-05-17T13:54:00.000Z</time>
      </trkpt>
      <trkpt lat="46.20696" lon="-1.44593">
        <ele>2.46085</ele>
        <time>2022-05-17T13:54:01.000Z</time>
      </trkpt>
      <trkpt lat="46.20694" lon="-1.44587">
        <ele>2.51066</ele>
        <time>2022-05-17T13:54:02.000Z</time>
      </trkpt>
      <trkpt lat="46.20692" lon="-1.44583">
        <ele>2.53656</ele>
        <time>2022-05-17T13:54:03.000Z</time>
      </trkpt>
      <trkpt lat="46.2069" lon="-1.44577">
        <ele>2.53215</ele>
        <time>2022-05-17T13:54:04.000Z</time>
      </trkpt>
      <trkpt lat="46.20688" lon="-1.44572">
        <ele>2.50219</ele>
        <time>2022-05-17T13:54:05.000Z</time>
      </trkpt>
      <trkpt lat="46.20687" lon="-1.44567">
        <ele>2.45395</ele>
        <time>2022-05-17T13:54:06.000Z</time>
      </trkpt>
      <trkpt lat="46.20685" lon="-1.44561">
        <ele>2.3942</ele>
        <time>2022-05-17T13:54:07.000Z</time>
      </trkpt>
      <trkpt lat="46.20683" lon="-1.44556">
        <ele>2.34322</ele>
        <time>2022-05-17T13:54:08.000Z</time>
      </trkpt>
      <trkpt lat="46.20681" lon="-1.44551">
        <ele>2.3125</ele>
        <time>2022-05-17T13:54:09.000Z</time>
      </trkpt>
      <trkpt lat="46.2068" lon="-1.44547">
        <ele>2.30692</ele>
        <time>2022-05-17T13:54:10.000Z</time>
      </trkpt>
      <trkpt lat="46.20678" lon="-1.44541">
        <ele>2.34381</ele>
        <time>2022-05-17T13:54:11.000Z</time>
      </trkpt>
      <trkpt lat="46.20676" lon="-1.44536">
        <ele>2.43144</ele>
        <time>2022-05-17T13:54:12.000Z</time>
      </trkpt>
      <trkpt lat="46.20674" lon="-1.4453">
        <ele>2.55138</ele>
        <time>2022-05-17T13:54:13.000Z</time>
      </trkpt>
      <trkpt lat="46.20672" lon="-1.44525">
        <ele>2.66783</ele>
        <time>2022-05-17T13:54:14.000Z</time>
      </trkpt>
      <trkpt lat="46.20671" lon="-1.4452">
        <ele>2.75374</ele>
        <time>2022-05-17T13:54:15.000Z</time>
      </trkpt>
      <trkpt lat="46.20669" lon="-1.44516">
        <ele>2.79431</ele>
        <time>2022-05-17T13:54:16.000Z</time>
      </trkpt>
      <trkpt lat="46.20668" lon="-1.4451">
        <ele>2.78146</ele>
        <time>2022-05-17T13:54:17.000Z</time>
      </trkpt>
      <trkpt lat="46.20666" lon="-1.44504">
        <ele>2.72543</ele>
        <time>2022-05-17T13:54:18.000Z</time>
      </trkpt>
      <trkpt lat="46.20665" lon="-1.44498">
        <ele>2.65318</ele>
        <time>2022-05-17T13:54:19.000Z</time>
      </trkpt>
      <trkpt lat="46.20664" lon="-1.44493">
        <ele>2.58632</ele>
        <time>2022-05-17T13:54:20.000Z</time>
      </trkpt>
      <trkpt lat="46.20663" lon="-1.44487">
        <ele>2.5335</ele>
        <time>2022-05-17T13:54:21.000Z</time>
      </trkpt>
      <trkpt lat="46.20662" lon="-1.44482">
        <ele>2.50348</ele>
        <time>2022-05-17T13:54:22.000Z</time>
      </trkpt>
      <trkpt lat="46.2066" lon="-1.44476">
        <ele>2.50305</ele>
        <time>2022-05-17T13:54:23.000Z</time>
      </trkpt>
      <trkpt lat="46.20659" lon="-1.44471">
        <ele>2.52979</ele>
        <time>2022-05-17T13:54:24.000Z</time>
      </trkpt>
      <trkpt lat="46.20657" lon="-1.44466">
        <ele>2.5718</ele>
        <time>2022-05-17T13:54:25.000Z</time>
      </trkpt>
      <trkpt lat="46.20656" lon="-1.44461">
        <ele>2.616</ele>
        <time>2022-05-17T13:54:26.000Z</time>
      </trkpt>
      <trkpt lat="46.20655" lon="-1.44456">
        <ele>2.65887</ele>
        <time>2022-05-17T13:54:27.000Z</time>
      </trkpt>
      <trkpt lat="46.20653" lon="-1.4445">
        <ele>2.68389</ele>
        <time>2022-05-17T13:54:28.000Z</time>
      </trkpt>
      <trkpt lat="46.20652" lon="-1.44443">
        <ele>2.66793</ele>
        <time>2022-05-17T13:54:29.000Z</time>
      </trkpt>
      <trkpt lat="46.2065" lon="-1.44437">
        <ele>2.62192</ele>
        <time>2022-05-17T13:54:30.000Z</time>
      </trkpt>
      <trkpt lat="46.20648" lon="-1.44432">
        <ele>2.58828</ele>
        <time>2022-05-17T13:54:31.000Z</time>
      </trkpt>
      <trkpt lat="46.20647" lon="-1.44427">
        <ele>2.58338</ele>
        <time>2022-05-17T13:54:32.000Z</time>
      </trkpt>
      <trkpt lat="46.20645" lon="-1.44421">
        <ele>2.6163</ele>
        <time>2022-05-17T13:54:33.000Z</time>
      </trkpt>
      <trkpt lat="46.20643" lon="-1.44416">
        <ele>2.70551</ele>
        <time>2022-05-17T13:54:34.000Z</time>
      </trkpt>
      <trkpt lat="46.20641" lon="-1.4441">
        <ele>2.79569</ele>
        <time>2022-05-17T13:54:35.000Z</time>
      </trkpt>
      <trkpt lat="46.20639" lon="-1.44404">
        <ele>2.86514</ele>
        <time>2022-05-17T13:54:36.000Z</time>
      </trkpt>
      <trkpt lat="46.20638" lon="-1.44399">
        <ele>2.9102</ele>
        <time>2022-05-17T13:54:37.000Z</time>
      </trkpt>
      <trkpt lat="46.20637" lon="-1.44394">
        <ele>2.93229</ele>
        <time>2022-05-17T13:54:38.000Z</time>
      </trkpt>
      <trkpt lat="46.20636" lon="-1.44389">
        <ele>2.9424</ele>
        <time>2022-05-17T13:54:39.000Z</time>
      </trkpt>
      <trkpt lat="46.20635" lon="-1.44384">
        <ele>2.94338</ele>
        <time>2022-05-17T13:54:40.000Z</time>
      </trkpt>
      <trkpt lat="46.20633" lon="-1.4438">
        <ele>2.92722</ele>
        <time>2022-05-17T13:54:41.000Z</time>
      </trkpt>
      <trkpt lat="46.2063" lon="-1.44375">
        <ele>2.86443</ele>
        <time>2022-05-17T13:54:42.000Z</time>
      </trkpt>
      <trkpt lat="46.20628" lon="-1.4437">
        <ele>2.76684</ele>
        <time>2022-05-17T13:54:43.000Z</time>
      </trkpt>
      <trkpt lat="46.20626" lon="-1.44365">
        <ele>2.68243</ele>
        <time>2022-05-17T13:54:44.000Z</time>
      </trkpt>
      <trkpt lat="46.20624" lon="-1.44361">
        <ele>2.61642</ele>
        <time>2022-05-17T13:54:45.000Z</time>
      </trkpt>
      <trkpt lat="46.20622" lon="-1.44356">
        <ele>2.56744</ele>
        <time>2022-05-17T13:54:46.000Z</time>
      </trkpt>
      <trkpt lat="46.2062" lon="-1.44352">
        <ele>2.5409</ele>
        <time>2022-05-17T13:54:47.000Z</time>
      </trkpt>
      <trkpt lat="46.20619" lon="-1.44347">
        <ele>2.53097</ele>
        <time>2022-05-17T13:54:48.000Z</time>
      </trkpt>
      <trkpt lat="46.20617" lon="-1.44342">
        <ele>2.52341</ele>
        <time>2022-05-17T13:54:49.000Z</time>
      </trkpt>
      <trkpt lat="46.20617" lon="-1.44337">
        <ele>2.51595</ele>
        <time>2022-05-17T13:54:50.000Z</time>
      </trkpt>
      <trkpt lat="46.20616" lon="-1.44332">
        <ele>2.50911</ele>
        <time>2022-05-17T13:54:51.000Z</time>
      </trkpt>
      <trkpt lat="46.20614" lon="-1.44327">
        <ele>2.50502</ele>
        <time>2022-05-17T13:54:52.000Z</time>
      </trkpt>
      <trkpt lat="46.20613" lon="-1.44322">
        <ele>2.50659</ele>
        <time>2022-05-17T13:54:53.000Z</time>
      </trkpt>
      <trkpt lat="46.20611" lon="-1.44318">
        <ele>2.51105</ele>
        <time>2022-05-17T13:54:54.000Z</time>
      </trkpt>
      <trkpt lat="46.20609" lon="-1.44313">
        <ele>2.52138</ele>
        <time>2022-05-17T13:54:55.000Z</time>
      </trkpt>
      <trkpt lat="46.20607" lon="-1.44308">
        <ele>2.53759</ele>
        <time>2022-05-17T13:54:56.000Z</time>
      </trkpt>
      <trkpt lat="46.20605" lon="-1.44302">
        <ele>2.55858</ele>
        <time>2022-05-17T13:54:57.000Z</time>
      </trkpt>
      <trkpt lat="46.20603" lon="-1.44297">
        <ele>2.58136</ele>
        <time>2022-05-17T13:54:58.000Z</time>
      </trkpt>
      <trkpt lat="46.20602" lon="-1.44292">
        <ele>2.60407</ele>
        <time>2022-05-17T13:54:59.000Z</time>
      </trkpt>
      <trkpt lat="46.206" lon="-1.44287">
        <ele>2.62355</ele>
        <time>2022-05-17T13:55:00.000Z</time>
      </trkpt>
      <trkpt lat="46.20598" lon="-1.44282">
        <ele>2.63484</ele>
        <time>2022-05-17T13:55:01.000Z</time>
      </trkpt>
      <trkpt lat="46.20597" lon="-1.44278">
        <ele>2.63672</ele>
        <time>2022-05-17T13:55:02.000Z</time>
      </trkpt>
      <trkpt lat="46.20595" lon="-1.44273">
        <ele>2.62972</ele>
        <time>2022-05-17T13:55:03.000Z</time>
      </trkpt>
      <trkpt lat="46.20593" lon="-1.44269">
        <ele>2.6145</ele>
        <time>2022-05-17T13:55:04.000Z</time>
      </trkpt>
      <trkpt lat="46.20592" lon="-1.44264">
        <ele>2.59613</ele>
        <time>2022-05-17T13:55:05.000Z</time>
      </trkpt>
      <trkpt lat="46.20591" lon="-1.44259">
        <ele>2.57413</ele>
        <time>2022-05-17T13:55:06.000Z</time>
      </trkpt>
      <trkpt lat="46.20589" lon="-1.44254">
        <ele>2.55705</ele>
        <time>2022-05-17T13:55:07.000Z</time>
      </trkpt>
      <trkpt lat="46.20587" lon="-1.4425">
        <ele>2.55144</ele>
        <time>2022-05-17T13:55:08.000Z</time>
      </trkpt>
      <trkpt lat="46.20586" lon="-1.44245">
        <ele>2.56321</ele>
        <time>2022-05-17T13:55:09.000Z</time>
      </trkpt>
      <trkpt lat="46.20584" lon="-1.4424">
        <ele>2.59816</ele>
        <time>2022-05-17T13:55:10.000Z</time>
      </trkpt>
      <trkpt lat="46.20582" lon="-1.44236">
        <ele>2.65692</ele>
        <time>2022-05-17T13:55:11.000Z</time>
      </trkpt>
      <trkpt lat="46.2058" lon="-1.44231">
        <ele>2.7366</ele>
        <time>2022-05-17T13:55:12.000Z</time>
      </trkpt>
      <trkpt lat="46.20578" lon="-1.44226">
        <ele>2.83008</ele>
        <time>2022-05-17T13:55:13.000Z</time>
      </trkpt>
      <trkpt lat="46.20577" lon="-1.44222">
        <ele>2.91394</ele>
        <time>2022-05-17T13:55:14.000Z</time>
      </trkpt>
      <trkpt lat="46.20575" lon="-1.44217">
        <ele>2.97466</ele>
        <time>2022-05-17T13:55:15.000Z</time>
      </trkpt>
      <trkpt lat="46.20573" lon="-1.44213">
        <ele>3.00608</ele>
        <time>2022-05-17T13:55:16.000Z</time>
      </trkpt>
      <trkpt lat="46.20571" lon="-1.44209">
        <ele>2.99793</ele>
        <time>2022-05-17T13:55:17.000Z</time>
      </trkpt>
      <trkpt lat="46.2057" lon="-1.44205">
        <ele>2.95643</ele>
        <time>2022-05-17T13:55:18.000Z</time>
      </trkpt>
      <trkpt lat="46.20568" lon="-1.442">
        <ele>2.89474</ele>
        <time>2022-05-17T13:55:19.000Z</time>
      </trkpt>
      <trkpt lat="46.20567" lon="-1.44196">
        <ele>2.83056</ele>
        <time>2022-05-17T13:55:20.000Z</time>
      </trkpt>
      <trkpt lat="46.20565" lon="-1.44192">
        <ele>2.76878</ele>
        <time>2022-05-17T13:55:21.000Z</time>
      </trkpt>
      <trkpt lat="46.20564" lon="-1.44187">
        <ele>2.71808</ele>
        <time>2022-05-17T13:55:22.000Z</time>
      </trkpt>
      <trkpt lat="46.20563" lon="-1.44184">
        <ele>2.69209</ele>
        <time>2022-05-17T13:55:23.000Z</time>
      </trkpt>
      <trkpt lat="46.20561" lon="-1.4418">
        <ele>2.68347</ele>
        <time>2022-05-17T13:55:24.000Z</time>
      </trkpt>
      <trkpt lat="46.2056" lon="-1.44177">
        <ele>2.68493</ele>
        <time>2022-05-17T13:55:25.000Z</time>
      </trkpt>
      <trkpt lat="46.20558" lon="-1.44173">
        <ele>2.69578</ele>
        <time>2022-05-17T13:55:26.000Z</time>
      </trkpt>
      <trkpt lat="46.20556" lon="-1.44169">
        <ele>2.71623</ele>
        <time>2022-05-17T13:55:27.000Z</time>
      </trkpt>
      <trkpt lat="46.20554" lon="-1.44163">
        <ele>2.74241</ele>
        <time>2022-05-17T13:55:28.000Z</time>
      </trkpt>
      <trkpt lat="46.20553" lon="-1.44158">
        <ele>2.76725</ele>
        <time>2022-05-17T13:55:29.000Z</time>
      </trkpt>
      <trkpt lat="46.20551" lon="-1.44152">
        <ele>2.78166</ele>
        <time>2022-05-17T13:55:30.000Z</time>
      </trkpt>
      <trkpt lat="46.20549" lon="-1.44146">
        <ele>2.77507</ele>
        <time>2022-05-17T13:55:31.000Z</time>
      </trkpt>
      <trkpt lat="46.20546" lon="-1.4414">
        <ele>2.76016</ele>
        <time>2022-05-17T13:55:32.000Z</time>
      </trkpt>
      <trkpt lat="46.20543" lon="-1.44135">
        <ele>2.75971</ele>
        <time>2022-05-17T13:55:33.000Z</time>
      </trkpt>
      <trkpt lat="46.20541" lon="-1.44129">
        <ele>2.78838</ele>
        <time>2022-05-17T13:55:34.000Z</time>
      </trkpt>
      <trkpt lat="46.20538" lon="-1.44123">
        <ele>2.83921</ele>
        <time>2022-05-17T13:55:35.000Z</time>
      </trkpt>
      <trkpt lat="46.20536" lon="-1.44116">
        <ele>2.88519</ele>
        <time>2022-05-17T13:55:36.000Z</time>
      </trkpt>
      <trkpt lat="46.20533" lon="-1.44102">
        <ele>2.81942</ele>
        <time>2022-05-17T13:55:37.000Z</time>
      </trkpt>
      <trkpt lat="46.20529" lon="-1.441">
        <ele>2.79243</ele>
        <time>2022-05-17T13:55:38.000Z</time>
      </trkpt>
      <trkpt lat="46.20528" lon="-1.44095">
        <ele>2.72567</ele>
        <time>2022-05-17T13:55:39.000Z</time>
      </trkpt>
      <trkpt lat="46.20525" lon="-1.44094">
        <ele>2.70662</ele>
        <time>2022-05-17T13:55:41.000Z</time>
      </trkpt>
      <trkpt lat="46.20524" lon="-1.44091">
        <ele>2.65787</ele>
        <time>2022-05-17T13:55:42.000Z</time>
      </trkpt>
      <trkpt lat="46.20522" lon="-1.44082">
        <ele>2.58217</ele>
        <time>2022-05-17T13:55:43.000Z</time>
      </trkpt>
      <trkpt lat="46.20521" lon="-1.44079">
        <ele>2.56687</ele>
        <time>2022-05-17T13:55:44.000Z</time>
      </trkpt>
      <trkpt lat="46.20518" lon="-1.44073">
        <ele>2.55651</ele>
        <time>2022-05-17T13:55:45.000Z</time>
      </trkpt>
      <trkpt lat="46.20513" lon="-1.44064">
        <ele>2.57802</ele>
        <time>2022-05-17T13:55:46.000Z</time>
      </trkpt>
      <trkpt lat="46.20512" lon="-1.44061">
        <ele>2.59079</ele>
        <time>2022-05-17T13:55:47.000Z</time>
      </trkpt>
      <trkpt lat="46.20509" lon="-1.44055">
        <ele>2.60411</ele>
        <time>2022-05-17T13:55:48.000Z</time>
      </trkpt>
      <trkpt lat="46.20507" lon="-1.4405">
        <ele>2.60512</ele>
        <time>2022-05-17T13:55:49.000Z</time>
      </trkpt>
      <trkpt lat="46.20505" lon="-1.44045">
        <ele>2.59794</ele>
        <time>2022-05-17T13:55:50.000Z</time>
      </trkpt>
      <trkpt lat="46.20504" lon="-1.44041">
        <ele>2.59376</ele>
        <time>2022-05-17T13:55:51.000Z</time>
      </trkpt>
      <trkpt lat="46.20502" lon="-1.44037">
        <ele>2.59935</ele>
        <time>2022-05-17T13:55:52.000Z</time>
      </trkpt>
      <trkpt lat="46.205" lon="-1.44034">
        <ele>2.6171</ele>
        <time>2022-05-17T13:55:53.000Z</time>
      </trkpt>
      <trkpt lat="46.20499" lon="-1.44031">
        <ele>2.64414</ele>
        <time>2022-05-17T13:55:54.000Z</time>
      </trkpt>
      <trkpt lat="46.20497" lon="-1.44027">
        <ele>2.68447</ele>
        <time>2022-05-17T13:55:55.000Z</time>
      </trkpt>
      <trkpt lat="46.20496" lon="-1.44024">
        <ele>2.73014</ele>
        <time>2022-05-17T13:55:56.000Z</time>
      </trkpt>
      <trkpt lat="46.20495" lon="-1.4402">
        <ele>2.77297</ele>
        <time>2022-05-17T13:55:57.000Z</time>
      </trkpt>
      <trkpt lat="46.20494" lon="-1.44016">
        <ele>2.80604</ele>
        <time>2022-05-17T13:55:58.000Z</time>
      </trkpt>
      <trkpt lat="46.20492" lon="-1.44013">
        <ele>2.82502</ele>
        <time>2022-05-17T13:55:59.000Z</time>
      </trkpt>
      <trkpt lat="46.20491" lon="-1.44009">
        <ele>2.82296</ele>
        <time>2022-05-17T13:56:00.000Z</time>
      </trkpt>
      <trkpt lat="46.2049" lon="-1.44005">
        <ele>2.79985</ele>
        <time>2022-05-17T13:56:01.000Z</time>
      </trkpt>
      <trkpt lat="46.20488" lon="-1.44001">
        <ele>2.7515</ele>
        <time>2022-05-17T13:56:02.000Z</time>
      </trkpt>
      <trkpt lat="46.20486" lon="-1.43997">
        <ele>2.68487</ele>
        <time>2022-05-17T13:56:03.000Z</time>
      </trkpt>
      <trkpt lat="46.20485" lon="-1.43993">
        <ele>2.62113</ele>
        <time>2022-05-17T13:56:04.000Z</time>
      </trkpt>
      <trkpt lat="46.20483" lon="-1.43989">
        <ele>2.57051</ele>
        <time>2022-05-17T13:56:05.000Z</time>
      </trkpt>
      <trkpt lat="46.20481" lon="-1.43985">
        <ele>2.52427</ele>
        <time>2022-05-17T13:56:06.000Z</time>
      </trkpt>
      <trkpt lat="46.20479" lon="-1.43981">
        <ele>2.49279</ele>
        <time>2022-05-17T13:56:07.000Z</time>
      </trkpt>
      <trkpt lat="46.20477" lon="-1.43977">
        <ele>2.4783</ele>
        <time>2022-05-17T13:56:08.000Z</time>
      </trkpt>
      <trkpt lat="46.20475" lon="-1.43972">
        <ele>2.47354</ele>
        <time>2022-05-17T13:56:09.000Z</time>
      </trkpt>
      <trkpt lat="46.20473" lon="-1.43967">
        <ele>2.47912</ele>
        <time>2022-05-17T13:56:10.000Z</time>
      </trkpt>
      <trkpt lat="46.20471" lon="-1.43962">
        <ele>2.48869</ele>
        <time>2022-05-17T13:56:11.000Z</time>
      </trkpt>
      <trkpt lat="46.20469" lon="-1.43957">
        <ele>2.49628</ele>
        <time>2022-05-17T13:56:12.000Z</time>
      </trkpt>
      <trkpt lat="46.20467" lon="-1.43953">
        <ele>2.4978</ele>
        <time>2022-05-17T13:56:13.000Z</time>
      </trkpt>
      <trkpt lat="46.20466" lon="-1.4395">
        <ele>2.49361</ele>
        <time>2022-05-17T13:56:14.000Z</time>
      </trkpt>
      <trkpt lat="46.20464" lon="-1.43946">
        <ele>2.48413</ele>
        <time>2022-05-17T13:56:15.000Z</time>
      </trkpt>
      <trkpt lat="46.20462" lon="-1.43942">
        <ele>2.47463</ele>
        <time>2022-05-17T13:56:16.000Z</time>
      </trkpt>
      <trkpt lat="46.20461" lon="-1.43938">
        <ele>2.46971</ele>
        <time>2022-05-17T13:56:17.000Z</time>
      </trkpt>
      <trkpt lat="46.20459" lon="-1.43934">
        <ele>2.46946</ele>
        <time>2022-05-17T13:56:18.000Z</time>
      </trkpt>
      <trkpt lat="46.20458" lon="-1.4393">
        <ele>2.47381</ele>
        <time>2022-05-17T13:56:19.000Z</time>
      </trkpt>
      <trkpt lat="46.20457" lon="-1.43926">
        <ele>2.4807</ele>
        <time>2022-05-17T13:56:20.000Z</time>
      </trkpt>
      <trkpt lat="46.20455" lon="-1.43921">
        <ele>2.49178</ele>
        <time>2022-05-17T13:56:21.000Z</time>
      </trkpt>
      <trkpt lat="46.20453" lon="-1.43916">
        <ele>2.50265</ele>
        <time>2022-05-17T13:56:22.000Z</time>
      </trkpt>
      <trkpt lat="46.20451" lon="-1.43911">
        <ele>2.50749</ele>
        <time>2022-05-17T13:56:23.000Z</time>
      </trkpt>
      <trkpt lat="46.20449" lon="-1.43907">
        <ele>2.5054</ele>
        <time>2022-05-17T13:56:24.000Z</time>
      </trkpt>
      <trkpt lat="46.20448" lon="-1.43902">
        <ele>2.49615</ele>
        <time>2022-05-17T13:56:25.000Z</time>
      </trkpt>
      <trkpt lat="46.20446" lon="-1.43898">
        <ele>2.47764</ele>
        <time>2022-05-17T13:56:26.000Z</time>
      </trkpt>
      <trkpt lat="46.20444" lon="-1.43893">
        <ele>2.45297</ele>
        <time>2022-05-17T13:56:27.000Z</time>
      </trkpt>
      <trkpt lat="46.20443" lon="-1.43889">
        <ele>2.42116</ele>
        <time>2022-05-17T13:56:28.000Z</time>
      </trkpt>
      <trkpt lat="46.20441" lon="-1.43884">
        <ele>2.38274</ele>
        <time>2022-05-17T13:56:29.000Z</time>
      </trkpt>
      <trkpt lat="46.20439" lon="-1.4388">
        <ele>2.34206</ele>
        <time>2022-05-17T13:56:30.000Z</time>
      </trkpt>
      <trkpt lat="46.20437" lon="-1.43875">
        <ele>2.31003</ele>
        <time>2022-05-17T13:56:31.000Z</time>
      </trkpt>
      <trkpt lat="46.20434" lon="-1.4387">
        <ele>2.2982</ele>
        <time>2022-05-17T13:56:32.000Z</time>
      </trkpt>
      <trkpt lat="46.20432" lon="-1.43865">
        <ele>2.30954</ele>
        <time>2022-05-17T13:56:33.000Z</time>
      </trkpt>
      <trkpt lat="46.2043" lon="-1.4386">
        <ele>2.33324</ele>
        <time>2022-05-17T13:56:34.000Z</time>
      </trkpt>
      <trkpt lat="46.20428" lon="-1.43856">
        <ele>2.35794</ele>
        <time>2022-05-17T13:56:35.000Z</time>
      </trkpt>
      <trkpt lat="46.20426" lon="-1.43851">
        <ele>2.37506</ele>
        <time>2022-05-17T13:56:36.000Z</time>
      </trkpt>
      <trkpt lat="46.20424" lon="-1.43847">
        <ele>2.374</ele>
        <time>2022-05-17T13:56:37.000Z</time>
      </trkpt>
      <trkpt lat="46.20422" lon="-1.43843">
        <ele>2.35368</ele>
        <time>2022-05-17T13:56:38.000Z</time>
      </trkpt>
      <trkpt lat="46.20421" lon="-1.43839">
        <ele>2.3249</ele>
        <time>2022-05-17T13:56:39.000Z</time>
      </trkpt>
      <trkpt lat="46.20419" lon="-1.43834">
        <ele>2.28786</ele>
        <time>2022-05-17T13:56:40.000Z</time>
      </trkpt>
      <trkpt lat="46.20416" lon="-1.43823">
        <ele>2.23761</ele>
        <time>2022-05-17T13:56:41.000Z</time>
      </trkpt>
      <trkpt lat="46.20413" lon="-1.43818">
        <ele>2.23362</ele>
        <time>2022-05-17T13:56:42.000Z</time>
      </trkpt>
      <trkpt lat="46.2041" lon="-1.43815">
        <ele>2.23547</ele>
        <time>2022-05-17T13:56:43.000Z</time>
      </trkpt>
      <trkpt lat="46.20408" lon="-1.43811">
        <ele>2.23192</ele>
        <time>2022-05-17T13:56:44.000Z</time>
      </trkpt>
      <trkpt lat="46.20406" lon="-1.43808">
        <ele>2.22349</ele>
        <time>2022-05-17T13:56:45.000Z</time>
      </trkpt>
      <trkpt lat="46.20405" lon="-1.43802">
        <ele>2.1985</ele>
        <time>2022-05-17T13:56:46.000Z</time>
      </trkpt>
      <trkpt lat="46.20403" lon="-1.43798">
        <ele>2.17445</ele>
        <time>2022-05-17T13:56:47.000Z</time>
      </trkpt>
      <trkpt lat="46.204" lon="-1.43795">
        <ele>2.13315</ele>
        <time>2022-05-17T13:56:48.000Z</time>
      </trkpt>
      <trkpt lat="46.20399" lon="-1.4379">
        <ele>2.10925</ele>
        <time>2022-05-17T13:56:49.000Z</time>
      </trkpt>
      <trkpt lat="46.20397" lon="-1.4378">
        <ele>2.08785</ele>
        <time>2022-05-17T13:56:50.000Z</time>
      </trkpt>
      <trkpt lat="46.20395" lon="-1.43775">
        <ele>2.09964</ele>
        <time>2022-05-17T13:56:51.000Z</time>
      </trkpt>
      <trkpt lat="46.20394" lon="-1.4377">
        <ele>2.14245</ele>
        <time>2022-05-17T13:56:52.000Z</time>
      </trkpt>
      <trkpt lat="46.20392" lon="-1.43764">
        <ele>2.21598</ele>
        <time>2022-05-17T13:56:53.000Z</time>
      </trkpt>
      <trkpt lat="46.2039" lon="-1.4376">
        <ele>2.29285</ele>
        <time>2022-05-17T13:56:54.000Z</time>
      </trkpt>
      <trkpt lat="46.20388" lon="-1.43756">
        <ele>2.36591</ele>
        <time>2022-05-17T13:56:55.000Z</time>
      </trkpt>
      <trkpt lat="46.20386" lon="-1.43752">
        <ele>2.41056</ele>
        <time>2022-05-17T13:56:56.000Z</time>
      </trkpt>
      <trkpt lat="46.20384" lon="-1.43747">
        <ele>2.42286</ele>
        <time>2022-05-17T13:56:57.000Z</time>
      </trkpt>
      <trkpt lat="46.20382" lon="-1.43743">
        <ele>2.39265</ele>
        <time>2022-05-17T13:56:58.000Z</time>
      </trkpt>
      <trkpt lat="46.20381" lon="-1.43738">
        <ele>2.32169</ele>
        <time>2022-05-17T13:56:59.000Z</time>
      </trkpt>
      <trkpt lat="46.20379" lon="-1.43734">
        <ele>2.22532</ele>
        <time>2022-05-17T13:57:00.000Z</time>
      </trkpt>
      <trkpt lat="46.20377" lon="-1.4373">
        <ele>2.12996</ele>
        <time>2022-05-17T13:57:01.000Z</time>
      </trkpt>
      <trkpt lat="46.20376" lon="-1.43725">
        <ele>2.03863</ele>
        <time>2022-05-17T13:57:02.000Z</time>
      </trkpt>
      <trkpt lat="46.20375" lon="-1.43722">
        <ele>1.9746</ele>
        <time>2022-05-17T13:57:03.000Z</time>
      </trkpt>
      <trkpt lat="46.20374" lon="-1.43718">
        <ele>1.9157</ele>
        <time>2022-05-17T13:57:04.000Z</time>
      </trkpt>
      <trkpt lat="46.20373" lon="-1.43714">
        <ele>1.88692</ele>
        <time>2022-05-17T13:57:05.000Z</time>
      </trkpt>
      <trkpt lat="46.20372" lon="-1.43709">
        <ele>1.87192</ele>
        <time>2022-05-17T13:57:06.000Z</time>
      </trkpt>
      <trkpt lat="46.20369" lon="-1.43704">
        <ele>1.89394</ele>
        <time>2022-05-17T13:57:07.000Z</time>
      </trkpt>
      <trkpt lat="46.20367" lon="-1.437">
        <ele>1.92689</ele>
        <time>2022-05-17T13:57:08.000Z</time>
      </trkpt>
      <trkpt lat="46.20365" lon="-1.43695">
        <ele>1.97522</ele>
        <time>2022-05-17T13:57:09.000Z</time>
      </trkpt>
      <trkpt lat="46.20363" lon="-1.43689">
        <ele>2.02283</ele>
        <time>2022-05-17T13:57:10.000Z</time>
      </trkpt>
      <trkpt lat="46.20361" lon="-1.43684">
        <ele>2.05225</ele>
        <time>2022-05-17T13:57:11.000Z</time>
      </trkpt>
      <trkpt lat="46.20359" lon="-1.4368">
        <ele>2.06142</ele>
        <time>2022-05-17T13:57:12.000Z</time>
      </trkpt>
      <trkpt lat="46.20358" lon="-1.43676">
        <ele>2.06445</ele>
        <time>2022-05-17T13:57:13.000Z</time>
      </trkpt>
      <trkpt lat="46.20356" lon="-1.43671">
        <ele>2.07464</ele>
        <time>2022-05-17T13:57:14.000Z</time>
      </trkpt>
      <trkpt lat="46.20354" lon="-1.43665">
        <ele>2.1067</ele>
        <time>2022-05-17T13:57:15.000Z</time>
      </trkpt>
      <trkpt lat="46.20352" lon="-1.4366">
        <ele>2.16533</ele>
        <time>2022-05-17T13:57:16.000Z</time>
      </trkpt>
      <trkpt lat="46.20349" lon="-1.43654">
        <ele>2.23896</ele>
        <time>2022-05-17T13:57:17.000Z</time>
      </trkpt>
      <trkpt lat="46.20345" lon="-1.43645">
        <ele>2.30882</ele>
        <time>2022-05-17T13:57:18.000Z</time>
      </trkpt>
      <trkpt lat="46.20343" lon="-1.43641">
        <ele>2.28753</ele>
        <time>2022-05-17T13:57:19.000Z</time>
      </trkpt>
      <trkpt lat="46.20342" lon="-1.43637">
        <ele>2.25423</ele>
        <time>2022-05-17T13:57:20.000Z</time>
      </trkpt>
      <trkpt lat="46.2034" lon="-1.43632">
        <ele>2.16456</ele>
        <time>2022-05-17T13:57:21.000Z</time>
      </trkpt>
      <trkpt lat="46.20339" lon="-1.43628">
        <ele>2.09892</ele>
        <time>2022-05-17T13:57:22.000Z</time>
      </trkpt>
      <trkpt lat="46.20337" lon="-1.43625">
        <ele>2.03243</ele>
        <time>2022-05-17T13:57:23.000Z</time>
      </trkpt>
      <trkpt lat="46.20335" lon="-1.43619">
        <ele>1.95185</ele>
        <time>2022-05-17T13:57:24.000Z</time>
      </trkpt>
      <trkpt lat="46.20332" lon="-1.43615">
        <ele>1.91164</ele>
        <time>2022-05-17T13:57:25.000Z</time>
      </trkpt>
      <trkpt lat="46.20331" lon="-1.4361">
        <ele>1.89331</ele>
        <time>2022-05-17T13:57:26.000Z</time>
      </trkpt>
      <trkpt lat="46.2033" lon="-1.43607">
        <ele>1.89574</ele>
        <time>2022-05-17T13:57:27.000Z</time>
      </trkpt>
      <trkpt lat="46.20328" lon="-1.43602">
        <ele>1.91022</ele>
        <time>2022-05-17T13:57:28.000Z</time>
      </trkpt>
      <trkpt lat="46.20326" lon="-1.43597">
        <ele>1.94415</ele>
        <time>2022-05-17T13:57:29.000Z</time>
      </trkpt>
      <trkpt lat="46.20324" lon="-1.43592">
        <ele>1.98276</ele>
        <time>2022-05-17T13:57:30.000Z</time>
      </trkpt>
      <trkpt lat="46.20322" lon="-1.43587">
        <ele>2.01968</ele>
        <time>2022-05-17T13:57:31.000Z</time>
      </trkpt>
      <trkpt lat="46.2032" lon="-1.43581">
        <ele>2.04292</ele>
        <time>2022-05-17T13:57:32.000Z</time>
      </trkpt>
      <trkpt lat="46.20318" lon="-1.43576">
        <ele>2.0553</ele>
        <time>2022-05-17T13:57:33.000Z</time>
      </trkpt>
      <trkpt lat="46.20316" lon="-1.43571">
        <ele>2.07507</ele>
        <time>2022-05-17T13:57:34.000Z</time>
      </trkpt>
      <trkpt lat="46.20314" lon="-1.43567">
        <ele>2.11695</ele>
        <time>2022-05-17T13:57:35.000Z</time>
      </trkpt>
      <trkpt lat="46.20312" lon="-1.43562">
        <ele>2.18326</ele>
        <time>2022-05-17T13:57:36.000Z</time>
      </trkpt>
      <trkpt lat="46.2031" lon="-1.43556">
        <ele>2.27662</ele>
        <time>2022-05-17T13:57:37.000Z</time>
      </trkpt>
      <trkpt lat="46.20308" lon="-1.43551">
        <ele>2.36237</ele>
        <time>2022-05-17T13:57:38.000Z</time>
      </trkpt>
      <trkpt lat="46.20306" lon="-1.43546">
        <ele>2.40621</ele>
        <time>2022-05-17T13:57:39.000Z</time>
      </trkpt>
      <trkpt lat="46.20304" lon="-1.43541">
        <ele>2.40005</ele>
        <time>2022-05-17T13:57:40.000Z</time>
      </trkpt>
      <trkpt lat="46.20302" lon="-1.43537">
        <ele>2.34394</ele>
        <time>2022-05-17T13:57:41.000Z</time>
      </trkpt>
      <trkpt lat="46.203" lon="-1.43533">
        <ele>2.26315</ele>
        <time>2022-05-17T13:57:42.000Z</time>
      </trkpt>
      <trkpt lat="46.20299" lon="-1.43529">
        <ele>2.17886</ele>
        <time>2022-05-17T13:57:43.000Z</time>
      </trkpt>
      <trkpt lat="46.20297" lon="-1.43525">
        <ele>2.10599</ele>
        <time>2022-05-17T13:57:44.000Z</time>
      </trkpt>
      <trkpt lat="46.20295" lon="-1.4352">
        <ele>2.05608</ele>
        <time>2022-05-17T13:57:45.000Z</time>
      </trkpt>
      <trkpt lat="46.20293" lon="-1.43516">
        <ele>2.03614</ele>
        <time>2022-05-17T13:57:46.000Z</time>
      </trkpt>
      <trkpt lat="46.20292" lon="-1.43511">
        <ele>2.04337</ele>
        <time>2022-05-17T13:57:47.000Z</time>
      </trkpt>
      <trkpt lat="46.2029" lon="-1.43507">
        <ele>2.06207</ele>
        <time>2022-05-17T13:57:48.000Z</time>
      </trkpt>
      <trkpt lat="46.20287" lon="-1.43502">
        <ele>2.07353</ele>
        <time>2022-05-17T13:57:49.000Z</time>
      </trkpt>
      <trkpt lat="46.20285" lon="-1.43497">
        <ele>2.06683</ele>
        <time>2022-05-17T13:57:50.000Z</time>
      </trkpt>
      <trkpt lat="46.20283" lon="-1.43492">
        <ele>2.04056</ele>
        <time>2022-05-17T13:57:51.000Z</time>
      </trkpt>
      <trkpt lat="46.20281" lon="-1.43488">
        <ele>2.00703</ele>
        <time>2022-05-17T13:57:52.000Z</time>
      </trkpt>
      <trkpt lat="46.2028" lon="-1.43483">
        <ele>1.97562</ele>
        <time>2022-05-17T13:57:53.000Z</time>
      </trkpt>
      <trkpt lat="46.20278" lon="-1.43479">
        <ele>1.95432</ele>
        <time>2022-05-17T13:57:54.000Z</time>
      </trkpt>
      <trkpt lat="46.20276" lon="-1.43475">
        <ele>1.95004</ele>
        <time>2022-05-17T13:57:55.000Z</time>
      </trkpt>
      <trkpt lat="46.20275" lon="-1.43471">
        <ele>1.96621</ele>
        <time>2022-05-17T13:57:56.000Z</time>
      </trkpt>
      <trkpt lat="46.20273" lon="-1.43467">
        <ele>2.00121</ele>
        <time>2022-05-17T13:57:57.000Z</time>
      </trkpt>
      <trkpt lat="46.20271" lon="-1.43462">
        <ele>2.05923</ele>
        <time>2022-05-17T13:57:58.000Z</time>
      </trkpt>
      <trkpt lat="46.20269" lon="-1.43458">
        <ele>2.13582</ele>
        <time>2022-05-17T13:57:59.000Z</time>
      </trkpt>
      <trkpt lat="46.20267" lon="-1.43454">
        <ele>2.21437</ele>
        <time>2022-05-17T13:58:00.000Z</time>
      </trkpt>
      <trkpt lat="46.20266" lon="-1.4345">
        <ele>2.27178</ele>
        <time>2022-05-17T13:58:01.000Z</time>
      </trkpt>
      <trkpt lat="46.20264" lon="-1.43446">
        <ele>2.31118</ele>
        <time>2022-05-17T13:58:02.000Z</time>
      </trkpt>
      <trkpt lat="46.20263" lon="-1.43441">
        <ele>2.32007</ele>
        <time>2022-05-17T13:58:03.000Z</time>
      </trkpt>
      <trkpt lat="46.20261" lon="-1.43437">
        <ele>2.29663</ele>
        <time>2022-05-17T13:58:04.000Z</time>
      </trkpt>
      <trkpt lat="46.20259" lon="-1.43433">
        <ele>2.25015</ele>
        <time>2022-05-17T13:58:05.000Z</time>
      </trkpt>
      <trkpt lat="46.20258" lon="-1.43429">
        <ele>2.1947</ele>
        <time>2022-05-17T13:58:06.000Z</time>
      </trkpt>
      <trkpt lat="46.20256" lon="-1.43424">
        <ele>2.12498</ele>
        <time>2022-05-17T13:58:07.000Z</time>
      </trkpt>
      <trkpt lat="46.20254" lon="-1.43419">
        <ele>2.06169</ele>
        <time>2022-05-17T13:58:08.000Z</time>
      </trkpt>
      <trkpt lat="46.20253" lon="-1.43413">
        <ele>2.02141</ele>
        <time>2022-05-17T13:58:09.000Z</time>
      </trkpt>
      <trkpt lat="46.20251" lon="-1.43408">
        <ele>2.00179</ele>
        <time>2022-05-17T13:58:10.000Z</time>
      </trkpt>
      <trkpt lat="46.20249" lon="-1.43404">
        <ele>1.99257</ele>
        <time>2022-05-17T13:58:11.000Z</time>
      </trkpt>
      <trkpt lat="46.20248" lon="-1.43401">
        <ele>1.98628</ele>
        <time>2022-05-17T13:58:12.000Z</time>
      </trkpt>
      <trkpt lat="46.20246" lon="-1.43396">
        <ele>1.97955</ele>
        <time>2022-05-17T13:58:13.000Z</time>
      </trkpt>
      <trkpt lat="46.20244" lon="-1.43392">
        <ele>1.9719</ele>
        <time>2022-05-17T13:58:14.000Z</time>
      </trkpt>
      <trkpt lat="46.20242" lon="-1.43387">
        <ele>1.96283</ele>
        <time>2022-05-17T13:58:15.000Z</time>
      </trkpt>
      <trkpt lat="46.2024" lon="-1.43382">
        <ele>1.95666</ele>
        <time>2022-05-17T13:58:16.000Z</time>
      </trkpt>
      <trkpt lat="46.20238" lon="-1.43377">
        <ele>1.95925</ele>
        <time>2022-05-17T13:58:17.000Z</time>
      </trkpt>
      <trkpt lat="46.20236" lon="-1.43373">
        <ele>1.97542</ele>
        <time>2022-05-17T13:58:18.000Z</time>
      </trkpt>
      <trkpt lat="46.20234" lon="-1.43367">
        <ele>2.0121</ele>
        <time>2022-05-17T13:58:19.000Z</time>
      </trkpt>
      <trkpt lat="46.20231" lon="-1.43362">
        <ele>2.0705</ele>
        <time>2022-05-17T13:58:20.000Z</time>
      </trkpt>
      <trkpt lat="46.20229" lon="-1.43357">
        <ele>2.12971</ele>
        <time>2022-05-17T13:58:21.000Z</time>
      </trkpt>
      <trkpt lat="46.20228" lon="-1.43352">
        <ele>2.18259</ele>
        <time>2022-05-17T13:58:22.000Z</time>
      </trkpt>
      <trkpt lat="46.20225" lon="-1.43347">
        <ele>2.222</ele>
        <time>2022-05-17T13:58:23.000Z</time>
      </trkpt>
      <trkpt lat="46.20223" lon="-1.43341">
        <ele>2.23137</ele>
        <time>2022-05-17T13:58:24.000Z</time>
      </trkpt>
      <trkpt lat="46.20221" lon="-1.43336">
        <ele>2.20259</ele>
        <time>2022-05-17T13:58:25.000Z</time>
      </trkpt>
      <trkpt lat="46.20219" lon="-1.43332">
        <ele>2.1581</ele>
        <time>2022-05-17T13:58:26.000Z</time>
      </trkpt>
      <trkpt lat="46.20218" lon="-1.43327">
        <ele>2.10449</ele>
        <time>2022-05-17T13:58:27.000Z</time>
      </trkpt>
      <trkpt lat="46.20216" lon="-1.43322">
        <ele>2.05095</ele>
        <time>2022-05-17T13:58:28.000Z</time>
      </trkpt>
      <trkpt lat="46.20214" lon="-1.43317">
        <ele>2.01077</ele>
        <time>2022-05-17T13:58:29.000Z</time>
      </trkpt>
      <trkpt lat="46.20212" lon="-1.43312">
        <ele>1.98717</ele>
        <time>2022-05-17T13:58:30.000Z</time>
      </trkpt>
      <trkpt lat="46.2021" lon="-1.43308">
        <ele>1.97575</ele>
        <time>2022-05-17T13:58:31.000Z</time>
      </trkpt>
      <trkpt lat="46.20209" lon="-1.43303">
        <ele>1.96772</ele>
        <time>2022-05-17T13:58:32.000Z</time>
      </trkpt>
      <trkpt lat="46.20207" lon="-1.43299">
        <ele>1.95916</ele>
        <time>2022-05-17T13:58:33.000Z</time>
      </trkpt>
      <trkpt lat="46.20205" lon="-1.43294">
        <ele>1.94802</ele>
        <time>2022-05-17T13:58:34.000Z</time>
      </trkpt>
      <trkpt lat="46.20203" lon="-1.4329">
        <ele>1.93558</ele>
        <time>2022-05-17T13:58:35.000Z</time>
      </trkpt>
      <trkpt lat="46.20201" lon="-1.43286">
        <ele>1.92368</ele>
        <time>2022-05-17T13:58:36.000Z</time>
      </trkpt>
      <trkpt lat="46.20199" lon="-1.43281">
        <ele>1.91435</ele>
        <time>2022-05-17T13:58:37.000Z</time>
      </trkpt>
      <trkpt lat="46.20197" lon="-1.43277">
        <ele>1.91161</ele>
        <time>2022-05-17T13:58:38.000Z</time>
      </trkpt>
      <trkpt lat="46.20195" lon="-1.43272">
        <ele>1.91744</ele>
        <time>2022-05-17T13:58:39.000Z</time>
      </trkpt>
      <trkpt lat="46.20193" lon="-1.43267">
        <ele>1.92969</ele>
        <time>2022-05-17T13:58:40.000Z</time>
      </trkpt>
      <trkpt lat="46.20191" lon="-1.43263">
        <ele>1.94557</ele>
        <time>2022-05-17T13:58:41.000Z</time>
      </trkpt>
      <trkpt lat="46.20189" lon="-1.43258">
        <ele>1.96389</ele>
        <time>2022-05-17T13:58:42.000Z</time>
      </trkpt>
      <trkpt lat="46.20187" lon="-1.43254">
        <ele>1.9836</ele>
        <time>2022-05-17T13:58:43.000Z</time>
      </trkpt>
      <trkpt lat="46.20185" lon="-1.43249">
        <ele>2.00155</ele>
        <time>2022-05-17T13:58:44.000Z</time>
      </trkpt>
      <trkpt lat="46.20182" lon="-1.43244">
        <ele>2.01504</ele>
        <time>2022-05-17T13:58:45.000Z</time>
      </trkpt>
      <trkpt lat="46.2018" lon="-1.4324">
        <ele>2.0211</ele>
        <time>2022-05-17T13:58:46.000Z</time>
      </trkpt>
      <trkpt lat="46.20178" lon="-1.43234">
        <ele>2.02051</ele>
        <time>2022-05-17T13:58:47.000Z</time>
      </trkpt>
      <trkpt lat="46.20177" lon="-1.43229">
        <ele>2.01642</ele>
        <time>2022-05-17T13:58:48.000Z</time>
      </trkpt>
      <trkpt lat="46.20175" lon="-1.43224">
        <ele>2.01273</ele>
        <time>2022-05-17T13:58:49.000Z</time>
      </trkpt>
      <trkpt lat="46.20173" lon="-1.43219">
        <ele>2.01142</ele>
        <time>2022-05-17T13:58:50.000Z</time>
      </trkpt>
      <trkpt lat="46.20171" lon="-1.43215">
        <ele>2.01339</ele>
        <time>2022-05-17T13:58:51.000Z</time>
      </trkpt>
      <trkpt lat="46.20169" lon="-1.4321">
        <ele>2.01782</ele>
        <time>2022-05-17T13:58:52.000Z</time>
      </trkpt>
      <trkpt lat="46.20167" lon="-1.43205">
        <ele>2.02355</ele>
        <time>2022-05-17T13:58:53.000Z</time>
      </trkpt>
      <trkpt lat="46.20165" lon="-1.43199">
        <ele>2.0289</ele>
        <time>2022-05-17T13:58:54.000Z</time>
      </trkpt>
      <trkpt lat="46.20164" lon="-1.43194">
        <ele>2.03395</ele>
        <time>2022-05-17T13:58:55.000Z</time>
      </trkpt>
      <trkpt lat="46.20162" lon="-1.43189">
        <ele>2.03947</ele>
        <time>2022-05-17T13:58:56.000Z</time>
      </trkpt>
      <trkpt lat="46.2016" lon="-1.43183">
        <ele>2.04479</ele>
        <time>2022-05-17T13:58:57.000Z</time>
      </trkpt>
      <trkpt lat="46.20158" lon="-1.43178">
        <ele>2.04917</ele>
        <time>2022-05-17T13:58:58.000Z</time>
      </trkpt>
      <trkpt lat="46.20156" lon="-1.43172">
        <ele>2.0477</ele>
        <time>2022-05-17T13:58:59.000Z</time>
      </trkpt>
      <trkpt lat="46.20154" lon="-1.43167">
        <ele>2.03236</ele>
        <time>2022-05-17T13:59:00.000Z</time>
      </trkpt>
      <trkpt lat="46.20152" lon="-1.43161">
        <ele>1.99609</ele>
        <time>2022-05-17T13:59:01.000Z</time>
      </trkpt>
      <trkpt lat="46.2015" lon="-1.43156">
        <ele>1.93956</ele>
        <time>2022-05-17T13:59:02.000Z</time>
      </trkpt>
      <trkpt lat="46.20148" lon="-1.4315">
        <ele>1.87797</ele>
        <time>2022-05-17T13:59:03.000Z</time>
      </trkpt>
      <trkpt lat="46.20146" lon="-1.43145">
        <ele>1.82451</ele>
        <time>2022-05-17T13:59:04.000Z</time>
      </trkpt>
      <trkpt lat="46.20144" lon="-1.4314">
        <ele>1.79807</ele>
        <time>2022-05-17T13:59:05.000Z</time>
      </trkpt>
      <trkpt lat="46.20143" lon="-1.43136">
        <ele>1.80569</ele>
        <time>2022-05-17T13:59:06.000Z</time>
      </trkpt>
      <trkpt lat="46.20141" lon="-1.43131">
        <ele>1.84662</ele>
        <time>2022-05-17T13:59:07.000Z</time>
      </trkpt>
      <trkpt lat="46.20139" lon="-1.43127">
        <ele>1.89107</ele>
        <time>2022-05-17T13:59:08.000Z</time>
      </trkpt>
      <trkpt lat="46.20139" lon="-1.43122">
        <ele>1.96377</ele>
        <time>2022-05-17T13:59:09.000Z</time>
      </trkpt>
      <trkpt lat="46.20136" lon="-1.43119">
        <ele>1.99996</ele>
        <time>2022-05-17T13:59:10.000Z</time>
      </trkpt>
      <trkpt lat="46.20133" lon="-1.43117">
        <ele>2.02264</ele>
        <time>2022-05-17T13:59:11.000Z</time>
      </trkpt>
      <trkpt lat="46.2013" lon="-1.43111">
        <ele>2.04643</ele>
        <time>2022-05-17T13:59:12.000Z</time>
      </trkpt>
      <trkpt lat="46.20127" lon="-1.43105">
        <ele>2.06254</ele>
        <time>2022-05-17T13:59:13.000Z</time>
      </trkpt>
      <trkpt lat="46.20125" lon="-1.43099">
        <ele>2.0844</ele>
        <time>2022-05-17T13:59:14.000Z</time>
      </trkpt>
      <trkpt lat="46.20123" lon="-1.43095">
        <ele>2.10189</ele>
        <time>2022-05-17T13:59:15.000Z</time>
      </trkpt>
      <trkpt lat="46.2012" lon="-1.43092">
        <ele>2.11823</ele>
        <time>2022-05-17T13:59:16.000Z</time>
      </trkpt>
      <trkpt lat="46.20116" lon="-1.43087">
        <ele>2.13644</ele>
        <time>2022-05-17T13:59:17.000Z</time>
      </trkpt>
      <trkpt lat="46.20113" lon="-1.43081">
        <ele>2.15504</ele>
        <time>2022-05-17T13:59:18.000Z</time>
      </trkpt>
      <trkpt lat="46.20111" lon="-1.43076">
        <ele>2.15775</ele>
        <time>2022-05-17T13:59:19.000Z</time>
      </trkpt>
      <trkpt lat="46.20109" lon="-1.43072">
        <ele>2.12441</ele>
        <time>2022-05-17T13:59:20.000Z</time>
      </trkpt>
      <trkpt lat="46.20108" lon="-1.43068">
        <ele>2.08421</ele>
        <time>2022-05-17T13:59:21.000Z</time>
      </trkpt>
      <trkpt lat="46.20107" lon="-1.43063">
        <ele>2.01446</ele>
        <time>2022-05-17T13:59:22.000Z</time>
      </trkpt>
      <trkpt lat="46.20105" lon="-1.4306">
        <ele>1.94012</ele>
        <time>2022-05-17T13:59:23.000Z</time>
      </trkpt>
      <trkpt lat="46.20103" lon="-1.43054">
        <ele>1.83257</ele>
        <time>2022-05-17T13:59:24.000Z</time>
      </trkpt>
      <trkpt lat="46.20102" lon="-1.43049">
        <ele>1.74667</ele>
        <time>2022-05-17T13:59:25.000Z</time>
      </trkpt>
      <trkpt lat="46.20101" lon="-1.43043">
        <ele>1.68575</ele>
        <time>2022-05-17T13:59:26.000Z</time>
      </trkpt>
      <trkpt lat="46.20099" lon="-1.43038">
        <ele>1.66599</ele>
        <time>2022-05-17T13:59:27.000Z</time>
      </trkpt>
      <trkpt lat="46.20098" lon="-1.43035">
        <ele>1.67133</ele>
        <time>2022-05-17T13:59:28.000Z</time>
      </trkpt>
      <trkpt lat="46.20096" lon="-1.43031">
        <ele>1.71037</ele>
        <time>2022-05-17T13:59:29.000Z</time>
      </trkpt>
      <trkpt lat="46.20094" lon="-1.43027">
        <ele>1.7738</ele>
        <time>2022-05-17T13:59:30.000Z</time>
      </trkpt>
      <trkpt lat="46.20092" lon="-1.43022">
        <ele>1.8603</ele>
        <time>2022-05-17T13:59:31.000Z</time>
      </trkpt>
      <trkpt lat="46.2009" lon="-1.43017">
        <ele>1.94838</ele>
        <time>2022-05-17T13:59:32.000Z</time>
      </trkpt>
      <trkpt lat="46.20088" lon="-1.43012">
        <ele>2.02197</ele>
        <time>2022-05-17T13:59:33.000Z</time>
      </trkpt>
      <trkpt lat="46.20087" lon="-1.43007">
        <ele>2.0833</ele>
        <time>2022-05-17T13:59:34.000Z</time>
      </trkpt>
      <trkpt lat="46.20085" lon="-1.43002">
        <ele>2.137</ele>
        <time>2022-05-17T13:59:35.000Z</time>
      </trkpt>
      <trkpt lat="46.20084" lon="-1.42997">
        <ele>2.18674</ele>
        <time>2022-05-17T13:59:36.000Z</time>
      </trkpt>
      <trkpt lat="46.20082" lon="-1.42991">
        <ele>2.24523</ele>
        <time>2022-05-17T13:59:37.000Z</time>
      </trkpt>
      <trkpt lat="46.2008" lon="-1.42986">
        <ele>2.30186</ele>
        <time>2022-05-17T13:59:38.000Z</time>
      </trkpt>
      <trkpt lat="46.20078" lon="-1.4298">
        <ele>2.35738</ele>
        <time>2022-05-17T13:59:39.000Z</time>
      </trkpt>
      <trkpt lat="46.20076" lon="-1.42975">
        <ele>2.40027</ele>
        <time>2022-05-17T13:59:40.000Z</time>
      </trkpt>
      <trkpt lat="46.20074" lon="-1.42969">
        <ele>2.42397</ele>
        <time>2022-05-17T13:59:41.000Z</time>
      </trkpt>
      <trkpt lat="46.20073" lon="-1.42964">
        <ele>2.44228</ele>
        <time>2022-05-17T13:59:42.000Z</time>
      </trkpt>
      <trkpt lat="46.20071" lon="-1.42959">
        <ele>2.44966</ele>
        <time>2022-05-17T13:59:43.000Z</time>
      </trkpt>
      <trkpt lat="46.20069" lon="-1.42953">
        <ele>2.43415</ele>
        <time>2022-05-17T13:59:44.000Z</time>
      </trkpt>
      <trkpt lat="46.20067" lon="-1.42948">
        <ele>2.3965</ele>
        <time>2022-05-17T13:59:45.000Z</time>
      </trkpt>
      <trkpt lat="46.20065" lon="-1.42942">
        <ele>2.33284</ele>
        <time>2022-05-17T13:59:46.000Z</time>
      </trkpt>
      <trkpt lat="46.20063" lon="-1.42936">
        <ele>2.24434</ele>
        <time>2022-05-17T13:59:47.000Z</time>
      </trkpt>
      <trkpt lat="46.2006" lon="-1.4293">
        <ele>2.12661</ele>
        <time>2022-05-17T13:59:48.000Z</time>
      </trkpt>
      <trkpt lat="46.20058" lon="-1.42924">
        <ele>2.00829</ele>
        <time>2022-05-17T13:59:49.000Z</time>
      </trkpt>
      <trkpt lat="46.20054" lon="-1.42916">
        <ele>1.88694</ele>
        <time>2022-05-17T13:59:50.000Z</time>
      </trkpt>
      <trkpt lat="46.20052" lon="-1.42912">
        <ele>1.8402</ele>
        <time>2022-05-17T13:59:51.000Z</time>
      </trkpt>
      <trkpt lat="46.20051" lon="-1.42907">
        <ele>1.85094</ele>
        <time>2022-05-17T13:59:52.000Z</time>
      </trkpt>
      <trkpt lat="46.2005" lon="-1.42904">
        <ele>1.88076</ele>
        <time>2022-05-17T13:59:53.000Z</time>
      </trkpt>
      <trkpt lat="46.20048" lon="-1.42901">
        <ele>1.93147</ele>
        <time>2022-05-17T13:59:54.000Z</time>
      </trkpt>
      <trkpt lat="46.20045" lon="-1.42893">
        <ele>2.1441</ele>
        <time>2022-05-17T13:59:55.000Z</time>
      </trkpt>
      <trkpt lat="46.20043" lon="-1.42887">
        <ele>2.3257</ele>
        <time>2022-05-17T13:59:56.000Z</time>
      </trkpt>
      <trkpt lat="46.20043" lon="-1.42884">
        <ele>2.40845</ele>
        <time>2022-05-17T13:59:57.000Z</time>
      </trkpt>
      <trkpt lat="46.20039" lon="-1.42879">
        <ele>2.51403</ele>
        <time>2022-05-17T13:59:58.000Z</time>
      </trkpt>
      <trkpt lat="46.20037" lon="-1.42874">
        <ele>2.54471</ele>
        <time>2022-05-17T14:00:00.000Z</time>
      </trkpt>
      <trkpt lat="46.20034" lon="-1.42869">
        <ele>2.49247</ele>
        <time>2022-05-17T14:00:01.000Z</time>
      </trkpt>
      <trkpt lat="46.20032" lon="-1.42864">
        <ele>2.4177</ele>
        <time>2022-05-17T14:00:02.000Z</time>
      </trkpt>
      <trkpt lat="46.2003" lon="-1.42859">
        <ele>2.35745</ele>
        <time>2022-05-17T14:00:03.000Z</time>
      </trkpt>
      <trkpt lat="46.20028" lon="-1.42855">
        <ele>2.341</ele>
        <time>2022-05-17T14:00:04.000Z</time>
      </trkpt>
      <trkpt lat="46.20026" lon="-1.4285">
        <ele>2.36869</ele>
        <time>2022-05-17T14:00:05.000Z</time>
      </trkpt>
      <trkpt lat="46.20023" lon="-1.42844">
        <ele>2.436</ele>
        <time>2022-05-17T14:00:06.000Z</time>
      </trkpt>
      <trkpt lat="46.20021" lon="-1.42839">
        <ele>2.49277</ele>
        <time>2022-05-17T14:00:07.000Z</time>
      </trkpt>
      <trkpt lat="46.20019" lon="-1.42834">
        <ele>2.48109</ele>
        <time>2022-05-17T14:00:08.000Z</time>
      </trkpt>
      <trkpt lat="46.20017" lon="-1.42826">
        <ele>2.32903</ele>
        <time>2022-05-17T14:00:09.000Z</time>
      </trkpt>
      <trkpt lat="46.20013" lon="-1.4282">
        <ele>2.11805</ele>
        <time>2022-05-17T14:00:10.000Z</time>
      </trkpt>
      <trkpt lat="46.20011" lon="-1.42814">
        <ele>1.95028</ele>
        <time>2022-05-17T14:00:11.000Z</time>
      </trkpt>
      <trkpt lat="46.20006" lon="-1.42807">
        <ele>1.81357</ele>
        <time>2022-05-17T14:00:12.000Z</time>
      </trkpt>
      <trkpt lat="46.20004" lon="-1.42794">
        <ele>1.91236</ele>
        <time>2022-05-17T14:00:13.000Z</time>
      </trkpt>
      <trkpt lat="46.20003" lon="-1.42785">
        <ele>2.10147</ele>
        <time>2022-05-17T14:00:14.000Z</time>
      </trkpt>
      <trkpt lat="46.20001" lon="-1.4278">
        <ele>2.19971</ele>
        <time>2022-05-17T14:00:15.000Z</time>
      </trkpt>
      <trkpt lat="46.19997" lon="-1.42777">
        <ele>2.21738</ele>
        <time>2022-05-17T14:00:16.000Z</time>
      </trkpt>
      <trkpt lat="46.19995" lon="-1.42771">
        <ele>2.26076</ele>
        <time>2022-05-17T14:00:17.000Z</time>
      </trkpt>
      <trkpt lat="46.19993" lon="-1.42765">
        <ele>2.27729</ele>
        <time>2022-05-17T14:00:19.000Z</time>
      </trkpt>
      <trkpt lat="46.19992" lon="-1.42763">
        <ele>2.2662</ele>
        <time>2022-05-17T14:00:20.000Z</time>
      </trkpt>
      <trkpt lat="46.1999" lon="-1.4276">
        <ele>2.26712</ele>
        <time>2022-05-17T14:00:22.000Z</time>
      </trkpt>
      <trkpt lat="46.19988" lon="-1.42757">
        <ele>2.26853</ele>
        <time>2022-05-17T14:00:23.000Z</time>
      </trkpt>
      <trkpt lat="46.19987" lon="-1.42753">
        <ele>2.29301</ele>
        <time>2022-05-17T14:00:25.000Z</time>
      </trkpt>
      <trkpt lat="46.19986" lon="-1.42749">
        <ele>2.32761</ele>
        <time>2022-05-17T14:00:26.000Z</time>
      </trkpt>
      <trkpt lat="46.19986" lon="-1.42745">
        <ele>2.35624</ele>
        <time>2022-05-17T14:00:27.000Z</time>
      </trkpt>
      <trkpt lat="46.19985" lon="-1.42742">
        <ele>2.37462</ele>
        <time>2022-05-17T14:00:28.000Z</time>
      </trkpt>
      <trkpt lat="46.19984" lon="-1.42739">
        <ele>2.3927</ele>
        <time>2022-05-17T14:00:29.000Z</time>
      </trkpt>
      <trkpt lat="46.19983" lon="-1.42736">
        <ele>2.40956</ele>
        <time>2022-05-17T14:00:30.000Z</time>
      </trkpt>
      <trkpt lat="46.19981" lon="-1.42735">
        <ele>2.42507</ele>
        <time>2022-05-17T14:00:31.000Z</time>
      </trkpt>
      <trkpt lat="46.19979" lon="-1.42734">
        <ele>2.44113</ele>
        <time>2022-05-17T14:00:32.000Z</time>
      </trkpt>
      <trkpt lat="46.19976" lon="-1.42733">
        <ele>2.45631</ele>
        <time>2022-05-17T14:00:33.000Z</time>
      </trkpt>
      <trkpt lat="46.19973" lon="-1.42732">
        <ele>2.46453</ele>
        <time>2022-05-17T14:00:34.000Z</time>
      </trkpt>
      <trkpt lat="46.1997" lon="-1.42732">
        <ele>2.46507</ele>
        <time>2022-05-17T14:00:35.000Z</time>
      </trkpt>
      <trkpt lat="46.19967" lon="-1.42732">
        <ele>2.45797</ele>
        <time>2022-05-17T14:00:36.000Z</time>
      </trkpt>
      <trkpt lat="46.19964" lon="-1.42732">
        <ele>2.45199</ele>
        <time>2022-05-17T14:00:37.000Z</time>
      </trkpt>
      <trkpt lat="46.19962" lon="-1.42733">
        <ele>2.44593</ele>
        <time>2022-05-17T14:00:38.000Z</time>
      </trkpt>
      <trkpt lat="46.1996" lon="-1.42733">
        <ele>2.43953</ele>
        <time>2022-05-17T14:00:39.000Z</time>
      </trkpt>
      <trkpt lat="46.19958" lon="-1.42734">
        <ele>2.4346</ele>
        <time>2022-05-17T14:00:40.000Z</time>
      </trkpt>
      <trkpt lat="46.19956" lon="-1.42735">
        <ele>2.42791</ele>
        <time>2022-05-17T14:00:41.000Z</time>
      </trkpt>
      <trkpt lat="46.19953" lon="-1.42736">
        <ele>2.41893</ele>
        <time>2022-05-17T14:00:42.000Z</time>
      </trkpt>
      <trkpt lat="46.19951" lon="-1.42738">
        <ele>2.40587</ele>
        <time>2022-05-17T14:00:43.000Z</time>
      </trkpt>
      <trkpt lat="46.19948" lon="-1.42739">
        <ele>2.38686</ele>
        <time>2022-05-17T14:00:44.000Z</time>
      </trkpt>
      <trkpt lat="46.19944" lon="-1.4274">
        <ele>2.35475</ele>
        <time>2022-05-17T14:00:45.000Z</time>
      </trkpt>
      <trkpt lat="46.19941" lon="-1.42742">
        <ele>2.31043</ele>
        <time>2022-05-17T14:00:46.000Z</time>
      </trkpt>
      <trkpt lat="46.19937" lon="-1.42743">
        <ele>2.24512</ele>
        <time>2022-05-17T14:00:47.000Z</time>
      </trkpt>
      <trkpt lat="46.19934" lon="-1.42745">
        <ele>2.16876</ele>
        <time>2022-05-17T14:00:48.000Z</time>
      </trkpt>
      <trkpt lat="46.1993" lon="-1.42746">
        <ele>2.10024</ele>
        <time>2022-05-17T14:00:49.000Z</time>
      </trkpt>
      <trkpt lat="46.19928" lon="-1.42747">
        <ele>2.05361</ele>
        <time>2022-05-17T14:00:50.000Z</time>
      </trkpt>
      <trkpt lat="46.19925" lon="-1.42748">
        <ele>2.02477</ele>
        <time>2022-05-17T14:00:51.000Z</time>
      </trkpt>
      <trkpt lat="46.19923" lon="-1.42748">
        <ele>2.0121</ele>
        <time>2022-05-17T14:00:52.000Z</time>
      </trkpt>
      <trkpt lat="46.19921" lon="-1.42749">
        <ele>2.00146</ele>
        <time>2022-05-17T14:00:53.000Z</time>
      </trkpt>
      <trkpt lat="46.19918" lon="-1.4275">
        <ele>2.0164</ele>
        <time>2022-05-17T14:00:54.000Z</time>
      </trkpt>
      <trkpt lat="46.19914" lon="-1.42751">
        <ele>2.05163</ele>
        <time>2022-05-17T14:00:55.000Z</time>
      </trkpt>
      <trkpt lat="46.19911" lon="-1.42751">
        <ele>2.09181</ele>
        <time>2022-05-17T14:00:56.000Z</time>
      </trkpt>
      <trkpt lat="46.19909" lon="-1.4275">
        <ele>2.12553</ele>
        <time>2022-05-17T14:00:57.000Z</time>
      </trkpt>
      <trkpt lat="46.19906" lon="-1.42749">
        <ele>2.14616</ele>
        <time>2022-05-17T14:00:58.000Z</time>
      </trkpt>
      <trkpt lat="46.19903" lon="-1.42748">
        <ele>2.16059</ele>
        <time>2022-05-17T14:00:59.000Z</time>
      </trkpt>
      <trkpt lat="46.19901" lon="-1.42746">
        <ele>2.17342</ele>
        <time>2022-05-17T14:01:00.000Z</time>
      </trkpt>
      <trkpt lat="46.19898" lon="-1.42745">
        <ele>2.18635</ele>
        <time>2022-05-17T14:01:01.000Z</time>
      </trkpt>
      <trkpt lat="46.19896" lon="-1.42744">
        <ele>2.20113</ele>
        <time>2022-05-17T14:01:02.000Z</time>
      </trkpt>
      <trkpt lat="46.19893" lon="-1.42742">
        <ele>2.2187</ele>
        <time>2022-05-17T14:01:03.000Z</time>
      </trkpt>
      <trkpt lat="46.19891" lon="-1.42741">
        <ele>2.2372</ele>
        <time>2022-05-17T14:01:04.000Z</time>
      </trkpt>
      <trkpt lat="46.19889" lon="-1.42739">
        <ele>2.25522</ele>
        <time>2022-05-17T14:01:05.000Z</time>
      </trkpt>
      <trkpt lat="46.19886" lon="-1.42736">
        <ele>2.27028</ele>
        <time>2022-05-17T14:01:06.000Z</time>
      </trkpt>
      <trkpt lat="46.19884" lon="-1.42734">
        <ele>2.27628</ele>
        <time>2022-05-17T14:01:07.000Z</time>
      </trkpt>
      <trkpt lat="46.19881" lon="-1.42731">
        <ele>2.27222</ele>
        <time>2022-05-17T14:01:08.000Z</time>
      </trkpt>
      <trkpt lat="46.19879" lon="-1.42728">
        <ele>2.26034</ele>
        <time>2022-05-17T14:01:09.000Z</time>
      </trkpt>
      <trkpt lat="46.19877" lon="-1.42724">
        <ele>2.24767</ele>
        <time>2022-05-17T14:01:10.000Z</time>
      </trkpt>
      <trkpt lat="46.19876" lon="-1.4272">
        <ele>2.23494</ele>
        <time>2022-05-17T14:01:11.000Z</time>
      </trkpt>
      <trkpt lat="46.19874" lon="-1.42716">
        <ele>2.22416</ele>
        <time>2022-05-17T14:01:12.000Z</time>
      </trkpt>
      <trkpt lat="46.19872" lon="-1.42712">
        <ele>2.21539</ele>
        <time>2022-05-17T14:01:13.000Z</time>
      </trkpt>
      <trkpt lat="46.19871" lon="-1.42708">
        <ele>2.20792</ele>
        <time>2022-05-17T14:01:14.000Z</time>
      </trkpt>
      <trkpt lat="46.1987" lon="-1.42704">
        <ele>2.19828</ele>
        <time>2022-05-17T14:01:15.000Z</time>
      </trkpt>
      <trkpt lat="46.1987" lon="-1.42699">
        <ele>2.18311</ele>
        <time>2022-05-17T14:01:16.000Z</time>
      </trkpt>
      <trkpt lat="46.19869" lon="-1.42695">
        <ele>2.15892</ele>
        <time>2022-05-17T14:01:17.000Z</time>
      </trkpt>
      <trkpt lat="46.19869" lon="-1.4269">
        <ele>2.11387</ele>
        <time>2022-05-17T14:01:18.000Z</time>
      </trkpt>
      <trkpt lat="46.19868" lon="-1.42685">
        <ele>2.06526</ele>
        <time>2022-05-17T14:01:19.000Z</time>
      </trkpt>
      <trkpt lat="46.19868" lon="-1.42681">
        <ele>2.02598</ele>
        <time>2022-05-17T14:01:20.000Z</time>
      </trkpt>
      <trkpt lat="46.19867" lon="-1.42676">
        <ele>1.99599</ele>
        <time>2022-05-17T14:01:21.000Z</time>
      </trkpt>
      <trkpt lat="46.19867" lon="-1.42671">
        <ele>1.9858</ele>
        <time>2022-05-17T14:01:22.000Z</time>
      </trkpt>
      <trkpt lat="46.19866" lon="-1.42667">
        <ele>1.99726</ele>
        <time>2022-05-17T14:01:23.000Z</time>
      </trkpt>
      <trkpt lat="46.19865" lon="-1.42662">
        <ele>2.02418</ele>
        <time>2022-05-17T14:01:24.000Z</time>
      </trkpt>
      <trkpt lat="46.19864" lon="-1.42658">
        <ele>2.06079</ele>
        <time>2022-05-17T14:01:25.000Z</time>
      </trkpt>
      <trkpt lat="46.19864" lon="-1.42654">
        <ele>2.09566</ele>
        <time>2022-05-17T14:01:26.000Z</time>
      </trkpt>
      <trkpt lat="46.19863" lon="-1.42649">
        <ele>2.13467</ele>
        <time>2022-05-17T14:01:27.000Z</time>
      </trkpt>
      <trkpt lat="46.19862" lon="-1.42645">
        <ele>2.17408</ele>
        <time>2022-05-17T14:01:28.000Z</time>
      </trkpt>
      <trkpt lat="46.19861" lon="-1.4264">
        <ele>2.20926</ele>
        <time>2022-05-17T14:01:29.000Z</time>
      </trkpt>
      <trkpt lat="46.1986" lon="-1.42637">
        <ele>2.23622</ele>
        <time>2022-05-17T14:01:30.000Z</time>
      </trkpt>
      <trkpt lat="46.19858" lon="-1.42633">
        <ele>2.26559</ele>
        <time>2022-05-17T14:01:31.000Z</time>
      </trkpt>
      <trkpt lat="46.19856" lon="-1.4263">
        <ele>2.30613</ele>
        <time>2022-05-17T14:01:32.000Z</time>
      </trkpt>
      <trkpt lat="46.19854" lon="-1.42627">
        <ele>2.35652</ele>
        <time>2022-05-17T14:01:33.000Z</time>
      </trkpt>
      <trkpt lat="46.19852" lon="-1.42625">
        <ele>2.40941</ele>
        <time>2022-05-17T14:01:34.000Z</time>
      </trkpt>
      <trkpt lat="46.1985" lon="-1.42623">
        <ele>2.45664</ele>
        <time>2022-05-17T14:01:35.000Z</time>
      </trkpt>
      <trkpt lat="46.19849" lon="-1.42621">
        <ele>2.50355</ele>
        <time>2022-05-17T14:01:36.000Z</time>
      </trkpt>
      <trkpt lat="46.19845" lon="-1.42619">
        <ele>2.58944</ele>
        <time>2022-05-17T14:01:38.000Z</time>
      </trkpt>
      <trkpt lat="46.19843" lon="-1.42618">
        <ele>2.6155</ele>
        <time>2022-05-17T14:01:39.000Z</time>
      </trkpt>
      <trkpt lat="46.1984" lon="-1.42617">
        <ele>2.6363</ele>
        <time>2022-05-17T14:01:41.000Z</time>
      </trkpt>
      <trkpt lat="46.19837" lon="-1.42616">
        <ele>2.62978</ele>
        <time>2022-05-17T14:01:43.000Z</time>
      </trkpt>
      <trkpt lat="46.19835" lon="-1.42619">
        <ele>2.59182</ele>
        <time>2022-05-17T14:01:46.000Z</time>
      </trkpt>
      <trkpt lat="46.19833" lon="-1.42623">
        <ele>2.55761</ele>
        <time>2022-05-17T14:01:48.000Z</time>
      </trkpt>
      <trkpt lat="46.19831" lon="-1.42626">
        <ele>2.54989</ele>
        <time>2022-05-17T14:01:50.000Z</time>
      </trkpt>
      <trkpt lat="46.19831" lon="-1.42621">
        <ele>2.56152</ele>
        <time>2022-05-17T14:01:54.000Z</time>
      </trkpt>
      <trkpt lat="46.19833" lon="-1.42613">
        <ele>2.6088</ele>
        <time>2022-05-17T14:02:01.000Z</time>
      </trkpt>
      <trkpt lat="46.19832" lon="-1.42615">
        <ele>2.5881</ele>
        <time>2022-05-17T14:02:03.000Z</time>
      </trkpt>
      <trkpt lat="46.19833" lon="-1.42613">
        <ele>2.61416</ele>
        <time>2022-05-17T14:02:13.000Z</time>
      </trkpt>
      <trkpt lat="46.19834" lon="-1.42611">
        <ele>2.64146</ele>
        <time>2022-05-17T14:02:19.000Z</time>
      </trkpt>
      <trkpt lat="46.19833" lon="-1.42606">
        <ele>2.63438</ele>
        <time>2022-05-17T14:02:35.000Z</time>
      </trkpt>
      <trkpt lat="46.19831" lon="-1.42603">
        <ele>2.57951</ele>
        <time>2022-05-17T14:02:36.000Z</time>
      </trkpt>
      <trkpt lat="46.19828" lon="-1.42601">
        <ele>2.50458</ele>
        <time>2022-05-17T14:02:37.000Z</time>
      </trkpt>
      <trkpt lat="46.19826" lon="-1.42598">
        <ele>2.41334</ele>
        <time>2022-05-17T14:02:38.000Z</time>
      </trkpt>
      <trkpt lat="46.19823" lon="-1.42594">
        <ele>2.34078</ele>
        <time>2022-05-17T14:02:39.000Z</time>
      </trkpt>
      <trkpt lat="46.1982" lon="-1.42591">
        <ele>2.30875</ele>
        <time>2022-05-17T14:02:40.000Z</time>
      </trkpt>
      <trkpt lat="46.19818" lon="-1.42587">
        <ele>2.30341</ele>
        <time>2022-05-17T14:02:41.000Z</time>
      </trkpt>
      <trkpt lat="46.19816" lon="-1.42584">
        <ele>2.31312</ele>
        <time>2022-05-17T14:02:42.000Z</time>
      </trkpt>
      <trkpt lat="46.19814" lon="-1.42581">
        <ele>2.33702</ele>
        <time>2022-05-17T14:02:43.000Z</time>
      </trkpt>
      <trkpt lat="46.19812" lon="-1.42578">
        <ele>2.37377</ele>
        <time>2022-05-17T14:02:44.000Z</time>
      </trkpt>
      <trkpt lat="46.1981" lon="-1.42575">
        <ele>2.41742</ele>
        <time>2022-05-17T14:02:45.000Z</time>
      </trkpt>
      <trkpt lat="46.19807" lon="-1.42573">
        <ele>2.45927</ele>
        <time>2022-05-17T14:02:46.000Z</time>
      </trkpt>
      <trkpt lat="46.19805" lon="-1.42569">
        <ele>2.50403</ele>
        <time>2022-05-17T14:02:47.000Z</time>
      </trkpt>
      <trkpt lat="46.19803" lon="-1.42566">
        <ele>2.54074</ele>
        <time>2022-05-17T14:02:48.000Z</time>
      </trkpt>
      <trkpt lat="46.19801" lon="-1.42562">
        <ele>2.56997</ele>
        <time>2022-05-17T14:02:49.000Z</time>
      </trkpt>
      <trkpt lat="46.19798" lon="-1.4256">
        <ele>2.59477</ele>
        <time>2022-05-17T14:02:50.000Z</time>
      </trkpt>
      <trkpt lat="46.19796" lon="-1.42558">
        <ele>2.61731</ele>
        <time>2022-05-17T14:02:51.000Z</time>
      </trkpt>
      <trkpt lat="46.19794" lon="-1.42555">
        <ele>2.63128</ele>
        <time>2022-05-17T14:02:52.000Z</time>
      </trkpt>
      <trkpt lat="46.19792" lon="-1.42553">
        <ele>2.63095</ele>
        <time>2022-05-17T14:02:53.000Z</time>
      </trkpt>
      <trkpt lat="46.1979" lon="-1.4255">
        <ele>2.6088</ele>
        <time>2022-05-17T14:02:54.000Z</time>
      </trkpt>
      <trkpt lat="46.19789" lon="-1.42548">
        <ele>2.57465</ele>
        <time>2022-05-17T14:02:55.000Z</time>
      </trkpt>
      <trkpt lat="46.19788" lon="-1.42545">
        <ele>2.53855</ele>
        <time>2022-05-17T14:02:56.000Z</time>
      </trkpt>
      <trkpt lat="46.19786" lon="-1.42543">
        <ele>2.50279</ele>
        <time>2022-05-17T14:02:57.000Z</time>
      </trkpt>
      <trkpt lat="46.19784" lon="-1.42541">
        <ele>2.46579</ele>
        <time>2022-05-17T14:02:58.000Z</time>
      </trkpt>
      <trkpt lat="46.19782" lon="-1.42539">
        <ele>2.41853</ele>
        <time>2022-05-17T14:02:59.000Z</time>
      </trkpt>
      <trkpt lat="46.1978" lon="-1.42536">
        <ele>2.37272</ele>
        <time>2022-05-17T14:03:00.000Z</time>
      </trkpt>
      <trkpt lat="46.19778" lon="-1.42533">
        <ele>2.35597</ele>
        <time>2022-05-17T14:03:01.000Z</time>
      </trkpt>
      <trkpt lat="46.19775" lon="-1.42531">
        <ele>2.37044</ele>
        <time>2022-05-17T14:03:02.000Z</time>
      </trkpt>
      <trkpt lat="46.19773" lon="-1.42528">
        <ele>2.41492</ele>
        <time>2022-05-17T14:03:03.000Z</time>
      </trkpt>
      <trkpt lat="46.19772" lon="-1.42525">
        <ele>2.45891</ele>
        <time>2022-05-17T14:03:04.000Z</time>
      </trkpt>
      <trkpt lat="46.1977" lon="-1.42521">
        <ele>2.51096</ele>
        <time>2022-05-17T14:03:05.000Z</time>
      </trkpt>
      <trkpt lat="46.19768" lon="-1.42518">
        <ele>2.56237</ele>
        <time>2022-05-17T14:03:06.000Z</time>
      </trkpt>
      <trkpt lat="46.19767" lon="-1.42514">
        <ele>2.58887</ele>
        <time>2022-05-17T14:03:07.000Z</time>
      </trkpt>
      <trkpt lat="46.19765" lon="-1.42512">
        <ele>2.61806</ele>
        <time>2022-05-17T14:03:08.000Z</time>
      </trkpt>
      <trkpt lat="46.19761" lon="-1.4251">
        <ele>2.64179</ele>
        <time>2022-05-17T14:03:09.000Z</time>
      </trkpt>
      <trkpt lat="46.19758" lon="-1.42507">
        <ele>2.61257</ele>
        <time>2022-05-17T14:03:10.000Z</time>
      </trkpt>
      <trkpt lat="46.19755" lon="-1.42503">
        <ele>2.55212</ele>
        <time>2022-05-17T14:03:11.000Z</time>
      </trkpt>
      <trkpt lat="46.19753" lon="-1.425">
        <ele>2.49926</ele>
        <time>2022-05-17T14:03:12.000Z</time>
      </trkpt>
      <trkpt lat="46.19751" lon="-1.42499">
        <ele>2.47376</ele>
        <time>2022-05-17T14:03:13.000Z</time>
      </trkpt>
      <trkpt lat="46.19749" lon="-1.42497">
        <ele>2.44337</ele>
        <time>2022-05-17T14:03:15.000Z</time>
      </trkpt>
      <trkpt lat="46.19748" lon="-1.42494">
        <ele>2.41116</ele>
        <time>2022-05-17T14:03:17.000Z</time>
      </trkpt>
      <trkpt lat="46.19746" lon="-1.42491">
        <ele>2.3901</ele>
        <time>2022-05-17T14:03:19.000Z</time>
      </trkpt>
      <trkpt lat="46.19743" lon="-1.42487">
        <ele>2.38213</ele>
        <time>2022-05-17T14:03:21.000Z</time>
      </trkpt>
      <trkpt lat="46.19743" lon="-1.42484">
        <ele>2.38569</ele>
        <time>2022-05-17T14:03:22.000Z</time>
      </trkpt>
      <trkpt lat="46.19744" lon="-1.4248">
        <ele>2.39748</ele>
        <time>2022-05-17T14:03:23.000Z</time>
      </trkpt>
      <trkpt lat="46.19745" lon="-1.42476">
        <ele>2.41468</ele>
        <time>2022-05-17T14:03:24.000Z</time>
      </trkpt>
      <trkpt lat="46.19747" lon="-1.42473">
        <ele>2.43486</ele>
        <time>2022-05-17T14:03:25.000Z</time>
      </trkpt>
      <trkpt lat="46.19748" lon="-1.42469">
        <ele>2.46052</ele>
        <time>2022-05-17T14:03:26.000Z</time>
      </trkpt>
      <trkpt lat="46.1975" lon="-1.42466">
        <ele>2.47969</ele>
        <time>2022-05-17T14:03:27.000Z</time>
      </trkpt>
      <trkpt lat="46.19751" lon="-1.42463">
        <ele>2.49553</ele>
        <time>2022-05-17T14:03:28.000Z</time>
      </trkpt>
      <trkpt lat="46.19753" lon="-1.42459">
        <ele>2.5104</ele>
        <time>2022-05-17T14:03:29.000Z</time>
      </trkpt>
      <trkpt lat="46.19755" lon="-1.42456">
        <ele>2.51713</ele>
        <time>2022-05-17T14:03:30.000Z</time>
      </trkpt>
      <trkpt lat="46.19758" lon="-1.42452">
        <ele>2.51625</ele>
        <time>2022-05-17T14:03:31.000Z</time>
      </trkpt>
      <trkpt lat="46.1976" lon="-1.42447">
        <ele>2.50314</ele>
        <time>2022-05-17T14:03:32.000Z</time>
      </trkpt>
      <trkpt lat="46.19761" lon="-1.42442">
        <ele>2.49031</ele>
        <time>2022-05-17T14:03:33.000Z</time>
      </trkpt>
      <trkpt lat="46.19762" lon="-1.42437">
        <ele>2.48576</ele>
        <time>2022-05-17T14:03:34.000Z</time>
      </trkpt>
      <trkpt lat="46.19763" lon="-1.42433">
        <ele>2.49253</ele>
        <time>2022-05-17T14:03:35.000Z</time>
      </trkpt>
      <trkpt lat="46.19764" lon="-1.4243">
        <ele>2.50967</ele>
        <time>2022-05-17T14:03:36.000Z</time>
      </trkpt>
      <trkpt lat="46.19765" lon="-1.42426">
        <ele>2.53996</ele>
        <time>2022-05-17T14:03:37.000Z</time>
      </trkpt>
      <trkpt lat="46.19766" lon="-1.42423">
        <ele>2.58318</ele>
        <time>2022-05-17T14:03:38.000Z</time>
      </trkpt>
      <trkpt lat="46.19766" lon="-1.42421">
        <ele>2.63111</ele>
        <time>2022-05-17T14:03:39.000Z</time>
      </trkpt>
      <trkpt lat="46.19765" lon="-1.42416">
        <ele>2.71742</ele>
        <time>2022-05-17T14:03:40.000Z</time>
      </trkpt>
      <trkpt lat="46.19762" lon="-1.42411">
        <ele>2.81743</ele>
        <time>2022-05-17T14:03:41.000Z</time>
      </trkpt>
      <trkpt lat="46.1976" lon="-1.42406">
        <ele>2.88506</ele>
        <time>2022-05-17T14:03:42.000Z</time>
      </trkpt>
      <trkpt lat="46.19757" lon="-1.42402">
        <ele>2.90482</ele>
        <time>2022-05-17T14:03:43.000Z</time>
      </trkpt>
      <trkpt lat="46.19755" lon="-1.42398">
        <ele>2.87848</ele>
        <time>2022-05-17T14:03:44.000Z</time>
      </trkpt>
      <trkpt lat="46.19752" lon="-1.42395">
        <ele>2.83172</ele>
        <time>2022-05-17T14:03:45.000Z</time>
      </trkpt>
      <trkpt lat="46.19749" lon="-1.42393">
        <ele>2.78292</ele>
        <time>2022-05-17T14:03:46.000Z</time>
      </trkpt>
      <trkpt lat="46.19747" lon="-1.42391">
        <ele>2.74301</ele>
        <time>2022-05-17T14:03:47.000Z</time>
      </trkpt>
      <trkpt lat="46.19744" lon="-1.42389">
        <ele>2.71986</ele>
        <time>2022-05-17T14:03:48.000Z</time>
      </trkpt>
      <trkpt lat="46.19739" lon="-1.42386">
        <ele>2.73601</ele>
        <time>2022-05-17T14:03:49.000Z</time>
      </trkpt>
      <trkpt lat="46.19735" lon="-1.42384">
        <ele>2.821</ele>
        <time>2022-05-17T14:03:50.000Z</time>
      </trkpt>
      <trkpt lat="46.19731" lon="-1.42382">
        <ele>2.90928</ele>
        <time>2022-05-17T14:03:51.000Z</time>
      </trkpt>
      <trkpt lat="46.19728" lon="-1.4238">
        <ele>2.96576</ele>
        <time>2022-05-17T14:03:52.000Z</time>
      </trkpt>
      <trkpt lat="46.19725" lon="-1.42377">
        <ele>2.99745</ele>
        <time>2022-05-17T14:03:53.000Z</time>
      </trkpt>
      <trkpt lat="46.19722" lon="-1.42375">
        <ele>2.99631</ele>
        <time>2022-05-17T14:03:54.000Z</time>
      </trkpt>
      <trkpt lat="46.19711" lon="-1.42359">
        <ele>2.75008</ele>
        <time>2022-05-17T14:03:55.000Z</time>
      </trkpt>
      <trkpt lat="46.19708" lon="-1.42354">
        <ele>2.7442</ele>
        <time>2022-05-17T14:03:56.000Z</time>
      </trkpt>
      <trkpt lat="46.19711" lon="-1.42352">
        <ele>2.78313</ele>
        <time>2022-05-17T14:03:57.000Z</time>
      </trkpt>
      <trkpt lat="46.19709" lon="-1.42349">
        <ele>2.80575</ele>
        <time>2022-05-17T14:03:58.000Z</time>
      </trkpt>
      <trkpt lat="46.19698" lon="-1.42351">
        <ele>2.69275</ele>
        <time>2022-05-17T14:03:59.000Z</time>
      </trkpt>
      <trkpt lat="46.19685" lon="-1.42346">
        <ele>2.71595</ele>
        <time>2022-05-17T14:04:01.000Z</time>
      </trkpt>
      <trkpt lat="46.19682" lon="-1.42357">
        <ele>2.50485</ele>
        <time>2022-05-17T14:04:02.000Z</time>
      </trkpt>
      <trkpt lat="46.19671" lon="-1.42361">
        <ele>2.53905</ele>
        <time>2022-05-17T14:04:03.000Z</time>
      </trkpt>
      <trkpt lat="46.19674" lon="-1.4235">
        <ele>2.61693</ele>
        <time>2022-05-17T14:04:04.000Z</time>
      </trkpt>
      <trkpt lat="46.19684" lon="-1.42338">
        <ele>2.92162</ele>
        <time>2022-05-17T14:04:05.000Z</time>
      </trkpt>
      <trkpt lat="46.19688" lon="-1.42338">
        <ele>2.97039</ele>
        <time>2022-05-17T14:04:06.000Z</time>
      </trkpt>
      <trkpt lat="46.19686" lon="-1.42335">
        <ele>3.02706</ele>
        <time>2022-05-17T14:04:07.000Z</time>
      </trkpt>
      <trkpt lat="46.19686" lon="-1.42328">
        <ele>3.18558</ele>
        <time>2022-05-17T14:04:08.000Z</time>
      </trkpt>
      <trkpt lat="46.19688" lon="-1.42328">
        <ele>3.21922</ele>
        <time>2022-05-17T14:04:09.000Z</time>
      </trkpt>
      <trkpt lat="46.19692" lon="-1.42327">
        <ele>3.2851</ele>
        <time>2022-05-17T14:04:10.000Z</time>
      </trkpt>
      <trkpt lat="46.19689" lon="-1.42323">
        <ele>3.29716</ele>
        <time>2022-05-17T14:04:12.000Z</time>
      </trkpt>
      <trkpt lat="46.19689" lon="-1.42319">
        <ele>3.32154</ele>
        <time>2022-05-17T14:04:14.000Z</time>
      </trkpt>
      <trkpt lat="46.19687" lon="-1.42314">
        <ele>3.33156</ele>
        <time>2022-05-17T14:04:16.000Z</time>
      </trkpt>
      <trkpt lat="46.19686" lon="-1.42312">
        <ele>3.33673</ele>
        <time>2022-05-17T14:04:17.000Z</time>
      </trkpt>
      <trkpt lat="46.19684" lon="-1.42309">
        <ele>3.34556</ele>
        <time>2022-05-17T14:04:18.000Z</time>
      </trkpt>
      <trkpt lat="46.19683" lon="-1.42307">
        <ele>3.35518</ele>
        <time>2022-05-17T14:04:19.000Z</time>
      </trkpt>
      <trkpt lat="46.19682" lon="-1.42303">
        <ele>3.37439</ele>
        <time>2022-05-17T14:04:20.000Z</time>
      </trkpt>
      <trkpt lat="46.19681" lon="-1.42299">
        <ele>3.40163</ele>
        <time>2022-05-17T14:04:21.000Z</time>
      </trkpt>
      <trkpt lat="46.19681" lon="-1.42295">
        <ele>3.4245</ele>
        <time>2022-05-17T14:04:22.000Z</time>
      </trkpt>
      <trkpt lat="46.1968" lon="-1.42291">
        <ele>3.44695</ele>
        <time>2022-05-17T14:04:23.000Z</time>
      </trkpt>
      <trkpt lat="46.19678" lon="-1.42287">
        <ele>3.45927</ele>
        <time>2022-05-17T14:04:24.000Z</time>
      </trkpt>
      <trkpt lat="46.19676" lon="-1.42284">
        <ele>3.44952</ele>
        <time>2022-05-17T14:04:25.000Z</time>
      </trkpt>
      <trkpt lat="46.19674" lon="-1.42279">
        <ele>3.41782</ele>
        <time>2022-05-17T14:04:26.000Z</time>
      </trkpt>
      <trkpt lat="46.19672" lon="-1.42276">
        <ele>3.37696</ele>
        <time>2022-05-17T14:04:27.000Z</time>
      </trkpt>
      <trkpt lat="46.19671" lon="-1.42274">
        <ele>3.33918</ele>
        <time>2022-05-17T14:04:28.000Z</time>
      </trkpt>
      <trkpt lat="46.19668" lon="-1.42272">
        <ele>3.28583</ele>
        <time>2022-05-17T14:04:29.000Z</time>
      </trkpt>
      <trkpt lat="46.19666" lon="-1.42269">
        <ele>3.22998</ele>
        <time>2022-05-17T14:04:30.000Z</time>
      </trkpt>
      <trkpt lat="46.19664" lon="-1.42267">
        <ele>3.18829</ele>
        <time>2022-05-17T14:04:31.000Z</time>
      </trkpt>
      <trkpt lat="46.19662" lon="-1.42264">
        <ele>3.15876</ele>
        <time>2022-05-17T14:04:32.000Z</time>
      </trkpt>
      <trkpt lat="46.1966" lon="-1.4226">
        <ele>3.14319</ele>
        <time>2022-05-17T14:04:33.000Z</time>
      </trkpt>
      <trkpt lat="46.19659" lon="-1.42256">
        <ele>3.14341</ele>
        <time>2022-05-17T14:04:34.000Z</time>
      </trkpt>
      <trkpt lat="46.19657" lon="-1.42253">
        <ele>3.15322</ele>
        <time>2022-05-17T14:04:35.000Z</time>
      </trkpt>
      <trkpt lat="46.19657" lon="-1.4225">
        <ele>3.17925</ele>
        <time>2022-05-17T14:04:36.000Z</time>
      </trkpt>
      <trkpt lat="46.19654" lon="-1.42245">
        <ele>3.20941</ele>
        <time>2022-05-17T14:04:37.000Z</time>
      </trkpt>
      <trkpt lat="46.19653" lon="-1.42241">
        <ele>3.24855</ele>
        <time>2022-05-17T14:04:38.000Z</time>
      </trkpt>
      <trkpt lat="46.19651" lon="-1.42234">
        <ele>3.31617</ele>
        <time>2022-05-17T14:04:39.000Z</time>
      </trkpt>
      <trkpt lat="46.1965" lon="-1.42228">
        <ele>3.36501</ele>
        <time>2022-05-17T14:04:40.000Z</time>
      </trkpt>
      <trkpt lat="46.19649" lon="-1.42223">
        <ele>3.38451</ele>
        <time>2022-05-17T14:04:41.000Z</time>
      </trkpt>
      <trkpt lat="46.19648" lon="-1.4222">
        <ele>3.38264</ele>
        <time>2022-05-17T14:04:42.000Z</time>
      </trkpt>
      <trkpt lat="46.19647" lon="-1.42217">
        <ele>3.36968</ele>
        <time>2022-05-17T14:04:43.000Z</time>
      </trkpt>
      <trkpt lat="46.19646" lon="-1.42213">
        <ele>3.3506</ele>
        <time>2022-05-17T14:04:44.000Z</time>
      </trkpt>
      <trkpt lat="46.19646" lon="-1.42211">
        <ele>3.33398</ele>
        <time>2022-05-17T14:04:45.000Z</time>
      </trkpt>
      <trkpt lat="46.19645" lon="-1.42207">
        <ele>3.31281</ele>
        <time>2022-05-17T14:04:46.000Z</time>
      </trkpt>
      <trkpt lat="46.19645" lon="-1.42204">
        <ele>3.29224</ele>
        <time>2022-05-17T14:04:47.000Z</time>
      </trkpt>
      <trkpt lat="46.19645" lon="-1.42199">
        <ele>3.26679</ele>
        <time>2022-05-17T14:04:48.000Z</time>
      </trkpt>
      <trkpt lat="46.19644" lon="-1.42194">
        <ele>3.24469</ele>
        <time>2022-05-17T14:04:49.000Z</time>
      </trkpt>
      <trkpt lat="46.19644" lon="-1.42187">
        <ele>3.25346</ele>
        <time>2022-05-17T14:04:50.000Z</time>
      </trkpt>
      <trkpt lat="46.19644" lon="-1.42181">
        <ele>3.28949</ele>
        <time>2022-05-17T14:04:51.000Z</time>
      </trkpt>
      <trkpt lat="46.19644" lon="-1.42176">
        <ele>3.33227</ele>
        <time>2022-05-17T14:04:52.000Z</time>
      </trkpt>
      <trkpt lat="46.19645" lon="-1.42172">
        <ele>3.37135</ele>
        <time>2022-05-17T14:04:53.000Z</time>
      </trkpt>
      <trkpt lat="46.19644" lon="-1.42168">
        <ele>3.40898</ele>
        <time>2022-05-17T14:04:54.000Z</time>
      </trkpt>
      <trkpt lat="46.19644" lon="-1.42163">
        <ele>3.44686</ele>
        <time>2022-05-17T14:04:55.000Z</time>
      </trkpt>
      <trkpt lat="46.19645" lon="-1.42159">
        <ele>3.47322</ele>
        <time>2022-05-17T14:04:56.000Z</time>
      </trkpt>
      <trkpt lat="46.19645" lon="-1.42155">
        <ele>3.48625</ele>
        <time>2022-05-17T14:04:57.000Z</time>
      </trkpt>
      <trkpt lat="46.19645" lon="-1.42151">
        <ele>3.49248</ele>
        <time>2022-05-17T14:04:58.000Z</time>
      </trkpt>
      <trkpt lat="46.19645" lon="-1.42147">
        <ele>3.48973</ele>
        <time>2022-05-17T14:04:59.000Z</time>
      </trkpt>
      <trkpt lat="46.19646" lon="-1.42143">
        <ele>3.48564</ele>
        <time>2022-05-17T14:05:00.000Z</time>
      </trkpt>
      <trkpt lat="46.19646" lon="-1.42141">
        <ele>3.48512</ele>
        <time>2022-05-17T14:05:01.000Z</time>
      </trkpt>
      <trkpt lat="46.19647" lon="-1.42137">
        <ele>3.48927</ele>
        <time>2022-05-17T14:05:02.000Z</time>
      </trkpt>
      <trkpt lat="46.19646" lon="-1.42132">
        <ele>3.49021</ele>
        <time>2022-05-17T14:05:03.000Z</time>
      </trkpt>
      <trkpt lat="46.19644" lon="-1.42128">
        <ele>3.48876</ele>
        <time>2022-05-17T14:05:04.000Z</time>
      </trkpt>
      <trkpt lat="46.19643" lon="-1.42122">
        <ele>3.50035</ele>
        <time>2022-05-17T14:05:05.000Z</time>
      </trkpt>
      <trkpt lat="46.19642" lon="-1.42116">
        <ele>3.54108</ele>
        <time>2022-05-17T14:05:06.000Z</time>
      </trkpt>
      <trkpt lat="46.19641" lon="-1.42111">
        <ele>3.58728</ele>
        <time>2022-05-17T14:05:07.000Z</time>
      </trkpt>
      <trkpt lat="46.1964" lon="-1.42105">
        <ele>3.65243</ele>
        <time>2022-05-17T14:05:08.000Z</time>
      </trkpt>
      <trkpt lat="46.19639" lon="-1.42099">
        <ele>3.71107</ele>
        <time>2022-05-17T14:05:09.000Z</time>
      </trkpt>
      <trkpt lat="46.19638" lon="-1.42093">
        <ele>3.74432</ele>
        <time>2022-05-17T14:05:10.000Z</time>
      </trkpt>
      <trkpt lat="46.19636" lon="-1.42086">
        <ele>3.74577</ele>
        <time>2022-05-17T14:05:11.000Z</time>
      </trkpt>
      <trkpt lat="46.19634" lon="-1.42079">
        <ele>3.72951</ele>
        <time>2022-05-17T14:05:12.000Z</time>
      </trkpt>
      <trkpt lat="46.19633" lon="-1.42073">
        <ele>3.70752</ele>
        <time>2022-05-17T14:05:13.000Z</time>
      </trkpt>
      <trkpt lat="46.19632" lon="-1.42068">
        <ele>3.68178</ele>
        <time>2022-05-17T14:05:14.000Z</time>
      </trkpt>
      <trkpt lat="46.19631" lon="-1.42063">
        <ele>3.66467</ele>
        <time>2022-05-17T14:05:15.000Z</time>
      </trkpt>
      <trkpt lat="46.19631" lon="-1.42058">
        <ele>3.65904</ele>
        <time>2022-05-17T14:05:16.000Z</time>
      </trkpt>
      <trkpt lat="46.1963" lon="-1.42054">
        <ele>3.6486</ele>
        <time>2022-05-17T14:05:17.000Z</time>
      </trkpt>
      <trkpt lat="46.1963" lon="-1.4205">
        <ele>3.62693</ele>
        <time>2022-05-17T14:05:18.000Z</time>
      </trkpt>
      <trkpt lat="46.19629" lon="-1.42046">
        <ele>3.60866</ele>
        <time>2022-05-17T14:05:19.000Z</time>
      </trkpt>
      <trkpt lat="46.19629" lon="-1.42042">
        <ele>3.60131</ele>
        <time>2022-05-17T14:05:20.000Z</time>
      </trkpt>
      <trkpt lat="46.19628" lon="-1.42038">
        <ele>3.59573</ele>
        <time>2022-05-17T14:05:21.000Z</time>
      </trkpt>
      <trkpt lat="46.19627" lon="-1.42035">
        <ele>3.58887</ele>
        <time>2022-05-17T14:05:22.000Z</time>
      </trkpt>
      <trkpt lat="46.19626" lon="-1.42033">
        <ele>3.57827</ele>
        <time>2022-05-17T14:05:23.000Z</time>
      </trkpt>
      <trkpt lat="46.19624" lon="-1.42029">
        <ele>3.57768</ele>
        <time>2022-05-17T14:05:24.000Z</time>
      </trkpt>
      <trkpt lat="46.19623" lon="-1.42026">
        <ele>3.59576</ele>
        <time>2022-05-17T14:05:25.000Z</time>
      </trkpt>
      <trkpt lat="46.19622" lon="-1.42022">
        <ele>3.63333</ele>
        <time>2022-05-17T14:05:26.000Z</time>
      </trkpt>
      <trkpt lat="46.19621" lon="-1.42019">
        <ele>3.66898</ele>
        <time>2022-05-17T14:05:27.000Z</time>
      </trkpt>
      <trkpt lat="46.19621" lon="-1.42017">
        <ele>3.70413</ele>
        <time>2022-05-17T14:05:28.000Z</time>
      </trkpt>
      <trkpt lat="46.1962" lon="-1.42014">
        <ele>3.74385</ele>
        <time>2022-05-17T14:05:29.000Z</time>
      </trkpt>
      <trkpt lat="46.19619" lon="-1.42011">
        <ele>3.77374</ele>
        <time>2022-05-17T14:05:30.000Z</time>
      </trkpt>
      <trkpt lat="46.19618" lon="-1.42008">
        <ele>3.80118</ele>
        <time>2022-05-17T14:05:31.000Z</time>
      </trkpt>
      <trkpt lat="46.19617" lon="-1.42005">
        <ele>3.82572</ele>
        <time>2022-05-17T14:05:32.000Z</time>
      </trkpt>
      <trkpt lat="46.19615" lon="-1.42">
        <ele>3.84892</ele>
        <time>2022-05-17T14:05:33.000Z</time>
      </trkpt>
      <trkpt lat="46.19614" lon="-1.41995">
        <ele>3.83854</ele>
        <time>2022-05-17T14:05:34.000Z</time>
      </trkpt>
      <trkpt lat="46.19614" lon="-1.4199">
        <ele>3.79953</ele>
        <time>2022-05-17T14:05:35.000Z</time>
      </trkpt>
      <trkpt lat="46.19613" lon="-1.41986">
        <ele>3.74809</ele>
        <time>2022-05-17T14:05:36.000Z</time>
      </trkpt>
      <trkpt lat="46.19612" lon="-1.41983">
        <ele>3.6833</ele>
        <time>2022-05-17T14:05:37.000Z</time>
      </trkpt>
      <trkpt lat="46.1961" lon="-1.41981">
        <ele>3.55845</ele>
        <time>2022-05-17T14:05:38.000Z</time>
      </trkpt>
      <trkpt lat="46.19607" lon="-1.41979">
        <ele>3.38222</ele>
        <time>2022-05-17T14:05:39.000Z</time>
      </trkpt>
      <trkpt lat="46.19604" lon="-1.41979">
        <ele>3.21168</ele>
        <time>2022-05-17T14:05:40.000Z</time>
      </trkpt>
      <trkpt lat="46.19601" lon="-1.41981">
        <ele>3.09591</ele>
        <time>2022-05-17T14:05:41.000Z</time>
      </trkpt>
      <trkpt lat="46.19598" lon="-1.41983">
        <ele>3.04426</ele>
        <time>2022-05-17T14:05:42.000Z</time>
      </trkpt>
      <trkpt lat="46.19596" lon="-1.41985">
        <ele>3.02912</ele>
        <time>2022-05-17T14:05:43.000Z</time>
      </trkpt>
      <trkpt lat="46.19594" lon="-1.41988">
        <ele>3.03225</ele>
        <time>2022-05-17T14:05:44.000Z</time>
      </trkpt>
      <trkpt lat="46.19592" lon="-1.41991">
        <ele>3.04375</ele>
        <time>2022-05-17T14:05:45.000Z</time>
      </trkpt>
      <trkpt lat="46.1959" lon="-1.41993">
        <ele>3.05512</ele>
        <time>2022-05-17T14:05:46.000Z</time>
      </trkpt>
      <trkpt lat="46.19588" lon="-1.41996">
        <ele>3.07115</ele>
        <time>2022-05-17T14:05:47.000Z</time>
      </trkpt>
      <trkpt lat="46.19586" lon="-1.41998">
        <ele>3.0899</ele>
        <time>2022-05-17T14:05:48.000Z</time>
      </trkpt>
      <trkpt lat="46.19585" lon="-1.42">
        <ele>3.10507</ele>
        <time>2022-05-17T14:05:49.000Z</time>
      </trkpt>
      <trkpt lat="46.19583" lon="-1.42002">
        <ele>3.11912</ele>
        <time>2022-05-17T14:05:50.000Z</time>
      </trkpt>
      <trkpt lat="46.19582" lon="-1.42004">
        <ele>3.13237</ele>
        <time>2022-05-17T14:05:51.000Z</time>
      </trkpt>
      <trkpt lat="46.19579" lon="-1.42007">
        <ele>3.14732</ele>
        <time>2022-05-17T14:05:53.000Z</time>
      </trkpt>
      <trkpt lat="46.19577" lon="-1.42008">
        <ele>3.15456</ele>
        <time>2022-05-17T14:05:54.000Z</time>
      </trkpt>
      <trkpt lat="46.19573" lon="-1.42008">
        <ele>3.17968</ele>
        <time>2022-05-17T14:05:56.000Z</time>
      </trkpt>
      <trkpt lat="46.1957" lon="-1.42007">
        <ele>3.20539</ele>
        <time>2022-05-17T14:05:57.000Z</time>
      </trkpt>
      <trkpt lat="46.19567" lon="-1.42009">
        <ele>3.22229</ele>
        <time>2022-05-17T14:05:58.000Z</time>
      </trkpt>
      <trkpt lat="46.19564" lon="-1.42013">
        <ele>3.24266</ele>
        <time>2022-05-17T14:05:59.000Z</time>
      </trkpt>
      <trkpt lat="46.19561" lon="-1.42017">
        <ele>3.26519</ele>
        <time>2022-05-17T14:06:00.000Z</time>
      </trkpt>
      <trkpt lat="46.19558" lon="-1.42019">
        <ele>3.29288</ele>
        <time>2022-05-17T14:06:01.000Z</time>
      </trkpt>
      <trkpt lat="46.19556" lon="-1.42023">
        <ele>3.31112</ele>
        <time>2022-05-17T14:06:02.000Z</time>
      </trkpt>
      <trkpt lat="46.19554" lon="-1.42026">
        <ele>3.33096</ele>
        <time>2022-05-17T14:06:03.000Z</time>
      </trkpt>
      <trkpt lat="46.19551" lon="-1.4203">
        <ele>3.34785</ele>
        <time>2022-05-17T14:06:04.000Z</time>
      </trkpt>
      <trkpt lat="46.19548" lon="-1.42033">
        <ele>3.34289</ele>
        <time>2022-05-17T14:06:05.000Z</time>
      </trkpt>
      <trkpt lat="46.19546" lon="-1.42036">
        <ele>3.33469</ele>
        <time>2022-05-17T14:06:06.000Z</time>
      </trkpt>
      <trkpt lat="46.19544" lon="-1.42038">
        <ele>3.32013</ele>
        <time>2022-05-17T14:06:07.000Z</time>
      </trkpt>
      <trkpt lat="46.19542" lon="-1.4204">
        <ele>3.29396</ele>
        <time>2022-05-17T14:06:08.000Z</time>
      </trkpt>
      <trkpt lat="46.1954" lon="-1.42042">
        <ele>3.25628</ele>
        <time>2022-05-17T14:06:09.000Z</time>
      </trkpt>
      <trkpt lat="46.19537" lon="-1.42042">
        <ele>3.21379</ele>
        <time>2022-05-17T14:06:10.000Z</time>
      </trkpt>
      <trkpt lat="46.19536" lon="-1.42043">
        <ele>3.18029</ele>
        <time>2022-05-17T14:06:11.000Z</time>
      </trkpt>
      <trkpt lat="46.19535" lon="-1.42047">
        <ele>3.17818</ele>
        <time>2022-05-17T14:06:13.000Z</time>
      </trkpt>
      <trkpt lat="46.19536" lon="-1.42049">
        <ele>3.21461</ele>
        <time>2022-05-17T14:06:15.000Z</time>
      </trkpt>
      <trkpt lat="46.19536" lon="-1.42052">
        <ele>3.22745</ele>
        <time>2022-05-17T14:06:18.000Z</time>
      </trkpt>
      <trkpt lat="46.19535" lon="-1.42051">
        <ele>3.19067</ele>
        <time>2022-05-17T14:06:25.000Z</time>
      </trkpt>
      <trkpt lat="46.19534" lon="-1.42047">
        <ele>3.16508</ele>
        <time>2022-05-17T14:06:43.000Z</time>
      </trkpt>
      <trkpt lat="46.19533" lon="-1.42042">
        <ele>3.14021</ele>
        <time>2022-05-17T14:06:44.000Z</time>
      </trkpt>
      <trkpt lat="46.19533" lon="-1.42035">
        <ele>3.10996</ele>
        <time>2022-05-17T14:06:45.000Z</time>
      </trkpt>
      <trkpt lat="46.19533" lon="-1.42029">
        <ele>3.08985</ele>
        <time>2022-05-17T14:06:46.000Z</time>
      </trkpt>
      <trkpt lat="46.19533" lon="-1.42023">
        <ele>3.08221</ele>
        <time>2022-05-17T14:06:47.000Z</time>
      </trkpt>
      <trkpt lat="46.19534" lon="-1.42017">
        <ele>3.09363</ele>
        <time>2022-05-17T14:06:48.000Z</time>
      </trkpt>
      <trkpt lat="46.19534" lon="-1.4201">
        <ele>3.12864</ele>
        <time>2022-05-17T14:06:49.000Z</time>
      </trkpt>
      <trkpt lat="46.19534" lon="-1.42004">
        <ele>3.16971</ele>
        <time>2022-05-17T14:06:50.000Z</time>
      </trkpt>
      <trkpt lat="46.19534" lon="-1.41999">
        <ele>3.20456</ele>
        <time>2022-05-17T14:06:51.000Z</time>
      </trkpt>
      <trkpt lat="46.19534" lon="-1.41994">
        <ele>3.23604</ele>
        <time>2022-05-17T14:06:52.000Z</time>
      </trkpt>
      <trkpt lat="46.19533" lon="-1.41988">
        <ele>3.25802</ele>
        <time>2022-05-17T14:06:53.000Z</time>
      </trkpt>
      <trkpt lat="46.19533" lon="-1.41982">
        <ele>3.27133</ele>
        <time>2022-05-17T14:06:54.000Z</time>
      </trkpt>
      <trkpt lat="46.19533" lon="-1.41976">
        <ele>3.28041</ele>
        <time>2022-05-17T14:06:55.000Z</time>
      </trkpt>
      <trkpt lat="46.19533" lon="-1.41971">
        <ele>3.28308</ele>
        <time>2022-05-17T14:06:56.000Z</time>
      </trkpt>
      <trkpt lat="46.19534" lon="-1.41966">
        <ele>3.28111</ele>
        <time>2022-05-17T14:06:57.000Z</time>
      </trkpt>
      <trkpt lat="46.19534" lon="-1.41961">
        <ele>3.27478</ele>
        <time>2022-05-17T14:06:58.000Z</time>
      </trkpt>
      <trkpt lat="46.19533" lon="-1.41954">
        <ele>3.25971</ele>
        <time>2022-05-17T14:06:59.000Z</time>
      </trkpt>
      <trkpt lat="46.19533" lon="-1.41947">
        <ele>3.21437</ele>
        <time>2022-05-17T14:07:00.000Z</time>
      </trkpt>
      <trkpt lat="46.19533" lon="-1.41942">
        <ele>3.17106</ele>
        <time>2022-05-17T14:07:01.000Z</time>
      </trkpt>
      <trkpt lat="46.19532" lon="-1.41939">
        <ele>3.14265</ele>
        <time>2022-05-17T14:07:02.000Z</time>
      </trkpt>
      <trkpt lat="46.19531" lon="-1.41935">
        <ele>3.10637</ele>
        <time>2022-05-17T14:07:03.000Z</time>
      </trkpt>
      <trkpt lat="46.19528" lon="-1.41932">
        <ele>3.08491</ele>
        <time>2022-05-17T14:07:04.000Z</time>
      </trkpt>
      <trkpt lat="46.19526" lon="-1.41929">
        <ele>3.0774</ele>
        <time>2022-05-17T14:07:05.000Z</time>
      </trkpt>
      <trkpt lat="46.19522" lon="-1.41927">
        <ele>3.083</ele>
        <time>2022-05-17T14:07:06.000Z</time>
      </trkpt>
      <trkpt lat="46.19517" lon="-1.41924">
        <ele>3.09493</ele>
        <time>2022-05-17T14:07:07.000Z</time>
      </trkpt>
      <trkpt lat="46.19513" lon="-1.41923">
        <ele>3.09841</ele>
        <time>2022-05-17T14:07:08.000Z</time>
      </trkpt>
      <trkpt lat="46.19509" lon="-1.41922">
        <ele>3.0893</ele>
        <time>2022-05-17T14:07:09.000Z</time>
      </trkpt>
      <trkpt lat="46.19504" lon="-1.41922">
        <ele>3.06648</ele>
        <time>2022-05-17T14:07:10.000Z</time>
      </trkpt>
      <trkpt lat="46.195" lon="-1.41922">
        <ele>3.0344</ele>
        <time>2022-05-17T14:07:11.000Z</time>
      </trkpt>
      <trkpt lat="46.19496" lon="-1.41923">
        <ele>2.99797</ele>
        <time>2022-05-17T14:07:12.000Z</time>
      </trkpt>
      <trkpt lat="46.19493" lon="-1.41924">
        <ele>2.96452</ele>
        <time>2022-05-17T14:07:13.000Z</time>
      </trkpt>
      <trkpt lat="46.19489" lon="-1.41924">
        <ele>2.92936</ele>
        <time>2022-05-17T14:07:14.000Z</time>
      </trkpt>
      <trkpt lat="46.19486" lon="-1.41925">
        <ele>2.90343</ele>
        <time>2022-05-17T14:07:15.000Z</time>
      </trkpt>
      <trkpt lat="46.19483" lon="-1.41924">
        <ele>2.88649</ele>
        <time>2022-05-17T14:07:16.000Z</time>
      </trkpt>
      <trkpt lat="46.19479" lon="-1.41924">
        <ele>2.8702</ele>
        <time>2022-05-17T14:07:17.000Z</time>
      </trkpt>
      <trkpt lat="46.19475" lon="-1.41924">
        <ele>2.85284</ele>
        <time>2022-05-17T14:07:18.000Z</time>
      </trkpt>
      <trkpt lat="46.19471" lon="-1.41924">
        <ele>2.83669</ele>
        <time>2022-05-17T14:07:19.000Z</time>
      </trkpt>
      <trkpt lat="46.19467" lon="-1.41924">
        <ele>2.81791</ele>
        <time>2022-05-17T14:07:20.000Z</time>
      </trkpt>
      <trkpt lat="46.19463" lon="-1.41923">
        <ele>2.79185</ele>
        <time>2022-05-17T14:07:21.000Z</time>
      </trkpt>
      <trkpt lat="46.19459" lon="-1.41923">
        <ele>2.75763</ele>
        <time>2022-05-17T14:07:22.000Z</time>
      </trkpt>
      <trkpt lat="46.19455" lon="-1.41922">
        <ele>2.71952</ele>
        <time>2022-05-17T14:07:23.000Z</time>
      </trkpt>
      <trkpt lat="46.19451" lon="-1.41922">
        <ele>2.68204</ele>
        <time>2022-05-17T14:07:24.000Z</time>
      </trkpt>
      <trkpt lat="46.19447" lon="-1.41922">
        <ele>2.64847</ele>
        <time>2022-05-17T14:07:25.000Z</time>
      </trkpt>
      <trkpt lat="46.19444" lon="-1.41922">
        <ele>2.61796</ele>
        <time>2022-05-17T14:07:26.000Z</time>
      </trkpt>
      <trkpt lat="46.19441" lon="-1.41921">
        <ele>2.59116</ele>
        <time>2022-05-17T14:07:27.000Z</time>
      </trkpt>
      <trkpt lat="46.19438" lon="-1.4192">
        <ele>2.55762</ele>
        <time>2022-05-17T14:07:28.000Z</time>
      </trkpt>
      <trkpt lat="46.19435" lon="-1.41919">
        <ele>2.52006</ele>
        <time>2022-05-17T14:07:29.000Z</time>
      </trkpt>
      <trkpt lat="46.19432" lon="-1.41917">
        <ele>2.4848</ele>
        <time>2022-05-17T14:07:30.000Z</time>
      </trkpt>
      <trkpt lat="46.19428" lon="-1.41916">
        <ele>2.45545</ele>
        <time>2022-05-17T14:07:31.000Z</time>
      </trkpt>
      <trkpt lat="46.19425" lon="-1.41914">
        <ele>2.43487</ele>
        <time>2022-05-17T14:07:32.000Z</time>
      </trkpt>
      <trkpt lat="46.19422" lon="-1.41912">
        <ele>2.41877</ele>
        <time>2022-05-17T14:07:33.000Z</time>
      </trkpt>
      <trkpt lat="46.19419" lon="-1.41911">
        <ele>2.41174</ele>
        <time>2022-05-17T14:07:34.000Z</time>
      </trkpt>
      <trkpt lat="46.19416" lon="-1.41909">
        <ele>2.41491</ele>
        <time>2022-05-17T14:07:35.000Z</time>
      </trkpt>
      <trkpt lat="46.19413" lon="-1.41907">
        <ele>2.42686</ele>
        <time>2022-05-17T14:07:36.000Z</time>
      </trkpt>
      <trkpt lat="46.1941" lon="-1.41905">
        <ele>2.44629</ele>
        <time>2022-05-17T14:07:37.000Z</time>
      </trkpt>
      <trkpt lat="46.19407" lon="-1.41903">
        <ele>2.47559</ele>
        <time>2022-05-17T14:07:38.000Z</time>
      </trkpt>
      <trkpt lat="46.19404" lon="-1.419">
        <ele>2.50884</ele>
        <time>2022-05-17T14:07:39.000Z</time>
      </trkpt>
      <trkpt lat="46.19402" lon="-1.41898">
        <ele>2.53692</ele>
        <time>2022-05-17T14:07:40.000Z</time>
      </trkpt>
      <trkpt lat="46.19401" lon="-1.41895">
        <ele>2.55942</ele>
        <time>2022-05-17T14:07:41.000Z</time>
      </trkpt>
      <trkpt lat="46.19401" lon="-1.41895">
        <ele>2.55942</ele>
        <time>2022-05-17T14:07:41.000Z</time>
      </trkpt>
      <trkpt lat="46.19401" lon="-1.4189">
        <ele>2.57954</ele>
        <time>2022-05-17T14:07:42.000Z</time>
      </trkpt>
      <trkpt lat="46.19401" lon="-1.41885">
        <ele>2.5825</ele>
        <time>2022-05-17T14:07:43.000Z</time>
      </trkpt>
      <trkpt lat="46.19403" lon="-1.4188">
        <ele>2.55054</ele>
        <time>2022-05-17T14:07:44.000Z</time>
      </trkpt>
      <trkpt lat="46.19405" lon="-1.41875">
        <ele>2.47312</ele>
        <time>2022-05-17T14:07:45.000Z</time>
      </trkpt>
      <trkpt lat="46.19407" lon="-1.4187">
        <ele>2.38018</ele>
        <time>2022-05-17T14:07:46.000Z</time>
      </trkpt>
      <trkpt lat="46.19409" lon="-1.41866">
        <ele>2.30392</ele>
        <time>2022-05-17T14:07:47.000Z</time>
      </trkpt>
      <trkpt lat="46.19411" lon="-1.41862">
        <ele>2.25302</ele>
        <time>2022-05-17T14:07:48.000Z</time>
      </trkpt>
      <trkpt lat="46.19413" lon="-1.41858">
        <ele>2.21881</ele>
        <time>2022-05-17T14:07:49.000Z</time>
      </trkpt>
      <trkpt lat="46.19414" lon="-1.41851">
        <ele>2.19932</ele>
        <time>2022-05-17T14:07:50.000Z</time>
      </trkpt>
      <trkpt lat="46.19416" lon="-1.41844">
        <ele>2.1968</ele>
        <time>2022-05-17T14:07:51.000Z</time>
      </trkpt>
      <trkpt lat="46.19417" lon="-1.41838">
        <ele>2.18684</ele>
        <time>2022-05-17T14:07:52.000Z</time>
      </trkpt>
      <trkpt lat="46.19417" lon="-1.41833">
        <ele>2.16559</ele>
        <time>2022-05-17T14:07:53.000Z</time>
      </trkpt>
      <trkpt lat="46.19418" lon="-1.41827">
        <ele>2.15631</ele>
        <time>2022-05-17T14:07:54.000Z</time>
      </trkpt>
      <trkpt lat="46.19419" lon="-1.41822">
        <ele>2.14593</ele>
        <time>2022-05-17T14:07:55.000Z</time>
      </trkpt>
      <trkpt lat="46.19419" lon="-1.41817">
        <ele>2.13258</ele>
        <time>2022-05-17T14:07:56.000Z</time>
      </trkpt>
      <trkpt lat="46.19419" lon="-1.41811">
        <ele>2.12111</ele>
        <time>2022-05-17T14:07:57.000Z</time>
      </trkpt>
      <trkpt lat="46.19419" lon="-1.41805">
        <ele>2.11728</ele>
        <time>2022-05-17T14:07:58.000Z</time>
      </trkpt>
      <trkpt lat="46.19419" lon="-1.418">
        <ele>2.10966</ele>
        <time>2022-05-17T14:07:59.000Z</time>
      </trkpt>
      <trkpt lat="46.19418" lon="-1.41795">
        <ele>2.09974</ele>
        <time>2022-05-17T14:08:00.000Z</time>
      </trkpt>
      <trkpt lat="46.19418" lon="-1.41791">
        <ele>2.08425</ele>
        <time>2022-05-17T14:08:01.000Z</time>
      </trkpt>
      <trkpt lat="46.19417" lon="-1.41787">
        <ele>2.06889</ele>
        <time>2022-05-17T14:08:02.000Z</time>
      </trkpt>
      <trkpt lat="46.19416" lon="-1.41782">
        <ele>2.06131</ele>
        <time>2022-05-17T14:08:03.000Z</time>
      </trkpt>
      <trkpt lat="46.19415" lon="-1.41776">
        <ele>2.07828</ele>
        <time>2022-05-17T14:08:04.000Z</time>
      </trkpt>
      <trkpt lat="46.19415" lon="-1.41771">
        <ele>2.11342</ele>
        <time>2022-05-17T14:08:05.000Z</time>
      </trkpt>
      <trkpt lat="46.19414" lon="-1.41766">
        <ele>2.16142</ele>
        <time>2022-05-17T14:08:06.000Z</time>
      </trkpt>
      <trkpt lat="46.19413" lon="-1.41761">
        <ele>2.21123</ele>
        <time>2022-05-17T14:08:07.000Z</time>
      </trkpt>
      <trkpt lat="46.19413" lon="-1.41758">
        <ele>2.24845</ele>
        <time>2022-05-17T14:08:08.000Z</time>
      </trkpt>
      <trkpt lat="46.19412" lon="-1.41755">
        <ele>2.28964</ele>
        <time>2022-05-17T14:08:09.000Z</time>
      </trkpt>
      <trkpt lat="46.19411" lon="-1.41751">
        <ele>2.34264</ele>
        <time>2022-05-17T14:08:10.000Z</time>
      </trkpt>
      <trkpt lat="46.1941" lon="-1.41746">
        <ele>2.40644</ele>
        <time>2022-05-17T14:08:11.000Z</time>
      </trkpt>
      <trkpt lat="46.19408" lon="-1.4174">
        <ele>2.49215</ele>
        <time>2022-05-17T14:08:12.000Z</time>
      </trkpt>
      <trkpt lat="46.19407" lon="-1.41734">
        <ele>2.55905</ele>
        <time>2022-05-17T14:08:13.000Z</time>
      </trkpt>
      <trkpt lat="46.19405" lon="-1.41728">
        <ele>2.60012</ele>
        <time>2022-05-17T14:08:14.000Z</time>
      </trkpt>
      <trkpt lat="46.19403" lon="-1.41722">
        <ele>2.58925</ele>
        <time>2022-05-17T14:08:15.000Z</time>
      </trkpt>
      <trkpt lat="46.194" lon="-1.41706">
        <ele>2.37281</ele>
        <time>2022-05-17T14:08:16.000Z</time>
      </trkpt>
      <trkpt lat="46.19399" lon="-1.417">
        <ele>2.23789</ele>
        <time>2022-05-17T14:08:17.000Z</time>
      </trkpt>
      <trkpt lat="46.19396" lon="-1.41696">
        <ele>2.12039</ele>
        <time>2022-05-17T14:08:18.000Z</time>
      </trkpt>
      <trkpt lat="46.19394" lon="-1.41683">
        <ele>2.04669</ele>
        <time>2022-05-17T14:08:19.000Z</time>
      </trkpt>
      <trkpt lat="46.19393" lon="-1.41678">
        <ele>2.08117</ele>
        <time>2022-05-17T14:08:20.000Z</time>
      </trkpt>
      <trkpt lat="46.19392" lon="-1.41674">
        <ele>2.13608</ele>
        <time>2022-05-17T14:08:21.000Z</time>
      </trkpt>
      <trkpt lat="46.19389" lon="-1.4167">
        <ele>2.1607</ele>
        <time>2022-05-17T14:08:23.000Z</time>
      </trkpt>
      <trkpt lat="46.19386" lon="-1.41665">
        <ele>2.2219</ele>
        <time>2022-05-17T14:08:24.000Z</time>
      </trkpt>
      <trkpt lat="46.19384" lon="-1.41663">
        <ele>2.2193</ele>
        <time>2022-05-17T14:08:25.000Z</time>
      </trkpt>
      <trkpt lat="46.19383" lon="-1.4166">
        <ele>2.2428</ele>
        <time>2022-05-17T14:08:26.000Z</time>
      </trkpt>
      <trkpt lat="46.1938" lon="-1.41655">
        <ele>2.21035</ele>
        <time>2022-05-17T14:08:27.000Z</time>
      </trkpt>
      <trkpt lat="46.19379" lon="-1.41652">
        <ele>2.19211</ele>
        <time>2022-05-17T14:08:28.000Z</time>
      </trkpt>
      <trkpt lat="46.19377" lon="-1.41648">
        <ele>2.16677</ele>
        <time>2022-05-17T14:08:29.000Z</time>
      </trkpt>
      <trkpt lat="46.19376" lon="-1.41643">
        <ele>2.13985</ele>
        <time>2022-05-17T14:08:30.000Z</time>
      </trkpt>
      <trkpt lat="46.19375" lon="-1.41638">
        <ele>2.11155</ele>
        <time>2022-05-17T14:08:31.000Z</time>
      </trkpt>
      <trkpt lat="46.19373" lon="-1.41633">
        <ele>2.08904</ele>
        <time>2022-05-17T14:08:32.000Z</time>
      </trkpt>
      <trkpt lat="46.19373" lon="-1.41628">
        <ele>2.09149</ele>
        <time>2022-05-17T14:08:33.000Z</time>
      </trkpt>
      <trkpt lat="46.19372" lon="-1.41624">
        <ele>2.10582</ele>
        <time>2022-05-17T14:08:34.000Z</time>
      </trkpt>
      <trkpt lat="46.19371" lon="-1.4162">
        <ele>2.12273</ele>
        <time>2022-05-17T14:08:35.000Z</time>
      </trkpt>
      <trkpt lat="46.19371" lon="-1.41617">
        <ele>2.14275</ele>
        <time>2022-05-17T14:08:36.000Z</time>
      </trkpt>
      <trkpt lat="46.1937" lon="-1.41613">
        <ele>2.16066</ele>
        <time>2022-05-17T14:08:37.000Z</time>
      </trkpt>
      <trkpt lat="46.1937" lon="-1.41609">
        <ele>2.1795</ele>
        <time>2022-05-17T14:08:38.000Z</time>
      </trkpt>
      <trkpt lat="46.19369" lon="-1.41606">
        <ele>2.19975</ele>
        <time>2022-05-17T14:08:39.000Z</time>
      </trkpt>
      <trkpt lat="46.19369" lon="-1.41599">
        <ele>2.23957</ele>
        <time>2022-05-17T14:08:40.000Z</time>
      </trkpt>
      <trkpt lat="46.19369" lon="-1.41593">
        <ele>2.28477</ele>
        <time>2022-05-17T14:08:41.000Z</time>
      </trkpt>
      <trkpt lat="46.19369" lon="-1.41588">
        <ele>2.33653</ele>
        <time>2022-05-17T14:08:42.000Z</time>
      </trkpt>
      <trkpt lat="46.19368" lon="-1.41583">
        <ele>2.39546</ele>
        <time>2022-05-17T14:08:43.000Z</time>
      </trkpt>
      <trkpt lat="46.19368" lon="-1.41577">
        <ele>2.50142</ele>
        <time>2022-05-17T14:08:44.000Z</time>
      </trkpt>
      <trkpt lat="46.19368" lon="-1.41571">
        <ele>2.64377</ele>
        <time>2022-05-17T14:08:45.000Z</time>
      </trkpt>
      <trkpt lat="46.19367" lon="-1.41564">
        <ele>2.79363</ele>
        <time>2022-05-17T14:08:46.000Z</time>
      </trkpt>
      <trkpt lat="46.19367" lon="-1.41557">
        <ele>2.90706</ele>
        <time>2022-05-17T14:08:47.000Z</time>
      </trkpt>
      <trkpt lat="46.19367" lon="-1.41551">
        <ele>2.96114</ele>
        <time>2022-05-17T14:08:48.000Z</time>
      </trkpt>
      <trkpt lat="46.19366" lon="-1.41545">
        <ele>2.95505</ele>
        <time>2022-05-17T14:08:49.000Z</time>
      </trkpt>
      <trkpt lat="46.19366" lon="-1.41539">
        <ele>2.91509</ele>
        <time>2022-05-17T14:08:50.000Z</time>
      </trkpt>
      <trkpt lat="46.19366" lon="-1.41534">
        <ele>2.84225</ele>
        <time>2022-05-17T14:08:51.000Z</time>
      </trkpt>
      <trkpt lat="46.19365" lon="-1.41529">
        <ele>2.75906</ele>
        <time>2022-05-17T14:08:52.000Z</time>
      </trkpt>
      <trkpt lat="46.19364" lon="-1.41524">
        <ele>2.66449</ele>
        <time>2022-05-17T14:08:53.000Z</time>
      </trkpt>
      <trkpt lat="46.19364" lon="-1.41519">
        <ele>2.5809</ele>
        <time>2022-05-17T14:08:54.000Z</time>
      </trkpt>
      <trkpt lat="46.19363" lon="-1.41514">
        <ele>2.49507</ele>
        <time>2022-05-17T14:08:55.000Z</time>
      </trkpt>
      <trkpt lat="46.19362" lon="-1.4151">
        <ele>2.39397</ele>
        <time>2022-05-17T14:08:56.000Z</time>
      </trkpt>
      <trkpt lat="46.19361" lon="-1.41505">
        <ele>2.29188</ele>
        <time>2022-05-17T14:08:57.000Z</time>
      </trkpt>
      <trkpt lat="46.1936" lon="-1.415">
        <ele>2.19821</ele>
        <time>2022-05-17T14:08:58.000Z</time>
      </trkpt>
      <trkpt lat="46.19359" lon="-1.41495">
        <ele>2.1173</ele>
        <time>2022-05-17T14:08:59.000Z</time>
      </trkpt>
      <trkpt lat="46.19357" lon="-1.4149">
        <ele>2.06753</ele>
        <time>2022-05-17T14:09:00.000Z</time>
      </trkpt>
      <trkpt lat="46.19356" lon="-1.41484">
        <ele>2.07061</ele>
        <time>2022-05-17T14:09:01.000Z</time>
      </trkpt>
      <trkpt lat="46.19354" lon="-1.41479">
        <ele>2.15154</ele>
        <time>2022-05-17T14:09:02.000Z</time>
      </trkpt>
      <trkpt lat="46.19353" lon="-1.41473">
        <ele>2.2987</ele>
        <time>2022-05-17T14:09:03.000Z</time>
      </trkpt>
      <trkpt lat="46.19352" lon="-1.41468">
        <ele>2.45277</ele>
        <time>2022-05-17T14:09:04.000Z</time>
      </trkpt>
      <trkpt lat="46.19351" lon="-1.41463">
        <ele>2.6074</ele>
        <time>2022-05-17T14:09:05.000Z</time>
      </trkpt>
      <trkpt lat="46.19349" lon="-1.41457">
        <ele>2.73217</ele>
        <time>2022-05-17T14:09:06.000Z</time>
      </trkpt>
      <trkpt lat="46.19347" lon="-1.41452">
        <ele>2.7833</ele>
        <time>2022-05-17T14:09:07.000Z</time>
      </trkpt>
      <trkpt lat="46.19346" lon="-1.41446">
        <ele>2.74337</ele>
        <time>2022-05-17T14:09:08.000Z</time>
      </trkpt>
      <trkpt lat="46.19345" lon="-1.4144">
        <ele>2.63662</ele>
        <time>2022-05-17T14:09:09.000Z</time>
      </trkpt>
      <trkpt lat="46.19343" lon="-1.41433">
        <ele>2.49754</ele>
        <time>2022-05-17T14:09:10.000Z</time>
      </trkpt>
      <trkpt lat="46.19343" lon="-1.41424">
        <ele>2.34628</ele>
        <time>2022-05-17T14:09:11.000Z</time>
      </trkpt>
      <trkpt lat="46.1934" lon="-1.41412">
        <ele>2.18474</ele>
        <time>2022-05-17T14:09:13.000Z</time>
      </trkpt>
      <trkpt lat="46.19338" lon="-1.41409">
        <ele>2.13481</ele>
        <time>2022-05-17T14:09:14.000Z</time>
      </trkpt>
      <trkpt lat="46.19338" lon="-1.41402">
        <ele>2.12462</ele>
        <time>2022-05-17T14:09:15.000Z</time>
      </trkpt>
      <trkpt lat="46.19337" lon="-1.41397">
        <ele>2.12229</ele>
        <time>2022-05-17T14:09:16.000Z</time>
      </trkpt>
      <trkpt lat="46.19336" lon="-1.41391">
        <ele>2.10906</ele>
        <time>2022-05-17T14:09:17.000Z</time>
      </trkpt>
      <trkpt lat="46.19335" lon="-1.41386">
        <ele>2.08969</ele>
        <time>2022-05-17T14:09:18.000Z</time>
      </trkpt>
      <trkpt lat="46.19334" lon="-1.41381">
        <ele>2.06949</ele>
        <time>2022-05-17T14:09:19.000Z</time>
      </trkpt>
      <trkpt lat="46.19333" lon="-1.41376">
        <ele>2.04824</ele>
        <time>2022-05-17T14:09:20.000Z</time>
      </trkpt>
      <trkpt lat="46.19334" lon="-1.41373">
        <ele>2.04543</ele>
        <time>2022-05-17T14:09:21.000Z</time>
      </trkpt>
      <trkpt lat="46.19333" lon="-1.41368">
        <ele>2.0343</ele>
        <time>2022-05-17T14:09:22.000Z</time>
      </trkpt>
      <trkpt lat="46.19334" lon="-1.41364">
        <ele>2.02591</ele>
        <time>2022-05-17T14:09:23.000Z</time>
      </trkpt>
      <trkpt lat="46.19334" lon="-1.41359">
        <ele>2.01832</ele>
        <time>2022-05-17T14:09:24.000Z</time>
      </trkpt>
      <trkpt lat="46.19334" lon="-1.41354">
        <ele>2.01796</ele>
        <time>2022-05-17T14:09:25.000Z</time>
      </trkpt>
      <trkpt lat="46.19335" lon="-1.41349">
        <ele>2.03038</ele>
        <time>2022-05-17T14:09:26.000Z</time>
      </trkpt>
      <trkpt lat="46.19337" lon="-1.41344">
        <ele>2.0641</ele>
        <time>2022-05-17T14:09:27.000Z</time>
      </trkpt>
      <trkpt lat="46.19338" lon="-1.4134">
        <ele>2.12411</ele>
        <time>2022-05-17T14:09:28.000Z</time>
      </trkpt>
      <trkpt lat="46.1934" lon="-1.41335">
        <ele>2.21365</ele>
        <time>2022-05-17T14:09:29.000Z</time>
      </trkpt>
      <trkpt lat="46.19342" lon="-1.41331">
        <ele>2.32743</ele>
        <time>2022-05-17T14:09:30.000Z</time>
      </trkpt>
      <trkpt lat="46.19345" lon="-1.41328">
        <ele>2.47746</ele>
        <time>2022-05-17T14:09:31.000Z</time>
      </trkpt>
      <trkpt lat="46.19348" lon="-1.41324">
        <ele>2.62673</ele>
        <time>2022-05-17T14:09:32.000Z</time>
      </trkpt>
      <trkpt lat="46.19351" lon="-1.41321">
        <ele>2.72447</ele>
        <time>2022-05-17T14:09:33.000Z</time>
      </trkpt>
      <trkpt lat="46.19354" lon="-1.41317">
        <ele>2.74077</ele>
        <time>2022-05-17T14:09:34.000Z</time>
      </trkpt>
      <trkpt lat="46.19356" lon="-1.41314">
        <ele>2.6774</ele>
        <time>2022-05-17T14:09:35.000Z</time>
      </trkpt>
      <trkpt lat="46.19359" lon="-1.4131">
        <ele>2.56523</ele>
        <time>2022-05-17T14:09:36.000Z</time>
      </trkpt>
      <trkpt lat="46.19362" lon="-1.41306">
        <ele>2.4429</ele>
        <time>2022-05-17T14:09:37.000Z</time>
      </trkpt>
      <trkpt lat="46.19364" lon="-1.41302">
        <ele>2.33096</ele>
        <time>2022-05-17T14:09:38.000Z</time>
      </trkpt>
      <trkpt lat="46.19366" lon="-1.41297">
        <ele>2.25027</ele>
        <time>2022-05-17T14:09:39.000Z</time>
      </trkpt>
      <trkpt lat="46.19368" lon="-1.41292">
        <ele>2.21704</ele>
        <time>2022-05-17T14:09:40.000Z</time>
      </trkpt>
      <trkpt lat="46.1937" lon="-1.41287">
        <ele>2.23379</ele>
        <time>2022-05-17T14:09:41.000Z</time>
      </trkpt>
      <trkpt lat="46.19372" lon="-1.41281">
        <ele>2.28954</ele>
        <time>2022-05-17T14:09:42.000Z</time>
      </trkpt>
      <trkpt lat="46.19373" lon="-1.41275">
        <ele>2.37367</ele>
        <time>2022-05-17T14:09:43.000Z</time>
      </trkpt>
      <trkpt lat="46.19375" lon="-1.41269">
        <ele>2.469</ele>
        <time>2022-05-17T14:09:44.000Z</time>
      </trkpt>
      <trkpt lat="46.19376" lon="-1.41262">
        <ele>2.54877</ele>
        <time>2022-05-17T14:09:45.000Z</time>
      </trkpt>
      <trkpt lat="46.19377" lon="-1.41256">
        <ele>2.59994</ele>
        <time>2022-05-17T14:09:46.000Z</time>
      </trkpt>
      <trkpt lat="46.19378" lon="-1.4125">
        <ele>2.63494</ele>
        <time>2022-05-17T14:09:47.000Z</time>
      </trkpt>
      <trkpt lat="46.19379" lon="-1.41244">
        <ele>2.65529</ele>
        <time>2022-05-17T14:09:48.000Z</time>
      </trkpt>
      <trkpt lat="46.1938" lon="-1.41238">
        <ele>2.66376</ele>
        <time>2022-05-17T14:09:49.000Z</time>
      </trkpt>
      <trkpt lat="46.19381" lon="-1.41232">
        <ele>2.66658</ele>
        <time>2022-05-17T14:09:50.000Z</time>
      </trkpt>
      <trkpt lat="46.19382" lon="-1.41221">
        <ele>2.66963</ele>
        <time>2022-05-17T14:09:51.000Z</time>
      </trkpt>
      <trkpt lat="46.19382" lon="-1.41214">
        <ele>2.67031</ele>
        <time>2022-05-17T14:09:52.000Z</time>
      </trkpt>
      <trkpt lat="46.19384" lon="-1.41208">
        <ele>2.66263</ele>
        <time>2022-05-17T14:09:53.000Z</time>
      </trkpt>
      <trkpt lat="46.19384" lon="-1.41203">
        <ele>2.64618</ele>
        <time>2022-05-17T14:09:54.000Z</time>
      </trkpt>
      <trkpt lat="46.19385" lon="-1.41194">
        <ele>2.58525</ele>
        <time>2022-05-17T14:09:55.000Z</time>
      </trkpt>
      <trkpt lat="46.19384" lon="-1.41187">
        <ele>2.49478</ele>
        <time>2022-05-17T14:09:56.000Z</time>
      </trkpt>
      <trkpt lat="46.19385" lon="-1.41181">
        <ele>2.40189</ele>
        <time>2022-05-17T14:09:57.000Z</time>
      </trkpt>
      <trkpt lat="46.19386" lon="-1.41174">
        <ele>2.28525</ele>
        <time>2022-05-17T14:09:58.000Z</time>
      </trkpt>
      <trkpt lat="46.19386" lon="-1.4117">
        <ele>2.22139</ele>
        <time>2022-05-17T14:09:59.000Z</time>
      </trkpt>
      <trkpt lat="46.19388" lon="-1.41164">
        <ele>2.16243</ele>
        <time>2022-05-17T14:10:00.000Z</time>
      </trkpt>
      <trkpt lat="46.19389" lon="-1.41156">
        <ele>2.11741</ele>
        <time>2022-05-17T14:10:01.000Z</time>
      </trkpt>
      <trkpt lat="46.1939" lon="-1.41151">
        <ele>2.10434</ele>
        <time>2022-05-17T14:10:02.000Z</time>
      </trkpt>
      <trkpt lat="46.19391" lon="-1.41146">
        <ele>2.08958</ele>
        <time>2022-05-17T14:10:03.000Z</time>
      </trkpt>
      <trkpt lat="46.19393" lon="-1.41141">
        <ele>2.1019</ele>
        <time>2022-05-17T14:10:04.000Z</time>
      </trkpt>
      <trkpt lat="46.19395" lon="-1.41136">
        <ele>2.124</ele>
        <time>2022-05-17T14:10:05.000Z</time>
      </trkpt>
      <trkpt lat="46.19397" lon="-1.41129">
        <ele>2.1571</ele>
        <time>2022-05-17T14:10:06.000Z</time>
      </trkpt>
      <trkpt lat="46.19399" lon="-1.41124">
        <ele>2.22472</ele>
        <time>2022-05-17T14:10:07.000Z</time>
      </trkpt>
      <trkpt lat="46.194" lon="-1.41118">
        <ele>2.28444</ele>
        <time>2022-05-17T14:10:08.000Z</time>
      </trkpt>
      <trkpt lat="46.19402" lon="-1.41112">
        <ele>2.38582</ele>
        <time>2022-05-17T14:10:09.000Z</time>
      </trkpt>
      <trkpt lat="46.19404" lon="-1.41106">
        <ele>2.45274</ele>
        <time>2022-05-17T14:10:10.000Z</time>
      </trkpt>
      <trkpt lat="46.19405" lon="-1.41099">
        <ele>2.46809</ele>
        <time>2022-05-17T14:10:11.000Z</time>
      </trkpt>
      <trkpt lat="46.19407" lon="-1.41091">
        <ele>2.40864</ele>
        <time>2022-05-17T14:10:12.000Z</time>
      </trkpt>
      <trkpt lat="46.19408" lon="-1.41084">
        <ele>2.32296</ele>
        <time>2022-05-17T14:10:13.000Z</time>
      </trkpt>
      <trkpt lat="46.19409" lon="-1.41078">
        <ele>2.2416</ele>
        <time>2022-05-17T14:10:14.000Z</time>
      </trkpt>
      <trkpt lat="46.19411" lon="-1.41073">
        <ele>2.19562</ele>
        <time>2022-05-17T14:10:15.000Z</time>
      </trkpt>
      <trkpt lat="46.19411" lon="-1.41067">
        <ele>2.15977</ele>
        <time>2022-05-17T14:10:16.000Z</time>
      </trkpt>
      <trkpt lat="46.19412" lon="-1.41059">
        <ele>2.18467</ele>
        <time>2022-05-17T14:10:17.000Z</time>
      </trkpt>
      <trkpt lat="46.1941" lon="-1.41054">
        <ele>2.21373</ele>
        <time>2022-05-17T14:10:18.000Z</time>
      </trkpt>
      <trkpt lat="46.1941" lon="-1.41045">
        <ele>2.28395</ele>
        <time>2022-05-17T14:10:19.000Z</time>
      </trkpt>
      <trkpt lat="46.19408" lon="-1.4104">
        <ele>2.28732</ele>
        <time>2022-05-17T14:10:20.000Z</time>
      </trkpt>
      <trkpt lat="46.19406" lon="-1.41034">
        <ele>2.2477</ele>
        <time>2022-05-17T14:10:21.000Z</time>
      </trkpt>
      <trkpt lat="46.19404" lon="-1.41026">
        <ele>2.12605</ele>
        <time>2022-05-17T14:10:22.000Z</time>
      </trkpt>
      <trkpt lat="46.19402" lon="-1.4102">
        <ele>1.99491</ele>
        <time>2022-05-17T14:10:23.000Z</time>
      </trkpt>
      <trkpt lat="46.194" lon="-1.41011">
        <ele>1.87832</ele>
        <time>2022-05-17T14:10:24.000Z</time>
      </trkpt>
      <trkpt lat="46.19399" lon="-1.41005">
        <ele>1.81777</ele>
        <time>2022-05-17T14:10:25.000Z</time>
      </trkpt>
      <trkpt lat="46.19398" lon="-1.40998">
        <ele>1.79558</ele>
        <time>2022-05-17T14:10:26.000Z</time>
      </trkpt>
      <trkpt lat="46.19396" lon="-1.40993">
        <ele>1.79235</ele>
        <time>2022-05-17T14:10:27.000Z</time>
      </trkpt>
      <trkpt lat="46.19394" lon="-1.40986">
        <ele>1.79667</ele>
        <time>2022-05-17T14:10:28.000Z</time>
      </trkpt>
      <trkpt lat="46.19393" lon="-1.4098">
        <ele>1.80838</ele>
        <time>2022-05-17T14:10:29.000Z</time>
      </trkpt>
      <trkpt lat="46.19392" lon="-1.40975">
        <ele>1.82295</ele>
        <time>2022-05-17T14:10:30.000Z</time>
      </trkpt>
      <trkpt lat="46.1939" lon="-1.4097">
        <ele>1.83938</ele>
        <time>2022-05-17T14:10:31.000Z</time>
      </trkpt>
      <trkpt lat="46.1939" lon="-1.40965">
        <ele>1.87465</ele>
        <time>2022-05-17T14:10:32.000Z</time>
      </trkpt>
      <trkpt lat="46.19389" lon="-1.4096">
        <ele>1.92606</ele>
        <time>2022-05-17T14:10:33.000Z</time>
      </trkpt>
      <trkpt lat="46.19388" lon="-1.40951">
        <ele>2.00434</ele>
        <time>2022-05-17T14:10:34.000Z</time>
      </trkpt>
      <trkpt lat="46.19388" lon="-1.40944">
        <ele>2.07193</ele>
        <time>2022-05-17T14:10:35.000Z</time>
      </trkpt>
      <trkpt lat="46.19387" lon="-1.40935">
        <ele>2.04086</ele>
        <time>2022-05-17T14:10:36.000Z</time>
      </trkpt>
      <trkpt lat="46.19384" lon="-1.40925">
        <ele>1.86395</ele>
        <time>2022-05-17T14:10:37.000Z</time>
      </trkpt>
      <trkpt lat="46.19383" lon="-1.40917">
        <ele>1.73523</ele>
        <time>2022-05-17T14:10:38.000Z</time>
      </trkpt>
      <trkpt lat="46.19381" lon="-1.40916">
        <ele>1.7081</ele>
        <time>2022-05-17T14:10:39.000Z</time>
      </trkpt>
      <trkpt lat="46.19378" lon="-1.409">
        <ele>1.72727</ele>
        <time>2022-05-17T14:10:40.000Z</time>
      </trkpt>
      <trkpt lat="46.19376" lon="-1.40892">
        <ele>1.92278</ele>
        <time>2022-05-17T14:10:41.000Z</time>
      </trkpt>
      <trkpt lat="46.19376" lon="-1.40887">
        <ele>2.05104</ele>
        <time>2022-05-17T14:10:42.000Z</time>
      </trkpt>
      <trkpt lat="46.19375" lon="-1.40878">
        <ele>2.26211</ele>
        <time>2022-05-17T14:10:43.000Z</time>
      </trkpt>
      <trkpt lat="46.19373" lon="-1.40872">
        <ele>2.36042</ele>
        <time>2022-05-17T14:10:44.000Z</time>
      </trkpt>
      <trkpt lat="46.19372" lon="-1.40863">
        <ele>2.28943</ele>
        <time>2022-05-17T14:10:45.000Z</time>
      </trkpt>
      <trkpt lat="46.19371" lon="-1.40856">
        <ele>2.11735</ele>
        <time>2022-05-17T14:10:46.000Z</time>
      </trkpt>
      <trkpt lat="46.19369" lon="-1.4084">
        <ele>1.74014</ele>
        <time>2022-05-17T14:10:47.000Z</time>
      </trkpt>
      <trkpt lat="46.1937" lon="-1.40848">
        <ele>1.89862</ele>
        <time>2022-05-17T14:10:48.000Z</time>
      </trkpt>
      <trkpt lat="46.19368" lon="-1.40853">
        <ele>2.03821</ele>
        <time>2022-05-17T14:10:50.000Z</time>
      </trkpt>
      <trkpt lat="46.19365" lon="-1.4085">
        <ele>1.97419</ele>
        <time>2022-05-17T14:10:51.000Z</time>
      </trkpt>
      <trkpt lat="46.19364" lon="-1.40846">
        <ele>1.8974</ele>
        <time>2022-05-17T14:10:52.000Z</time>
      </trkpt>
      <trkpt lat="46.19362" lon="-1.40845">
        <ele>1.88988</ele>
        <time>2022-05-17T14:10:53.000Z</time>
      </trkpt>
      <trkpt lat="46.19361" lon="-1.40835">
        <ele>1.82548</ele>
        <time>2022-05-17T14:10:54.000Z</time>
      </trkpt>
      <trkpt lat="46.19356" lon="-1.40834">
        <ele>1.91509</ele>
        <time>2022-05-17T14:10:55.000Z</time>
      </trkpt>
      <trkpt lat="46.19358" lon="-1.40828">
        <ele>1.88745</ele>
        <time>2022-05-17T14:10:56.000Z</time>
      </trkpt>
      <trkpt lat="46.19357" lon="-1.4082">
        <ele>1.95629</ele>
        <time>2022-05-17T14:10:57.000Z</time>
      </trkpt>
      <trkpt lat="46.19357" lon="-1.40815">
        <ele>1.98592</ele>
        <time>2022-05-17T14:10:59.000Z</time>
      </trkpt>
      <trkpt lat="46.19356" lon="-1.40812">
        <ele>2.01011</ele>
        <time>2022-05-17T14:11:00.000Z</time>
      </trkpt>
      <trkpt lat="46.19356" lon="-1.40808">
        <ele>2.04019</ele>
        <time>2022-05-17T14:11:01.000Z</time>
      </trkpt>
      <trkpt lat="46.19355" lon="-1.40805">
        <ele>2.06382</ele>
        <time>2022-05-17T14:11:02.000Z</time>
      </trkpt>
      <trkpt lat="46.19354" lon="-1.40801">
        <ele>2.08772</ele>
        <time>2022-05-17T14:11:03.000Z</time>
      </trkpt>
      <trkpt lat="46.19354" lon="-1.40797">
        <ele>2.10705</ele>
        <time>2022-05-17T14:11:04.000Z</time>
      </trkpt>
      <trkpt lat="46.19354" lon="-1.40794">
        <ele>2.12279</ele>
        <time>2022-05-17T14:11:05.000Z</time>
      </trkpt>
      <trkpt lat="46.19354" lon="-1.40791">
        <ele>2.13838</ele>
        <time>2022-05-17T14:11:06.000Z</time>
      </trkpt>
      <trkpt lat="46.19353" lon="-1.40788">
        <ele>2.16197</ele>
        <time>2022-05-17T14:11:07.000Z</time>
      </trkpt>
      <trkpt lat="46.19351" lon="-1.40761">
        <ele>2.16891</ele>
        <time>2022-05-17T14:11:08.000Z</time>
      </trkpt>
      <trkpt lat="46.19347" lon="-1.40757">
        <ele>2.14682</ele>
        <time>2022-05-17T14:11:09.000Z</time>
      </trkpt>
      <trkpt lat="46.19348" lon="-1.40752">
        <ele>2.11997</ele>
        <time>2022-05-17T14:11:10.000Z</time>
      </trkpt>
      <trkpt lat="46.19347" lon="-1.40747">
        <ele>2.1062</ele>
        <time>2022-05-17T14:11:11.000Z</time>
      </trkpt>
      <trkpt lat="46.19342" lon="-1.40743">
        <ele>2.12999</ele>
        <time>2022-05-17T14:11:12.000Z</time>
      </trkpt>
      <trkpt lat="46.19336" lon="-1.40732">
        <ele>2.22882</ele>
        <time>2022-05-17T14:11:13.000Z</time>
      </trkpt>
      <trkpt lat="46.19334" lon="-1.40726">
        <ele>2.30586</ele>
        <time>2022-05-17T14:11:14.000Z</time>
      </trkpt>
      <trkpt lat="46.19332" lon="-1.40718">
        <ele>2.40358</ele>
        <time>2022-05-17T14:11:16.000Z</time>
      </trkpt>
      <trkpt lat="46.19331" lon="-1.40706">
        <ele>2.48332</ele>
        <time>2022-05-17T14:11:17.000Z</time>
      </trkpt>
      <trkpt lat="46.1933" lon="-1.4071">
        <ele>2.46842</ele>
        <time>2022-05-17T14:11:18.000Z</time>
      </trkpt>
      <trkpt lat="46.19326" lon="-1.40694">
        <ele>2.44911</ele>
        <time>2022-05-17T14:11:20.000Z</time>
      </trkpt>
      <trkpt lat="46.19323" lon="-1.40685">
        <ele>2.39417</ele>
        <time>2022-05-17T14:11:21.000Z</time>
      </trkpt>
      <trkpt lat="46.19321" lon="-1.40677">
        <ele>2.37576</ele>
        <time>2022-05-17T14:11:22.000Z</time>
      </trkpt>
      <trkpt lat="46.19319" lon="-1.40672">
        <ele>2.38031</ele>
        <time>2022-05-17T14:11:23.000Z</time>
      </trkpt>
      <trkpt lat="46.19319" lon="-1.40666">
        <ele>2.3979</ele>
        <time>2022-05-17T14:11:26.000Z</time>
      </trkpt>
      <trkpt lat="46.19319" lon="-1.40659">
        <ele>2.43189</ele>
        <time>2022-05-17T14:11:27.000Z</time>
      </trkpt>
      <trkpt lat="46.19317" lon="-1.40648">
        <ele>2.5136</ele>
        <time>2022-05-17T14:11:28.000Z</time>
      </trkpt>
      <trkpt lat="46.19316" lon="-1.40645">
        <ele>2.54927</ele>
        <time>2022-05-17T14:11:29.000Z</time>
      </trkpt>
      <trkpt lat="46.19316" lon="-1.40639">
        <ele>2.6122</ele>
        <time>2022-05-17T14:11:30.000Z</time>
      </trkpt>
      <trkpt lat="46.19315" lon="-1.40633">
        <ele>2.71577</ele>
        <time>2022-05-17T14:11:31.000Z</time>
      </trkpt>
      <trkpt lat="46.19315" lon="-1.40627">
        <ele>2.86822</ele>
        <time>2022-05-17T14:11:32.000Z</time>
      </trkpt>
      <trkpt lat="46.19314" lon="-1.40622">
        <ele>2.99524</ele>
        <time>2022-05-17T14:11:33.000Z</time>
      </trkpt>
      <trkpt lat="46.19312" lon="-1.40618">
        <ele>3.09896</ele>
        <time>2022-05-17T14:11:34.000Z</time>
      </trkpt>
      <trkpt lat="46.19311" lon="-1.40614">
        <ele>3.17555</ele>
        <time>2022-05-17T14:11:35.000Z</time>
      </trkpt>
      <trkpt lat="46.1931" lon="-1.40609">
        <ele>3.23841</ele>
        <time>2022-05-17T14:11:36.000Z</time>
      </trkpt>
      <trkpt lat="46.19309" lon="-1.40603">
        <ele>3.25771</ele>
        <time>2022-05-17T14:11:37.000Z</time>
      </trkpt>
      <trkpt lat="46.19308" lon="-1.40597">
        <ele>3.22935</ele>
        <time>2022-05-17T14:11:38.000Z</time>
      </trkpt>
      <trkpt lat="46.19308" lon="-1.40593">
        <ele>3.18657</ele>
        <time>2022-05-17T14:11:39.000Z</time>
      </trkpt>
      <trkpt lat="46.19307" lon="-1.40589">
        <ele>3.14711</ele>
        <time>2022-05-17T14:11:40.000Z</time>
      </trkpt>
      <trkpt lat="46.19306" lon="-1.40584">
        <ele>3.09869</ele>
        <time>2022-05-17T14:11:41.000Z</time>
      </trkpt>
      <trkpt lat="46.19304" lon="-1.40578">
        <ele>3.06013</ele>
        <time>2022-05-17T14:11:42.000Z</time>
      </trkpt>
      <trkpt lat="46.19302" lon="-1.40573">
        <ele>3.04732</ele>
        <time>2022-05-17T14:11:43.000Z</time>
      </trkpt>
      <trkpt lat="46.193" lon="-1.40568">
        <ele>3.0535</ele>
        <time>2022-05-17T14:11:44.000Z</time>
      </trkpt>
      <trkpt lat="46.19299" lon="-1.40562">
        <ele>3.0706</ele>
        <time>2022-05-17T14:11:45.000Z</time>
      </trkpt>
      <trkpt lat="46.19297" lon="-1.40556">
        <ele>3.09185</ele>
        <time>2022-05-17T14:11:46.000Z</time>
      </trkpt>
      <trkpt lat="46.19295" lon="-1.40551">
        <ele>3.11335</ele>
        <time>2022-05-17T14:11:47.000Z</time>
      </trkpt>
      <trkpt lat="46.19293" lon="-1.40545">
        <ele>3.13294</ele>
        <time>2022-05-17T14:11:48.000Z</time>
      </trkpt>
      <trkpt lat="46.19289" lon="-1.40538">
        <ele>3.13701</ele>
        <time>2022-05-17T14:11:49.000Z</time>
      </trkpt>
      <trkpt lat="46.19288" lon="-1.40531">
        <ele>3.14852</ele>
        <time>2022-05-17T14:11:50.000Z</time>
      </trkpt>
      <trkpt lat="46.19287" lon="-1.40524">
        <ele>3.15758</ele>
        <time>2022-05-17T14:11:51.000Z</time>
      </trkpt>
      <trkpt lat="46.19286" lon="-1.40517">
        <ele>3.15455</ele>
        <time>2022-05-17T14:11:52.000Z</time>
      </trkpt>
      <trkpt lat="46.19284" lon="-1.40513">
        <ele>3.14068</ele>
        <time>2022-05-17T14:11:53.000Z</time>
      </trkpt>
      <trkpt lat="46.19283" lon="-1.40509">
        <ele>3.14108</ele>
        <time>2022-05-17T14:11:54.000Z</time>
      </trkpt>
      <trkpt lat="46.19282" lon="-1.40506">
        <ele>3.13671</ele>
        <time>2022-05-17T14:11:55.000Z</time>
      </trkpt>
      <trkpt lat="46.19279" lon="-1.40499">
        <ele>3.13347</ele>
        <time>2022-05-17T14:11:56.000Z</time>
      </trkpt>
      <trkpt lat="46.19278" lon="-1.40495">
        <ele>3.16138</ele>
        <time>2022-05-17T14:11:57.000Z</time>
      </trkpt>
      <trkpt lat="46.19277" lon="-1.40491">
        <ele>3.19449</ele>
        <time>2022-05-17T14:11:58.000Z</time>
      </trkpt>
      <trkpt lat="46.19275" lon="-1.40486">
        <ele>3.24119</ele>
        <time>2022-05-17T14:11:59.000Z</time>
      </trkpt>
      <trkpt lat="46.19275" lon="-1.4048">
        <ele>3.29064</ele>
        <time>2022-05-17T14:12:00.000Z</time>
      </trkpt>
      <trkpt lat="46.19272" lon="-1.40479">
        <ele>3.30161</ele>
        <time>2022-05-17T14:12:01.000Z</time>
      </trkpt>
      <trkpt lat="46.19273" lon="-1.40473">
        <ele>3.33543</ele>
        <time>2022-05-17T14:12:02.000Z</time>
      </trkpt>
      <trkpt lat="46.19273" lon="-1.40466">
        <ele>3.35068</ele>
        <time>2022-05-17T14:12:03.000Z</time>
      </trkpt>
      <trkpt lat="46.19271" lon="-1.4046">
        <ele>3.36116</ele>
        <time>2022-05-17T14:12:04.000Z</time>
      </trkpt>
      <trkpt lat="46.19271" lon="-1.40455">
        <ele>3.37232</ele>
        <time>2022-05-17T14:12:05.000Z</time>
      </trkpt>
      <trkpt lat="46.1927" lon="-1.4045">
        <ele>3.3866</ele>
        <time>2022-05-17T14:12:06.000Z</time>
      </trkpt>
      <trkpt lat="46.1927" lon="-1.40446">
        <ele>3.40324</ele>
        <time>2022-05-17T14:12:07.000Z</time>
      </trkpt>
      <trkpt lat="46.19269" lon="-1.40441">
        <ele>3.42561</ele>
        <time>2022-05-17T14:12:08.000Z</time>
      </trkpt>
      <trkpt lat="46.19269" lon="-1.40436">
        <ele>3.45303</ele>
        <time>2022-05-17T14:12:09.000Z</time>
      </trkpt>
      <trkpt lat="46.19268" lon="-1.40432">
        <ele>3.48513</ele>
        <time>2022-05-17T14:12:10.000Z</time>
      </trkpt>
      <trkpt lat="46.19267" lon="-1.40428">
        <ele>3.51186</ele>
        <time>2022-05-17T14:12:11.000Z</time>
      </trkpt>
      <trkpt lat="46.19266" lon="-1.40424">
        <ele>3.52758</ele>
        <time>2022-05-17T14:12:12.000Z</time>
      </trkpt>
      <trkpt lat="46.19265" lon="-1.4042">
        <ele>3.53183</ele>
        <time>2022-05-17T14:12:13.000Z</time>
      </trkpt>
      <trkpt lat="46.19264" lon="-1.40416">
        <ele>3.52842</ele>
        <time>2022-05-17T14:12:14.000Z</time>
      </trkpt>
      <trkpt lat="46.19263" lon="-1.40413">
        <ele>3.51993</ele>
        <time>2022-05-17T14:12:15.000Z</time>
      </trkpt>
      <trkpt lat="46.19262" lon="-1.40409">
        <ele>3.50627</ele>
        <time>2022-05-17T14:12:16.000Z</time>
      </trkpt>
      <trkpt lat="46.1926" lon="-1.40404">
        <ele>3.49089</ele>
        <time>2022-05-17T14:12:17.000Z</time>
      </trkpt>
      <trkpt lat="46.19258" lon="-1.40401">
        <ele>3.47752</ele>
        <time>2022-05-17T14:12:18.000Z</time>
      </trkpt>
      <trkpt lat="46.19257" lon="-1.40397">
        <ele>3.46632</ele>
        <time>2022-05-17T14:12:19.000Z</time>
      </trkpt>
      <trkpt lat="46.19255" lon="-1.40396">
        <ele>3.46424</ele>
        <time>2022-05-17T14:12:20.000Z</time>
      </trkpt>
      <trkpt lat="46.19253" lon="-1.40394">
        <ele>3.46798</ele>
        <time>2022-05-17T14:12:21.000Z</time>
      </trkpt>
      <trkpt lat="46.19252" lon="-1.40393">
        <ele>3.4755</ele>
        <time>2022-05-17T14:12:22.000Z</time>
      </trkpt>
      <trkpt lat="46.19249" lon="-1.40388">
        <ele>3.48861</ele>
        <time>2022-05-17T14:12:23.000Z</time>
      </trkpt>
      <trkpt lat="46.19248" lon="-1.40382">
        <ele>3.50417</ele>
        <time>2022-05-17T14:12:24.000Z</time>
      </trkpt>
      <trkpt lat="46.19247" lon="-1.40378">
        <ele>3.51476</ele>
        <time>2022-05-17T14:12:25.000Z</time>
      </trkpt>
      <trkpt lat="46.19245" lon="-1.40373">
        <ele>3.53315</ele>
        <time>2022-05-17T14:12:26.000Z</time>
      </trkpt>
      <trkpt lat="46.19244" lon="-1.40367">
        <ele>3.55676</ele>
        <time>2022-05-17T14:12:27.000Z</time>
      </trkpt>
      <trkpt lat="46.19243" lon="-1.40362">
        <ele>3.57842</ele>
        <time>2022-05-17T14:12:28.000Z</time>
      </trkpt>
      <trkpt lat="46.19241" lon="-1.40356">
        <ele>3.59577</ele>
        <time>2022-05-17T14:12:29.000Z</time>
      </trkpt>
      <trkpt lat="46.19239" lon="-1.40351">
        <ele>3.60372</ele>
        <time>2022-05-17T14:12:30.000Z</time>
      </trkpt>
      <trkpt lat="46.19237" lon="-1.40347">
        <ele>3.60464</ele>
        <time>2022-05-17T14:12:31.000Z</time>
      </trkpt>
      <trkpt lat="46.19236" lon="-1.40341">
        <ele>3.60371</ele>
        <time>2022-05-17T14:12:32.000Z</time>
      </trkpt>
      <trkpt lat="46.19234" lon="-1.40336">
        <ele>3.60976</ele>
        <time>2022-05-17T14:12:33.000Z</time>
      </trkpt>
      <trkpt lat="46.19233" lon="-1.40331">
        <ele>3.62315</ele>
        <time>2022-05-17T14:12:34.000Z</time>
      </trkpt>
      <trkpt lat="46.19232" lon="-1.40325">
        <ele>3.64044</ele>
        <time>2022-05-17T14:12:35.000Z</time>
      </trkpt>
      <trkpt lat="46.1923" lon="-1.40313">
        <ele>3.66891</ele>
        <time>2022-05-17T14:12:36.000Z</time>
      </trkpt>
      <trkpt lat="46.19225" lon="-1.40298">
        <ele>3.59963</ele>
        <time>2022-05-17T14:12:37.000Z</time>
      </trkpt>
      <trkpt lat="46.19224" lon="-1.4029">
        <ele>3.5605</ele>
        <time>2022-05-17T14:12:39.000Z</time>
      </trkpt>
      <trkpt lat="46.19224" lon="-1.40281">
        <ele>3.55546</ele>
        <time>2022-05-17T14:12:40.000Z</time>
      </trkpt>
      <trkpt lat="46.19223" lon="-1.40269">
        <ele>3.61273</ele>
        <time>2022-05-17T14:12:41.000Z</time>
      </trkpt>
      <trkpt lat="46.19222" lon="-1.40263">
        <ele>3.6642</ele>
        <time>2022-05-17T14:12:42.000Z</time>
      </trkpt>
      <trkpt lat="46.19221" lon="-1.4026">
        <ele>3.70672</ele>
        <time>2022-05-17T14:12:43.000Z</time>
      </trkpt>
      <trkpt lat="46.1922" lon="-1.40256">
        <ele>3.74663</ele>
        <time>2022-05-17T14:12:45.000Z</time>
      </trkpt>
      <trkpt lat="46.19217" lon="-1.40248">
        <ele>3.86311</ele>
        <time>2022-05-17T14:12:47.000Z</time>
      </trkpt>
      <trkpt lat="46.19215" lon="-1.40241">
        <ele>3.93682</ele>
        <time>2022-05-17T14:12:49.000Z</time>
      </trkpt>
      <trkpt lat="46.19213" lon="-1.40228">
        <ele>3.9807</ele>
        <time>2022-05-17T14:12:50.000Z</time>
      </trkpt>
      <trkpt lat="46.19212" lon="-1.40221">
        <ele>3.97101</ele>
        <time>2022-05-17T14:12:51.000Z</time>
      </trkpt>
      <trkpt lat="46.1921" lon="-1.40219">
        <ele>3.95198</ele>
        <time>2022-05-17T14:12:52.000Z</time>
      </trkpt>
      <trkpt lat="46.19209" lon="-1.40216">
        <ele>3.94126</ele>
        <time>2022-05-17T14:12:53.000Z</time>
      </trkpt>
      <trkpt lat="46.19208" lon="-1.40211">
        <ele>3.93469</ele>
        <time>2022-05-17T14:12:54.000Z</time>
      </trkpt>
      <trkpt lat="46.19207" lon="-1.40206">
        <ele>3.93765</ele>
        <time>2022-05-17T14:12:55.000Z</time>
      </trkpt>
      <trkpt lat="46.19206" lon="-1.40203">
        <ele>3.9467</ele>
        <time>2022-05-17T14:12:56.000Z</time>
      </trkpt>
      <trkpt lat="46.19204" lon="-1.40199">
        <ele>3.97684</ele>
        <time>2022-05-17T14:12:57.000Z</time>
      </trkpt>
      <trkpt lat="46.19203" lon="-1.40194">
        <ele>4.02771</ele>
        <time>2022-05-17T14:12:58.000Z</time>
      </trkpt>
      <trkpt lat="46.19202" lon="-1.40191">
        <ele>4.07504</ele>
        <time>2022-05-17T14:12:59.000Z</time>
      </trkpt>
      <trkpt lat="46.192" lon="-1.40186">
        <ele>4.13601</ele>
        <time>2022-05-17T14:13:00.000Z</time>
      </trkpt>
      <trkpt lat="46.19199" lon="-1.40183">
        <ele>4.18153</ele>
        <time>2022-05-17T14:13:01.000Z</time>
      </trkpt>
      <trkpt lat="46.19198" lon="-1.40178">
        <ele>4.22256</ele>
        <time>2022-05-17T14:13:02.000Z</time>
      </trkpt>
      <trkpt lat="46.19195" lon="-1.4017">
        <ele>4.21037</ele>
        <time>2022-05-17T14:13:03.000Z</time>
      </trkpt>
      <trkpt lat="46.19194" lon="-1.40163">
        <ele>4.11724</ele>
        <time>2022-05-17T14:13:04.000Z</time>
      </trkpt>
      <trkpt lat="46.19193" lon="-1.40159">
        <ele>4.04942</ele>
        <time>2022-05-17T14:13:05.000Z</time>
      </trkpt>
      <trkpt lat="46.19191" lon="-1.40154">
        <ele>3.95833</ele>
        <time>2022-05-17T14:13:06.000Z</time>
      </trkpt>
      <trkpt lat="46.1919" lon="-1.40146">
        <ele>3.85789</ele>
        <time>2022-05-17T14:13:07.000Z</time>
      </trkpt>
      <trkpt lat="46.19189" lon="-1.40133">
        <ele>3.82421</ele>
        <time>2022-05-17T14:13:08.000Z</time>
      </trkpt>
      <trkpt lat="46.19187" lon="-1.40129">
        <ele>3.83509</ele>
        <time>2022-05-17T14:13:09.000Z</time>
      </trkpt>
      <trkpt lat="46.19186" lon="-1.40126">
        <ele>3.84858</ele>
        <time>2022-05-17T14:13:10.000Z</time>
      </trkpt>
      <trkpt lat="46.19185" lon="-1.40121">
        <ele>3.8684</ele>
        <time>2022-05-17T14:13:11.000Z</time>
      </trkpt>
      <trkpt lat="46.19184" lon="-1.40114">
        <ele>3.89398</ele>
        <time>2022-05-17T14:13:12.000Z</time>
      </trkpt>
      <trkpt lat="46.19182" lon="-1.4011">
        <ele>3.90297</ele>
        <time>2022-05-17T14:13:13.000Z</time>
      </trkpt>
      <trkpt lat="46.1918" lon="-1.40105">
        <ele>3.90224</ele>
        <time>2022-05-17T14:13:14.000Z</time>
      </trkpt>
      <trkpt lat="46.19178" lon="-1.40095">
        <ele>3.87584</ele>
        <time>2022-05-17T14:13:15.000Z</time>
      </trkpt>
      <trkpt lat="46.19177" lon="-1.40089">
        <ele>3.8503</ele>
        <time>2022-05-17T14:13:16.000Z</time>
      </trkpt>
      <trkpt lat="46.19176" lon="-1.40082">
        <ele>3.82459</ele>
        <time>2022-05-17T14:13:17.000Z</time>
      </trkpt>
      <trkpt lat="46.19173" lon="-1.40076">
        <ele>3.80978</ele>
        <time>2022-05-17T14:13:18.000Z</time>
      </trkpt>
      <trkpt lat="46.19171" lon="-1.40073">
        <ele>3.80849</ele>
        <time>2022-05-17T14:13:19.000Z</time>
      </trkpt>
      <trkpt lat="46.1917" lon="-1.40068">
        <ele>3.80858</ele>
        <time>2022-05-17T14:13:20.000Z</time>
      </trkpt>
      <trkpt lat="46.1917" lon="-1.40061">
        <ele>3.81118</ele>
        <time>2022-05-17T14:13:21.000Z</time>
      </trkpt>
      <trkpt lat="46.19168" lon="-1.40056">
        <ele>3.81541</ele>
        <time>2022-05-17T14:13:22.000Z</time>
      </trkpt>
      <trkpt lat="46.19166" lon="-1.4005">
        <ele>3.82289</ele>
        <time>2022-05-17T14:13:23.000Z</time>
      </trkpt>
      <trkpt lat="46.19165" lon="-1.40043">
        <ele>3.84027</ele>
        <time>2022-05-17T14:13:24.000Z</time>
      </trkpt>
      <trkpt lat="46.19163" lon="-1.40036">
        <ele>3.88345</ele>
        <time>2022-05-17T14:13:25.000Z</time>
      </trkpt>
      <trkpt lat="46.19161" lon="-1.40032">
        <ele>3.93935</ele>
        <time>2022-05-17T14:13:26.000Z</time>
      </trkpt>
      <trkpt lat="46.1916" lon="-1.40027">
        <ele>4.00338</ele>
        <time>2022-05-17T14:13:27.000Z</time>
      </trkpt>
      <trkpt lat="46.19156" lon="-1.40021">
        <ele>4.12521</ele>
        <time>2022-05-17T14:13:28.000Z</time>
      </trkpt>
      <trkpt lat="46.19155" lon="-1.40016">
        <ele>4.20317</ele>
        <time>2022-05-17T14:13:29.000Z</time>
      </trkpt>
      <trkpt lat="46.19154" lon="-1.40012">
        <ele>4.25945</ele>
        <time>2022-05-17T14:13:30.000Z</time>
      </trkpt>
      <trkpt lat="46.19153" lon="-1.40002">
        <ele>4.25628</ele>
        <time>2022-05-17T14:13:31.000Z</time>
      </trkpt>
      <trkpt lat="46.19151" lon="-1.39998">
        <ele>4.23132</ele>
        <time>2022-05-17T14:13:32.000Z</time>
      </trkpt>
      <trkpt lat="46.19149" lon="-1.39991">
        <ele>4.13941</ele>
        <time>2022-05-17T14:13:33.000Z</time>
      </trkpt>
      <trkpt lat="46.19147" lon="-1.39985">
        <ele>4.05554</ele>
        <time>2022-05-17T14:13:34.000Z</time>
      </trkpt>
      <trkpt lat="46.19146" lon="-1.39982">
        <ele>4.00897</ele>
        <time>2022-05-17T14:13:35.000Z</time>
      </trkpt>
      <trkpt lat="46.19144" lon="-1.39972">
        <ele>3.96047</ele>
        <time>2022-05-17T14:13:36.000Z</time>
      </trkpt>
      <trkpt lat="46.19143" lon="-1.39968">
        <ele>3.98331</ele>
        <time>2022-05-17T14:13:37.000Z</time>
      </trkpt>
      <trkpt lat="46.19141" lon="-1.39962">
        <ele>4.03531</ele>
        <time>2022-05-17T14:13:38.000Z</time>
      </trkpt>
      <trkpt lat="46.19138" lon="-1.39959">
        <ele>4.08936</ele>
        <time>2022-05-17T14:13:39.000Z</time>
      </trkpt>
      <trkpt lat="46.19137" lon="-1.39953">
        <ele>4.16238</ele>
        <time>2022-05-17T14:13:40.000Z</time>
      </trkpt>
      <trkpt lat="46.19136" lon="-1.39946">
        <ele>4.2275</ele>
        <time>2022-05-17T14:13:41.000Z</time>
      </trkpt>
      <trkpt lat="46.19135" lon="-1.39941">
        <ele>4.24428</ele>
        <time>2022-05-17T14:13:42.000Z</time>
      </trkpt>
      <trkpt lat="46.19134" lon="-1.39937">
        <ele>4.25328</ele>
        <time>2022-05-17T14:13:43.000Z</time>
      </trkpt>
      <trkpt lat="46.19132" lon="-1.3993">
        <ele>4.23168</ele>
        <time>2022-05-17T14:13:44.000Z</time>
      </trkpt>
      <trkpt lat="46.1913" lon="-1.39925">
        <ele>4.20935</ele>
        <time>2022-05-17T14:13:45.000Z</time>
      </trkpt>
      <trkpt lat="46.19129" lon="-1.39918">
        <ele>4.18149</ele>
        <time>2022-05-17T14:13:46.000Z</time>
      </trkpt>
      <trkpt lat="46.19125" lon="-1.39916">
        <ele>4.21268</ele>
        <time>2022-05-17T14:13:48.000Z</time>
      </trkpt>
      <trkpt lat="46.19122" lon="-1.39906">
        <ele>4.25824</ele>
        <time>2022-05-17T14:13:49.000Z</time>
      </trkpt>
      <trkpt lat="46.1912" lon="-1.39903">
        <ele>4.30654</ele>
        <time>2022-05-17T14:13:50.000Z</time>
      </trkpt>
      <trkpt lat="46.19116" lon="-1.39894">
        <ele>4.43417</ele>
        <time>2022-05-17T14:13:51.000Z</time>
      </trkpt>
      <trkpt lat="46.19115" lon="-1.39889">
        <ele>4.48946</ele>
        <time>2022-05-17T14:13:52.000Z</time>
      </trkpt>
      <trkpt lat="46.19114" lon="-1.39886">
        <ele>4.5255</ele>
        <time>2022-05-17T14:13:53.000Z</time>
      </trkpt>
      <trkpt lat="46.19112" lon="-1.39881">
        <ele>4.56374</ele>
        <time>2022-05-17T14:13:54.000Z</time>
      </trkpt>
      <trkpt lat="46.19108" lon="-1.39871">
        <ele>4.5795</ele>
        <time>2022-05-17T14:13:55.000Z</time>
      </trkpt>
      <trkpt lat="46.19107" lon="-1.39865">
        <ele>4.58545</ele>
        <time>2022-05-17T14:13:56.000Z</time>
      </trkpt>
      <trkpt lat="46.19104" lon="-1.39857">
        <ele>4.62004</ele>
        <time>2022-05-17T14:13:57.000Z</time>
      </trkpt>
      <trkpt lat="46.19103" lon="-1.39852">
        <ele>4.6527</ele>
        <time>2022-05-17T14:13:58.000Z</time>
      </trkpt>
      <trkpt lat="46.19101" lon="-1.39845">
        <ele>4.70183</ele>
        <time>2022-05-17T14:13:59.000Z</time>
      </trkpt>
      <trkpt lat="46.191" lon="-1.39842">
        <ele>4.71871</ele>
        <time>2022-05-17T14:14:01.000Z</time>
      </trkpt>
      <trkpt lat="46.19098" lon="-1.39837">
        <ele>4.73834</ele>
        <time>2022-05-17T14:14:02.000Z</time>
      </trkpt>
      <trkpt lat="46.19096" lon="-1.39834">
        <ele>4.74607</ele>
        <time>2022-05-17T14:14:03.000Z</time>
      </trkpt>
      <trkpt lat="46.19094" lon="-1.3983">
        <ele>4.73397</ele>
        <time>2022-05-17T14:14:04.000Z</time>
      </trkpt>
      <trkpt lat="46.19092" lon="-1.39824">
        <ele>4.70112</ele>
        <time>2022-05-17T14:14:05.000Z</time>
      </trkpt>
      <trkpt lat="46.19089" lon="-1.39822">
        <ele>4.6947</ele>
        <time>2022-05-17T14:14:06.000Z</time>
      </trkpt>
      <trkpt lat="46.19088" lon="-1.39817">
        <ele>4.67821</ele>
        <time>2022-05-17T14:14:07.000Z</time>
      </trkpt>
      <trkpt lat="46.19086" lon="-1.39813">
        <ele>4.67817</ele>
        <time>2022-05-17T14:14:08.000Z</time>
      </trkpt>
      <trkpt lat="46.19083" lon="-1.39805">
        <ele>4.70958</ele>
        <time>2022-05-17T14:14:09.000Z</time>
      </trkpt>
      <trkpt lat="46.19082" lon="-1.39799">
        <ele>4.76289</ele>
        <time>2022-05-17T14:14:10.000Z</time>
      </trkpt>
      <trkpt lat="46.1908" lon="-1.39793">
        <ele>4.82503</ele>
        <time>2022-05-17T14:14:11.000Z</time>
      </trkpt>
      <trkpt lat="46.19079" lon="-1.39788">
        <ele>4.88413</ele>
        <time>2022-05-17T14:14:12.000Z</time>
      </trkpt>
      <trkpt lat="46.19077" lon="-1.39781">
        <ele>4.93927</ele>
        <time>2022-05-17T14:14:13.000Z</time>
      </trkpt>
      <trkpt lat="46.19075" lon="-1.39772">
        <ele>4.95369</ele>
        <time>2022-05-17T14:14:14.000Z</time>
      </trkpt>
      <trkpt lat="46.19074" lon="-1.39764">
        <ele>4.90575</ele>
        <time>2022-05-17T14:14:15.000Z</time>
      </trkpt>
      <trkpt lat="46.19072" lon="-1.3976">
        <ele>4.8654</ele>
        <time>2022-05-17T14:14:16.000Z</time>
      </trkpt>
      <trkpt lat="46.19069" lon="-1.39753">
        <ele>4.81048</ele>
        <time>2022-05-17T14:14:17.000Z</time>
      </trkpt>
      <trkpt lat="46.19067" lon="-1.39746">
        <ele>4.79167</ele>
        <time>2022-05-17T14:14:18.000Z</time>
      </trkpt>
      <trkpt lat="46.19065" lon="-1.39741">
        <ele>4.80933</ele>
        <time>2022-05-17T14:14:19.000Z</time>
      </trkpt>
      <trkpt lat="46.19063" lon="-1.39735">
        <ele>4.8664</ele>
        <time>2022-05-17T14:14:20.000Z</time>
      </trkpt>
      <trkpt lat="46.1906" lon="-1.39728">
        <ele>4.95305</ele>
        <time>2022-05-17T14:14:21.000Z</time>
      </trkpt>
      <trkpt lat="46.19058" lon="-1.3972">
        <ele>5.04183</ele>
        <time>2022-05-17T14:14:23.000Z</time>
      </trkpt>
      <trkpt lat="46.19057" lon="-1.39716">
        <ele>5.08802</ele>
        <time>2022-05-17T14:14:24.000Z</time>
      </trkpt>
      <trkpt lat="46.19054" lon="-1.39711">
        <ele>5.11915</ele>
        <time>2022-05-17T14:14:25.000Z</time>
      </trkpt>
      <trkpt lat="46.19052" lon="-1.39703">
        <ele>5.13332</ele>
        <time>2022-05-17T14:14:26.000Z</time>
      </trkpt>
      <trkpt lat="46.1905" lon="-1.397">
        <ele>5.12903</ele>
        <time>2022-05-17T14:14:27.000Z</time>
      </trkpt>
      <trkpt lat="46.19049" lon="-1.39697">
        <ele>5.12336</ele>
        <time>2022-05-17T14:14:28.000Z</time>
      </trkpt>
      <trkpt lat="46.19047" lon="-1.3969">
        <ele>5.11995</ele>
        <time>2022-05-17T14:14:29.000Z</time>
      </trkpt>
      <trkpt lat="46.19045" lon="-1.39685">
        <ele>5.12353</ele>
        <time>2022-05-17T14:14:30.000Z</time>
      </trkpt>
      <trkpt lat="46.19043" lon="-1.39682">
        <ele>5.13259</ele>
        <time>2022-05-17T14:14:31.000Z</time>
      </trkpt>
      <trkpt lat="46.19042" lon="-1.39677">
        <ele>5.15751</ele>
        <time>2022-05-17T14:14:32.000Z</time>
      </trkpt>
      <trkpt lat="46.1904" lon="-1.39671">
        <ele>5.20003</ele>
        <time>2022-05-17T14:14:33.000Z</time>
      </trkpt>
      <trkpt lat="46.19038" lon="-1.39667">
        <ele>5.24516</ele>
        <time>2022-05-17T14:14:34.000Z</time>
      </trkpt>
      <trkpt lat="46.19036" lon="-1.39662">
        <ele>5.30098</ele>
        <time>2022-05-17T14:14:35.000Z</time>
      </trkpt>
      <trkpt lat="46.19034" lon="-1.39657">
        <ele>5.35617</ele>
        <time>2022-05-17T14:14:36.000Z</time>
      </trkpt>
      <trkpt lat="46.19031" lon="-1.39644">
        <ele>5.46446</ele>
        <time>2022-05-17T14:14:37.000Z</time>
      </trkpt>
      <trkpt lat="46.19029" lon="-1.39637">
        <ele>5.50598</ele>
        <time>2022-05-17T14:14:38.000Z</time>
      </trkpt>
      <trkpt lat="46.19028" lon="-1.39635">
        <ele>5.52948</ele>
        <time>2022-05-17T14:14:39.000Z</time>
      </trkpt>
      <trkpt lat="46.19027" lon="-1.39631">
        <ele>5.57277</ele>
        <time>2022-05-17T14:14:40.000Z</time>
      </trkpt>
      <trkpt lat="46.19026" lon="-1.39627">
        <ele>5.64209</ele>
        <time>2022-05-17T14:14:41.000Z</time>
      </trkpt>
      <trkpt lat="46.19026" lon="-1.39623">
        <ele>5.69967</ele>
        <time>2022-05-17T14:14:42.000Z</time>
      </trkpt>
      <trkpt lat="46.19025" lon="-1.39619">
        <ele>5.77944</ele>
        <time>2022-05-17T14:14:43.000Z</time>
      </trkpt>
      <trkpt lat="46.19027" lon="-1.39617">
        <ele>5.78181</ele>
        <time>2022-05-17T14:14:44.000Z</time>
      </trkpt>
      <trkpt lat="46.19029" lon="-1.39616">
        <ele>5.75349</ele>
        <time>2022-05-17T14:14:45.000Z</time>
      </trkpt>
      <trkpt lat="46.19032" lon="-1.39616">
        <ele>5.7126</ele>
        <time>2022-05-17T14:14:47.000Z</time>
      </trkpt>
      <trkpt lat="46.19035" lon="-1.39616">
        <ele>5.66867</ele>
        <time>2022-05-17T14:14:48.000Z</time>
      </trkpt>
      <trkpt lat="46.19037" lon="-1.39616">
        <ele>5.63803</ele>
        <time>2022-05-17T14:14:49.000Z</time>
      </trkpt>
      <trkpt lat="46.19039" lon="-1.39617">
        <ele>5.60959</ele>
        <time>2022-05-17T14:14:50.000Z</time>
      </trkpt>
      <trkpt lat="46.19041" lon="-1.39617">
        <ele>5.57696</ele>
        <time>2022-05-17T14:14:51.000Z</time>
      </trkpt>
      <trkpt lat="46.19043" lon="-1.39618">
        <ele>5.54783</ele>
        <time>2022-05-17T14:14:52.000Z</time>
      </trkpt>
      <trkpt lat="46.19045" lon="-1.39619">
        <ele>5.51882</ele>
        <time>2022-05-17T14:14:53.000Z</time>
      </trkpt>
      <trkpt lat="46.19047" lon="-1.39619">
        <ele>5.48976</ele>
        <time>2022-05-17T14:14:54.000Z</time>
      </trkpt>
      <trkpt lat="46.19049" lon="-1.39617">
        <ele>5.46456</ele>
        <time>2022-05-17T14:14:55.000Z</time>
      </trkpt>
      <trkpt lat="46.19051" lon="-1.39615">
        <ele>5.4504</ele>
        <time>2022-05-17T14:14:59.000Z</time>
      </trkpt>
      <trkpt lat="46.19051" lon="-1.39612">
        <ele>5.45089</ele>
        <time>2022-05-17T14:15:02.000Z</time>
      </trkpt>
      <trkpt lat="46.1905" lon="-1.39609">
        <ele>5.46981</ele>
        <time>2022-05-17T14:15:05.000Z</time>
      </trkpt>
      <trkpt lat="46.19049" lon="-1.39608">
        <ele>5.48927</ele>
        <time>2022-05-17T14:16:09.000Z</time>
      </trkpt>
      <trkpt lat="46.19048" lon="-1.39611">
        <ele>5.48966</ele>
        <time>2022-05-17T14:16:11.000Z</time>
      </trkpt>
      <trkpt lat="46.19049" lon="-1.39616">
        <ele>5.47558</ele>
        <time>2022-05-17T14:16:13.000Z</time>
      </trkpt>
      <trkpt lat="46.19048" lon="-1.39612">
        <ele>5.48782</ele>
        <time>2022-05-17T14:16:20.000Z</time>
      </trkpt>
      <trkpt lat="46.19047" lon="-1.39608">
        <ele>5.5118</ele>
        <time>2022-05-17T14:16:22.000Z</time>
      </trkpt>
      <trkpt lat="46.19046" lon="-1.39606">
        <ele>5.52582</ele>
        <time>2022-05-17T14:16:25.000Z</time>
      </trkpt>
      <trkpt lat="46.19041" lon="-1.39607">
        <ele>5.58759</ele>
        <time>2022-05-17T14:16:51.000Z</time>
      </trkpt>
      <trkpt lat="46.19038" lon="-1.39609">
        <ele>5.63736</ele>
        <time>2022-05-17T14:16:52.000Z</time>
      </trkpt>
      <trkpt lat="46.19035" lon="-1.39609">
        <ele>5.68237</ele>
        <time>2022-05-17T14:16:53.000Z</time>
      </trkpt>
      <trkpt lat="46.19033" lon="-1.3961">
        <ele>5.7176</ele>
        <time>2022-05-17T14:16:54.000Z</time>
      </trkpt>
      <trkpt lat="46.19031" lon="-1.3961">
        <ele>5.75553</ele>
        <time>2022-05-17T14:16:56.000Z</time>
      </trkpt>
      <trkpt lat="46.19031" lon="-1.39613">
        <ele>5.75383</ele>
        <time>2022-05-17T14:16:58.000Z</time>
      </trkpt>
      <trkpt lat="46.19029" lon="-1.39614">
        <ele>5.78198</ele>
        <time>2022-05-17T14:17:05.000Z</time>
      </trkpt>
      <trkpt lat="46.19028" lon="-1.39611">
        <ele>5.82685</ele>
        <time>2022-05-17T14:18:03.000Z</time>
      </trkpt>
      <trkpt lat="46.19026" lon="-1.39612">
        <ele>5.85388</ele>
        <time>2022-05-17T14:18:22.000Z</time>
      </trkpt>
      <trkpt lat="46.19025" lon="-1.3961">
        <ele>5.90665</ele>
        <time>2022-05-17T14:18:44.000Z</time>
      </trkpt>
      <trkpt lat="46.19023" lon="-1.39606">
        <ele>5.97749</ele>
        <time>2022-05-17T14:18:46.000Z</time>
      </trkpt>
      <trkpt lat="46.19021" lon="-1.39603">
        <ele>6.0105</ele>
        <time>2022-05-17T14:18:47.000Z</time>
      </trkpt>
      <trkpt lat="46.1902" lon="-1.396">
        <ele>6.02842</ele>
        <time>2022-05-17T14:18:48.000Z</time>
      </trkpt>
      <trkpt lat="46.19018" lon="-1.39597">
        <ele>6.0318</ele>
        <time>2022-05-17T14:18:49.000Z</time>
      </trkpt>
      <trkpt lat="46.19016" lon="-1.39593">
        <ele>6.01014</ele>
        <time>2022-05-17T14:18:50.000Z</time>
      </trkpt>
      <trkpt lat="46.19014" lon="-1.39589">
        <ele>5.9662</ele>
        <time>2022-05-17T14:18:51.000Z</time>
      </trkpt>
      <trkpt lat="46.19012" lon="-1.39586">
        <ele>5.90191</ele>
        <time>2022-05-17T14:18:52.000Z</time>
      </trkpt>
      <trkpt lat="46.1901" lon="-1.39583">
        <ele>5.82284</ele>
        <time>2022-05-17T14:18:53.000Z</time>
      </trkpt>
      <trkpt lat="46.19008" lon="-1.39579">
        <ele>5.74067</ele>
        <time>2022-05-17T14:18:54.000Z</time>
      </trkpt>
      <trkpt lat="46.19007" lon="-1.39576">
        <ele>5.6812</ele>
        <time>2022-05-17T14:18:55.000Z</time>
      </trkpt>
      <trkpt lat="46.19006" lon="-1.39573">
        <ele>5.6363</ele>
        <time>2022-05-17T14:18:56.000Z</time>
      </trkpt>
      <trkpt lat="46.19004" lon="-1.39569">
        <ele>5.6011</ele>
        <time>2022-05-17T14:18:57.000Z</time>
      </trkpt>
      <trkpt lat="46.19003" lon="-1.39565">
        <ele>5.58002</ele>
        <time>2022-05-17T14:18:58.000Z</time>
      </trkpt>
      <trkpt lat="46.19002" lon="-1.39561">
        <ele>5.56673</ele>
        <time>2022-05-17T14:18:59.000Z</time>
      </trkpt>
      <trkpt lat="46.19" lon="-1.39556">
        <ele>5.56507</ele>
        <time>2022-05-17T14:19:00.000Z</time>
      </trkpt>
      <trkpt lat="46.18999" lon="-1.39551">
        <ele>5.57435</ele>
        <time>2022-05-17T14:19:01.000Z</time>
      </trkpt>
      <trkpt lat="46.18997" lon="-1.39546">
        <ele>5.59208</ele>
        <time>2022-05-17T14:19:02.000Z</time>
      </trkpt>
      <trkpt lat="46.18995" lon="-1.39541">
        <ele>5.61195</ele>
        <time>2022-05-17T14:19:03.000Z</time>
      </trkpt>
      <trkpt lat="46.18992" lon="-1.39537">
        <ele>5.63677</ele>
        <time>2022-05-17T14:19:04.000Z</time>
      </trkpt>
      <trkpt lat="46.1899" lon="-1.39531">
        <ele>5.66899</ele>
        <time>2022-05-17T14:19:05.000Z</time>
      </trkpt>
      <trkpt lat="46.18988" lon="-1.39527">
        <ele>5.70087</ele>
        <time>2022-05-17T14:19:06.000Z</time>
      </trkpt>
      <trkpt lat="46.18986" lon="-1.39522">
        <ele>5.732</ele>
        <time>2022-05-17T14:19:07.000Z</time>
      </trkpt>
      <trkpt lat="46.18984" lon="-1.39517">
        <ele>5.75587</ele>
        <time>2022-05-17T14:19:08.000Z</time>
      </trkpt>
      <trkpt lat="46.18983" lon="-1.39512">
        <ele>5.76882</ele>
        <time>2022-05-17T14:19:09.000Z</time>
      </trkpt>
      <trkpt lat="46.1898" lon="-1.39508">
        <ele>5.7705</ele>
        <time>2022-05-17T14:19:10.000Z</time>
      </trkpt>
      <trkpt lat="46.18978" lon="-1.39503">
        <ele>5.76291</ele>
        <time>2022-05-17T14:19:11.000Z</time>
      </trkpt>
      <trkpt lat="46.18976" lon="-1.39498">
        <ele>5.75449</ele>
        <time>2022-05-17T14:19:12.000Z</time>
      </trkpt>
      <trkpt lat="46.18975" lon="-1.3949">
        <ele>5.75125</ele>
        <time>2022-05-17T14:19:13.000Z</time>
      </trkpt>
      <trkpt lat="46.18974" lon="-1.39485">
        <ele>5.75788</ele>
        <time>2022-05-17T14:19:14.000Z</time>
      </trkpt>
      <trkpt lat="46.18973" lon="-1.39478">
        <ele>5.78606</ele>
        <time>2022-05-17T14:19:15.000Z</time>
      </trkpt>
      <trkpt lat="46.18973" lon="-1.39472">
        <ele>5.83419</ele>
        <time>2022-05-17T14:19:16.000Z</time>
      </trkpt>
      <trkpt lat="46.18972" lon="-1.39467">
        <ele>5.91236</ele>
        <time>2022-05-17T14:19:17.000Z</time>
      </trkpt>
      <trkpt lat="46.18972" lon="-1.3946">
        <ele>6.02978</ele>
        <time>2022-05-17T14:19:18.000Z</time>
      </trkpt>
      <trkpt lat="46.18971" lon="-1.39456">
        <ele>6.12378</ele>
        <time>2022-05-17T14:19:19.000Z</time>
      </trkpt>
      <trkpt lat="46.1897" lon="-1.39452">
        <ele>6.2261</ele>
        <time>2022-05-17T14:19:20.000Z</time>
      </trkpt>
      <trkpt lat="46.18969" lon="-1.39447">
        <ele>6.32907</ele>
        <time>2022-05-17T14:19:21.000Z</time>
      </trkpt>
      <trkpt lat="46.18968" lon="-1.39441">
        <ele>6.41214</ele>
        <time>2022-05-17T14:19:22.000Z</time>
      </trkpt>
      <trkpt lat="46.18967" lon="-1.39435">
        <ele>6.45176</ele>
        <time>2022-05-17T14:19:23.000Z</time>
      </trkpt>
      <trkpt lat="46.18966" lon="-1.3943">
        <ele>6.45551</ele>
        <time>2022-05-17T14:19:24.000Z</time>
      </trkpt>
      <trkpt lat="46.18966" lon="-1.39424">
        <ele>6.42533</ele>
        <time>2022-05-17T14:19:25.000Z</time>
      </trkpt>
      <trkpt lat="46.18965" lon="-1.39418">
        <ele>6.39378</ele>
        <time>2022-05-17T14:19:26.000Z</time>
      </trkpt>
      <trkpt lat="46.18964" lon="-1.39412">
        <ele>6.36088</ele>
        <time>2022-05-17T14:19:27.000Z</time>
      </trkpt>
      <trkpt lat="46.18963" lon="-1.39406">
        <ele>6.35423</ele>
        <time>2022-05-17T14:19:28.000Z</time>
      </trkpt>
      <trkpt lat="46.18962" lon="-1.39399">
        <ele>6.36513</ele>
        <time>2022-05-17T14:19:29.000Z</time>
      </trkpt>
      <trkpt lat="46.18963" lon="-1.39387">
        <ele>6.38162</ele>
        <time>2022-05-17T14:19:30.000Z</time>
      </trkpt>
      <trkpt lat="46.18963" lon="-1.39382">
        <ele>6.4153</ele>
        <time>2022-05-17T14:19:31.000Z</time>
      </trkpt>
      <trkpt lat="46.18964" lon="-1.39377">
        <ele>6.42354</ele>
        <time>2022-05-17T14:19:32.000Z</time>
      </trkpt>
      <trkpt lat="46.18964" lon="-1.39368">
        <ele>6.48594</ele>
        <time>2022-05-17T14:19:33.000Z</time>
      </trkpt>
      <trkpt lat="46.18963" lon="-1.39361">
        <ele>6.57545</ele>
        <time>2022-05-17T14:19:34.000Z</time>
      </trkpt>
      <trkpt lat="46.18963" lon="-1.39354">
        <ele>6.64591</ele>
        <time>2022-05-17T14:19:35.000Z</time>
      </trkpt>
      <trkpt lat="46.18963" lon="-1.39349">
        <ele>6.69343</ele>
        <time>2022-05-17T14:19:36.000Z</time>
      </trkpt>
      <trkpt lat="46.18961" lon="-1.39342">
        <ele>6.75682</ele>
        <time>2022-05-17T14:19:37.000Z</time>
      </trkpt>
      <trkpt lat="46.18962" lon="-1.39337">
        <ele>6.74153</ele>
        <time>2022-05-17T14:19:38.000Z</time>
      </trkpt>
      <trkpt lat="46.18962" lon="-1.39331">
        <ele>6.70044</ele>
        <time>2022-05-17T14:19:39.000Z</time>
      </trkpt>
      <trkpt lat="46.18964" lon="-1.39328">
        <ele>6.64093</ele>
        <time>2022-05-17T14:19:40.000Z</time>
      </trkpt>
      <trkpt lat="46.18966" lon="-1.39319">
        <ele>6.53847</ele>
        <time>2022-05-17T14:19:41.000Z</time>
      </trkpt>
      <trkpt lat="46.18968" lon="-1.3931">
        <ele>6.45287</ele>
        <time>2022-05-17T14:19:42.000Z</time>
      </trkpt>
      <trkpt lat="46.18969" lon="-1.39302">
        <ele>6.4057</ele>
        <time>2022-05-17T14:19:43.000Z</time>
      </trkpt>
      <trkpt lat="46.18971" lon="-1.39295">
        <ele>6.36677</ele>
        <time>2022-05-17T14:19:44.000Z</time>
      </trkpt>
      <trkpt lat="46.18971" lon="-1.3929">
        <ele>6.36293</ele>
        <time>2022-05-17T14:19:45.000Z</time>
      </trkpt>
      <trkpt lat="46.1897" lon="-1.39282">
        <ele>6.38568</ele>
        <time>2022-05-17T14:19:46.000Z</time>
      </trkpt>
      <trkpt lat="46.1897" lon="-1.39275">
        <ele>6.41056</ele>
        <time>2022-05-17T14:19:47.000Z</time>
      </trkpt>
      <trkpt lat="46.1897" lon="-1.39269">
        <ele>6.42624</ele>
        <time>2022-05-17T14:19:48.000Z</time>
      </trkpt>
      <trkpt lat="46.18971" lon="-1.39261">
        <ele>6.45623</ele>
        <time>2022-05-17T14:19:49.000Z</time>
      </trkpt>
      <trkpt lat="46.18972" lon="-1.39255">
        <ele>6.48444</ele>
        <time>2022-05-17T14:19:50.000Z</time>
      </trkpt>
      <trkpt lat="46.18972" lon="-1.39247">
        <ele>6.5251</ele>
        <time>2022-05-17T14:19:51.000Z</time>
      </trkpt>
      <trkpt lat="46.18971" lon="-1.39239">
        <ele>6.56912</ele>
        <time>2022-05-17T14:19:52.000Z</time>
      </trkpt>
      <trkpt lat="46.1897" lon="-1.39235">
        <ele>6.58919</ele>
        <time>2022-05-17T14:19:53.000Z</time>
      </trkpt>
      <trkpt lat="46.1897" lon="-1.39227">
        <ele>6.62317</ele>
        <time>2022-05-17T14:19:54.000Z</time>
      </trkpt>
      <trkpt lat="46.18972" lon="-1.39219">
        <ele>6.64571</ele>
        <time>2022-05-17T14:19:55.000Z</time>
      </trkpt>
      <trkpt lat="46.18971" lon="-1.39213">
        <ele>6.67431</ele>
        <time>2022-05-17T14:19:56.000Z</time>
      </trkpt>
      <trkpt lat="46.18971" lon="-1.39207">
        <ele>6.70156</ele>
        <time>2022-05-17T14:19:57.000Z</time>
      </trkpt>
      <trkpt lat="46.18973" lon="-1.39199">
        <ele>6.71972</ele>
        <time>2022-05-17T14:19:58.000Z</time>
      </trkpt>
      <trkpt lat="46.18974" lon="-1.39192">
        <ele>6.73812</ele>
        <time>2022-05-17T14:19:59.000Z</time>
      </trkpt>
      <trkpt lat="46.18975" lon="-1.39183">
        <ele>6.74685</ele>
        <time>2022-05-17T14:20:00.000Z</time>
      </trkpt>
      <trkpt lat="46.18976" lon="-1.39178">
        <ele>6.74805</ele>
        <time>2022-05-17T14:20:01.000Z</time>
      </trkpt>
      <trkpt lat="46.18976" lon="-1.39173">
        <ele>6.74594</ele>
        <time>2022-05-17T14:20:02.000Z</time>
      </trkpt>
      <trkpt lat="46.18978" lon="-1.39167">
        <ele>6.73413</ele>
        <time>2022-05-17T14:20:03.000Z</time>
      </trkpt>
      <trkpt lat="46.18979" lon="-1.39162">
        <ele>6.73426</ele>
        <time>2022-05-17T14:20:04.000Z</time>
      </trkpt>
      <trkpt lat="46.1898" lon="-1.39155">
        <ele>6.74524</ele>
        <time>2022-05-17T14:20:05.000Z</time>
      </trkpt>
      <trkpt lat="46.18981" lon="-1.39148">
        <ele>6.77583</ele>
        <time>2022-05-17T14:20:06.000Z</time>
      </trkpt>
      <trkpt lat="46.18981" lon="-1.39142">
        <ele>6.82793</ele>
        <time>2022-05-17T14:20:07.000Z</time>
      </trkpt>
      <trkpt lat="46.18982" lon="-1.39134">
        <ele>6.8989</ele>
        <time>2022-05-17T14:20:08.000Z</time>
      </trkpt>
      <trkpt lat="46.18984" lon="-1.39128">
        <ele>6.94672</ele>
        <time>2022-05-17T14:20:09.000Z</time>
      </trkpt>
      <trkpt lat="46.18984" lon="-1.39121">
        <ele>7.00724</ele>
        <time>2022-05-17T14:20:10.000Z</time>
      </trkpt>
      <trkpt lat="46.18986" lon="-1.39112">
        <ele>7.03859</ele>
        <time>2022-05-17T14:20:11.000Z</time>
      </trkpt>
      <trkpt lat="46.18985" lon="-1.39105">
        <ele>7.06968</ele>
        <time>2022-05-17T14:20:12.000Z</time>
      </trkpt>
      <trkpt lat="46.18985" lon="-1.391">
        <ele>7.08584</ele>
        <time>2022-05-17T14:20:13.000Z</time>
      </trkpt>
      <trkpt lat="46.18987" lon="-1.39093">
        <ele>7.10926</ele>
        <time>2022-05-17T14:20:14.000Z</time>
      </trkpt>
      <trkpt lat="46.18985" lon="-1.3909">
        <ele>7.11054</ele>
        <time>2022-05-17T14:20:15.000Z</time>
      </trkpt>
      <trkpt lat="46.18986" lon="-1.39085">
        <ele>7.13354</ele>
        <time>2022-05-17T14:20:16.000Z</time>
      </trkpt>
      <trkpt lat="46.18987" lon="-1.3908">
        <ele>7.16697</ele>
        <time>2022-05-17T14:20:17.000Z</time>
      </trkpt>
      <trkpt lat="46.18988" lon="-1.39075">
        <ele>7.19914</ele>
        <time>2022-05-17T14:20:18.000Z</time>
      </trkpt>
      <trkpt lat="46.1899" lon="-1.39068">
        <ele>7.2463</ele>
        <time>2022-05-17T14:20:19.000Z</time>
      </trkpt>
      <trkpt lat="46.18991" lon="-1.39062">
        <ele>7.28068</ele>
        <time>2022-05-17T14:20:20.000Z</time>
      </trkpt>
      <trkpt lat="46.18991" lon="-1.39056">
        <ele>7.28553</ele>
        <time>2022-05-17T14:20:21.000Z</time>
      </trkpt>
      <trkpt lat="46.18994" lon="-1.39051">
        <ele>7.29284</ele>
        <time>2022-05-17T14:20:22.000Z</time>
      </trkpt>
      <trkpt lat="46.18995" lon="-1.39046">
        <ele>7.27301</ele>
        <time>2022-05-17T14:20:23.000Z</time>
      </trkpt>
      <trkpt lat="46.18996" lon="-1.39041">
        <ele>7.23731</ele>
        <time>2022-05-17T14:20:24.000Z</time>
      </trkpt>
      <trkpt lat="46.18997" lon="-1.39035">
        <ele>7.19638</ele>
        <time>2022-05-17T14:20:25.000Z</time>
      </trkpt>
      <trkpt lat="46.18998" lon="-1.3903">
        <ele>7.15889</ele>
        <time>2022-05-17T14:20:26.000Z</time>
      </trkpt>
      <trkpt lat="46.18997" lon="-1.39026">
        <ele>7.13239</ele>
        <time>2022-05-17T14:20:27.000Z</time>
      </trkpt>
      <trkpt lat="46.18997" lon="-1.39022">
        <ele>7.11547</ele>
        <time>2022-05-17T14:20:28.000Z</time>
      </trkpt>
      <trkpt lat="46.18997" lon="-1.39016">
        <ele>7.11902</ele>
        <time>2022-05-17T14:20:29.000Z</time>
      </trkpt>
      <trkpt lat="46.18998" lon="-1.39011">
        <ele>7.13939</ele>
        <time>2022-05-17T14:20:30.000Z</time>
      </trkpt>
      <trkpt lat="46.18998" lon="-1.39007">
        <ele>7.16055</ele>
        <time>2022-05-17T14:20:31.000Z</time>
      </trkpt>
      <trkpt lat="46.18999" lon="-1.39001">
        <ele>7.19444</ele>
        <time>2022-05-17T14:20:32.000Z</time>
      </trkpt>
      <trkpt lat="46.19" lon="-1.38996">
        <ele>7.22722</ele>
        <time>2022-05-17T14:20:33.000Z</time>
      </trkpt>
      <trkpt lat="46.19" lon="-1.3899">
        <ele>7.24976</ele>
        <time>2022-05-17T14:20:34.000Z</time>
      </trkpt>
      <trkpt lat="46.19001" lon="-1.38985">
        <ele>7.26426</ele>
        <time>2022-05-17T14:20:35.000Z</time>
      </trkpt>
      <trkpt lat="46.19002" lon="-1.38979">
        <ele>7.27563</ele>
        <time>2022-05-17T14:20:36.000Z</time>
      </trkpt>
      <trkpt lat="46.19003" lon="-1.38973">
        <ele>7.28423</ele>
        <time>2022-05-17T14:20:37.000Z</time>
      </trkpt>
      <trkpt lat="46.19004" lon="-1.38967">
        <ele>7.29436</ele>
        <time>2022-05-17T14:20:38.000Z</time>
      </trkpt>
      <trkpt lat="46.19006" lon="-1.38961">
        <ele>7.30767</ele>
        <time>2022-05-17T14:20:39.000Z</time>
      </trkpt>
      <trkpt lat="46.19007" lon="-1.38956">
        <ele>7.32372</ele>
        <time>2022-05-17T14:20:40.000Z</time>
      </trkpt>
      <trkpt lat="46.19009" lon="-1.38951">
        <ele>7.34772</ele>
        <time>2022-05-17T14:20:41.000Z</time>
      </trkpt>
      <trkpt lat="46.1901" lon="-1.38946">
        <ele>7.37423</ele>
        <time>2022-05-17T14:20:42.000Z</time>
      </trkpt>
      <trkpt lat="46.19012" lon="-1.38942">
        <ele>7.40164</ele>
        <time>2022-05-17T14:20:43.000Z</time>
      </trkpt>
      <trkpt lat="46.19014" lon="-1.38937">
        <ele>7.42591</ele>
        <time>2022-05-17T14:20:44.000Z</time>
      </trkpt>
      <trkpt lat="46.19016" lon="-1.38931">
        <ele>7.43923</ele>
        <time>2022-05-17T14:20:45.000Z</time>
      </trkpt>
      <trkpt lat="46.19017" lon="-1.38926">
        <ele>7.42957</ele>
        <time>2022-05-17T14:20:46.000Z</time>
      </trkpt>
      <trkpt lat="46.19019" lon="-1.38921">
        <ele>7.39406</ele>
        <time>2022-05-17T14:20:47.000Z</time>
      </trkpt>
      <trkpt lat="46.1902" lon="-1.38914">
        <ele>7.33335</ele>
        <time>2022-05-17T14:20:48.000Z</time>
      </trkpt>
      <trkpt lat="46.19021" lon="-1.38907">
        <ele>7.25824</ele>
        <time>2022-05-17T14:20:49.000Z</time>
      </trkpt>
      <trkpt lat="46.19021" lon="-1.38901">
        <ele>7.21477</ele>
        <time>2022-05-17T14:20:50.000Z</time>
      </trkpt>
      <trkpt lat="46.19021" lon="-1.38896">
        <ele>7.19175</ele>
        <time>2022-05-17T14:20:51.000Z</time>
      </trkpt>
      <trkpt lat="46.19021" lon="-1.38891">
        <ele>7.1824</ele>
        <time>2022-05-17T14:20:52.000Z</time>
      </trkpt>
      <trkpt lat="46.19021" lon="-1.38887">
        <ele>7.18069</ele>
        <time>2022-05-17T14:20:53.000Z</time>
      </trkpt>
      <trkpt lat="46.1902" lon="-1.38884">
        <ele>7.18435</ele>
        <time>2022-05-17T14:20:54.000Z</time>
      </trkpt>
      <trkpt lat="46.1902" lon="-1.38881">
        <ele>7.18868</ele>
        <time>2022-05-17T14:20:55.000Z</time>
      </trkpt>
      <trkpt lat="46.19021" lon="-1.38877">
        <ele>7.18523</ele>
        <time>2022-05-17T14:20:57.000Z</time>
      </trkpt>
      <trkpt lat="46.19022" lon="-1.38874">
        <ele>7.17878</ele>
        <time>2022-05-17T14:20:58.000Z</time>
      </trkpt>
      <trkpt lat="46.19023" lon="-1.38872">
        <ele>7.16663</ele>
        <time>2022-05-17T14:20:59.000Z</time>
      </trkpt>
      <trkpt lat="46.19025" lon="-1.38868">
        <ele>7.15529</ele>
        <time>2022-05-17T14:21:01.000Z</time>
      </trkpt>
      <trkpt lat="46.19025" lon="-1.38865">
        <ele>7.16192</ele>
        <time>2022-05-17T14:21:03.000Z</time>
      </trkpt>
      <trkpt lat="46.19022" lon="-1.38862">
        <ele>7.1868</ele>
        <time>2022-05-17T14:21:05.000Z</time>
      </trkpt>
      <trkpt lat="46.19019" lon="-1.3886">
        <ele>7.19133</ele>
        <time>2022-05-17T14:21:06.000Z</time>
      </trkpt>
      <trkpt lat="46.19017" lon="-1.38858">
        <ele>7.18404</ele>
        <time>2022-05-17T14:21:07.000Z</time>
      </trkpt>
      <trkpt lat="46.19015" lon="-1.38855">
        <ele>7.1725</ele>
        <time>2022-05-17T14:21:08.000Z</time>
      </trkpt>
      <trkpt lat="46.19014" lon="-1.38851">
        <ele>7.16059</ele>
        <time>2022-05-17T14:21:09.000Z</time>
      </trkpt>
      <trkpt lat="46.19013" lon="-1.38846">
        <ele>7.15085</ele>
        <time>2022-05-17T14:21:10.000Z</time>
      </trkpt>
      <trkpt lat="46.19011" lon="-1.3884">
        <ele>7.14254</ele>
        <time>2022-05-17T14:21:11.000Z</time>
      </trkpt>
      <trkpt lat="46.19009" lon="-1.38835">
        <ele>7.13531</ele>
        <time>2022-05-17T14:21:12.000Z</time>
      </trkpt>
      <trkpt lat="46.19007" lon="-1.3883">
        <ele>7.12516</ele>
        <time>2022-05-17T14:21:13.000Z</time>
      </trkpt>
      <trkpt lat="46.19005" lon="-1.38825">
        <ele>7.11209</ele>
        <time>2022-05-17T14:21:14.000Z</time>
      </trkpt>
      <trkpt lat="46.19003" lon="-1.38819">
        <ele>7.10019</ele>
        <time>2022-05-17T14:21:15.000Z</time>
      </trkpt>
      <trkpt lat="46.19002" lon="-1.38813">
        <ele>7.09791</ele>
        <time>2022-05-17T14:21:16.000Z</time>
      </trkpt>
      <trkpt lat="46.19" lon="-1.38806">
        <ele>7.1084</ele>
        <time>2022-05-17T14:21:17.000Z</time>
      </trkpt>
      <trkpt lat="46.18999" lon="-1.38802">
        <ele>7.11884</ele>
        <time>2022-05-17T14:21:18.000Z</time>
      </trkpt>
      <trkpt lat="46.19" lon="-1.38796">
        <ele>7.13515</ele>
        <time>2022-05-17T14:21:19.000Z</time>
      </trkpt>
      <trkpt lat="46.19001" lon="-1.38789">
        <ele>7.16565</ele>
        <time>2022-05-17T14:21:20.000Z</time>
      </trkpt>
      <trkpt lat="46.19001" lon="-1.38783">
        <ele>7.2025</ele>
        <time>2022-05-17T14:21:21.000Z</time>
      </trkpt>
      <trkpt lat="46.18999" lon="-1.38777">
        <ele>7.24717</ele>
        <time>2022-05-17T14:21:22.000Z</time>
      </trkpt>
      <trkpt lat="46.18998" lon="-1.38772">
        <ele>7.27228</ele>
        <time>2022-05-17T14:21:23.000Z</time>
      </trkpt>
      <trkpt lat="46.18997" lon="-1.38765">
        <ele>7.28759</ele>
        <time>2022-05-17T14:21:24.000Z</time>
      </trkpt>
      <trkpt lat="46.18997" lon="-1.38757">
        <ele>7.29448</ele>
        <time>2022-05-17T14:21:25.000Z</time>
      </trkpt>
      <trkpt lat="46.18994" lon="-1.38751">
        <ele>7.26084</ele>
        <time>2022-05-17T14:21:26.000Z</time>
      </trkpt>
      <trkpt lat="46.18992" lon="-1.38745">
        <ele>7.23589</ele>
        <time>2022-05-17T14:21:27.000Z</time>
      </trkpt>
      <trkpt lat="46.18991" lon="-1.38738">
        <ele>7.22378</ele>
        <time>2022-05-17T14:21:28.000Z</time>
      </trkpt>
      <trkpt lat="46.1899" lon="-1.38733">
        <ele>7.21539</ele>
        <time>2022-05-17T14:21:29.000Z</time>
      </trkpt>
      <trkpt lat="46.18988" lon="-1.38728">
        <ele>7.20645</ele>
        <time>2022-05-17T14:21:30.000Z</time>
      </trkpt>
      <trkpt lat="46.18987" lon="-1.38723">
        <ele>7.20426</ele>
        <time>2022-05-17T14:21:31.000Z</time>
      </trkpt>
      <trkpt lat="46.18986" lon="-1.38718">
        <ele>7.203</ele>
        <time>2022-05-17T14:21:32.000Z</time>
      </trkpt>
      <trkpt lat="46.18984" lon="-1.38713">
        <ele>7.19545</ele>
        <time>2022-05-17T14:21:33.000Z</time>
      </trkpt>
      <trkpt lat="46.18983" lon="-1.38708">
        <ele>7.18263</ele>
        <time>2022-05-17T14:21:34.000Z</time>
      </trkpt>
      <trkpt lat="46.18981" lon="-1.38703">
        <ele>7.16784</ele>
        <time>2022-05-17T14:21:35.000Z</time>
      </trkpt>
      <trkpt lat="46.1898" lon="-1.38698">
        <ele>7.15101</ele>
        <time>2022-05-17T14:21:36.000Z</time>
      </trkpt>
      <trkpt lat="46.18979" lon="-1.38692">
        <ele>7.13039</ele>
        <time>2022-05-17T14:21:37.000Z</time>
      </trkpt>
      <trkpt lat="46.18978" lon="-1.38687">
        <ele>7.1049</ele>
        <time>2022-05-17T14:21:38.000Z</time>
      </trkpt>
      <trkpt lat="46.18977" lon="-1.38681">
        <ele>7.08033</ele>
        <time>2022-05-17T14:21:39.000Z</time>
      </trkpt>
      <trkpt lat="46.18975" lon="-1.38676">
        <ele>7.06089</ele>
        <time>2022-05-17T14:21:40.000Z</time>
      </trkpt>
      <trkpt lat="46.18974" lon="-1.3867">
        <ele>7.05322</ele>
        <time>2022-05-17T14:21:41.000Z</time>
      </trkpt>
      <trkpt lat="46.18973" lon="-1.38664">
        <ele>7.05981</ele>
        <time>2022-05-17T14:21:42.000Z</time>
      </trkpt>
      <trkpt lat="46.18973" lon="-1.38659">
        <ele>7.07997</ele>
        <time>2022-05-17T14:21:43.000Z</time>
      </trkpt>
      <trkpt lat="46.18971" lon="-1.38653">
        <ele>7.11443</ele>
        <time>2022-05-17T14:21:44.000Z</time>
      </trkpt>
      <trkpt lat="46.1897" lon="-1.38648">
        <ele>7.16061</ele>
        <time>2022-05-17T14:21:45.000Z</time>
      </trkpt>
      <trkpt lat="46.18968" lon="-1.38642">
        <ele>7.21525</ele>
        <time>2022-05-17T14:21:46.000Z</time>
      </trkpt>
      <trkpt lat="46.18966" lon="-1.38637">
        <ele>7.26368</ele>
        <time>2022-05-17T14:21:47.000Z</time>
      </trkpt>
      <trkpt lat="46.18964" lon="-1.38632">
        <ele>7.30345</ele>
        <time>2022-05-17T14:21:48.000Z</time>
      </trkpt>
      <trkpt lat="46.18962" lon="-1.38628">
        <ele>7.33247</ele>
        <time>2022-05-17T14:21:49.000Z</time>
      </trkpt>
      <trkpt lat="46.1896" lon="-1.38624">
        <ele>7.36053</ele>
        <time>2022-05-17T14:21:50.000Z</time>
      </trkpt>
      <trkpt lat="46.18958" lon="-1.38619">
        <ele>7.39038</ele>
        <time>2022-05-17T14:21:51.000Z</time>
      </trkpt>
      <trkpt lat="46.18956" lon="-1.38615">
        <ele>7.42688</ele>
        <time>2022-05-17T14:21:52.000Z</time>
      </trkpt>
      <trkpt lat="46.18955" lon="-1.3861">
        <ele>7.47373</ele>
        <time>2022-05-17T14:21:53.000Z</time>
      </trkpt>
      <trkpt lat="46.18954" lon="-1.38605">
        <ele>7.52601</ele>
        <time>2022-05-17T14:21:54.000Z</time>
      </trkpt>
      <trkpt lat="46.18941" lon="-1.38573">
        <ele>7.58817</ele>
        <time>2022-05-17T14:22:01.000Z</time>
      </trkpt>
      <trkpt lat="46.18939" lon="-1.38568">
        <ele>7.56857</ele>
        <time>2022-05-17T14:22:02.000Z</time>
      </trkpt>
      <trkpt lat="46.18936" lon="-1.38564">
        <ele>7.55761</ele>
        <time>2022-05-17T14:22:03.000Z</time>
      </trkpt>
      <trkpt lat="46.18934" lon="-1.38559">
        <ele>7.54589</ele>
        <time>2022-05-17T14:22:04.000Z</time>
      </trkpt>
      <trkpt lat="46.18931" lon="-1.38554">
        <ele>7.52532</ele>
        <time>2022-05-17T14:22:05.000Z</time>
      </trkpt>
      <trkpt lat="46.18929" lon="-1.38549">
        <ele>7.49692</ele>
        <time>2022-05-17T14:22:06.000Z</time>
      </trkpt>
      <trkpt lat="46.18927" lon="-1.38544">
        <ele>7.4578</ele>
        <time>2022-05-17T14:22:07.000Z</time>
      </trkpt>
      <trkpt lat="46.18925" lon="-1.38538">
        <ele>7.41405</ele>
        <time>2022-05-17T14:22:08.000Z</time>
      </trkpt>
      <trkpt lat="46.18921" lon="-1.38533">
        <ele>7.37716</ele>
        <time>2022-05-17T14:22:09.000Z</time>
      </trkpt>
      <trkpt lat="46.18919" lon="-1.38526">
        <ele>7.35338</ele>
        <time>2022-05-17T14:22:10.000Z</time>
      </trkpt>
      <trkpt lat="46.18917" lon="-1.38522">
        <ele>7.34995</ele>
        <time>2022-05-17T14:22:11.000Z</time>
      </trkpt>
      <trkpt lat="46.18915" lon="-1.38515">
        <ele>7.3476</ele>
        <time>2022-05-17T14:22:12.000Z</time>
      </trkpt>
      <trkpt lat="46.18913" lon="-1.38508">
        <ele>7.36747</ele>
        <time>2022-05-17T14:22:13.000Z</time>
      </trkpt>
      <trkpt lat="46.18912" lon="-1.38501">
        <ele>7.3998</ele>
        <time>2022-05-17T14:22:14.000Z</time>
      </trkpt>
      <trkpt lat="46.18911" lon="-1.38495">
        <ele>7.44089</ele>
        <time>2022-05-17T14:22:15.000Z</time>
      </trkpt>
      <trkpt lat="46.18908" lon="-1.3849">
        <ele>7.50525</ele>
        <time>2022-05-17T14:22:16.000Z</time>
      </trkpt>
      <trkpt lat="46.18905" lon="-1.38484">
        <ele>7.54767</ele>
        <time>2022-05-17T14:22:17.000Z</time>
      </trkpt>
      <trkpt lat="46.18903" lon="-1.38479">
        <ele>7.56288</ele>
        <time>2022-05-17T14:22:18.000Z</time>
      </trkpt>
      <trkpt lat="46.189" lon="-1.38475">
        <ele>7.57548</ele>
        <time>2022-05-17T14:22:19.000Z</time>
      </trkpt>
      <trkpt lat="46.18898" lon="-1.38469">
        <ele>7.56196</ele>
        <time>2022-05-17T14:22:20.000Z</time>
      </trkpt>
      <trkpt lat="46.18896" lon="-1.38464">
        <ele>7.54188</ele>
        <time>2022-05-17T14:22:21.000Z</time>
      </trkpt>
      <trkpt lat="46.18893" lon="-1.3846">
        <ele>7.52344</ele>
        <time>2022-05-17T14:22:22.000Z</time>
      </trkpt>
      <trkpt lat="46.18891" lon="-1.38455">
        <ele>7.50908</ele>
        <time>2022-05-17T14:22:23.000Z</time>
      </trkpt>
      <trkpt lat="46.18889" lon="-1.38449">
        <ele>7.50781</ele>
        <time>2022-05-17T14:22:24.000Z</time>
      </trkpt>
      <trkpt lat="46.18887" lon="-1.38443">
        <ele>7.52189</ele>
        <time>2022-05-17T14:22:25.000Z</time>
      </trkpt>
      <trkpt lat="46.18886" lon="-1.38438">
        <ele>7.54755</ele>
        <time>2022-05-17T14:22:26.000Z</time>
      </trkpt>
      <trkpt lat="46.18884" lon="-1.38432">
        <ele>7.57675</ele>
        <time>2022-05-17T14:22:27.000Z</time>
      </trkpt>
      <trkpt lat="46.18882" lon="-1.38427">
        <ele>7.60246</ele>
        <time>2022-05-17T14:22:28.000Z</time>
      </trkpt>
      <trkpt lat="46.18879" lon="-1.38421">
        <ele>7.62242</ele>
        <time>2022-05-17T14:22:29.000Z</time>
      </trkpt>
      <trkpt lat="46.18876" lon="-1.38417">
        <ele>7.64018</ele>
        <time>2022-05-17T14:22:30.000Z</time>
      </trkpt>
      <trkpt lat="46.18874" lon="-1.38413">
        <ele>7.66119</ele>
        <time>2022-05-17T14:22:31.000Z</time>
      </trkpt>
      <trkpt lat="46.18871" lon="-1.38409">
        <ele>7.68465</ele>
        <time>2022-05-17T14:22:32.000Z</time>
      </trkpt>
      <trkpt lat="46.18869" lon="-1.38404">
        <ele>7.71029</ele>
        <time>2022-05-17T14:22:33.000Z</time>
      </trkpt>
      <trkpt lat="46.18866" lon="-1.38399">
        <ele>7.73532</ele>
        <time>2022-05-17T14:22:34.000Z</time>
      </trkpt>
      <trkpt lat="46.18864" lon="-1.38394">
        <ele>7.7569</ele>
        <time>2022-05-17T14:22:35.000Z</time>
      </trkpt>
      <trkpt lat="46.18862" lon="-1.38389">
        <ele>7.76382</ele>
        <time>2022-05-17T14:22:36.000Z</time>
      </trkpt>
      <trkpt lat="46.1886" lon="-1.38384">
        <ele>7.75546</ele>
        <time>2022-05-17T14:22:37.000Z</time>
      </trkpt>
      <trkpt lat="46.18858" lon="-1.38379">
        <ele>7.74036</ele>
        <time>2022-05-17T14:22:38.000Z</time>
      </trkpt>
      <trkpt lat="46.18856" lon="-1.38374">
        <ele>7.72747</ele>
        <time>2022-05-17T14:22:39.000Z</time>
      </trkpt>
      <trkpt lat="46.18853" lon="-1.3837">
        <ele>7.72058</ele>
        <time>2022-05-17T14:22:40.000Z</time>
      </trkpt>
      <trkpt lat="46.18851" lon="-1.38366">
        <ele>7.72207</ele>
        <time>2022-05-17T14:22:41.000Z</time>
      </trkpt>
      <trkpt lat="46.1885" lon="-1.38362">
        <ele>7.73501</ele>
        <time>2022-05-17T14:22:42.000Z</time>
      </trkpt>
      <trkpt lat="46.18848" lon="-1.38358">
        <ele>7.76284</ele>
        <time>2022-05-17T14:22:43.000Z</time>
      </trkpt>
      <trkpt lat="46.18846" lon="-1.38354">
        <ele>7.80204</ele>
        <time>2022-05-17T14:22:44.000Z</time>
      </trkpt>
      <trkpt lat="46.18845" lon="-1.3835">
        <ele>7.84325</ele>
        <time>2022-05-17T14:22:45.000Z</time>
      </trkpt>
      <trkpt lat="46.18843" lon="-1.38347">
        <ele>7.8736</ele>
        <time>2022-05-17T14:22:46.000Z</time>
      </trkpt>
      <trkpt lat="46.18842" lon="-1.38344">
        <ele>7.90237</ele>
        <time>2022-05-17T14:22:47.000Z</time>
      </trkpt>
      <trkpt lat="46.18841" lon="-1.38342">
        <ele>7.91306</ele>
        <time>2022-05-17T14:22:48.000Z</time>
      </trkpt>
      <trkpt lat="46.18838" lon="-1.38339">
        <ele>7.92986</ele>
        <time>2022-05-17T14:22:50.000Z</time>
      </trkpt>
      <trkpt lat="46.18838" lon="-1.38334">
        <ele>7.97018</ele>
        <time>2022-05-17T14:22:52.000Z</time>
      </trkpt>
      <trkpt lat="46.1884" lon="-1.3833">
        <ele>8.00615</ele>
        <time>2022-05-17T14:22:53.000Z</time>
      </trkpt>
      <trkpt lat="46.18842" lon="-1.38327">
        <ele>8.04824</ele>
        <time>2022-05-17T14:22:54.000Z</time>
      </trkpt>
      <trkpt lat="46.18844" lon="-1.38324">
        <ele>8.09665</ele>
        <time>2022-05-17T14:22:55.000Z</time>
      </trkpt>
      <trkpt lat="46.18846" lon="-1.3832">
        <ele>8.14775</ele>
        <time>2022-05-17T14:22:56.000Z</time>
      </trkpt>
      <trkpt lat="46.1885" lon="-1.38316">
        <ele>8.25543</ele>
        <time>2022-05-17T14:22:57.000Z</time>
      </trkpt>
      <trkpt lat="46.18853" lon="-1.38312">
        <ele>8.38554</ele>
        <time>2022-05-17T14:22:58.000Z</time>
      </trkpt>
      <trkpt lat="46.18856" lon="-1.38309">
        <ele>8.51696</ele>
        <time>2022-05-17T14:22:59.000Z</time>
      </trkpt>
      <trkpt lat="46.18859" lon="-1.38305">
        <ele>8.65227</ele>
        <time>2022-05-17T14:23:00.000Z</time>
      </trkpt>
      <trkpt lat="46.18861" lon="-1.38302">
        <ele>8.76892</ele>
        <time>2022-05-17T14:23:01.000Z</time>
      </trkpt>
      <trkpt lat="46.18863" lon="-1.38298">
        <ele>8.85501</ele>
        <time>2022-05-17T14:23:02.000Z</time>
      </trkpt>
      <trkpt lat="46.18864" lon="-1.38294">
        <ele>8.91818</ele>
        <time>2022-05-17T14:23:03.000Z</time>
      </trkpt>
      <trkpt lat="46.18864" lon="-1.3829">
        <ele>8.96274</ele>
        <time>2022-05-17T14:23:04.000Z</time>
      </trkpt>
      <trkpt lat="46.18863" lon="-1.38287">
        <ele>8.98155</ele>
        <time>2022-05-17T14:23:05.000Z</time>
      </trkpt>
      <trkpt lat="46.18862" lon="-1.38283">
        <ele>8.97851</ele>
        <time>2022-05-17T14:23:06.000Z</time>
      </trkpt>
      <trkpt lat="46.18861" lon="-1.38278">
        <ele>8.96428</ele>
        <time>2022-05-17T14:23:07.000Z</time>
      </trkpt>
      <trkpt lat="46.1886" lon="-1.38275">
        <ele>8.93209</ele>
        <time>2022-05-17T14:23:08.000Z</time>
      </trkpt>
      <trkpt lat="46.18859" lon="-1.38272">
        <ele>8.91577</ele>
        <time>2022-05-17T14:23:09.000Z</time>
      </trkpt>
      <trkpt lat="46.18858" lon="-1.38268">
        <ele>8.90103</ele>
        <time>2022-05-17T14:23:10.000Z</time>
      </trkpt>
      <trkpt lat="46.18858" lon="-1.38265">
        <ele>8.88632</ele>
        <time>2022-05-17T14:23:11.000Z</time>
      </trkpt>
      <trkpt lat="46.18858" lon="-1.38265">
        <ele>8.88632</ele>
        <time>2022-05-17T14:23:11.000Z</time>
      </trkpt>
      <trkpt lat="46.18858" lon="-1.38263">
        <ele>8.93253</ele>
        <time>2022-05-17T14:23:12.000Z</time>
      </trkpt>
      <trkpt lat="46.18858" lon="-1.3826">
        <ele>8.98392</ele>
        <time>2022-05-17T14:23:13.000Z</time>
      </trkpt>
      <trkpt lat="46.18859" lon="-1.38257">
        <ele>9.07062</ele>
        <time>2022-05-17T14:23:14.000Z</time>
      </trkpt>
      <trkpt lat="46.18862" lon="-1.38255">
        <ele>9.18617</ele>
        <time>2022-05-17T14:23:15.000Z</time>
      </trkpt>
      <trkpt lat="46.18865" lon="-1.38254">
        <ele>9.30221</ele>
        <time>2022-05-17T14:23:16.000Z</time>
      </trkpt>
      <trkpt lat="46.18868" lon="-1.38254">
        <ele>9.39256</ele>
        <time>2022-05-17T14:23:17.000Z</time>
      </trkpt>
      <trkpt lat="46.18871" lon="-1.38254">
        <ele>9.45818</ele>
        <time>2022-05-17T14:23:18.000Z</time>
      </trkpt>
      <trkpt lat="46.18874" lon="-1.38254">
        <ele>9.5042</ele>
        <time>2022-05-17T14:23:19.000Z</time>
      </trkpt>
      <trkpt lat="46.18877" lon="-1.38254">
        <ele>9.54669</ele>
        <time>2022-05-17T14:23:20.000Z</time>
      </trkpt>
      <trkpt lat="46.18881" lon="-1.38254">
        <ele>9.5725</ele>
        <time>2022-05-17T14:23:21.000Z</time>
      </trkpt>
      <trkpt lat="46.18884" lon="-1.38254">
        <ele>9.58488</ele>
        <time>2022-05-17T14:23:22.000Z</time>
      </trkpt>
      <trkpt lat="46.18887" lon="-1.38254">
        <ele>9.59086</ele>
        <time>2022-05-17T14:23:23.000Z</time>
      </trkpt>
      <trkpt lat="46.18891" lon="-1.38254">
        <ele>9.57575</ele>
        <time>2022-05-17T14:23:24.000Z</time>
      </trkpt>
      <trkpt lat="46.18896" lon="-1.38254">
        <ele>9.53734</ele>
        <time>2022-05-17T14:23:25.000Z</time>
      </trkpt>
      <trkpt lat="46.189" lon="-1.38254">
        <ele>9.48334</ele>
        <time>2022-05-17T14:23:26.000Z</time>
      </trkpt>
      <trkpt lat="46.18904" lon="-1.38254">
        <ele>9.42878</ele>
        <time>2022-05-17T14:23:27.000Z</time>
      </trkpt>
      <trkpt lat="46.18908" lon="-1.38254">
        <ele>9.39669</ele>
        <time>2022-05-17T14:23:28.000Z</time>
      </trkpt>
      <trkpt lat="46.18912" lon="-1.38253">
        <ele>9.38945</ele>
        <time>2022-05-17T14:23:29.000Z</time>
      </trkpt>
      <trkpt lat="46.18916" lon="-1.38253">
        <ele>9.36946</ele>
        <time>2022-05-17T14:23:30.000Z</time>
      </trkpt>
      <trkpt lat="46.1892" lon="-1.38252">
        <ele>9.35269</ele>
        <time>2022-05-17T14:23:31.000Z</time>
      </trkpt>
      <trkpt lat="46.18924" lon="-1.38252">
        <ele>9.335</ele>
        <time>2022-05-17T14:23:32.000Z</time>
      </trkpt>
      <trkpt lat="46.18927" lon="-1.38252">
        <ele>9.30978</ele>
        <time>2022-05-17T14:23:33.000Z</time>
      </trkpt>
      <trkpt lat="46.18931" lon="-1.38253">
        <ele>9.28726</ele>
        <time>2022-05-17T14:23:34.000Z</time>
      </trkpt>
      <trkpt lat="46.18935" lon="-1.38253">
        <ele>9.26832</ele>
        <time>2022-05-17T14:23:35.000Z</time>
      </trkpt>
      <trkpt lat="46.18938" lon="-1.38254">
        <ele>9.25526</ele>
        <time>2022-05-17T14:23:36.000Z</time>
      </trkpt>
      <trkpt lat="46.18942" lon="-1.38254">
        <ele>9.24563</ele>
        <time>2022-05-17T14:23:37.000Z</time>
      </trkpt>
      <trkpt lat="46.18946" lon="-1.38253">
        <ele>9.24889</ele>
        <time>2022-05-17T14:23:38.000Z</time>
      </trkpt>
      <trkpt lat="46.18949" lon="-1.38251">
        <ele>9.25385</ele>
        <time>2022-05-17T14:23:39.000Z</time>
      </trkpt>
      <trkpt lat="46.18953" lon="-1.38248">
        <ele>9.25561</ele>
        <time>2022-05-17T14:23:40.000Z</time>
      </trkpt>
      <trkpt lat="46.18956" lon="-1.38246">
        <ele>9.25302</ele>
        <time>2022-05-17T14:23:41.000Z</time>
      </trkpt>
      <trkpt lat="46.18959" lon="-1.38244">
        <ele>9.24798</ele>
        <time>2022-05-17T14:23:42.000Z</time>
      </trkpt>
      <trkpt lat="46.18962" lon="-1.38241">
        <ele>9.24587</ele>
        <time>2022-05-17T14:23:43.000Z</time>
      </trkpt>
      <trkpt lat="46.18966" lon="-1.38239">
        <ele>9.23652</ele>
        <time>2022-05-17T14:23:44.000Z</time>
      </trkpt>
      <trkpt lat="46.18969" lon="-1.38237">
        <ele>9.2262</ele>
        <time>2022-05-17T14:23:45.000Z</time>
      </trkpt>
      <trkpt lat="46.18973" lon="-1.38235">
        <ele>9.20237</ele>
        <time>2022-05-17T14:23:46.000Z</time>
      </trkpt>
      <trkpt lat="46.18977" lon="-1.38234">
        <ele>9.16885</ele>
        <time>2022-05-17T14:23:47.000Z</time>
      </trkpt>
      <trkpt lat="46.18981" lon="-1.38232">
        <ele>9.13187</ele>
        <time>2022-05-17T14:23:48.000Z</time>
      </trkpt>
      <trkpt lat="46.18984" lon="-1.3823">
        <ele>9.10327</ele>
        <time>2022-05-17T14:23:49.000Z</time>
      </trkpt>
      <trkpt lat="46.18987" lon="-1.38227">
        <ele>9.08755</ele>
        <time>2022-05-17T14:23:50.000Z</time>
      </trkpt>
      <trkpt lat="46.1899" lon="-1.38225">
        <ele>9.06345</ele>
        <time>2022-05-17T14:23:51.000Z</time>
      </trkpt>
      <trkpt lat="46.18993" lon="-1.38222">
        <ele>9.02391</ele>
        <time>2022-05-17T14:23:52.000Z</time>
      </trkpt>
      <trkpt lat="46.18997" lon="-1.3822">
        <ele>8.96613</ele>
        <time>2022-05-17T14:23:53.000Z</time>
      </trkpt>
      <trkpt lat="46.19002" lon="-1.38218">
        <ele>8.90696</ele>
        <time>2022-05-17T14:23:54.000Z</time>
      </trkpt>
      <trkpt lat="46.19006" lon="-1.38217">
        <ele>8.85772</ele>
        <time>2022-05-17T14:23:55.000Z</time>
      </trkpt>
      <trkpt lat="46.19011" lon="-1.38217">
        <ele>8.81563</ele>
        <time>2022-05-17T14:23:56.000Z</time>
      </trkpt>
      <trkpt lat="46.19015" lon="-1.38217">
        <ele>8.76832</ele>
        <time>2022-05-17T14:23:57.000Z</time>
      </trkpt>
      <trkpt lat="46.1902" lon="-1.38216">
        <ele>8.72161</ele>
        <time>2022-05-17T14:23:58.000Z</time>
      </trkpt>
      <trkpt lat="46.19024" lon="-1.38217">
        <ele>8.64564</ele>
        <time>2022-05-17T14:23:59.000Z</time>
      </trkpt>
      <trkpt lat="46.19028" lon="-1.38217">
        <ele>8.54099</ele>
        <time>2022-05-17T14:24:00.000Z</time>
      </trkpt>
      <trkpt lat="46.19032" lon="-1.38218">
        <ele>8.4392</ele>
        <time>2022-05-17T14:24:01.000Z</time>
      </trkpt>
      <trkpt lat="46.19036" lon="-1.38217">
        <ele>8.35715</ele>
        <time>2022-05-17T14:24:02.000Z</time>
      </trkpt>
      <trkpt lat="46.19039" lon="-1.38213">
        <ele>8.33866</ele>
        <time>2022-05-17T14:24:03.000Z</time>
      </trkpt>
      <trkpt lat="46.19043" lon="-1.38208">
        <ele>8.37052</ele>
        <time>2022-05-17T14:24:04.000Z</time>
      </trkpt>
      <trkpt lat="46.19045" lon="-1.38202">
        <ele>8.45213</ele>
        <time>2022-05-17T14:24:05.000Z</time>
      </trkpt>
      <trkpt lat="46.19048" lon="-1.38196">
        <ele>8.5507</ele>
        <time>2022-05-17T14:24:06.000Z</time>
      </trkpt>
      <trkpt lat="46.19049" lon="-1.38191">
        <ele>8.63859</ele>
        <time>2022-05-17T14:24:07.000Z</time>
      </trkpt>
      <trkpt lat="46.19051" lon="-1.38186">
        <ele>8.69319</ele>
        <time>2022-05-17T14:24:08.000Z</time>
      </trkpt>
      <trkpt lat="46.19053" lon="-1.38181">
        <ele>8.71691</ele>
        <time>2022-05-17T14:24:09.000Z</time>
      </trkpt>
      <trkpt lat="46.19054" lon="-1.38176">
        <ele>8.7336</ele>
        <time>2022-05-17T14:24:10.000Z</time>
      </trkpt>
      <trkpt lat="46.19055" lon="-1.38171">
        <ele>8.746</ele>
        <time>2022-05-17T14:24:11.000Z</time>
      </trkpt>
      <trkpt lat="46.19056" lon="-1.38165">
        <ele>8.74914</ele>
        <time>2022-05-17T14:24:12.000Z</time>
      </trkpt>
      <trkpt lat="46.19057" lon="-1.38159">
        <ele>8.74935</ele>
        <time>2022-05-17T14:24:13.000Z</time>
      </trkpt>
      <trkpt lat="46.19059" lon="-1.38154">
        <ele>8.74986</ele>
        <time>2022-05-17T14:24:14.000Z</time>
      </trkpt>
      <trkpt lat="46.1906" lon="-1.38148">
        <ele>8.73969</ele>
        <time>2022-05-17T14:24:15.000Z</time>
      </trkpt>
      <trkpt lat="46.19061" lon="-1.38143">
        <ele>8.70894</ele>
        <time>2022-05-17T14:24:16.000Z</time>
      </trkpt>
      <trkpt lat="46.19063" lon="-1.38138">
        <ele>8.64805</ele>
        <time>2022-05-17T14:24:17.000Z</time>
      </trkpt>
      <trkpt lat="46.19065" lon="-1.38133">
        <ele>8.57788</ele>
        <time>2022-05-17T14:24:18.000Z</time>
      </trkpt>
      <trkpt lat="46.19067" lon="-1.38128">
        <ele>8.47798</ele>
        <time>2022-05-17T14:24:19.000Z</time>
      </trkpt>
      <trkpt lat="46.19069" lon="-1.38123">
        <ele>8.38789</ele>
        <time>2022-05-17T14:24:20.000Z</time>
      </trkpt>
      <trkpt lat="46.19072" lon="-1.38117">
        <ele>8.32638</ele>
        <time>2022-05-17T14:24:21.000Z</time>
      </trkpt>
      <trkpt lat="46.19074" lon="-1.38112">
        <ele>8.32135</ele>
        <time>2022-05-17T14:24:22.000Z</time>
      </trkpt>
      <trkpt lat="46.19076" lon="-1.38108">
        <ele>8.33732</ele>
        <time>2022-05-17T14:24:23.000Z</time>
      </trkpt>
      <trkpt lat="46.19078" lon="-1.38103">
        <ele>8.36711</ele>
        <time>2022-05-17T14:24:24.000Z</time>
      </trkpt>
      <trkpt lat="46.1908" lon="-1.38098">
        <ele>8.38203</ele>
        <time>2022-05-17T14:24:25.000Z</time>
      </trkpt>
      <trkpt lat="46.19082" lon="-1.38092">
        <ele>8.37628</ele>
        <time>2022-05-17T14:24:26.000Z</time>
      </trkpt>
      <trkpt lat="46.19083" lon="-1.38087">
        <ele>8.3433</ele>
        <time>2022-05-17T14:24:27.000Z</time>
      </trkpt>
      <trkpt lat="46.19085" lon="-1.38082">
        <ele>8.27116</ele>
        <time>2022-05-17T14:24:28.000Z</time>
      </trkpt>
      <trkpt lat="46.19087" lon="-1.38076">
        <ele>8.17883</ele>
        <time>2022-05-17T14:24:29.000Z</time>
      </trkpt>
      <trkpt lat="46.19088" lon="-1.38071">
        <ele>8.08496</ele>
        <time>2022-05-17T14:24:30.000Z</time>
      </trkpt>
      <trkpt lat="46.1909" lon="-1.38065">
        <ele>8.0079</ele>
        <time>2022-05-17T14:24:31.000Z</time>
      </trkpt>
      <trkpt lat="46.19092" lon="-1.38061">
        <ele>7.96574</ele>
        <time>2022-05-17T14:24:32.000Z</time>
      </trkpt>
      <trkpt lat="46.19097" lon="-1.38049">
        <ele>8.01812</ele>
        <time>2022-05-17T14:24:33.000Z</time>
      </trkpt>
      <trkpt lat="46.191" lon="-1.38041">
        <ele>8.14832</ele>
        <time>2022-05-17T14:24:34.000Z</time>
      </trkpt>
      <trkpt lat="46.19105" lon="-1.3804">
        <ele>8.23987</ele>
        <time>2022-05-17T14:24:36.000Z</time>
      </trkpt>
      <trkpt lat="46.19107" lon="-1.38036">
        <ele>8.3143</ele>
        <time>2022-05-17T14:24:37.000Z</time>
      </trkpt>
      <trkpt lat="46.1911" lon="-1.38033">
        <ele>8.37353</ele>
        <time>2022-05-17T14:24:38.000Z</time>
      </trkpt>
      <trkpt lat="46.19114" lon="-1.3803">
        <ele>8.44516</ele>
        <time>2022-05-17T14:24:39.000Z</time>
      </trkpt>
      <trkpt lat="46.1912" lon="-1.38031">
        <ele>8.46228</ele>
        <time>2022-05-17T14:24:40.000Z</time>
      </trkpt>
      <trkpt lat="46.19125" lon="-1.38033">
        <ele>8.42563</ele>
        <time>2022-05-17T14:24:41.000Z</time>
      </trkpt>
      <trkpt lat="46.19128" lon="-1.38033">
        <ele>8.40059</ele>
        <time>2022-05-17T14:24:42.000Z</time>
      </trkpt>
      <trkpt lat="46.19132" lon="-1.38031">
        <ele>8.3627</ele>
        <time>2022-05-17T14:24:43.000Z</time>
      </trkpt>
      <trkpt lat="46.19136" lon="-1.38031">
        <ele>8.31147</ele>
        <time>2022-05-17T14:24:44.000Z</time>
      </trkpt>
      <trkpt lat="46.19141" lon="-1.38032">
        <ele>8.26134</ele>
        <time>2022-05-17T14:24:45.000Z</time>
      </trkpt>
      <trkpt lat="46.19145" lon="-1.38032">
        <ele>8.23632</ele>
        <time>2022-05-17T14:24:46.000Z</time>
      </trkpt>
      <trkpt lat="46.1915" lon="-1.38033">
        <ele>8.22735</ele>
        <time>2022-05-17T14:24:47.000Z</time>
      </trkpt>
      <trkpt lat="46.19154" lon="-1.38034">
        <ele>8.22715</ele>
        <time>2022-05-17T14:24:48.000Z</time>
      </trkpt>
      <trkpt lat="46.19159" lon="-1.38035">
        <ele>8.22992</ele>
        <time>2022-05-17T14:24:49.000Z</time>
      </trkpt>
      <trkpt lat="46.19163" lon="-1.38035">
        <ele>8.22608</ele>
        <time>2022-05-17T14:24:50.000Z</time>
      </trkpt>
      <trkpt lat="46.19168" lon="-1.38035">
        <ele>8.20582</ele>
        <time>2022-05-17T14:24:51.000Z</time>
      </trkpt>
      <trkpt lat="46.19173" lon="-1.38035">
        <ele>8.17217</ele>
        <time>2022-05-17T14:24:52.000Z</time>
      </trkpt>
      <trkpt lat="46.19177" lon="-1.38036">
        <ele>8.13101</ele>
        <time>2022-05-17T14:24:53.000Z</time>
      </trkpt>
      <trkpt lat="46.19182" lon="-1.38036">
        <ele>8.09436</ele>
        <time>2022-05-17T14:24:54.000Z</time>
      </trkpt>
      <trkpt lat="46.19186" lon="-1.38035">
        <ele>8.0735</ele>
        <time>2022-05-17T14:24:55.000Z</time>
      </trkpt>
      <trkpt lat="46.1919" lon="-1.38033">
        <ele>8.07372</ele>
        <time>2022-05-17T14:24:56.000Z</time>
      </trkpt>
      <trkpt lat="46.19193" lon="-1.38029">
        <ele>8.08516</ele>
        <time>2022-05-17T14:24:57.000Z</time>
      </trkpt>
      <trkpt lat="46.19196" lon="-1.38025">
        <ele>8.11707</ele>
        <time>2022-05-17T14:24:58.000Z</time>
      </trkpt>
      <trkpt lat="46.19198" lon="-1.38021">
        <ele>8.17577</ele>
        <time>2022-05-17T14:24:59.000Z</time>
      </trkpt>
      <trkpt lat="46.19199" lon="-1.38015">
        <ele>8.25768</ele>
        <time>2022-05-17T14:25:00.000Z</time>
      </trkpt>
      <trkpt lat="46.192" lon="-1.38009">
        <ele>8.34462</ele>
        <time>2022-05-17T14:25:01.000Z</time>
      </trkpt>
      <trkpt lat="46.192" lon="-1.38003">
        <ele>8.41965</ele>
        <time>2022-05-17T14:25:02.000Z</time>
      </trkpt>
      <trkpt lat="46.19201" lon="-1.37996">
        <ele>8.44738</ele>
        <time>2022-05-17T14:25:03.000Z</time>
      </trkpt>
      <trkpt lat="46.192" lon="-1.3799">
        <ele>8.46105</ele>
        <time>2022-05-17T14:25:04.000Z</time>
      </trkpt>
      <trkpt lat="46.19201" lon="-1.37984">
        <ele>8.43601</ele>
        <time>2022-05-17T14:25:05.000Z</time>
      </trkpt>
      <trkpt lat="46.19201" lon="-1.37978">
        <ele>8.39445</ele>
        <time>2022-05-17T14:25:06.000Z</time>
      </trkpt>
      <trkpt lat="46.19201" lon="-1.37972">
        <ele>8.35555</ele>
        <time>2022-05-17T14:25:07.000Z</time>
      </trkpt>
      <trkpt lat="46.19202" lon="-1.37966">
        <ele>8.32689</ele>
        <time>2022-05-17T14:25:08.000Z</time>
      </trkpt>
      <trkpt lat="46.19202" lon="-1.37961">
        <ele>8.31013</ele>
        <time>2022-05-17T14:25:09.000Z</time>
      </trkpt>
      <trkpt lat="46.19203" lon="-1.37956">
        <ele>8.28659</ele>
        <time>2022-05-17T14:25:10.000Z</time>
      </trkpt>
      <trkpt lat="46.19204" lon="-1.3795">
        <ele>8.2698</ele>
        <time>2022-05-17T14:25:11.000Z</time>
      </trkpt>
      <trkpt lat="46.19205" lon="-1.37946">
        <ele>8.26552</ele>
        <time>2022-05-17T14:25:12.000Z</time>
      </trkpt>
      <trkpt lat="46.19205" lon="-1.37941">
        <ele>8.26631</ele>
        <time>2022-05-17T14:25:13.000Z</time>
      </trkpt>
      <trkpt lat="46.19205" lon="-1.37936">
        <ele>8.26765</ele>
        <time>2022-05-17T14:25:14.000Z</time>
      </trkpt>
      <trkpt lat="46.19205" lon="-1.37931">
        <ele>8.27327</ele>
        <time>2022-05-17T14:25:15.000Z</time>
      </trkpt>
      <trkpt lat="46.19206" lon="-1.37925">
        <ele>8.28411</ele>
        <time>2022-05-17T14:25:16.000Z</time>
      </trkpt>
      <trkpt lat="46.19206" lon="-1.37919">
        <ele>8.2984</ele>
        <time>2022-05-17T14:25:17.000Z</time>
      </trkpt>
      <trkpt lat="46.19206" lon="-1.37913">
        <ele>8.31343</ele>
        <time>2022-05-17T14:25:18.000Z</time>
      </trkpt>
      <trkpt lat="46.19206" lon="-1.37908">
        <ele>8.32603</ele>
        <time>2022-05-17T14:25:19.000Z</time>
      </trkpt>
      <trkpt lat="46.19206" lon="-1.37902">
        <ele>8.33417</ele>
        <time>2022-05-17T14:25:20.000Z</time>
      </trkpt>
      <trkpt lat="46.19207" lon="-1.37896">
        <ele>8.32685</ele>
        <time>2022-05-17T14:25:21.000Z</time>
      </trkpt>
      <trkpt lat="46.19207" lon="-1.3789">
        <ele>8.31398</ele>
        <time>2022-05-17T14:25:22.000Z</time>
      </trkpt>
      <trkpt lat="46.19208" lon="-1.37884">
        <ele>8.30399</ele>
        <time>2022-05-17T14:25:23.000Z</time>
      </trkpt>
      <trkpt lat="46.19209" lon="-1.37879">
        <ele>8.30051</ele>
        <time>2022-05-17T14:25:24.000Z</time>
      </trkpt>
      <trkpt lat="46.19209" lon="-1.37873">
        <ele>8.30947</ele>
        <time>2022-05-17T14:25:25.000Z</time>
      </trkpt>
      <trkpt lat="46.1921" lon="-1.37867">
        <ele>8.33357</ele>
        <time>2022-05-17T14:25:26.000Z</time>
      </trkpt>
      <trkpt lat="46.1921" lon="-1.37862">
        <ele>8.36679</ele>
        <time>2022-05-17T14:25:27.000Z</time>
      </trkpt>
      <trkpt lat="46.1921" lon="-1.37856">
        <ele>8.41009</ele>
        <time>2022-05-17T14:25:28.000Z</time>
      </trkpt>
      <trkpt lat="46.1921" lon="-1.3785">
        <ele>8.45954</ele>
        <time>2022-05-17T14:25:29.000Z</time>
      </trkpt>
      <trkpt lat="46.19211" lon="-1.37844">
        <ele>8.51626</ele>
        <time>2022-05-17T14:25:30.000Z</time>
      </trkpt>
      <trkpt lat="46.19212" lon="-1.37838">
        <ele>8.58369</ele>
        <time>2022-05-17T14:25:31.000Z</time>
      </trkpt>
      <trkpt lat="46.19213" lon="-1.37832">
        <ele>8.67268</ele>
        <time>2022-05-17T14:25:32.000Z</time>
      </trkpt>
      <trkpt lat="46.19214" lon="-1.37826">
        <ele>8.78081</ele>
        <time>2022-05-17T14:25:33.000Z</time>
      </trkpt>
      <trkpt lat="46.19215" lon="-1.3782">
        <ele>8.88913</ele>
        <time>2022-05-17T14:25:34.000Z</time>
      </trkpt>
      <trkpt lat="46.19217" lon="-1.37815">
        <ele>8.97191</ele>
        <time>2022-05-17T14:25:35.000Z</time>
      </trkpt>
      <trkpt lat="46.19218" lon="-1.3781">
        <ele>9.02988</ele>
        <time>2022-05-17T14:25:36.000Z</time>
      </trkpt>
      <trkpt lat="46.19219" lon="-1.37806">
        <ele>9.04723</ele>
        <time>2022-05-17T14:25:37.000Z</time>
      </trkpt>
      <trkpt lat="46.1922" lon="-1.37801">
        <ele>9.01997</ele>
        <time>2022-05-17T14:25:38.000Z</time>
      </trkpt>
      <trkpt lat="46.1922" lon="-1.37796">
        <ele>8.95595</ele>
        <time>2022-05-17T14:25:39.000Z</time>
      </trkpt>
      <trkpt lat="46.19221" lon="-1.37792">
        <ele>8.86997</ele>
        <time>2022-05-17T14:25:40.000Z</time>
      </trkpt>
      <trkpt lat="46.19222" lon="-1.37787">
        <ele>8.77188</ele>
        <time>2022-05-17T14:25:41.000Z</time>
      </trkpt>
      <trkpt lat="46.19223" lon="-1.37782">
        <ele>8.6846</ele>
        <time>2022-05-17T14:25:42.000Z</time>
      </trkpt>
      <trkpt lat="46.19224" lon="-1.37777">
        <ele>8.6167</ele>
        <time>2022-05-17T14:25:43.000Z</time>
      </trkpt>
      <trkpt lat="46.19226" lon="-1.37771">
        <ele>8.58666</ele>
        <time>2022-05-17T14:25:44.000Z</time>
      </trkpt>
      <trkpt lat="46.19226" lon="-1.37765">
        <ele>8.58515</ele>
        <time>2022-05-17T14:25:45.000Z</time>
      </trkpt>
      <trkpt lat="46.19227" lon="-1.37759">
        <ele>8.60125</ele>
        <time>2022-05-17T14:25:46.000Z</time>
      </trkpt>
      <trkpt lat="46.19231" lon="-1.37751">
        <ele>8.63359</ele>
        <time>2022-05-17T14:25:47.000Z</time>
      </trkpt>
      <trkpt lat="46.19233" lon="-1.37743">
        <ele>8.66375</ele>
        <time>2022-05-17T14:25:48.000Z</time>
      </trkpt>
      <trkpt lat="46.19232" lon="-1.37738">
        <ele>8.69035</ele>
        <time>2022-05-17T14:25:49.000Z</time>
      </trkpt>
      <trkpt lat="46.19234" lon="-1.37732">
        <ele>8.7195</ele>
        <time>2022-05-17T14:25:50.000Z</time>
      </trkpt>
      <trkpt lat="46.19235" lon="-1.37726">
        <ele>8.76296</ele>
        <time>2022-05-17T14:25:51.000Z</time>
      </trkpt>
      <trkpt lat="46.19238" lon="-1.37719">
        <ele>8.82556</ele>
        <time>2022-05-17T14:25:52.000Z</time>
      </trkpt>
      <trkpt lat="46.19238" lon="-1.37713">
        <ele>8.87636</ele>
        <time>2022-05-17T14:25:53.000Z</time>
      </trkpt>
      <trkpt lat="46.19239" lon="-1.37707">
        <ele>8.92687</ele>
        <time>2022-05-17T14:25:54.000Z</time>
      </trkpt>
      <trkpt lat="46.19239" lon="-1.37702">
        <ele>8.97127</ele>
        <time>2022-05-17T14:25:55.000Z</time>
      </trkpt>
      <trkpt lat="46.19236" lon="-1.37699">
        <ele>8.94353</ele>
        <time>2022-05-17T14:25:56.000Z</time>
      </trkpt>
      <trkpt lat="46.19236" lon="-1.37694">
        <ele>8.99236</ele>
        <time>2022-05-17T14:25:57.000Z</time>
      </trkpt>
      <trkpt lat="46.19237" lon="-1.37687">
        <ele>9.04599</ele>
        <time>2022-05-17T14:25:58.000Z</time>
      </trkpt>
      <trkpt lat="46.19237" lon="-1.37681">
        <ele>9.09189</ele>
        <time>2022-05-17T14:25:59.000Z</time>
      </trkpt>
      <trkpt lat="46.19238" lon="-1.37675">
        <ele>9.12274</ele>
        <time>2022-05-17T14:26:00.000Z</time>
      </trkpt>
      <trkpt lat="46.19239" lon="-1.37669">
        <ele>9.15105</ele>
        <time>2022-05-17T14:26:01.000Z</time>
      </trkpt>
      <trkpt lat="46.1924" lon="-1.37663">
        <ele>9.17116</ele>
        <time>2022-05-17T14:26:02.000Z</time>
      </trkpt>
      <trkpt lat="46.19241" lon="-1.37657">
        <ele>9.19826</ele>
        <time>2022-05-17T14:26:03.000Z</time>
      </trkpt>
      <trkpt lat="46.19242" lon="-1.37651">
        <ele>9.23546</ele>
        <time>2022-05-17T14:26:04.000Z</time>
      </trkpt>
      <trkpt lat="46.19243" lon="-1.37644">
        <ele>9.2901</ele>
        <time>2022-05-17T14:26:05.000Z</time>
      </trkpt>
      <trkpt lat="46.19243" lon="-1.37639">
        <ele>9.36878</ele>
        <time>2022-05-17T14:26:06.000Z</time>
      </trkpt>
      <trkpt lat="46.19243" lon="-1.37633">
        <ele>9.46504</ele>
        <time>2022-05-17T14:26:07.000Z</time>
      </trkpt>
      <trkpt lat="46.19244" lon="-1.37626">
        <ele>9.58113</ele>
        <time>2022-05-17T14:26:08.000Z</time>
      </trkpt>
      <trkpt lat="46.19245" lon="-1.3762">
        <ele>9.70175</ele>
        <time>2022-05-17T14:26:09.000Z</time>
      </trkpt>
      <trkpt lat="46.19246" lon="-1.37614">
        <ele>9.80065</ele>
        <time>2022-05-17T14:26:10.000Z</time>
      </trkpt>
      <trkpt lat="46.19247" lon="-1.37608">
        <ele>9.86318</ele>
        <time>2022-05-17T14:26:11.000Z</time>
      </trkpt>
      <trkpt lat="46.19248" lon="-1.37602">
        <ele>9.912</ele>
        <time>2022-05-17T14:26:12.000Z</time>
      </trkpt>
      <trkpt lat="46.19249" lon="-1.37596">
        <ele>9.94212</ele>
        <time>2022-05-17T14:26:13.000Z</time>
      </trkpt>
      <trkpt lat="46.1925" lon="-1.3759">
        <ele>9.9533</ele>
        <time>2022-05-17T14:26:14.000Z</time>
      </trkpt>
      <trkpt lat="46.19251" lon="-1.37584">
        <ele>9.94157</ele>
        <time>2022-05-17T14:26:15.000Z</time>
      </trkpt>
      <trkpt lat="46.19253" lon="-1.37577">
        <ele>9.88522</ele>
        <time>2022-05-17T14:26:16.000Z</time>
      </trkpt>
      <trkpt lat="46.19257" lon="-1.37571">
        <ele>9.77717</ele>
        <time>2022-05-17T14:26:17.000Z</time>
      </trkpt>
      <trkpt lat="46.19258" lon="-1.37565">
        <ele>9.70562</ele>
        <time>2022-05-17T14:26:18.000Z</time>
      </trkpt>
      <trkpt lat="46.19259" lon="-1.37559">
        <ele>9.65535</ele>
        <time>2022-05-17T14:26:19.000Z</time>
      </trkpt>
      <trkpt lat="46.1926" lon="-1.37552">
        <ele>9.64113</ele>
        <time>2022-05-17T14:26:20.000Z</time>
      </trkpt>
      <trkpt lat="46.19262" lon="-1.37546">
        <ele>9.69764</ele>
        <time>2022-05-17T14:26:21.000Z</time>
      </trkpt>
      <trkpt lat="46.19263" lon="-1.3754">
        <ele>9.77244</ele>
        <time>2022-05-17T14:26:22.000Z</time>
      </trkpt>
      <trkpt lat="46.19263" lon="-1.37534">
        <ele>9.83735</ele>
        <time>2022-05-17T14:26:23.000Z</time>
      </trkpt>
      <trkpt lat="46.19266" lon="-1.37528">
        <ele>9.94857</ele>
        <time>2022-05-17T14:26:24.000Z</time>
      </trkpt>
      <trkpt lat="46.19268" lon="-1.37522">
        <ele>10.03076</ele>
        <time>2022-05-17T14:26:25.000Z</time>
      </trkpt>
      <trkpt lat="46.19269" lon="-1.37515">
        <ele>10.08101</ele>
        <time>2022-05-17T14:26:26.000Z</time>
      </trkpt>
      <trkpt lat="46.19271" lon="-1.37509">
        <ele>10.12145</ele>
        <time>2022-05-17T14:26:27.000Z</time>
      </trkpt>
      <trkpt lat="46.19273" lon="-1.37503">
        <ele>10.15797</ele>
        <time>2022-05-17T14:26:28.000Z</time>
      </trkpt>
      <trkpt lat="46.19275" lon="-1.37496">
        <ele>10.20056</ele>
        <time>2022-05-17T14:26:29.000Z</time>
      </trkpt>
      <trkpt lat="46.19275" lon="-1.3749">
        <ele>10.21601</ele>
        <time>2022-05-17T14:26:30.000Z</time>
      </trkpt>
      <trkpt lat="46.19277" lon="-1.37483">
        <ele>10.23074</ele>
        <time>2022-05-17T14:26:31.000Z</time>
      </trkpt>
      <trkpt lat="46.1928" lon="-1.37476">
        <ele>10.21792</ele>
        <time>2022-05-17T14:26:32.000Z</time>
      </trkpt>
      <trkpt lat="46.19284" lon="-1.37469">
        <ele>10.16838</ele>
        <time>2022-05-17T14:26:33.000Z</time>
      </trkpt>
      <trkpt lat="46.19284" lon="-1.37462">
        <ele>10.1526</ele>
        <time>2022-05-17T14:26:34.000Z</time>
      </trkpt>
      <trkpt lat="46.19285" lon="-1.37457">
        <ele>10.15546</ele>
        <time>2022-05-17T14:26:35.000Z</time>
      </trkpt>
      <trkpt lat="46.19287" lon="-1.37448">
        <ele>10.17707</ele>
        <time>2022-05-17T14:26:36.000Z</time>
      </trkpt>
      <trkpt lat="46.19289" lon="-1.37442">
        <ele>10.20462</ele>
        <time>2022-05-17T14:26:37.000Z</time>
      </trkpt>
      <trkpt lat="46.1929" lon="-1.37437">
        <ele>10.24012</ele>
        <time>2022-05-17T14:26:38.000Z</time>
      </trkpt>
      <trkpt lat="46.19291" lon="-1.3743">
        <ele>10.29916</ele>
        <time>2022-05-17T14:26:39.000Z</time>
      </trkpt>
      <trkpt lat="46.1929" lon="-1.37424">
        <ele>10.37764</ele>
        <time>2022-05-17T14:26:40.000Z</time>
      </trkpt>
      <trkpt lat="46.19291" lon="-1.37418">
        <ele>10.47295</ele>
        <time>2022-05-17T14:26:41.000Z</time>
      </trkpt>
      <trkpt lat="46.19292" lon="-1.37413">
        <ele>10.59235</ele>
        <time>2022-05-17T14:26:42.000Z</time>
      </trkpt>
      <trkpt lat="46.19292" lon="-1.37408">
        <ele>10.72249</ele>
        <time>2022-05-17T14:26:43.000Z</time>
      </trkpt>
      <trkpt lat="46.19293" lon="-1.37405">
        <ele>10.80762</ele>
        <time>2022-05-17T14:26:44.000Z</time>
      </trkpt>
      <trkpt lat="46.1929" lon="-1.37403">
        <ele>10.8392</ele>
        <time>2022-05-17T14:26:46.000Z</time>
      </trkpt>
      <trkpt lat="46.19291" lon="-1.37401">
        <ele>10.8924</ele>
        <time>2022-05-17T14:26:48.000Z</time>
      </trkpt>
      <trkpt lat="46.19289" lon="-1.37402">
        <ele>10.86443</ele>
        <time>2022-05-17T14:26:52.000Z</time>
      </trkpt>
      <trkpt lat="46.19287" lon="-1.37402">
        <ele>10.84038</ele>
        <time>2022-05-17T14:26:54.000Z</time>
      </trkpt>
      <trkpt lat="46.19286" lon="-1.37397">
        <ele>10.92169</ele>
        <time>2022-05-17T14:27:01.000Z</time>
      </trkpt>
      <trkpt lat="46.19286" lon="-1.37394">
        <ele>10.94721</ele>
        <time>2022-05-17T14:27:02.000Z</time>
      </trkpt>
      <trkpt lat="46.19285" lon="-1.37392">
        <ele>10.95218</ele>
        <time>2022-05-17T14:27:03.000Z</time>
      </trkpt>
      <trkpt lat="46.19284" lon="-1.37389">
        <ele>10.94304</ele>
        <time>2022-05-17T14:27:04.000Z</time>
      </trkpt>
      <trkpt lat="46.19283" lon="-1.37385">
        <ele>10.908</ele>
        <time>2022-05-17T14:27:05.000Z</time>
      </trkpt>
      <trkpt lat="46.19282" lon="-1.37381">
        <ele>10.84991</ele>
        <time>2022-05-17T14:27:06.000Z</time>
      </trkpt>
      <trkpt lat="46.19282" lon="-1.37376">
        <ele>10.7769</ele>
        <time>2022-05-17T14:27:07.000Z</time>
      </trkpt>
      <trkpt lat="46.19283" lon="-1.3737">
        <ele>10.68731</ele>
        <time>2022-05-17T14:27:08.000Z</time>
      </trkpt>
      <trkpt lat="46.19285" lon="-1.37365">
        <ele>10.59426</ele>
        <time>2022-05-17T14:27:09.000Z</time>
      </trkpt>
      <trkpt lat="46.19287" lon="-1.37359">
        <ele>10.51876</ele>
        <time>2022-05-17T14:27:10.000Z</time>
      </trkpt>
      <trkpt lat="46.19289" lon="-1.37354">
        <ele>10.48206</ele>
        <time>2022-05-17T14:27:11.000Z</time>
      </trkpt>
      <trkpt lat="46.1929" lon="-1.37349">
        <ele>10.47508</ele>
        <time>2022-05-17T14:27:12.000Z</time>
      </trkpt>
      <trkpt lat="46.19292" lon="-1.37344">
        <ele>10.4934</ele>
        <time>2022-05-17T14:27:13.000Z</time>
      </trkpt>
      <trkpt lat="46.19294" lon="-1.37338">
        <ele>10.54007</ele>
        <time>2022-05-17T14:27:14.000Z</time>
      </trkpt>
      <trkpt lat="46.19296" lon="-1.37333">
        <ele>10.6047</ele>
        <time>2022-05-17T14:27:15.000Z</time>
      </trkpt>
      <trkpt lat="46.19298" lon="-1.37327">
        <ele>10.67087</ele>
        <time>2022-05-17T14:27:16.000Z</time>
      </trkpt>
      <trkpt lat="46.19299" lon="-1.37321">
        <ele>10.73047</ele>
        <time>2022-05-17T14:27:17.000Z</time>
      </trkpt>
      <trkpt lat="46.193" lon="-1.37315">
        <ele>10.78616</ele>
        <time>2022-05-17T14:27:18.000Z</time>
      </trkpt>
      <trkpt lat="46.19301" lon="-1.37309">
        <ele>10.84388</ele>
        <time>2022-05-17T14:27:19.000Z</time>
      </trkpt>
      <trkpt lat="46.19302" lon="-1.37303">
        <ele>10.89772</ele>
        <time>2022-05-17T14:27:20.000Z</time>
      </trkpt>
      <trkpt lat="46.19303" lon="-1.37297">
        <ele>10.94523</ele>
        <time>2022-05-17T14:27:21.000Z</time>
      </trkpt>
      <trkpt lat="46.19304" lon="-1.37292">
        <ele>10.99238</ele>
        <time>2022-05-17T14:27:22.000Z</time>
      </trkpt>
      <trkpt lat="46.19305" lon="-1.37286">
        <ele>11.03611</ele>
        <time>2022-05-17T14:27:23.000Z</time>
      </trkpt>
      <trkpt lat="46.19305" lon="-1.3728">
        <ele>11.07877</ele>
        <time>2022-05-17T14:27:24.000Z</time>
      </trkpt>
      <trkpt lat="46.19306" lon="-1.37274">
        <ele>11.12911</ele>
        <time>2022-05-17T14:27:25.000Z</time>
      </trkpt>
      <trkpt lat="46.19307" lon="-1.37267">
        <ele>11.1966</ele>
        <time>2022-05-17T14:27:26.000Z</time>
      </trkpt>
      <trkpt lat="46.19308" lon="-1.37261">
        <ele>11.28471</ele>
        <time>2022-05-17T14:27:27.000Z</time>
      </trkpt>
      <trkpt lat="46.19309" lon="-1.37255">
        <ele>11.42607</ele>
        <time>2022-05-17T14:27:28.000Z</time>
      </trkpt>
      <trkpt lat="46.19311" lon="-1.37248">
        <ele>11.5996</ele>
        <time>2022-05-17T14:27:29.000Z</time>
      </trkpt>
      <trkpt lat="46.19312" lon="-1.37242">
        <ele>11.7587</ele>
        <time>2022-05-17T14:27:30.000Z</time>
      </trkpt>
      <trkpt lat="46.19313" lon="-1.37236">
        <ele>11.86738</ele>
        <time>2022-05-17T14:27:31.000Z</time>
      </trkpt>
      <trkpt lat="46.19314" lon="-1.3723">
        <ele>11.90132</ele>
        <time>2022-05-17T14:27:32.000Z</time>
      </trkpt>
      <trkpt lat="46.19315" lon="-1.37224">
        <ele>11.8504</ele>
        <time>2022-05-17T14:27:33.000Z</time>
      </trkpt>
      <trkpt lat="46.19317" lon="-1.37218">
        <ele>11.74606</ele>
        <time>2022-05-17T14:27:34.000Z</time>
      </trkpt>
      <trkpt lat="46.19318" lon="-1.37211">
        <ele>11.62711</ele>
        <time>2022-05-17T14:27:35.000Z</time>
      </trkpt>
      <trkpt lat="46.19319" lon="-1.37205">
        <ele>11.53026</ele>
        <time>2022-05-17T14:27:36.000Z</time>
      </trkpt>
      <trkpt lat="46.1932" lon="-1.37199">
        <ele>11.47681</ele>
        <time>2022-05-17T14:27:37.000Z</time>
      </trkpt>
      <trkpt lat="46.19322" lon="-1.37194">
        <ele>11.46642</ele>
        <time>2022-05-17T14:27:38.000Z</time>
      </trkpt>
      <trkpt lat="46.19323" lon="-1.37188">
        <ele>11.47449</ele>
        <time>2022-05-17T14:27:39.000Z</time>
      </trkpt>
      <trkpt lat="46.19324" lon="-1.37182">
        <ele>11.49107</ele>
        <time>2022-05-17T14:27:40.000Z</time>
      </trkpt>
      <trkpt lat="46.19325" lon="-1.37176">
        <ele>11.50871</ele>
        <time>2022-05-17T14:27:41.000Z</time>
      </trkpt>
      <trkpt lat="46.19326" lon="-1.3717">
        <ele>11.52488</ele>
        <time>2022-05-17T14:27:42.000Z</time>
      </trkpt>
      <trkpt lat="46.19327" lon="-1.37163">
        <ele>11.53808</ele>
        <time>2022-05-17T14:27:43.000Z</time>
      </trkpt>
      <trkpt lat="46.19328" lon="-1.37157">
        <ele>11.54633</ele>
        <time>2022-05-17T14:27:44.000Z</time>
      </trkpt>
      <trkpt lat="46.19329" lon="-1.37152">
        <ele>11.5551</ele>
        <time>2022-05-17T14:27:45.000Z</time>
      </trkpt>
      <trkpt lat="46.19329" lon="-1.37146">
        <ele>11.57002</ele>
        <time>2022-05-17T14:27:46.000Z</time>
      </trkpt>
      <trkpt lat="46.1933" lon="-1.3714">
        <ele>11.59677</ele>
        <time>2022-05-17T14:27:47.000Z</time>
      </trkpt>
      <trkpt lat="46.1933" lon="-1.37134">
        <ele>11.64175</ele>
        <time>2022-05-17T14:27:48.000Z</time>
      </trkpt>
      <trkpt lat="46.19332" lon="-1.37129">
        <ele>11.71326</ele>
        <time>2022-05-17T14:27:49.000Z</time>
      </trkpt>
      <trkpt lat="46.19333" lon="-1.37124">
        <ele>11.8053</ele>
        <time>2022-05-17T14:27:50.000Z</time>
      </trkpt>
      <trkpt lat="46.19334" lon="-1.37118">
        <ele>11.90719</ele>
        <time>2022-05-17T14:27:51.000Z</time>
      </trkpt>
      <trkpt lat="46.19335" lon="-1.37113">
        <ele>12.01651</ele>
        <time>2022-05-17T14:27:52.000Z</time>
      </trkpt>
      <trkpt lat="46.19336" lon="-1.37107">
        <ele>12.11501</ele>
        <time>2022-05-17T14:27:53.000Z</time>
      </trkpt>
      <trkpt lat="46.19337" lon="-1.37101">
        <ele>12.18341</ele>
        <time>2022-05-17T14:27:54.000Z</time>
      </trkpt>
      <trkpt lat="46.19338" lon="-1.37095">
        <ele>12.23322</ele>
        <time>2022-05-17T14:27:55.000Z</time>
      </trkpt>
      <trkpt lat="46.19339" lon="-1.37089">
        <ele>12.2691</ele>
        <time>2022-05-17T14:27:56.000Z</time>
      </trkpt>
      <trkpt lat="46.1934" lon="-1.37083">
        <ele>12.28862</ele>
        <time>2022-05-17T14:27:57.000Z</time>
      </trkpt>
      <trkpt lat="46.19341" lon="-1.37077">
        <ele>12.29812</ele>
        <time>2022-05-17T14:27:58.000Z</time>
      </trkpt>
      <trkpt lat="46.19343" lon="-1.37072">
        <ele>12.29892</ele>
        <time>2022-05-17T14:27:59.000Z</time>
      </trkpt>
      <trkpt lat="46.19344" lon="-1.37067">
        <ele>12.28563</ele>
        <time>2022-05-17T14:28:00.000Z</time>
      </trkpt>
      <trkpt lat="46.19346" lon="-1.37062">
        <ele>12.26832</ele>
        <time>2022-05-17T14:28:01.000Z</time>
      </trkpt>
      <trkpt lat="46.19348" lon="-1.37057">
        <ele>12.26186</ele>
        <time>2022-05-17T14:28:02.000Z</time>
      </trkpt>
      <trkpt lat="46.1935" lon="-1.37051">
        <ele>12.29155</ele>
        <time>2022-05-17T14:28:03.000Z</time>
      </trkpt>
      <trkpt lat="46.19352" lon="-1.37046">
        <ele>12.34604</ele>
        <time>2022-05-17T14:28:04.000Z</time>
      </trkpt>
      <trkpt lat="46.19354" lon="-1.37041">
        <ele>12.41207</ele>
        <time>2022-05-17T14:28:05.000Z</time>
      </trkpt>
      <trkpt lat="46.19356" lon="-1.37035">
        <ele>12.47959</ele>
        <time>2022-05-17T14:28:06.000Z</time>
      </trkpt>
      <trkpt lat="46.19358" lon="-1.3703">
        <ele>12.52832</ele>
        <time>2022-05-17T14:28:07.000Z</time>
      </trkpt>
      <trkpt lat="46.19361" lon="-1.37025">
        <ele>12.55917</ele>
        <time>2022-05-17T14:28:08.000Z</time>
      </trkpt>
      <trkpt lat="46.19363" lon="-1.3702">
        <ele>12.57394</ele>
        <time>2022-05-17T14:28:09.000Z</time>
      </trkpt>
      <trkpt lat="46.19365" lon="-1.37016">
        <ele>12.57578</ele>
        <time>2022-05-17T14:28:10.000Z</time>
      </trkpt>
      <trkpt lat="46.19367" lon="-1.37011">
        <ele>12.57915</ele>
        <time>2022-05-17T14:28:11.000Z</time>
      </trkpt>
      <trkpt lat="46.19368" lon="-1.37006">
        <ele>12.59509</ele>
        <time>2022-05-17T14:28:12.000Z</time>
      </trkpt>
      <trkpt lat="46.1937" lon="-1.37002">
        <ele>12.61733</ele>
        <time>2022-05-17T14:28:13.000Z</time>
      </trkpt>
      <trkpt lat="46.19371" lon="-1.36998">
        <ele>12.64555</ele>
        <time>2022-05-17T14:28:14.000Z</time>
      </trkpt>
      <trkpt lat="46.19371" lon="-1.36994">
        <ele>12.67843</ele>
        <time>2022-05-17T14:28:15.000Z</time>
      </trkpt>
      <trkpt lat="46.19372" lon="-1.36991">
        <ele>12.70945</ele>
        <time>2022-05-17T14:28:16.000Z</time>
      </trkpt>
      <trkpt lat="46.19373" lon="-1.36987">
        <ele>12.74514</ele>
        <time>2022-05-17T14:28:17.000Z</time>
      </trkpt>
      <trkpt lat="46.19374" lon="-1.36984">
        <ele>12.78107</ele>
        <time>2022-05-17T14:28:18.000Z</time>
      </trkpt>
      <trkpt lat="46.19374" lon="-1.36981">
        <ele>12.81048</ele>
        <time>2022-05-17T14:28:19.000Z</time>
      </trkpt>
      <trkpt lat="46.19375" lon="-1.36978">
        <ele>12.83461</ele>
        <time>2022-05-17T14:28:20.000Z</time>
      </trkpt>
      <trkpt lat="46.19376" lon="-1.36975">
        <ele>12.85432</ele>
        <time>2022-05-17T14:28:21.000Z</time>
      </trkpt>
      <trkpt lat="46.19375" lon="-1.36972">
        <ele>12.87468</ele>
        <time>2022-05-17T14:28:22.000Z</time>
      </trkpt>
      <trkpt lat="46.19373" lon="-1.36968">
        <ele>12.89582</ele>
        <time>2022-05-17T14:28:24.000Z</time>
      </trkpt>
      <trkpt lat="46.19372" lon="-1.36966">
        <ele>12.90127</ele>
        <time>2022-05-17T14:28:25.000Z</time>
      </trkpt>
      <trkpt lat="46.19369" lon="-1.36965">
        <ele>12.89747</ele>
        <time>2022-05-17T14:28:27.000Z</time>
      </trkpt>
      <trkpt lat="46.19368" lon="-1.36963">
        <ele>12.89259</ele>
        <time>2022-05-17T14:28:30.000Z</time>
      </trkpt>
      <trkpt lat="46.19366" lon="-1.36965">
        <ele>12.87452</ele>
        <time>2022-05-17T14:28:33.000Z</time>
      </trkpt>
      <trkpt lat="46.19365" lon="-1.36962">
        <ele>12.87289</ele>
        <time>2022-05-17T14:29:26.000Z</time>
      </trkpt>
      <trkpt lat="46.19362" lon="-1.36959">
        <ele>12.8515</ele>
        <time>2022-05-17T14:29:28.000Z</time>
      </trkpt>
      <trkpt lat="46.19361" lon="-1.36957">
        <ele>12.83616</ele>
        <time>2022-05-17T14:29:29.000Z</time>
      </trkpt>
      <trkpt lat="46.19358" lon="-1.36953">
        <ele>12.80201</ele>
        <time>2022-05-17T14:29:31.000Z</time>
      </trkpt>
      <trkpt lat="46.19357" lon="-1.36949">
        <ele>12.78571</ele>
        <time>2022-05-17T14:29:32.000Z</time>
      </trkpt>
      <trkpt lat="46.19356" lon="-1.36946">
        <ele>12.76994</ele>
        <time>2022-05-17T14:29:33.000Z</time>
      </trkpt>
      <trkpt lat="46.19356" lon="-1.36942">
        <ele>12.76677</ele>
        <time>2022-05-17T14:29:34.000Z</time>
      </trkpt>
      <trkpt lat="46.19357" lon="-1.36938">
        <ele>12.76473</ele>
        <time>2022-05-17T14:29:35.000Z</time>
      </trkpt>
      <trkpt lat="46.19358" lon="-1.36934">
        <ele>12.75954</ele>
        <time>2022-05-17T14:29:36.000Z</time>
      </trkpt>
      <trkpt lat="46.19361" lon="-1.36931">
        <ele>12.74945</ele>
        <time>2022-05-17T14:29:37.000Z</time>
      </trkpt>
      <trkpt lat="46.19364" lon="-1.36927">
        <ele>12.72068</ele>
        <time>2022-05-17T14:29:38.000Z</time>
      </trkpt>
      <trkpt lat="46.19366" lon="-1.36923">
        <ele>12.68076</ele>
        <time>2022-05-17T14:29:39.000Z</time>
      </trkpt>
      <trkpt lat="46.19369" lon="-1.36919">
        <ele>12.63302</ele>
        <time>2022-05-17T14:29:40.000Z</time>
      </trkpt>
      <trkpt lat="46.19371" lon="-1.36915">
        <ele>12.58627</ele>
        <time>2022-05-17T14:29:41.000Z</time>
      </trkpt>
      <trkpt lat="46.19372" lon="-1.3691">
        <ele>12.55091</ele>
        <time>2022-05-17T14:29:42.000Z</time>
      </trkpt>
      <trkpt lat="46.19372" lon="-1.36904">
        <ele>12.54974</ele>
        <time>2022-05-17T14:29:43.000Z</time>
      </trkpt>
      <trkpt lat="46.19372" lon="-1.36898">
        <ele>12.57644</ele>
        <time>2022-05-17T14:29:44.000Z</time>
      </trkpt>
      <trkpt lat="46.19373" lon="-1.36892">
        <ele>12.61459</ele>
        <time>2022-05-17T14:29:45.000Z</time>
      </trkpt>
      <trkpt lat="46.19373" lon="-1.36886">
        <ele>12.65312</ele>
        <time>2022-05-17T14:29:46.000Z</time>
      </trkpt>
      <trkpt lat="46.19375" lon="-1.36854">
        <ele>12.62265</ele>
        <time>2022-05-17T14:29:52.000Z</time>
      </trkpt>
      <trkpt lat="46.19375" lon="-1.36848">
        <ele>12.61569</ele>
        <time>2022-05-17T14:29:53.000Z</time>
      </trkpt>
      <trkpt lat="46.19376" lon="-1.36843">
        <ele>12.62838</ele>
        <time>2022-05-17T14:29:54.000Z</time>
      </trkpt>
      <trkpt lat="46.19376" lon="-1.36838">
        <ele>12.65499</ele>
        <time>2022-05-17T14:29:55.000Z</time>
      </trkpt>
      <trkpt lat="46.19377" lon="-1.36832">
        <ele>12.69509</ele>
        <time>2022-05-17T14:29:56.000Z</time>
      </trkpt>
      <trkpt lat="46.19378" lon="-1.36827">
        <ele>12.74452</ele>
        <time>2022-05-17T14:29:57.000Z</time>
      </trkpt>
      <trkpt lat="46.19378" lon="-1.36819">
        <ele>12.80561</ele>
        <time>2022-05-17T14:29:58.000Z</time>
      </trkpt>
      <trkpt lat="46.19378" lon="-1.3681">
        <ele>12.85991</ele>
        <time>2022-05-17T14:29:59.000Z</time>
      </trkpt>
      <trkpt lat="46.19379" lon="-1.36801">
        <ele>12.88317</ele>
        <time>2022-05-17T14:30:00.000Z</time>
      </trkpt>
      <trkpt lat="46.1938" lon="-1.36792">
        <ele>12.88668</ele>
        <time>2022-05-17T14:30:02.000Z</time>
      </trkpt>
      <trkpt lat="46.19381" lon="-1.36788">
        <ele>12.8853</ele>
        <time>2022-05-17T14:30:03.000Z</time>
      </trkpt>
      <trkpt lat="46.19382" lon="-1.36784">
        <ele>12.88986</ele>
        <time>2022-05-17T14:30:04.000Z</time>
      </trkpt>
      <trkpt lat="46.19382" lon="-1.36779">
        <ele>12.90386</ele>
        <time>2022-05-17T14:30:05.000Z</time>
      </trkpt>
      <trkpt lat="46.19383" lon="-1.36774">
        <ele>12.92596</ele>
        <time>2022-05-17T14:30:06.000Z</time>
      </trkpt>
      <trkpt lat="46.19383" lon="-1.36765">
        <ele>12.98265</ele>
        <time>2022-05-17T14:30:07.000Z</time>
      </trkpt>
      <trkpt lat="46.19383" lon="-1.36757">
        <ele>13.0302</ele>
        <time>2022-05-17T14:30:08.000Z</time>
      </trkpt>
      <trkpt lat="46.19383" lon="-1.36753">
        <ele>13.04908</ele>
        <time>2022-05-17T14:30:09.000Z</time>
      </trkpt>
      <trkpt lat="46.19384" lon="-1.36747">
        <ele>13.07278</ele>
        <time>2022-05-17T14:30:10.000Z</time>
      </trkpt>
      <trkpt lat="46.19383" lon="-1.36741">
        <ele>13.08217</ele>
        <time>2022-05-17T14:30:11.000Z</time>
      </trkpt>
      <trkpt lat="46.19383" lon="-1.36735">
        <ele>13.08557</ele>
        <time>2022-05-17T14:30:12.000Z</time>
      </trkpt>
      <trkpt lat="46.19384" lon="-1.3673">
        <ele>13.09175</ele>
        <time>2022-05-17T14:30:13.000Z</time>
      </trkpt>
      <trkpt lat="46.19384" lon="-1.36725">
        <ele>13.08888</ele>
        <time>2022-05-17T14:30:14.000Z</time>
      </trkpt>
      <trkpt lat="46.19384" lon="-1.36719">
        <ele>13.09156</ele>
        <time>2022-05-17T14:30:15.000Z</time>
      </trkpt>
      <trkpt lat="46.19384" lon="-1.36714">
        <ele>13.09852</ele>
        <time>2022-05-17T14:30:16.000Z</time>
      </trkpt>
      <trkpt lat="46.19385" lon="-1.36707">
        <ele>13.10836</ele>
        <time>2022-05-17T14:30:17.000Z</time>
      </trkpt>
      <trkpt lat="46.19385" lon="-1.36698">
        <ele>13.11523</ele>
        <time>2022-05-17T14:30:18.000Z</time>
      </trkpt>
      <trkpt lat="46.19385" lon="-1.36693">
        <ele>13.1233</ele>
        <time>2022-05-17T14:30:19.000Z</time>
      </trkpt>
      <trkpt lat="46.19385" lon="-1.36687">
        <ele>13.13299</ele>
        <time>2022-05-17T14:30:20.000Z</time>
      </trkpt>
      <trkpt lat="46.19386" lon="-1.36682">
        <ele>13.14441</ele>
        <time>2022-05-17T14:30:21.000Z</time>
      </trkpt>
      <trkpt lat="46.19386" lon="-1.36677">
        <ele>13.1607</ele>
        <time>2022-05-17T14:30:22.000Z</time>
      </trkpt>
      <trkpt lat="46.19386" lon="-1.36671">
        <ele>13.18111</ele>
        <time>2022-05-17T14:30:23.000Z</time>
      </trkpt>
      <trkpt lat="46.19386" lon="-1.36665">
        <ele>13.20297</ele>
        <time>2022-05-17T14:30:24.000Z</time>
      </trkpt>
      <trkpt lat="46.19386" lon="-1.3666">
        <ele>13.22165</ele>
        <time>2022-05-17T14:30:25.000Z</time>
      </trkpt>
      <trkpt lat="46.19386" lon="-1.36655">
        <ele>13.23584</ele>
        <time>2022-05-17T14:30:26.000Z</time>
      </trkpt>
      <trkpt lat="46.19386" lon="-1.36649">
        <ele>13.23989</ele>
        <time>2022-05-17T14:30:27.000Z</time>
      </trkpt>
      <trkpt lat="46.19387" lon="-1.36643">
        <ele>13.23653</ele>
        <time>2022-05-17T14:30:28.000Z</time>
      </trkpt>
      <trkpt lat="46.19387" lon="-1.36636">
        <ele>13.22617</ele>
        <time>2022-05-17T14:30:29.000Z</time>
      </trkpt>
      <trkpt lat="46.19386" lon="-1.3663">
        <ele>13.20756</ele>
        <time>2022-05-17T14:30:30.000Z</time>
      </trkpt>
      <trkpt lat="46.19386" lon="-1.36623">
        <ele>13.18181</ele>
        <time>2022-05-17T14:30:31.000Z</time>
      </trkpt>
      <trkpt lat="46.19386" lon="-1.36617">
        <ele>13.15535</ele>
        <time>2022-05-17T14:30:32.000Z</time>
      </trkpt>
      <trkpt lat="46.19386" lon="-1.36612">
        <ele>13.12322</ele>
        <time>2022-05-17T14:30:33.000Z</time>
      </trkpt>
      <trkpt lat="46.19386" lon="-1.36606">
        <ele>13.08695</ele>
        <time>2022-05-17T14:30:34.000Z</time>
      </trkpt>
      <trkpt lat="46.19386" lon="-1.36602">
        <ele>13.05482</ele>
        <time>2022-05-17T14:30:35.000Z</time>
      </trkpt>
      <trkpt lat="46.19386" lon="-1.36597">
        <ele>13.02423</ele>
        <time>2022-05-17T14:30:36.000Z</time>
      </trkpt>
      <trkpt lat="46.19386" lon="-1.36592">
        <ele>12.99787</ele>
        <time>2022-05-17T14:30:37.000Z</time>
      </trkpt>
      <trkpt lat="46.19385" lon="-1.36588">
        <ele>12.98657</ele>
        <time>2022-05-17T14:30:38.000Z</time>
      </trkpt>
      <trkpt lat="46.19385" lon="-1.36585">
        <ele>12.98753</ele>
        <time>2022-05-17T14:30:39.000Z</time>
      </trkpt>
      <trkpt lat="46.19386" lon="-1.36581">
        <ele>12.99849</ele>
        <time>2022-05-17T14:30:40.000Z</time>
      </trkpt>
      <trkpt lat="46.19386" lon="-1.36577">
        <ele>13.01808</ele>
        <time>2022-05-17T14:30:41.000Z</time>
      </trkpt>
      <trkpt lat="46.19386" lon="-1.36573">
        <ele>13.04442</ele>
        <time>2022-05-17T14:30:42.000Z</time>
      </trkpt>
      <trkpt lat="46.19386" lon="-1.36569">
        <ele>13.07819</ele>
        <time>2022-05-17T14:30:43.000Z</time>
      </trkpt>
      <trkpt lat="46.19386" lon="-1.36565">
        <ele>13.11383</ele>
        <time>2022-05-17T14:30:44.000Z</time>
      </trkpt>
      <trkpt lat="46.19386" lon="-1.3656">
        <ele>13.15378</ele>
        <time>2022-05-17T14:30:45.000Z</time>
      </trkpt>
      <trkpt lat="46.19387" lon="-1.36556">
        <ele>13.18994</ele>
        <time>2022-05-17T14:30:46.000Z</time>
      </trkpt>
      <trkpt lat="46.19387" lon="-1.3655">
        <ele>13.22139</ele>
        <time>2022-05-17T14:30:47.000Z</time>
      </trkpt>
      <trkpt lat="46.19387" lon="-1.36545">
        <ele>13.25125</ele>
        <time>2022-05-17T14:30:48.000Z</time>
      </trkpt>
      <trkpt lat="46.19387" lon="-1.3654">
        <ele>13.27816</ele>
        <time>2022-05-17T14:30:49.000Z</time>
      </trkpt>
      <trkpt lat="46.19387" lon="-1.36534">
        <ele>13.30652</ele>
        <time>2022-05-17T14:30:50.000Z</time>
      </trkpt>
      <trkpt lat="46.19387" lon="-1.36529">
        <ele>13.33186</ele>
        <time>2022-05-17T14:30:51.000Z</time>
      </trkpt>
      <trkpt lat="46.19387" lon="-1.36523">
        <ele>13.35433</ele>
        <time>2022-05-17T14:30:52.000Z</time>
      </trkpt>
      <trkpt lat="46.19387" lon="-1.36516">
        <ele>13.3706</ele>
        <time>2022-05-17T14:30:53.000Z</time>
      </trkpt>
      <trkpt lat="46.19388" lon="-1.36509">
        <ele>13.37975</ele>
        <time>2022-05-17T14:30:54.000Z</time>
      </trkpt>
      <trkpt lat="46.19387" lon="-1.36499">
        <ele>13.38965</ele>
        <time>2022-05-17T14:30:55.000Z</time>
      </trkpt>
      <trkpt lat="46.19387" lon="-1.36492">
        <ele>13.40274</ele>
        <time>2022-05-17T14:30:56.000Z</time>
      </trkpt>
      <trkpt lat="46.19388" lon="-1.36485">
        <ele>13.42534</ele>
        <time>2022-05-17T14:30:57.000Z</time>
      </trkpt>
      <trkpt lat="46.19389" lon="-1.36481">
        <ele>13.44744</ele>
        <time>2022-05-17T14:30:58.000Z</time>
      </trkpt>
      <trkpt lat="46.19389" lon="-1.36474">
        <ele>13.49363</ele>
        <time>2022-05-17T14:30:59.000Z</time>
      </trkpt>
      <trkpt lat="46.1939" lon="-1.36468">
        <ele>13.53138</ele>
        <time>2022-05-17T14:31:00.000Z</time>
      </trkpt>
      <trkpt lat="46.1939" lon="-1.36463">
        <ele>13.5552</ele>
        <time>2022-05-17T14:31:01.000Z</time>
      </trkpt>
      <trkpt lat="46.19391" lon="-1.36456">
        <ele>13.5765</ele>
        <time>2022-05-17T14:31:02.000Z</time>
      </trkpt>
      <trkpt lat="46.19391" lon="-1.36449">
        <ele>13.56531</ele>
        <time>2022-05-17T14:31:03.000Z</time>
      </trkpt>
      <trkpt lat="46.19391" lon="-1.36443">
        <ele>13.53771</ele>
        <time>2022-05-17T14:31:04.000Z</time>
      </trkpt>
      <trkpt lat="46.19392" lon="-1.36437">
        <ele>13.50564</ele>
        <time>2022-05-17T14:31:05.000Z</time>
      </trkpt>
      <trkpt lat="46.19392" lon="-1.36427">
        <ele>13.47484</ele>
        <time>2022-05-17T14:31:06.000Z</time>
      </trkpt>
      <trkpt lat="46.19392" lon="-1.3642">
        <ele>13.49642</ele>
        <time>2022-05-17T14:31:07.000Z</time>
      </trkpt>
      <trkpt lat="46.19393" lon="-1.36414">
        <ele>13.55225</ele>
        <time>2022-05-17T14:31:08.000Z</time>
      </trkpt>
      <trkpt lat="46.19394" lon="-1.36404">
        <ele>13.64235</ele>
        <time>2022-05-17T14:31:09.000Z</time>
      </trkpt>
      <trkpt lat="46.19396" lon="-1.36401">
        <ele>13.68259</ele>
        <time>2022-05-17T14:31:10.000Z</time>
      </trkpt>
      <trkpt lat="46.19397" lon="-1.36395">
        <ele>13.7271</ele>
        <time>2022-05-17T14:31:11.000Z</time>
      </trkpt>
      <trkpt lat="46.19399" lon="-1.36388">
        <ele>13.77428</ele>
        <time>2022-05-17T14:31:12.000Z</time>
      </trkpt>
      <trkpt lat="46.194" lon="-1.36381">
        <ele>13.81693</ele>
        <time>2022-05-17T14:31:13.000Z</time>
      </trkpt>
      <trkpt lat="46.19401" lon="-1.36373">
        <ele>13.87087</ele>
        <time>2022-05-17T14:31:14.000Z</time>
      </trkpt>
      <trkpt lat="46.19402" lon="-1.36368">
        <ele>13.91811</ele>
        <time>2022-05-17T14:31:15.000Z</time>
      </trkpt>
      <trkpt lat="46.19403" lon="-1.36362">
        <ele>13.97204</ele>
        <time>2022-05-17T14:31:16.000Z</time>
      </trkpt>
      <trkpt lat="46.19404" lon="-1.36358">
        <ele>14.003</ele>
        <time>2022-05-17T14:31:17.000Z</time>
      </trkpt>
      <trkpt lat="46.19404" lon="-1.36352">
        <ele>14.05075</ele>
        <time>2022-05-17T14:31:18.000Z</time>
      </trkpt>
      <trkpt lat="46.19405" lon="-1.36343">
        <ele>14.1264</ele>
        <time>2022-05-17T14:31:19.000Z</time>
      </trkpt>
      <trkpt lat="46.19406" lon="-1.36334">
        <ele>14.18648</ele>
        <time>2022-05-17T14:31:20.000Z</time>
      </trkpt>
      <trkpt lat="46.19407" lon="-1.36329">
        <ele>14.21465</ele>
        <time>2022-05-17T14:31:21.000Z</time>
      </trkpt>
      <trkpt lat="46.19408" lon="-1.36322">
        <ele>14.24192</ele>
        <time>2022-05-17T14:31:22.000Z</time>
      </trkpt>
      <trkpt lat="46.19409" lon="-1.36309">
        <ele>14.24846</ele>
        <time>2022-05-17T14:31:23.000Z</time>
      </trkpt>
      <trkpt lat="46.1941" lon="-1.36305">
        <ele>14.24971</ele>
        <time>2022-05-17T14:31:24.000Z</time>
      </trkpt>
      <trkpt lat="46.1941" lon="-1.363">
        <ele>14.2432</ele>
        <time>2022-05-17T14:31:25.000Z</time>
      </trkpt>
      <trkpt lat="46.19412" lon="-1.36297">
        <ele>14.26315</ele>
        <time>2022-05-17T14:31:26.000Z</time>
      </trkpt>
      <trkpt lat="46.19413" lon="-1.36289">
        <ele>14.27923</ele>
        <time>2022-05-17T14:31:27.000Z</time>
      </trkpt>
      <trkpt lat="46.19414" lon="-1.36279">
        <ele>14.29212</ele>
        <time>2022-05-17T14:31:28.000Z</time>
      </trkpt>
      <trkpt lat="46.19414" lon="-1.36274">
        <ele>14.3028</ele>
        <time>2022-05-17T14:31:29.000Z</time>
      </trkpt>
      <trkpt lat="46.19415" lon="-1.36269">
        <ele>14.32348</ele>
        <time>2022-05-17T14:31:30.000Z</time>
      </trkpt>
      <trkpt lat="46.19416" lon="-1.36266">
        <ele>14.34115</ele>
        <time>2022-05-17T14:31:31.000Z</time>
      </trkpt>
      <trkpt lat="46.19417" lon="-1.36259">
        <ele>14.38806</ele>
        <time>2022-05-17T14:31:32.000Z</time>
      </trkpt>
      <trkpt lat="46.19417" lon="-1.36252">
        <ele>14.45021</ele>
        <time>2022-05-17T14:31:34.000Z</time>
      </trkpt>
      <trkpt lat="46.19417" lon="-1.36244">
        <ele>14.53728</ele>
        <time>2022-05-17T14:31:35.000Z</time>
      </trkpt>
      <trkpt lat="46.19418" lon="-1.36238">
        <ele>14.60905</ele>
        <time>2022-05-17T14:31:36.000Z</time>
      </trkpt>
      <trkpt lat="46.19418" lon="-1.36232">
        <ele>14.66031</ele>
        <time>2022-05-17T14:31:37.000Z</time>
      </trkpt>
      <trkpt lat="46.19418" lon="-1.36227">
        <ele>14.71197</ele>
        <time>2022-05-17T14:31:38.000Z</time>
      </trkpt>
      <trkpt lat="46.19418" lon="-1.36221">
        <ele>14.76431</ele>
        <time>2022-05-17T14:31:39.000Z</time>
      </trkpt>
      <trkpt lat="46.19418" lon="-1.36216">
        <ele>14.81015</ele>
        <time>2022-05-17T14:31:40.000Z</time>
      </trkpt>
      <trkpt lat="46.19418" lon="-1.36212">
        <ele>14.84551</ele>
        <time>2022-05-17T14:31:41.000Z</time>
      </trkpt>
      <trkpt lat="46.19418" lon="-1.36204">
        <ele>14.90458</ele>
        <time>2022-05-17T14:31:42.000Z</time>
      </trkpt>
      <trkpt lat="46.19418" lon="-1.36198">
        <ele>14.93689</ele>
        <time>2022-05-17T14:31:43.000Z</time>
      </trkpt>
      <trkpt lat="46.19416" lon="-1.36184">
        <ele>14.94219</ele>
        <time>2022-05-17T14:31:44.000Z</time>
      </trkpt>
      <trkpt lat="46.19415" lon="-1.36176">
        <ele>14.92794</ele>
        <time>2022-05-17T14:31:45.000Z</time>
      </trkpt>
      <trkpt lat="46.19416" lon="-1.36168">
        <ele>14.9412</ele>
        <time>2022-05-17T14:31:46.000Z</time>
      </trkpt>
      <trkpt lat="46.19415" lon="-1.3616">
        <ele>14.96941</ele>
        <time>2022-05-17T14:31:47.000Z</time>
      </trkpt>
      <trkpt lat="46.19415" lon="-1.36151">
        <ele>15.03228</ele>
        <time>2022-05-17T14:31:48.000Z</time>
      </trkpt>
      <trkpt lat="46.19415" lon="-1.36147">
        <ele>15.06529</ele>
        <time>2022-05-17T14:31:49.000Z</time>
      </trkpt>
      <trkpt lat="46.19415" lon="-1.3614">
        <ele>15.11596</ele>
        <time>2022-05-17T14:31:50.000Z</time>
      </trkpt>
      <trkpt lat="46.19415" lon="-1.36135">
        <ele>15.14225</ele>
        <time>2022-05-17T14:31:51.000Z</time>
      </trkpt>
      <trkpt lat="46.19414" lon="-1.36128">
        <ele>15.16593</ele>
        <time>2022-05-17T14:31:52.000Z</time>
      </trkpt>
      <trkpt lat="46.19414" lon="-1.36123">
        <ele>15.19292</ele>
        <time>2022-05-17T14:31:53.000Z</time>
      </trkpt>
      <trkpt lat="46.19415" lon="-1.36117">
        <ele>15.22674</ele>
        <time>2022-05-17T14:31:54.000Z</time>
      </trkpt>
      <trkpt lat="46.19415" lon="-1.36111">
        <ele>15.25584</ele>
        <time>2022-05-17T14:31:55.000Z</time>
      </trkpt>
      <trkpt lat="46.19416" lon="-1.36105">
        <ele>15.2687</ele>
        <time>2022-05-17T14:31:56.000Z</time>
      </trkpt>
      <trkpt lat="46.19416" lon="-1.36099">
        <ele>15.26888</ele>
        <time>2022-05-17T14:31:57.000Z</time>
      </trkpt>
      <trkpt lat="46.19416" lon="-1.36092">
        <ele>15.24744</ele>
        <time>2022-05-17T14:31:58.000Z</time>
      </trkpt>
      <trkpt lat="46.19416" lon="-1.36084">
        <ele>15.19531</ele>
        <time>2022-05-17T14:31:59.000Z</time>
      </trkpt>
      <trkpt lat="46.19416" lon="-1.36078">
        <ele>15.16093</ele>
        <time>2022-05-17T14:32:00.000Z</time>
      </trkpt>
      <trkpt lat="46.19417" lon="-1.36074">
        <ele>15.15332</ele>
        <time>2022-05-17T14:32:01.000Z</time>
      </trkpt>
      <trkpt lat="46.19416" lon="-1.36067">
        <ele>15.11631</ele>
        <time>2022-05-17T14:32:02.000Z</time>
      </trkpt>
      <trkpt lat="46.19416" lon="-1.36062">
        <ele>15.10798</ele>
        <time>2022-05-17T14:32:03.000Z</time>
      </trkpt>
      <trkpt lat="46.19416" lon="-1.36057">
        <ele>15.09727</ele>
        <time>2022-05-17T14:32:04.000Z</time>
      </trkpt>
      <trkpt lat="46.19415" lon="-1.36053">
        <ele>15.08737</ele>
        <time>2022-05-17T14:32:05.000Z</time>
      </trkpt>
      <trkpt lat="46.19416" lon="-1.36047">
        <ele>15.09064</ele>
        <time>2022-05-17T14:32:06.000Z</time>
      </trkpt>
      <trkpt lat="46.19416" lon="-1.36043">
        <ele>15.09104</ele>
        <time>2022-05-17T14:32:07.000Z</time>
      </trkpt>
      <trkpt lat="46.19415" lon="-1.36035">
        <ele>15.04929</ele>
        <time>2022-05-17T14:32:08.000Z</time>
      </trkpt>
      <trkpt lat="46.19414" lon="-1.3603">
        <ele>15.03323</ele>
        <time>2022-05-17T14:32:09.000Z</time>
      </trkpt>
      <trkpt lat="46.19414" lon="-1.36024">
        <ele>15.01813</ele>
        <time>2022-05-17T14:32:10.000Z</time>
      </trkpt>
      <trkpt lat="46.19414" lon="-1.36019">
        <ele>15.01091</ele>
        <time>2022-05-17T14:32:11.000Z</time>
      </trkpt>
      <trkpt lat="46.19415" lon="-1.3601">
        <ele>15.01678</ele>
        <time>2022-05-17T14:32:12.000Z</time>
      </trkpt>
      <trkpt lat="46.19414" lon="-1.36003">
        <ele>15.01499</ele>
        <time>2022-05-17T14:32:13.000Z</time>
      </trkpt>
      <trkpt lat="46.19414" lon="-1.35996">
        <ele>15.03203</ele>
        <time>2022-05-17T14:32:14.000Z</time>
      </trkpt>
      <trkpt lat="46.19414" lon="-1.3599">
        <ele>15.04942</ele>
        <time>2022-05-17T14:32:15.000Z</time>
      </trkpt>
      <trkpt lat="46.19414" lon="-1.35982">
        <ele>15.07869</ele>
        <time>2022-05-17T14:32:16.000Z</time>
      </trkpt>
      <trkpt lat="46.19414" lon="-1.35975">
        <ele>15.09937</ele>
        <time>2022-05-17T14:32:17.000Z</time>
      </trkpt>
      <trkpt lat="46.19414" lon="-1.35966">
        <ele>15.10702</ele>
        <time>2022-05-17T14:32:18.000Z</time>
      </trkpt>
      <trkpt lat="46.19414" lon="-1.35959">
        <ele>15.09994</ele>
        <time>2022-05-17T14:32:19.000Z</time>
      </trkpt>
      <trkpt lat="46.19412" lon="-1.35953">
        <ele>15.0824</ele>
        <time>2022-05-17T14:32:20.000Z</time>
      </trkpt>
      <trkpt lat="46.19413" lon="-1.35943">
        <ele>15.06816</ele>
        <time>2022-05-17T14:32:21.000Z</time>
      </trkpt>
      <trkpt lat="46.19413" lon="-1.35937">
        <ele>15.06599</ele>
        <time>2022-05-17T14:32:22.000Z</time>
      </trkpt>
      <trkpt lat="46.19412" lon="-1.35932">
        <ele>15.07209</ele>
        <time>2022-05-17T14:32:23.000Z</time>
      </trkpt>
      <trkpt lat="46.19412" lon="-1.35925">
        <ele>15.09321</ele>
        <time>2022-05-17T14:32:24.000Z</time>
      </trkpt>
      <trkpt lat="46.19412" lon="-1.35919">
        <ele>15.11677</ele>
        <time>2022-05-17T14:32:25.000Z</time>
      </trkpt>
      <trkpt lat="46.19412" lon="-1.35913">
        <ele>15.13821</ele>
        <time>2022-05-17T14:32:26.000Z</time>
      </trkpt>
      <trkpt lat="46.19411" lon="-1.35908">
        <ele>15.15363</ele>
        <time>2022-05-17T14:32:27.000Z</time>
      </trkpt>
      <trkpt lat="46.19412" lon="-1.35897">
        <ele>15.14995</ele>
        <time>2022-05-17T14:32:28.000Z</time>
      </trkpt>
      <trkpt lat="46.19412" lon="-1.35893">
        <ele>15.14494</ele>
        <time>2022-05-17T14:32:29.000Z</time>
      </trkpt>
      <trkpt lat="46.19412" lon="-1.35889">
        <ele>15.13717</ele>
        <time>2022-05-17T14:32:30.000Z</time>
      </trkpt>
      <trkpt lat="46.19412" lon="-1.35883">
        <ele>15.12294</ele>
        <time>2022-05-17T14:32:31.000Z</time>
      </trkpt>
      <trkpt lat="46.19412" lon="-1.35877">
        <ele>15.11212</ele>
        <time>2022-05-17T14:32:32.000Z</time>
      </trkpt>
      <trkpt lat="46.19413" lon="-1.35871">
        <ele>15.09333</ele>
        <time>2022-05-17T14:32:33.000Z</time>
      </trkpt>
      <trkpt lat="46.19413" lon="-1.35863">
        <ele>15.07372</ele>
        <time>2022-05-17T14:32:34.000Z</time>
      </trkpt>
      <trkpt lat="46.19413" lon="-1.35859">
        <ele>15.05854</ele>
        <time>2022-05-17T14:32:35.000Z</time>
      </trkpt>
      <trkpt lat="46.19414" lon="-1.35853">
        <ele>15.04062</ele>
        <time>2022-05-17T14:32:36.000Z</time>
      </trkpt>
      <trkpt lat="46.19413" lon="-1.35848">
        <ele>15.03042</ele>
        <time>2022-05-17T14:32:37.000Z</time>
      </trkpt>
      <trkpt lat="46.19413" lon="-1.3584">
        <ele>15.0186</ele>
        <time>2022-05-17T14:32:38.000Z</time>
      </trkpt>
      <trkpt lat="46.19414" lon="-1.35836">
        <ele>15.01549</ele>
        <time>2022-05-17T14:32:39.000Z</time>
      </trkpt>
      <trkpt lat="46.19413" lon="-1.3583">
        <ele>15.01489</ele>
        <time>2022-05-17T14:32:40.000Z</time>
      </trkpt>
      <trkpt lat="46.19414" lon="-1.35825">
        <ele>15.0163</ele>
        <time>2022-05-17T14:32:41.000Z</time>
      </trkpt>
      <trkpt lat="46.19414" lon="-1.35819">
        <ele>15.02132</ele>
        <time>2022-05-17T14:32:42.000Z</time>
      </trkpt>
      <trkpt lat="46.19414" lon="-1.35814">
        <ele>15.02923</ele>
        <time>2022-05-17T14:32:43.000Z</time>
      </trkpt>
      <trkpt lat="46.19414" lon="-1.3581">
        <ele>15.03676</ele>
        <time>2022-05-17T14:32:44.000Z</time>
      </trkpt>
      <trkpt lat="46.19415" lon="-1.35804">
        <ele>15.05075</ele>
        <time>2022-05-17T14:32:45.000Z</time>
      </trkpt>
      <trkpt lat="46.19415" lon="-1.35799">
        <ele>15.07174</ele>
        <time>2022-05-17T14:32:46.000Z</time>
      </trkpt>
      <trkpt lat="46.19415" lon="-1.35793">
        <ele>15.09823</ele>
        <time>2022-05-17T14:32:47.000Z</time>
      </trkpt>
      <trkpt lat="46.19415" lon="-1.35787">
        <ele>15.12417</ele>
        <time>2022-05-17T14:32:48.000Z</time>
      </trkpt>
      <trkpt lat="46.19415" lon="-1.35781">
        <ele>15.14935</ele>
        <time>2022-05-17T14:32:49.000Z</time>
      </trkpt>
      <trkpt lat="46.19415" lon="-1.35775">
        <ele>15.16587</ele>
        <time>2022-05-17T14:32:50.000Z</time>
      </trkpt>
      <trkpt lat="46.19415" lon="-1.35769">
        <ele>15.17358</ele>
        <time>2022-05-17T14:32:51.000Z</time>
      </trkpt>
      <trkpt lat="46.19415" lon="-1.35764">
        <ele>15.17569</ele>
        <time>2022-05-17T14:32:52.000Z</time>
      </trkpt>
      <trkpt lat="46.19415" lon="-1.35759">
        <ele>15.17801</ele>
        <time>2022-05-17T14:32:53.000Z</time>
      </trkpt>
      <trkpt lat="46.19415" lon="-1.35753">
        <ele>15.18492</ele>
        <time>2022-05-17T14:32:54.000Z</time>
      </trkpt>
      <trkpt lat="46.19415" lon="-1.35748">
        <ele>15.19984</ele>
        <time>2022-05-17T14:32:55.000Z</time>
      </trkpt>
      <trkpt lat="46.19414" lon="-1.35742">
        <ele>15.23478</ele>
        <time>2022-05-17T14:32:56.000Z</time>
      </trkpt>
      <trkpt lat="46.19414" lon="-1.35735">
        <ele>15.29693</ele>
        <time>2022-05-17T14:32:57.000Z</time>
      </trkpt>
      <trkpt lat="46.19414" lon="-1.35726">
        <ele>15.40517</ele>
        <time>2022-05-17T14:32:58.000Z</time>
      </trkpt>
      <trkpt lat="46.19414" lon="-1.35717">
        <ele>15.50887</ele>
        <time>2022-05-17T14:32:59.000Z</time>
      </trkpt>
      <trkpt lat="46.19413" lon="-1.35711">
        <ele>15.55179</ele>
        <time>2022-05-17T14:33:00.000Z</time>
      </trkpt>
      <trkpt lat="46.19413" lon="-1.35706">
        <ele>15.57907</ele>
        <time>2022-05-17T14:33:01.000Z</time>
      </trkpt>
      <trkpt lat="46.19412" lon="-1.35698">
        <ele>15.59711</ele>
        <time>2022-05-17T14:33:02.000Z</time>
      </trkpt>
      <trkpt lat="46.1941" lon="-1.35692">
        <ele>15.5939</ele>
        <time>2022-05-17T14:33:03.000Z</time>
      </trkpt>
      <trkpt lat="46.19409" lon="-1.35687">
        <ele>15.58834</ele>
        <time>2022-05-17T14:33:04.000Z</time>
      </trkpt>
      <trkpt lat="46.1941" lon="-1.35679">
        <ele>15.60907</ele>
        <time>2022-05-17T14:33:05.000Z</time>
      </trkpt>
      <trkpt lat="46.1941" lon="-1.3567">
        <ele>15.65007</ele>
        <time>2022-05-17T14:33:06.000Z</time>
      </trkpt>
      <trkpt lat="46.19409" lon="-1.35664">
        <ele>15.66908</ele>
        <time>2022-05-17T14:33:07.000Z</time>
      </trkpt>
      <trkpt lat="46.19407" lon="-1.35656">
        <ele>15.67576</ele>
        <time>2022-05-17T14:33:08.000Z</time>
      </trkpt>
      <trkpt lat="46.19404" lon="-1.3566">
        <ele>15.58156</ele>
        <time>2022-05-17T14:33:10.000Z</time>
      </trkpt>
      <trkpt lat="46.19395" lon="-1.35655">
        <ele>15.39963</ele>
        <time>2022-05-17T14:33:11.000Z</time>
      </trkpt>
      <trkpt lat="46.19398" lon="-1.35657">
        <ele>15.4284</ele>
        <time>2022-05-17T14:33:12.000Z</time>
      </trkpt>
      <trkpt lat="46.19395" lon="-1.35654">
        <ele>15.39934</ele>
        <time>2022-05-17T14:33:13.000Z</time>
      </trkpt>
      <trkpt lat="46.19393" lon="-1.35649">
        <ele>15.39653</ele>
        <time>2022-05-17T14:33:14.000Z</time>
      </trkpt>
      <trkpt lat="46.19392" lon="-1.35645">
        <ele>15.41491</ele>
        <time>2022-05-17T14:33:15.000Z</time>
      </trkpt>
      <trkpt lat="46.19395" lon="-1.35642">
        <ele>15.47962</ele>
        <time>2022-05-17T14:33:17.000Z</time>
      </trkpt>
      <trkpt lat="46.19394" lon="-1.35639">
        <ele>15.48118</ele>
        <time>2022-05-17T14:33:18.000Z</time>
      </trkpt>
      <trkpt lat="46.19393" lon="-1.35635">
        <ele>15.49043</ele>
        <time>2022-05-17T14:33:19.000Z</time>
      </trkpt>
      <trkpt lat="46.19395" lon="-1.35632">
        <ele>15.52484</ele>
        <time>2022-05-17T14:33:21.000Z</time>
      </trkpt>
      <trkpt lat="46.19398" lon="-1.35631">
        <ele>15.57835</ele>
        <time>2022-05-17T14:33:23.000Z</time>
      </trkpt>
      <trkpt lat="46.19401" lon="-1.35631">
        <ele>15.61706</ele>
        <time>2022-05-17T14:33:24.000Z</time>
      </trkpt>
      <trkpt lat="46.19404" lon="-1.35632">
        <ele>15.67435</ele>
        <time>2022-05-17T14:33:25.000Z</time>
      </trkpt>
      <trkpt lat="46.19407" lon="-1.35632">
        <ele>15.73167</ele>
        <time>2022-05-17T14:33:26.000Z</time>
      </trkpt>
      <trkpt lat="46.1941" lon="-1.35631">
        <ele>15.7749</ele>
        <time>2022-05-17T14:33:27.000Z</time>
      </trkpt>
      <trkpt lat="46.19414" lon="-1.3563">
        <ele>15.82086</ele>
        <time>2022-05-17T14:33:28.000Z</time>
      </trkpt>
      <trkpt lat="46.19418" lon="-1.3563">
        <ele>15.8513</ele>
        <time>2022-05-17T14:33:29.000Z</time>
      </trkpt>
      <trkpt lat="46.19421" lon="-1.35629">
        <ele>15.86809</ele>
        <time>2022-05-17T14:33:30.000Z</time>
      </trkpt>
      <trkpt lat="46.19425" lon="-1.35629">
        <ele>15.87946</ele>
        <time>2022-05-17T14:33:31.000Z</time>
      </trkpt>
      <trkpt lat="46.19429" lon="-1.3563">
        <ele>15.88553</ele>
        <time>2022-05-17T14:33:32.000Z</time>
      </trkpt>
      <trkpt lat="46.19434" lon="-1.3563">
        <ele>15.87743</ele>
        <time>2022-05-17T14:33:33.000Z</time>
      </trkpt>
      <trkpt lat="46.19439" lon="-1.35629">
        <ele>15.85151</ele>
        <time>2022-05-17T14:33:34.000Z</time>
      </trkpt>
      <trkpt lat="46.19445" lon="-1.35628">
        <ele>15.79402</ele>
        <time>2022-05-17T14:33:35.000Z</time>
      </trkpt>
      <trkpt lat="46.1945" lon="-1.35625">
        <ele>15.74096</ele>
        <time>2022-05-17T14:33:36.000Z</time>
      </trkpt>
      <trkpt lat="46.19456" lon="-1.35623">
        <ele>15.68037</ele>
        <time>2022-05-17T14:33:37.000Z</time>
      </trkpt>
      <trkpt lat="46.19461" lon="-1.3562">
        <ele>15.64087</ele>
        <time>2022-05-17T14:33:38.000Z</time>
      </trkpt>
      <trkpt lat="46.19466" lon="-1.35618">
        <ele>15.59416</ele>
        <time>2022-05-17T14:33:39.000Z</time>
      </trkpt>
      <trkpt lat="46.1947" lon="-1.35616">
        <ele>15.54815</ele>
        <time>2022-05-17T14:33:40.000Z</time>
      </trkpt>
      <trkpt lat="46.19475" lon="-1.35614">
        <ele>15.48706</ele>
        <time>2022-05-17T14:33:41.000Z</time>
      </trkpt>
      <trkpt lat="46.19484" lon="-1.35614">
        <ele>15.34623</ele>
        <time>2022-05-17T14:33:42.000Z</time>
      </trkpt>
      <trkpt lat="46.19488" lon="-1.35611">
        <ele>15.30005</ele>
        <time>2022-05-17T14:33:43.000Z</time>
      </trkpt>
      <trkpt lat="46.19492" lon="-1.35609">
        <ele>15.24273</ele>
        <time>2022-05-17T14:33:44.000Z</time>
      </trkpt>
      <trkpt lat="46.19496" lon="-1.35607">
        <ele>15.1703</ele>
        <time>2022-05-17T14:33:45.000Z</time>
      </trkpt>
      <trkpt lat="46.19501" lon="-1.35606">
        <ele>15.09768</ele>
        <time>2022-05-17T14:33:46.000Z</time>
      </trkpt>
      <trkpt lat="46.19506" lon="-1.35605">
        <ele>15.02915</ele>
        <time>2022-05-17T14:33:47.000Z</time>
      </trkpt>
      <trkpt lat="46.19509" lon="-1.35604">
        <ele>14.98451</ele>
        <time>2022-05-17T14:33:48.000Z</time>
      </trkpt>
      <trkpt lat="46.19514" lon="-1.35603">
        <ele>14.94297</ele>
        <time>2022-05-17T14:33:49.000Z</time>
      </trkpt>
      <trkpt lat="46.19516" lon="-1.35602">
        <ele>14.94059</ele>
        <time>2022-05-17T14:33:51.000Z</time>
      </trkpt>
      <trkpt lat="46.19523" lon="-1.356">
        <ele>14.93245</ele>
        <time>2022-05-17T14:33:52.000Z</time>
      </trkpt>
      <trkpt lat="46.1953" lon="-1.35593">
        <ele>14.96573</ele>
        <time>2022-05-17T14:33:53.000Z</time>
      </trkpt>
      <trkpt lat="46.19534" lon="-1.35595">
        <ele>14.89417</ele>
        <time>2022-05-17T14:33:54.000Z</time>
      </trkpt>
      <trkpt lat="46.19541" lon="-1.35595">
        <ele>14.7214</ele>
        <time>2022-05-17T14:33:55.000Z</time>
      </trkpt>
      <trkpt lat="46.19543" lon="-1.35594">
        <ele>14.67599</ele>
        <time>2022-05-17T14:33:56.000Z</time>
      </trkpt>
      <trkpt lat="46.1955" lon="-1.3559">
        <ele>14.42398</ele>
        <time>2022-05-17T14:33:57.000Z</time>
      </trkpt>
      <trkpt lat="46.19555" lon="-1.35589">
        <ele>14.2764</ele>
        <time>2022-05-17T14:33:58.000Z</time>
      </trkpt>
      <trkpt lat="46.1956" lon="-1.35589">
        <ele>14.15663</ele>
        <time>2022-05-17T14:33:59.000Z</time>
      </trkpt>
      <trkpt lat="46.19562" lon="-1.3559">
        <ele>14.11319</ele>
        <time>2022-05-17T14:34:00.000Z</time>
      </trkpt>
      <trkpt lat="46.19567" lon="-1.35589">
        <ele>13.99207</ele>
        <time>2022-05-17T14:34:01.000Z</time>
      </trkpt>
      <trkpt lat="46.19572" lon="-1.35587">
        <ele>13.81879</ele>
        <time>2022-05-17T14:34:02.000Z</time>
      </trkpt>
      <trkpt lat="46.19578" lon="-1.35584">
        <ele>13.58647</ele>
        <time>2022-05-17T14:34:03.000Z</time>
      </trkpt>
      <trkpt lat="46.19585" lon="-1.35583">
        <ele>13.31245</ele>
        <time>2022-05-17T14:34:04.000Z</time>
      </trkpt>
      <trkpt lat="46.1959" lon="-1.35582">
        <ele>13.16002</ele>
        <time>2022-05-17T14:34:05.000Z</time>
      </trkpt>
      <trkpt lat="46.19593" lon="-1.35579">
        <ele>13.17245</ele>
        <time>2022-05-17T14:34:06.000Z</time>
      </trkpt>
      <trkpt lat="46.19598" lon="-1.35577">
        <ele>13.20939</ele>
        <time>2022-05-17T14:34:07.000Z</time>
      </trkpt>
      <trkpt lat="46.19603" lon="-1.35574">
        <ele>13.31683</ele>
        <time>2022-05-17T14:34:08.000Z</time>
      </trkpt>
      <trkpt lat="46.19609" lon="-1.35571">
        <ele>13.38806</ele>
        <time>2022-05-17T14:34:09.000Z</time>
      </trkpt>
      <trkpt lat="46.19615" lon="-1.35568">
        <ele>13.35156</ele>
        <time>2022-05-17T14:34:10.000Z</time>
      </trkpt>
      <trkpt lat="46.19618" lon="-1.35566">
        <ele>13.29119</ele>
        <time>2022-05-17T14:34:11.000Z</time>
      </trkpt>
      <trkpt lat="46.19621" lon="-1.35564">
        <ele>13.16016</ele>
        <time>2022-05-17T14:34:12.000Z</time>
      </trkpt>
      <trkpt lat="46.19627" lon="-1.35564">
        <ele>12.86034</ele>
        <time>2022-05-17T14:34:13.000Z</time>
      </trkpt>
      <trkpt lat="46.19633" lon="-1.35563">
        <ele>12.42033</ele>
        <time>2022-05-17T14:34:14.000Z</time>
      </trkpt>
      <trkpt lat="46.19637" lon="-1.35559">
        <ele>12.28743</ele>
        <time>2022-05-17T14:34:15.000Z</time>
      </trkpt>
      <trkpt lat="46.1964" lon="-1.35556">
        <ele>12.28925</ele>
        <time>2022-05-17T14:34:16.000Z</time>
      </trkpt>
      <trkpt lat="46.19646" lon="-1.35551">
        <ele>12.43707</ele>
        <time>2022-05-17T14:34:17.000Z</time>
      </trkpt>
      <trkpt lat="46.19652" lon="-1.35548">
        <ele>12.59853</ele>
        <time>2022-05-17T14:34:18.000Z</time>
      </trkpt>
      <trkpt lat="46.19659" lon="-1.35549">
        <ele>12.60825</ele>
        <time>2022-05-17T14:34:19.000Z</time>
      </trkpt>
      <trkpt lat="46.19663" lon="-1.35547">
        <ele>12.66349</ele>
        <time>2022-05-17T14:34:20.000Z</time>
      </trkpt>
      <trkpt lat="46.19666" lon="-1.35545">
        <ele>12.72606</ele>
        <time>2022-05-17T14:34:21.000Z</time>
      </trkpt>
      <trkpt lat="46.19673" lon="-1.3554">
        <ele>12.57616</ele>
        <time>2022-05-17T14:34:22.000Z</time>
      </trkpt>
      <trkpt lat="46.19677" lon="-1.35542">
        <ele>12.3164</ele>
        <time>2022-05-17T14:34:23.000Z</time>
      </trkpt>
      <trkpt lat="46.19679" lon="-1.35542">
        <ele>12.18647</ele>
        <time>2022-05-17T14:34:24.000Z</time>
      </trkpt>
      <trkpt lat="46.19682" lon="-1.35541">
        <ele>12.0296</ele>
        <time>2022-05-17T14:34:25.000Z</time>
      </trkpt>
      <trkpt lat="46.19687" lon="-1.3554">
        <ele>11.84418</ele>
        <time>2022-05-17T14:34:26.000Z</time>
      </trkpt>
      <trkpt lat="46.19691" lon="-1.35536">
        <ele>11.77254</ele>
        <time>2022-05-17T14:34:27.000Z</time>
      </trkpt>
      <trkpt lat="46.19695" lon="-1.35531">
        <ele>11.82473</ele>
        <time>2022-05-17T14:34:28.000Z</time>
      </trkpt>
      <trkpt lat="46.19698" lon="-1.3553">
        <ele>11.88845</ele>
        <time>2022-05-17T14:34:29.000Z</time>
      </trkpt>
      <trkpt lat="46.19702" lon="-1.3553">
        <ele>11.99551</ele>
        <time>2022-05-17T14:34:30.000Z</time>
      </trkpt>
      <trkpt lat="46.19704" lon="-1.35526">
        <ele>12.08754</ele>
        <time>2022-05-17T14:34:31.000Z</time>
      </trkpt>
      <trkpt lat="46.19709" lon="-1.35522">
        <ele>12.19962</ele>
        <time>2022-05-17T14:34:32.000Z</time>
      </trkpt>
      <trkpt lat="46.1971" lon="-1.35525">
        <ele>12.20368</ele>
        <time>2022-05-17T14:34:35.000Z</time>
      </trkpt>
      <trkpt lat="46.19712" lon="-1.35524">
        <ele>12.22059</ele>
        <time>2022-05-17T14:34:37.000Z</time>
      </trkpt>
      <trkpt lat="46.19714" lon="-1.35523">
        <ele>12.22264</ele>
        <time>2022-05-17T14:34:38.000Z</time>
      </trkpt>
      <trkpt lat="46.19717" lon="-1.35521">
        <ele>12.22164</ele>
        <time>2022-05-17T14:34:39.000Z</time>
      </trkpt>
      <trkpt lat="46.19719" lon="-1.35519">
        <ele>12.22275</ele>
        <time>2022-05-17T14:34:40.000Z</time>
      </trkpt>
      <trkpt lat="46.19723" lon="-1.35517">
        <ele>12.2269</ele>
        <time>2022-05-17T14:34:41.000Z</time>
      </trkpt>
      <trkpt lat="46.19726" lon="-1.35516">
        <ele>12.22832</ele>
        <time>2022-05-17T14:34:42.000Z</time>
      </trkpt>
      <trkpt lat="46.19729" lon="-1.35515">
        <ele>12.22262</ele>
        <time>2022-05-17T14:34:43.000Z</time>
      </trkpt>
      <trkpt lat="46.19732" lon="-1.35514">
        <ele>12.19972</ele>
        <time>2022-05-17T14:34:44.000Z</time>
      </trkpt>
      <trkpt lat="46.19736" lon="-1.35513">
        <ele>12.14056</ele>
        <time>2022-05-17T14:34:45.000Z</time>
      </trkpt>
      <trkpt lat="46.19739" lon="-1.35513">
        <ele>12.02671</ele>
        <time>2022-05-17T14:34:46.000Z</time>
      </trkpt>
      <trkpt lat="46.19742" lon="-1.35512">
        <ele>11.90588</ele>
        <time>2022-05-17T14:34:47.000Z</time>
      </trkpt>
      <trkpt lat="46.19744" lon="-1.35511">
        <ele>11.75485</ele>
        <time>2022-05-17T14:34:48.000Z</time>
      </trkpt>
      <trkpt lat="46.19747" lon="-1.3551">
        <ele>11.599</ele>
        <time>2022-05-17T14:34:49.000Z</time>
      </trkpt>
      <trkpt lat="46.1975" lon="-1.35508">
        <ele>11.44049</ele>
        <time>2022-05-17T14:34:50.000Z</time>
      </trkpt>
      <trkpt lat="46.19753" lon="-1.35507">
        <ele>11.28544</ele>
        <time>2022-05-17T14:34:51.000Z</time>
      </trkpt>
      <trkpt lat="46.19757" lon="-1.35507">
        <ele>11.17615</ele>
        <time>2022-05-17T14:34:52.000Z</time>
      </trkpt>
      <trkpt lat="46.1976" lon="-1.35506">
        <ele>11.15431</ele>
        <time>2022-05-17T14:34:53.000Z</time>
      </trkpt>
      <trkpt lat="46.19764" lon="-1.35504">
        <ele>11.21357</ele>
        <time>2022-05-17T14:34:54.000Z</time>
      </trkpt>
      <trkpt lat="46.19767" lon="-1.35503">
        <ele>11.3196</ele>
        <time>2022-05-17T14:34:55.000Z</time>
      </trkpt>
      <trkpt lat="46.1977" lon="-1.35501">
        <ele>11.48453</ele>
        <time>2022-05-17T14:34:56.000Z</time>
      </trkpt>
      <trkpt lat="46.19774" lon="-1.35499">
        <ele>11.65193</ele>
        <time>2022-05-17T14:34:57.000Z</time>
      </trkpt>
      <trkpt lat="46.19792" lon="-1.35491">
        <ele>12.32518</ele>
        <time>2022-05-17T14:35:02.000Z</time>
      </trkpt>
      <trkpt lat="46.19795" lon="-1.35492">
        <ele>12.38433</ele>
        <time>2022-05-17T14:35:03.000Z</time>
      </trkpt>
      <trkpt lat="46.19797" lon="-1.35492">
        <ele>12.41043</ele>
        <time>2022-05-17T14:35:04.000Z</time>
      </trkpt>
      <trkpt lat="46.19799" lon="-1.35493">
        <ele>12.41549</ele>
        <time>2022-05-17T14:35:05.000Z</time>
      </trkpt>
      <trkpt lat="46.19802" lon="-1.35494">
        <ele>12.40998</ele>
        <time>2022-05-17T14:35:06.000Z</time>
      </trkpt>
      <trkpt lat="46.19804" lon="-1.35494">
        <ele>12.38179</ele>
        <time>2022-05-17T14:35:07.000Z</time>
      </trkpt>
      <trkpt lat="46.19806" lon="-1.35495">
        <ele>12.34118</ele>
        <time>2022-05-17T14:35:08.000Z</time>
      </trkpt>
      <trkpt lat="46.1981" lon="-1.35495">
        <ele>12.26169</ele>
        <time>2022-05-17T14:35:10.000Z</time>
      </trkpt>
      <trkpt lat="46.19813" lon="-1.35494">
        <ele>12.16749</ele>
        <time>2022-05-17T14:35:12.000Z</time>
      </trkpt>
      <trkpt lat="46.19815" lon="-1.35491">
        <ele>12.07756</ele>
        <time>2022-05-17T14:35:13.000Z</time>
      </trkpt>
      <trkpt lat="46.19817" lon="-1.35489">
        <ele>11.94851</ele>
        <time>2022-05-17T14:35:14.000Z</time>
      </trkpt>
      <trkpt lat="46.1982" lon="-1.35485">
        <ele>11.79891</ele>
        <time>2022-05-17T14:35:15.000Z</time>
      </trkpt>
      <trkpt lat="46.19821" lon="-1.35482">
        <ele>11.68329</ele>
        <time>2022-05-17T14:35:16.000Z</time>
      </trkpt>
      <trkpt lat="46.19822" lon="-1.35479">
        <ele>11.6524</ele>
        <time>2022-05-17T14:35:17.000Z</time>
      </trkpt>
      <trkpt lat="46.19822" lon="-1.35475">
        <ele>11.66984</ele>
        <time>2022-05-17T14:35:18.000Z</time>
      </trkpt>
      <trkpt lat="46.19822" lon="-1.35471">
        <ele>11.7251</ele>
        <time>2022-05-17T14:35:19.000Z</time>
      </trkpt>
      <trkpt lat="46.1982" lon="-1.35467">
        <ele>11.81342</ele>
        <time>2022-05-17T14:35:20.000Z</time>
      </trkpt>
      <trkpt lat="46.19819" lon="-1.35463">
        <ele>11.88464</ele>
        <time>2022-05-17T14:35:21.000Z</time>
      </trkpt>
      <trkpt lat="46.19819" lon="-1.35458">
        <ele>11.89912</ele>
        <time>2022-05-17T14:35:22.000Z</time>
      </trkpt>
      <trkpt lat="46.19819" lon="-1.35455">
        <ele>11.91833</ele>
        <time>2022-05-17T14:35:23.000Z</time>
      </trkpt>
      <trkpt lat="46.19816" lon="-1.35452">
        <ele>11.97429</ele>
        <time>2022-05-17T14:35:25.000Z</time>
      </trkpt>
      <trkpt lat="46.19815" lon="-1.3545">
        <ele>12.00882</ele>
        <time>2022-05-17T14:35:26.000Z</time>
      </trkpt>
      <trkpt lat="46.19813" lon="-1.35448">
        <ele>12.03318</ele>
        <time>2022-05-17T14:35:27.000Z</time>
      </trkpt>
      <trkpt lat="46.19811" lon="-1.35446">
        <ele>12.024</ele>
        <time>2022-05-17T14:35:28.000Z</time>
      </trkpt>
      <trkpt lat="46.1981" lon="-1.35443">
        <ele>11.99738</ele>
        <time>2022-05-17T14:35:29.000Z</time>
      </trkpt>
      <trkpt lat="46.19808" lon="-1.3544">
        <ele>11.97039</ele>
        <time>2022-05-17T14:35:30.000Z</time>
      </trkpt>
      <trkpt lat="46.19805" lon="-1.35436">
        <ele>11.93599</ele>
        <time>2022-05-17T14:35:31.000Z</time>
      </trkpt>
      <trkpt lat="46.19802" lon="-1.35432">
        <ele>11.94779</ele>
        <time>2022-05-17T14:35:32.000Z</time>
      </trkpt>
      <trkpt lat="46.198" lon="-1.35428">
        <ele>12.00106</ele>
        <time>2022-05-17T14:35:33.000Z</time>
      </trkpt>
      <trkpt lat="46.19797" lon="-1.35424">
        <ele>12.13485</ele>
        <time>2022-05-17T14:35:34.000Z</time>
      </trkpt>
      <trkpt lat="46.19794" lon="-1.3542">
        <ele>12.30941</ele>
        <time>2022-05-17T14:35:35.000Z</time>
      </trkpt>
      <trkpt lat="46.19791" lon="-1.35417">
        <ele>12.4224</ele>
        <time>2022-05-17T14:35:36.000Z</time>
      </trkpt>
      <trkpt lat="46.1979" lon="-1.35414">
        <ele>12.45866</ele>
        <time>2022-05-17T14:35:37.000Z</time>
      </trkpt>
      <trkpt lat="46.19788" lon="-1.35412">
        <ele>12.46662</ele>
        <time>2022-05-17T14:35:38.000Z</time>
      </trkpt>
      <trkpt lat="46.19786" lon="-1.35409">
        <ele>12.39696</ele>
        <time>2022-05-17T14:35:39.000Z</time>
      </trkpt>
      <trkpt lat="46.19785" lon="-1.35405">
        <ele>12.236</ele>
        <time>2022-05-17T14:35:40.000Z</time>
      </trkpt>
      <trkpt lat="46.19784" lon="-1.354">
        <ele>11.99766</ele>
        <time>2022-05-17T14:35:41.000Z</time>
      </trkpt>
      <trkpt lat="46.19783" lon="-1.35395">
        <ele>11.79317</ele>
        <time>2022-05-17T14:35:42.000Z</time>
      </trkpt>
      <trkpt lat="46.19782" lon="-1.35391">
        <ele>11.6603</ele>
        <time>2022-05-17T14:35:43.000Z</time>
      </trkpt>
      <trkpt lat="46.1978" lon="-1.35388">
        <ele>11.61163</ele>
        <time>2022-05-17T14:35:44.000Z</time>
      </trkpt>
      <trkpt lat="46.19778" lon="-1.35385">
        <ele>11.61575</ele>
        <time>2022-05-17T14:35:45.000Z</time>
      </trkpt>
      <trkpt lat="46.19776" lon="-1.3538">
        <ele>11.6855</ele>
        <time>2022-05-17T14:35:46.000Z</time>
      </trkpt>
      <trkpt lat="46.19774" lon="-1.35376">
        <ele>11.77875</ele>
        <time>2022-05-17T14:35:47.000Z</time>
      </trkpt>
      <trkpt lat="46.19773" lon="-1.35373">
        <ele>11.85327</ele>
        <time>2022-05-17T14:35:48.000Z</time>
      </trkpt>
      <trkpt lat="46.19771" lon="-1.35369">
        <ele>11.93152</ele>
        <time>2022-05-17T14:35:49.000Z</time>
      </trkpt>
      <trkpt lat="46.19769" lon="-1.35365">
        <ele>11.99999</ele>
        <time>2022-05-17T14:35:50.000Z</time>
      </trkpt>
      <trkpt lat="46.19767" lon="-1.35359">
        <ele>12.03202</ele>
        <time>2022-05-17T14:35:51.000Z</time>
      </trkpt>
      <trkpt lat="46.19765" lon="-1.35354">
        <ele>12.0159</ele>
        <time>2022-05-17T14:35:52.000Z</time>
      </trkpt>
      <trkpt lat="46.19763" lon="-1.3535">
        <ele>11.97435</ele>
        <time>2022-05-17T14:35:53.000Z</time>
      </trkpt>
      <trkpt lat="46.19761" lon="-1.35347">
        <ele>11.92508</ele>
        <time>2022-05-17T14:35:54.000Z</time>
      </trkpt>
      <trkpt lat="46.1976" lon="-1.35342">
        <ele>11.87223</ele>
        <time>2022-05-17T14:35:55.000Z</time>
      </trkpt>
      <trkpt lat="46.19758" lon="-1.35339">
        <ele>11.83655</ele>
        <time>2022-05-17T14:35:56.000Z</time>
      </trkpt>
      <trkpt lat="46.19756" lon="-1.35336">
        <ele>11.82726</ele>
        <time>2022-05-17T14:35:57.000Z</time>
      </trkpt>
      <trkpt lat="46.19755" lon="-1.35332">
        <ele>11.84377</ele>
        <time>2022-05-17T14:35:58.000Z</time>
      </trkpt>
      <trkpt lat="46.19753" lon="-1.35327">
        <ele>11.90625</ele>
        <time>2022-05-17T14:35:59.000Z</time>
      </trkpt>
      <trkpt lat="46.19751" lon="-1.35323">
        <ele>11.97547</ele>
        <time>2022-05-17T14:36:00.000Z</time>
      </trkpt>
      <trkpt lat="46.19749" lon="-1.3532">
        <ele>12.0343</ele>
        <time>2022-05-17T14:36:01.000Z</time>
      </trkpt>
      <trkpt lat="46.19747" lon="-1.35317">
        <ele>12.08739</ele>
        <time>2022-05-17T14:36:02.000Z</time>
      </trkpt>
      <trkpt lat="46.19745" lon="-1.35314">
        <ele>12.11198</ele>
        <time>2022-05-17T14:36:03.000Z</time>
      </trkpt>
      <trkpt lat="46.19743" lon="-1.3531">
        <ele>12.09291</ele>
        <time>2022-05-17T14:36:04.000Z</time>
      </trkpt>
      <trkpt lat="46.19741" lon="-1.35307">
        <ele>12.03217</ele>
        <time>2022-05-17T14:36:05.000Z</time>
      </trkpt>
      <trkpt lat="46.1974" lon="-1.35304">
        <ele>11.96998</ele>
        <time>2022-05-17T14:36:06.000Z</time>
      </trkpt>
      <trkpt lat="46.1974" lon="-1.35299">
        <ele>11.87281</ele>
        <time>2022-05-17T14:36:08.000Z</time>
      </trkpt>
      <trkpt lat="46.19742" lon="-1.35297">
        <ele>11.82183</ele>
        <time>2022-05-17T14:36:09.000Z</time>
      </trkpt>
      <trkpt lat="46.19744" lon="-1.35295">
        <ele>11.75456</ele>
        <time>2022-05-17T14:36:10.000Z</time>
      </trkpt>
      <trkpt lat="46.19747" lon="-1.35294">
        <ele>11.68504</ele>
        <time>2022-05-17T14:36:11.000Z</time>
      </trkpt>
      <trkpt lat="46.19749" lon="-1.35293">
        <ele>11.61016</ele>
        <time>2022-05-17T14:36:12.000Z</time>
      </trkpt>
      <trkpt lat="46.19751" lon="-1.35292">
        <ele>11.55487</ele>
        <time>2022-05-17T14:36:13.000Z</time>
      </trkpt>
      <trkpt lat="46.19753" lon="-1.35291">
        <ele>11.47883</ele>
        <time>2022-05-17T14:36:14.000Z</time>
      </trkpt>
      <trkpt lat="46.19755" lon="-1.3529">
        <ele>11.41469</ele>
        <time>2022-05-17T14:36:15.000Z</time>
      </trkpt>
      <trkpt lat="46.19758" lon="-1.35292">
        <ele>11.38213</ele>
        <time>2022-05-17T14:36:17.000Z</time>
      </trkpt>
      <trkpt lat="46.19762" lon="-1.35293">
        <ele>11.32198</ele>
        <time>2022-05-17T14:36:18.000Z</time>
      </trkpt>
      <trkpt lat="46.19766" lon="-1.35293">
        <ele>11.26722</ele>
        <time>2022-05-17T14:36:19.000Z</time>
      </trkpt>
      <trkpt lat="46.19769" lon="-1.35293">
        <ele>11.2343</ele>
        <time>2022-05-17T14:36:20.000Z</time>
      </trkpt>
      <trkpt lat="46.19772" lon="-1.35291">
        <ele>11.21814</ele>
        <time>2022-05-17T14:36:21.000Z</time>
      </trkpt>
      <trkpt lat="46.19774" lon="-1.35289">
        <ele>11.21156</ele>
        <time>2022-05-17T14:36:22.000Z</time>
      </trkpt>
      <trkpt lat="46.19777" lon="-1.35286">
        <ele>11.21436</ele>
        <time>2022-05-17T14:36:24.000Z</time>
      </trkpt>
      <trkpt lat="46.19779" lon="-1.35284">
        <ele>11.21981</ele>
        <time>2022-05-17T14:36:32.000Z</time>
      </trkpt>
    </trkseg>
  </trk>
</gpx>